
Distance (Route):
Temperature : 18.6°C
Humidity : 66.1%
Pressure : 0hPa| Receiver | Frames | First received | Last received |
|---|---|---|---|
| 9A1FER-10 | 446 | 2026-08-30 11:17:59 | 2026-08-30 13:12:13 |
| 9A1FER-3 | 440 | 2026-08-30 11:18:05 | 2026-08-30 13:12:28 |
| PETON7-10 | 229 | 2026-08-30 11:52:32 | 2026-08-30 12:58:16 |
| OE5DRO-10 | 137 | 2026-08-30 11:56:59 | 2026-08-30 12:55:50 |
| PG1ADW-2 | 88 | 2026-08-30 12:13:42 | 2026-08-30 12:53:23 |
| OE5DXL-15 | 78 | 2026-08-30 12:07:28 | 2026-08-30 12:54:35 |
| OE8JPQ-2 | 54 | 2026-08-30 12:14:00 | 2026-08-30 12:50:37 |
| OE3JTB-15 | 52 | 2026-08-30 11:46:54 | 2026-08-30 13:01:29 |
| OM5KV | 33 | 2026-08-30 12:03:33 | 2026-08-30 12:07:15 |
| DO3MHA-11 | 3 | 2026-08-30 12:51:08 | 2026-08-30 12:51:28 |
| LZ4TU-5 | 2 | 2026-08-30 12:45:53 | 2026-08-30 12:45:57 |
| DO3MHA-12 | 1 | 2026-08-30 12:51:09 | 2026-08-30 12:51:09 |
| Receiver | Date | Latitude | Longitude | Direction | Speed | Altitude | Climb | Temperature | Humidity | Pressure | Voltage | Killtimer | Uptime | BKT | XDATA |
|---|---|---|---|---|---|---|---|---|---|---|---|---|---|---|---|
| 9A1FER-3 | 2026-08-30 13:12:28 | 45.83814 | 16.74464 | 297° | 2km/h | 1280m | -11.1m/s | 18.6°C | 66.1% | 0hPa | 2.7V | 00:00:00 | 02:08:19 | 00:00:00 | |
| 9A1FER-3 | 2026-08-30 13:12:23 | 45.83814 | 16.74468 | 268° | 4km/h | 1332m | -11.8m/s | 18.1°C | 68.0% | 0hPa | 2.7V | 08:03:00 | 02:08:14 | 00:00:00 | |
| 9A1FER-3 | 2026-08-30 13:12:15 | 45.83811 | 16.74483 | 316° | 7km/h | 1416m | -9.4m/s | 17.2°C | 70.7% | 0hPa | 2.6V | 00:00:00 | 02:08:06 | 00:00:00 | |
| 9A1FER-10 | 2026-08-30 13:12:13 | 45.83809 | 16.74487 | 289° | 7km/h | 1437m | -9.7m/s | 17.0°C | 72.0% | 0hPa | 2.6V | 00:00:00 | 02:08:04 | 00:00:00 | |
| 9A1FER-3 | 2026-08-30 13:12:10 | 45.83807 | 16.74495 | 295° | 7km/h | 1467m | -10.2m/s | 16.7°C | 73.1% | 0hPa | 2.7V | 00:00:00 | 02:08:01 | 00:00:00 | |
| 9A1FER-10 | 2026-08-30 13:12:08 | 45.83806 | 16.74500 | 273° | 5km/h | 1491m | -13.0m/s | 16.5°C | 73.9% | 0hPa | 2.7V | 00:00:00 | 02:07:59 | 00:00:00 | |
| 9A1FER-10 | 2026-08-30 13:12:03 | 45.83803 | 16.74505 | 355° | 5km/h | 1550m | -11.6m/s | 15.9°C | 76.4% | 0hPa | 2.7V | 00:00:00 | 02:07:54 | 00:00:00 | |
| 9A1FER-3 | 2026-08-30 13:12:00 | 45.83801 | 16.74509 | 319° | 5km/h | 1582m | -11.9m/s | 15.6°C | 77.4% | 0hPa | 2.7V | 00:00:00 | 02:07:51 | 00:00:00 | |
| 9A1FER-10 | 2026-08-30 13:11:58 | 45.83799 | 16.74512 | 302° | 5km/h | 1601m | -8.3m/s | 15.4°C | 78.6% | 0hPa | 2.7V | 00:00:00 | 02:07:49 | 00:00:00 | |
| 9A1FER-3 | 2026-08-30 13:11:55 | 45.83796 | 16.74516 | 306° | 5km/h | 1629m | -10.2m/s | 15.2°C | 79.7% | 0hPa | 2.7V | 00:00:00 | 02:07:46 | 00:00:00 | |
| 9A1FER-10 | 2026-08-30 13:11:53 | 45.83795 | 16.74518 | 309° | 5km/h | 1650m | -11.6m/s | 15.0°C | 80.7% | 0hPa | 2.7V | 00:00:00 | 02:07:44 | 00:00:00 | |
| 9A1FER-3 | 2026-08-30 13:11:50 | 45.83790 | 16.74520 | 354° | 5km/h | 1680m | -10.8m/s | 14.7°C | 82.9% | 0hPa | 2.7V | 00:00:00 | 02:07:41 | 00:00:00 | |
| 9A1FER-3 | 2026-08-30 13:11:45 | 45.83784 | 16.74523 | 358° | 7km/h | 1732m | -9.6m/s | 14.2°C | 84.9% | 0hPa | 2.6V | 00:00:00 | 02:07:36 | 00:00:00 | |
| 9A1FER-10 | 2026-08-30 13:11:43 | 45.83780 | 16.74525 | 354° | 7km/h | 1751m | -8.9m/s | 14.0°C | 86.0% | 0hPa | 2.6V | 08:04:00 | 02:07:34 | 00:00:00 | |
| 9A1FER-3 | 2026-08-30 13:11:40 | 45.83776 | 16.74527 | 347° | 7km/h | 1779m | -9.3m/s | 13.7°C | 87.2% | 0hPa | 2.6V | 00:00:00 | 02:07:31 | 00:00:00 | |
| 9A1FER-10 | 2026-08-30 13:11:38 | 45.83773 | 16.74527 | 359° | 7km/h | 1800m | -11.4m/s | 13.5°C | 88.1% | 0hPa | 2.6V | 00:00:00 | 02:07:29 | 00:00:00 | |
| 9A1FER-3 | 2026-08-30 13:11:35 | 45.83768 | 16.74529 | 359° | 7km/h | 1834m | -11.9m/s | 13.2°C | 89.8% | 0hPa | 2.6V | 08:04:00 | 02:07:26 | 00:00:00 | |
| 9A1FER-10 | 2026-08-30 13:11:33 | 45.83764 | 16.74530 | 330° | 5km/h | 1856m | -9.1m/s | 13.1°C | 89.5% | 0hPa | 2.7V | 00:00:00 | 02:07:24 | 00:00:00 | |
| 9A1FER-3 | 2026-08-30 13:11:30 | 45.83761 | 16.74533 | 317° | 4km/h | 1887m | -10.9m/s | 12.7°C | 91.9% | 0hPa | 2.7V | 00:00:00 | 02:07:21 | 00:00:00 | |
| 9A1FER-10 | 2026-08-30 13:11:28 | 45.83759 | 16.74534 | 343° | 5km/h | 1911m | -11.9m/s | 12.6°C | 92.1% | 0hPa | 2.7V | 00:00:00 | 02:07:19 | 00:00:00 | |
| 9A1FER-3 | 2026-08-30 13:11:25 | 45.83755 | 16.74534 | 24° | 7km/h | 1945m | -11.0m/s | 12.6°C | 81.8% | 0hPa | 2.7V | 00:00:00 | 02:07:16 | 00:00:00 | |
| 9A1FER-10 | 2026-08-30 13:11:23 | 45.83753 | 16.74532 | 27° | 7km/h | 1966m | -10.2m/s | 12.3°C | 83.9% | 0hPa | 2.7V | 00:00:00 | 02:07:14 | 00:00:00 | |
| 9A1FER-3 | 2026-08-30 13:11:20 | 45.83748 | 16.74528 | 35° | 11km/h | 1995m | -10.5m/s | 12.1°C | 84.3% | 0hPa | 2.7V | 00:00:00 | 02:07:11 | 00:00:00 | |
| 9A1FER-10 | 2026-08-30 13:11:18 | 45.83744 | 16.74525 | 37° | 13km/h | 2015m | -10.3m/s | 11.9°C | 85.8% | 0hPa | 2.7V | 00:00:00 | 02:07:09 | 00:00:00 | |
| 9A1FER-3 | 2026-08-30 13:11:11 | 45.83730 | 16.74504 | 49° | 15km/h | 2090m | -9.0m/s | 11.5°C | 81.3% | 0hPa | 2.7V | 00:00:00 | 02:07:02 | 00:00:00 | |
| 9A1FER-10 | 2026-08-30 13:11:08 | 45.83724 | 16.74492 | 54° | 15km/h | 2123m | -12.9m/s | 11.6°C | 68.1% | 0hPa | 2.7V | 00:00:00 | 02:06:59 | 00:00:00 | |
| 9A1FER-3 | 2026-08-30 13:11:01 | 45.83710 | 16.74462 | 60° | 15km/h | 2204m | -11.5m/s | 11.8°C | 41.5% | 0hPa | 2.7V | 00:00:00 | 02:06:52 | 00:00:00 | |
| 9A1FER-10 | 2026-08-30 13:10:58 | 45.83704 | 16.74446 | 67° | 15km/h | 2239m | -10.7m/s | 11.6°C | 37.6% | 0hPa | 2.7V | 00:00:00 | 02:06:49 | 00:00:00 | |
| 9A1FER-3 | 2026-08-30 13:10:51 | 45.83694 | 16.74414 | 64° | 13km/h | 2324m | -10.7m/s | 11.1°C | 34.2% | 0hPa | 2.7V | 00:00:00 | 02:06:42 | 00:00:00 | |
| 9A1FER-10 | 2026-08-30 13:10:48 | 45.83689 | 16.74401 | 55° | 13km/h | 2357m | -12.0m/s | 11.0°C | 32.5% | 0hPa | 2.7V | 00:00:00 | 02:06:39 | 00:00:00 | |
| 9A1FER-3 | 2026-08-30 13:10:41 | 45.83676 | 16.74373 | 52° | 15km/h | 2438m | -12.0m/s | 10.9°C | 24.6% | 0hPa | 2.7V | 00:00:00 | 02:06:32 | 00:00:00 | |
| 9A1FER-10 | 2026-08-30 13:10:38 | 45.83669 | 16.74362 | 43° | 16km/h | 2468m | -10.5m/s | 10.7°C | 24.1% | 0hPa | 2.7V | 08:05:00 | 02:06:29 | 00:00:00 | |
| 9A1FER-3 | 2026-08-30 13:10:31 | 45.83647 | 16.74335 | 30° | 16km/h | 2546m | -10.8m/s | 10.5°C | 21.0% | 0hPa | 2.6V | 00:00:00 | 02:06:22 | 00:00:00 | |
| 9A1FER-10 | 2026-08-30 13:10:28 | 45.83637 | 16.74327 | 31° | 16km/h | 2578m | -11.0m/s | 10.6°C | 41.9% | 0hPa | 2.6V | 00:00:00 | 02:06:19 | 00:00:00 | |
| 9A1FER-3 | 2026-08-30 13:10:21 | 45.83610 | 16.74311 | 22° | 18km/h | 2640m | -10.4m/s | 10.1°C | 48.1% | 0hPa | 2.6V | 08:05:00 | 02:06:12 | 00:00:00 | |
| 9A1FER-10 | 2026-08-30 13:10:18 | 45.83597 | 16.74306 | 20° | 18km/h | 2672m | -11.5m/s | 9.9°C | 50.4% | 0hPa | 2.6V | 00:00:00 | 02:06:09 | 00:00:00 | |
| 9A1FER-3 | 2026-08-30 13:10:11 | 45.83567 | 16.74294 | 16° | 16km/h | 2754m | -12.6m/s | 9.1°C | 52.8% | 0hPa | 2.6V | 00:00:00 | 02:06:02 | 00:00:00 | |
| 9A1FER-10 | 2026-08-30 13:10:08 | 45.83555 | 16.74290 | 12° | 15km/h | 2790m | -10.9m/s | 8.7°C | 57.3% | 0hPa | 2.6V | 00:00:00 | 02:05:59 | 00:00:00 | |
| 9A1FER-3 | 2026-08-30 13:10:01 | 45.83528 | 16.74279 | 15° | 13km/h | 2876m | -12.7m/s | 8.0°C | 57.9% | 0hPa | 2.7V | 00:00:00 | 02:05:52 | 00:00:00 | |
| 9A1FER-10 | 2026-08-30 13:09:58 | 45.83519 | 16.74276 | 19° | 11km/h | 2914m | -11.8m/s | 7.8°C | 46.6% | 0hPa | 2.7V | 00:00:00 | 02:05:49 | 00:00:00 | |
| 9A1FER-3 | 2026-08-30 13:09:51 | 45.83499 | 16.74270 | 6° | 7km/h | 2993m | -13.1m/s | 7.4°C | 52.5% | 0hPa | 2.7V | 00:00:00 | 02:05:42 | 00:00:00 | |
| 9A1FER-10 | 2026-08-30 13:09:48 | 45.83494 | 16.74271 | 331° | 5km/h | 3031m | -12.7m/s | 7.6°C | 29.1% | 0hPa | 2.7V | 00:00:00 | 02:05:39 | 00:00:00 | |
| 9A1FER-3 | 2026-08-30 13:09:37 | 45.83480 | 16.74280 | 2° | 5km/h | 3162m | -13.0m/s | 6.5°C | 23.3% | 0hPa | 2.7V | 00:00:00 | 02:05:28 | 00:00:00 | |
| 9A1FER-10 | 2026-08-30 13:09:33 | 45.83475 | 16.74282 | 359° | 5km/h | 3211m | -13.4m/s | 6.0°C | 32.4% | 0hPa | 2.7V | 00:00:00 | 02:05:24 | 00:00:00 | |
| 9A1FER-3 | 2026-08-30 13:09:22 | 45.83465 | 16.74274 | 66° | 11km/h | 3342m | -12.2m/s | 5.5°C | 9.0% | 0hPa | 2.6V | 00:00:00 | 02:05:13 | 00:00:00 | |
| 9A1FER-10 | 2026-08-30 13:09:18 | 45.83462 | 16.74262 | 74° | 15km/h | 3388m | -11.5m/s | 5.1°C | 8.1% | 0hPa | 2.6V | 00:00:00 | 02:05:09 | 00:00:00 | |
| 9A1FER-3 | 2026-08-30 13:09:07 | 45.83450 | 16.74211 | 70° | 16km/h | 3513m | -10.8m/s | 4.4°C | 16.9% | 0hPa | 2.6V | 00:00:00 | 02:04:58 | 00:00:00 | |
| 9A1FER-10 | 2026-08-30 13:09:03 | 45.83442 | 16.74186 | 62° | 15km/h | 3560m | -11.9m/s | 4.5°C | 9.3% | 0hPa | 2.7V | 00:00:00 | 02:04:54 | 00:00:00 | |
| 9A1FER-3 | 2026-08-30 13:08:52 | 45.83425 | 16.74130 | 72° | 15km/h | 3692m | -12.8m/s | 3.7°C | 12.2% | 0hPa | 2.7V | 00:00:00 | 02:04:43 | 00:00:00 | |
| 9A1FER-10 | 2026-08-30 13:08:48 | 45.83422 | 16.74110 | 90° | 16km/h | 3739m | -10.9m/s | 3.5°C | 6.6% | 0hPa | 2.7V | 08:07:00 | 02:04:39 | 00:00:00 | |
| 9A1FER-3 | 2026-08-30 13:08:37 | 45.83426 | 16.74052 | 104° | 24km/h | 3867m | -12.5m/s | 2.9°C | 21.2% | 0hPa | 2.7V | 00:00:00 | 02:04:28 | 00:00:00 | |
| 9A1FER-10 | 2026-08-30 13:08:33 | 45.83431 | 16.74021 | 101° | 26km/h | 3917m | -13.1m/s | 2.7°C | 21.0% | 0hPa | 2.7V | 00:00:00 | 02:04:24 | 00:00:00 | |
| 9A1FER-3 | 2026-08-30 13:08:22 | 45.83444 | 16.73921 | 101° | 26km/h | 4048m | -12.0m/s | 2.4°C | 10.9% | 0hPa | 2.7V | 08:07:00 | 02:04:13 | 00:00:00 | |
| 9A1FER-10 | 2026-08-30 13:08:18 | 45.83447 | 16.73884 | 94° | 26km/h | 4099m | -11.6m/s | 2.2°C | 33.2% | 0hPa | 2.5V | 00:00:00 | 02:04:09 | 00:00:00 | |
| 9A1FER-3 | 2026-08-30 13:08:07 | 45.83447 | 16.73780 | 88° | 27km/h | 4237m | -12.5m/s | 1.0°C | 54.0% | 0hPa | 2.5V | 00:00:00 | 02:03:58 | 00:00:00 | |
| 9A1FER-10 | 2026-08-30 13:08:03 | 45.83445 | 16.73742 | 87° | 29km/h | 4288m | -12.7m/s | 0.6°C | 63.1% | 0hPa | 2.5V | 00:00:00 | 02:03:54 | 00:00:00 | |
| 9A1FER-3 | 2026-08-30 13:07:52 | 45.83439 | 16.73628 | 87° | 31km/h | 4431m | -11.6m/s | -0.3°C | 63.2% | 0hPa | 2.5V | 00:00:00 | 02:03:43 | 00:00:00 | |
| 9A1FER-10 | 2026-08-30 13:07:48 | 45.83435 | 16.73584 | 84° | 33km/h | 4480m | -11.6m/s | -0.7°C | 64.9% | 0hPa | 2.5V | 00:00:00 | 02:03:39 | 00:00:00 | |
| 9A1FER-3 | 2026-08-30 13:07:37 | 45.83421 | 16.73458 | 80° | 33km/h | 4609m | -12.3m/s | -1.7°C | 66.7% | 0hPa | 2.5V | 00:00:00 | 02:03:28 | 00:00:00 | |
| 9A1FER-10 | 2026-08-30 13:07:33 | 45.83415 | 16.73410 | 79° | 33km/h | 4659m | -12.4m/s | -2.1°C | 67.3% | 0hPa | 2.5V | 00:00:00 | 02:03:24 | 00:00:00 | |
| 9A1FER-3 | 2026-08-30 13:07:22 | 45.83397 | 16.73282 | 79° | 31km/h | 4786m | -12.6m/s | -3.2°C | 70.4% | 0hPa | 2.5V | 00:00:00 | 02:03:13 | 00:00:00 | |
| 9A1FER-10 | 2026-08-30 13:07:18 | 45.83391 | 16.73235 | 81° | 31km/h | 4835m | -11.6m/s | -3.7°C | 73.3% | 0hPa | 2.5V | 00:00:00 | 02:03:09 | 00:00:00 | |
| 9A1FER-3 | 2026-08-30 13:07:07 | 45.83380 | 16.73112 | 86° | 33km/h | 4965m | -12.5m/s | -4.5°C | 73.3% | 0hPa | 2.6V | 00:00:00 | 02:02:58 | 00:00:00 | |
| 9A1FER-10 | 2026-08-30 13:07:03 | 45.83376 | 16.73067 | 84° | 33km/h | 5013m | -11.2m/s | -4.8°C | 72.3% | 0hPa | 2.6V | 00:00:00 | 02:02:54 | 00:00:00 | |
| 9A1FER-3 | 2026-08-30 13:06:52 | 45.83365 | 16.72937 | 83° | 38km/h | 5153m | -13.2m/s | -5.7°C | 73.6% | 0hPa | 2.6V | 00:00:00 | 02:02:43 | 00:00:00 | |
| 9A1FER-10 | 2026-08-30 13:06:48 | 45.83361 | 16.72886 | 84° | 38km/h | 5202m | -12.2m/s | -5.9°C | 58.9% | 0hPa | 2.6V | 00:00:00 | 02:02:39 | 00:00:00 | |
| 9A1FER-3 | 2026-08-30 13:06:37 | 45.83356 | 16.72732 | 92° | 40km/h | 5336m | -11.8m/s | -6.1°C | 24.8% | 0hPa | 2.6V | 00:00:00 | 02:02:28 | 00:00:00 | |
| 9A1FER-10 | 2026-08-30 13:06:33 | 45.83355 | 16.72673 | 92° | 40km/h | 5382m | -12.0m/s | -6.4°C | 53.4% | 0hPa | 2.6V | 08:09:00 | 02:02:24 | 00:00:00 | |
| 9A1FER-3 | 2026-08-30 13:06:22 | 45.83352 | 16.72510 | 87° | 42km/h | 5513m | -12.9m/s | -7.5°C | 54.3% | 0hPa | 2.6V | 00:00:00 | 02:02:13 | 00:00:00 | |
| 9A1FER-10 | 2026-08-30 13:06:18 | 45.83349 | 16.72450 | 85° | 42km/h | 5564m | -12.8m/s | -7.9°C | 59.9% | 0hPa | 2.6V | 00:00:00 | 02:02:09 | 00:00:00 | |
| 9A1FER-3 | 2026-08-30 13:06:07 | 45.83342 | 16.72285 | 89° | 40km/h | 5699m | -12.0m/s | -8.6°C | 36.0% | 0hPa | 2.6V | 08:10:00 | 02:01:58 | 00:00:00 | |
| 9A1FER-10 | 2026-08-30 13:06:03 | 45.83342 | 16.72226 | 89° | 40km/h | 5749m | -12.5m/s | -9.1°C | 37.2% | 0hPa | 2.5V | 00:00:00 | 02:01:54 | 00:00:00 | |
| 9A1FER-3 | 2026-08-30 13:05:52 | 45.83343 | 16.72065 | 93° | 38km/h | 5885m | -13.3m/s | -10.3°C | 31.6% | 0hPa | 2.5V | 00:00:00 | 02:01:43 | 00:00:00 | |
| 9A1FER-10 | 2026-08-30 13:05:48 | 45.83347 | 16.72012 | 95° | 38km/h | 5935m | -13.0m/s | -10.2°C | 7.8% | 0hPa | 2.5V | 00:00:00 | 02:01:39 | 00:00:00 | |
| 9A1FER-3 | 2026-08-30 13:05:37 | 45.83364 | 16.71862 | 101° | 42km/h | 6070m | -12.1m/s | -10.6°C | 4.8% | 0hPa | 2.5V | 00:00:00 | 02:01:28 | 00:00:00 | |
| 9A1FER-10 | 2026-08-30 13:05:33 | 45.83372 | 16.71804 | 103° | 42km/h | 6121m | -13.3m/s | -11.1°C | 5.7% | 0hPa | 2.5V | 00:00:00 | 02:01:24 | 00:00:00 | |
| 9A1FER-3 | 2026-08-30 13:05:22 | 45.83403 | 16.71643 | 105° | 44km/h | 6265m | -13.0m/s | -12.1°C | 5.4% | 0hPa | 2.5V | 00:00:00 | 02:01:13 | 00:00:00 | |
| 9A1FER-10 | 2026-08-30 13:05:18 | 45.83414 | 16.71583 | 103° | 44km/h | 6313m | -13.6m/s | -12.4°C | 5.2% | 0hPa | 2.5V | 00:00:00 | 02:01:09 | 00:00:00 | |
| 9A1FER-3 | 2026-08-30 13:05:07 | 45.83445 | 16.71412 | 106° | 44km/h | 6452m | -12.8m/s | -13.5°C | 5.0% | 0hPa | 2.5V | 00:00:00 | 02:00:58 | 00:00:00 | |
| 9A1FER-10 | 2026-08-30 13:05:03 | 45.83456 | 16.71352 | 104° | 44km/h | 6506m | -14.4m/s | -13.9°C | 4.9% | 0hPa | 2.5V | 00:00:00 | 02:00:54 | 00:00:00 | |
| 9A1FER-3 | 2026-08-30 13:04:52 | 45.83488 | 16.71182 | 109° | 46km/h | 6646m | -12.0m/s | -14.8°C | 4.7% | 0hPa | 2.5V | 00:00:00 | 02:00:43 | 00:00:00 | |
| 9A1FER-10 | 2026-08-30 13:04:48 | 45.83501 | 16.71119 | 107° | 46km/h | 6695m | -11.9m/s | -15.1°C | 6.0% | 0hPa | 2.5V | 00:00:00 | 02:00:39 | 00:00:00 | |
| 9A1FER-3 | 2026-08-30 13:04:37 | 45.83537 | 16.70942 | 107° | 47km/h | 6834m | -12.9m/s | -16.2°C | 7.8% | 0hPa | 2.5V | 00:00:00 | 02:00:28 | 00:00:00 | |
| 9A1FER-10 | 2026-08-30 13:04:33 | 45.83549 | 16.70875 | 106° | 47km/h | 6887m | -12.5m/s | -16.6°C | 7.6% | 0hPa | 2.6V | 00:00:00 | 02:00:24 | 00:00:00 | |
| 9A1FER-3 | 2026-08-30 13:04:22 | 45.83581 | 16.70691 | 105° | 49km/h | 7025m | -13.4m/s | -17.7°C | 8.2% | 0hPa | 2.6V | 00:00:00 | 02:00:13 | 00:00:00 | |
| 9A1FER-10 | 2026-08-30 13:04:18 | 45.83592 | 16.70623 | 102° | 49km/h | 7076m | -12.2m/s | -18.0°C | 9.5% | 0hPa | 2.6V | 08:11:00 | 02:00:09 | 00:00:00 | |
| 9A1FER-3 | 2026-08-30 13:04:07 | 45.83623 | 16.70433 | 104° | 47km/h | 7211m | -11.7m/s | -19.0°C | 9.5% | 0hPa | 2.5V | 00:00:00 | 01:59:58 | 00:00:00 | |
| 9A1FER-10 | 2026-08-30 13:04:03 | 45.83635 | 16.70363 | 104° | 47km/h | 7263m | -12.6m/s | -19.4°C | 9.2% | 0hPa | 2.5V | 00:00:00 | 01:59:54 | 00:00:00 | |
| 9A1FER-3 | 2026-08-30 13:03:52 | 45.83665 | 16.70180 | 103° | 47km/h | 7402m | -12.0m/s | -20.3°C | 8.6% | 0hPa | 2.5V | 08:12:00 | 01:59:43 | 00:00:00 | |
| 9A1FER-10 | 2026-08-30 13:03:48 | 45.83674 | 16.70113 | 104° | 46km/h | 7449m | -10.7m/s | -20.5°C | 8.3% | 0hPa | 2.6V | 00:00:00 | 01:59:39 | 00:00:00 | |
| 9A1FER-3 | 2026-08-30 13:03:37 | 45.83699 | 16.69929 | 104° | 44km/h | 7586m | -12.5m/s | -21.6°C | 8.6% | 0hPa | 2.6V | 00:00:00 | 01:59:28 | 00:00:00 | |
| 9A1FER-10 | 2026-08-30 13:03:33 | 45.83709 | 16.69866 | 103° | 42km/h | 7635m | -13.0m/s | -21.9°C | 8.2% | 0hPa | 2.6V | 00:00:00 | 01:59:24 | 00:00:00 | |
| 9A1FER-3 | 2026-08-30 13:03:22 | 45.83737 | 16.69699 | 103° | 42km/h | 7772m | -14.2m/s | -22.8°C | 7.8% | 0hPa | 2.6V | 00:00:00 | 01:59:13 | 00:00:00 | |
| 9A1FER-10 | 2026-08-30 13:03:18 | 45.83747 | 16.69637 | 105° | 42km/h | 7825m | -12.1m/s | -23.2°C | 7.9% | 0hPa | 2.6V | 00:00:00 | 01:59:09 | 00:00:00 | |
| 9A1FER-3 | 2026-08-30 13:03:07 | 45.83777 | 16.69474 | 104° | 46km/h | 7966m | -13.3m/s | -24.6°C | 8.8% | 0hPa | 2.6V | 00:00:00 | 01:58:58 | 00:00:00 | |
| 9A1FER-10 | 2026-08-30 13:03:03 | 45.83789 | 16.69414 | 104° | 46km/h | 8018m | -13.3m/s | -25.0°C | 9.4% | 0hPa | 2.5V | 00:00:00 | 01:58:54 | 00:00:00 | |
| 9A1FER-3 | 2026-08-30 13:02:52 | 45.83817 | 16.69238 | 104° | 46km/h | 8169m | -12.5m/s | -26.2°C | 9.5% | 0hPa | 2.5V | 00:00:00 | 01:58:43 | 00:00:00 | |
| 9A1FER-10 | 2026-08-30 13:02:48 | 45.83827 | 16.69172 | 104° | 46km/h | 8220m | -12.9m/s | -26.7°C | 10.7% | 0hPa | 2.5V | 00:00:00 | 01:58:39 | 00:00:00 | |
| 9A1FER-3 | 2026-08-30 13:02:37 | 45.83859 | 16.68992 | 107° | 47km/h | 8355m | -10.9m/s | -27.9°C | 11.3% | 0hPa | 2.6V | 00:00:00 | 01:58:28 | 00:00:00 | |
| 9A1FER-10 | 2026-08-30 13:02:34 | 45.83871 | 16.68927 | 107° | 47km/h | 8400m | -13.0m/s | -28.3°C | 11.7% | 0hPa | 2.6V | 00:00:00 | 01:58:24 | 00:00:00 | |
| 9A1FER-3 | 2026-08-30 13:02:22 | 45.83908 | 16.68747 | 106° | 51km/h | 8544m | -12.3m/s | -29.5°C | 13.4% | 0hPa | 2.6V | 00:00:00 | 01:58:13 | 00:00:00 | |
| 9A1FER-10 | 2026-08-30 13:02:18 | 45.83920 | 16.68678 | 105° | 51km/h | 8593m | -12.6m/s | -29.9°C | 13.5% | 0hPa | 2.5V | 00:00:00 | 01:58:09 | 00:00:00 | |
| 9A1FER-3 | 2026-08-30 13:02:07 | 45.83949 | 16.68477 | 101° | 53km/h | 8731m | -13.0m/s | -30.9°C | 13.7% | 0hPa | 2.5V | 00:00:00 | 01:57:58 | 00:00:00 | |
| 9A1FER-10 | 2026-08-30 13:02:03 | 45.83959 | 16.68403 | 102° | 53km/h | 8784m | -13.5m/s | -31.4°C | 13.9% | 0hPa | 2.5V | 08:14:00 | 01:57:54 | 00:00:00 | |
| 9A1FER-3 | 2026-08-30 13:01:52 | 45.83991 | 16.68195 | 101° | 55km/h | 8926m | -13.2m/s | -32.6°C | 15.4% | 0hPa | 2.6V | 00:00:00 | 01:57:43 | 00:00:00 | |
| 9A1FER-10 | 2026-08-30 13:01:48 | 45.84002 | 16.68119 | 101° | 55km/h | 8976m | -12.8m/s | -33.1°C | 16.6% | 0hPa | 2.6V | 00:00:00 | 01:57:39 | 00:00:00 | |
| 9A1FER-3 | 2026-08-30 13:01:37 | 45.84033 | 16.67903 | 102° | 58km/h | 9116m | -12.5m/s | -34.3°C | 19.8% | 0hPa | 2.6V | 08:14:00 | 01:57:28 | 00:00:00 | |
| 9A1FER-10 | 2026-08-30 13:01:33 | 45.84043 | 16.67824 | 100° | 60km/h | 9167m | -12.9m/s | -34.7°C | 20.0% | 0hPa | 2.5V | 00:00:00 | 01:57:24 | 00:00:00 | |
| OE3JTB-15 | 2026-08-30 13:01:29 | 45.84055 | 16.67741 | 101° | 64km/h | 9217m | -13.5m/s | -35.1°C | 20.2% | 0hPa | 2.5V | 00:00:00 | 00:00:00 | 00:00:00 | |
| 9A1FER-3 | 2026-08-30 13:01:22 | 45.84077 | 16.67589 | 104° | 66km/h | 9303m | -12.0m/s | -35.7°C | 20.5% | 0hPa | 2.5V | 00:00:00 | 01:57:13 | 00:00:00 | |
| 9A1FER-10 | 2026-08-30 13:01:18 | 45.84092 | 16.67499 | 103° | 66km/h | 9353m | -12.9m/s | -36.2°C | 20.5% | 0hPa | 2.5V | 00:00:00 | 01:57:09 | 00:00:00 | |
| 9A1FER-3 | 2026-08-30 13:01:07 | 45.84135 | 16.67243 | 103° | 68km/h | 9493m | -13.6m/s | -37.2°C | 20.2% | 0hPa | 2.5V | 00:00:00 | 01:56:58 | 00:00:00 | |
| 9A1FER-10 | 2026-08-30 13:01:03 | 45.84149 | 16.67150 | 102° | 68km/h | 9545m | -12.6m/s | -37.6°C | 20.4% | 0hPa | 2.5V | 00:00:00 | 01:56:54 | 00:00:00 | |
| OE3JTB-15 | 2026-08-30 13:01:00 | 45.84158 | 16.67078 | 103° | 69km/h | 9586m | -12.3m/s | -37.9°C | 20.4% | 0hPa | 2.5V | 00:00:00 | 01:56:51 | 00:00:00 | |
| 9A1FER-3 | 2026-08-30 13:00:52 | 45.84188 | 16.66887 | 103° | 69km/h | 9688m | -12.8m/s | -38.7°C | 20.8% | 0hPa | 2.5V | 00:00:00 | 01:56:43 | 00:00:00 | |
| 9A1FER-10 | 2026-08-30 13:00:48 | 45.84203 | 16.66789 | 104° | 71km/h | 9739m | -12.0m/s | -39.1°C | 21.6% | 0hPa | 2.5V | 00:00:00 | 01:56:39 | 00:00:00 | |
| 9A1FER-3 | 2026-08-30 13:00:37 | 45.84249 | 16.66516 | 105° | 73km/h | 9879m | -12.7m/s | -40.2°C | 24.9% | 0hPa | 2.5V | 00:00:00 | 01:56:28 | 00:00:00 | |
| 9A1FER-10 | 2026-08-30 13:00:33 | 45.84265 | 16.66415 | 104° | 73km/h | 9933m | -11.6m/s | -40.7°C | 25.6% | 0hPa | 2.5V | 00:00:00 | 01:56:24 | 00:00:00 | |
| OE3JTB-15 | 2026-08-30 13:00:31 | 45.84273 | 16.66364 | 102° | 77km/h | 9958m | -13.9m/s | -40.9°C | 25.9% | 0hPa | 2.6V | 00:00:00 | 00:00:00 | 00:00:00 | |
| 9A1FER-3 | 2026-08-30 13:00:22 | 45.84308 | 16.66132 | 103° | 73km/h | 10078m | -14.1m/s | -41.9°C | 27.9% | 0hPa | 2.5V | 00:00:00 | 01:56:13 | 00:00:00 | |
| 9A1FER-10 | 2026-08-30 13:00:18 | 45.84323 | 16.66031 | 103° | 73km/h | 10130m | -13.3m/s | -42.4°C | 29.1% | 0hPa | 2.5V | 00:00:00 | 01:56:09 | 00:00:00 | |
| 9A1FER-3 | 2026-08-30 13:00:07 | 45.84361 | 16.65745 | 102° | 78km/h | 10281m | -13.3m/s | -43.7°C | 30.7% | 0hPa | 2.5V | 00:00:00 | 01:55:58 | 00:00:00 | |
| 9A1FER-3 | 2026-08-30 12:59:52 | 45.84425 | 16.65330 | 104° | 80km/h | 10483m | -14.6m/s | -45.2°C | 34.6% | 0hPa | 2.6V | 00:00:00 | 01:55:43 | 00:00:00 | |
| 9A1FER-10 | 2026-08-30 12:59:48 | 45.84443 | 16.65217 | 102° | 80km/h | 10539m | -14.4m/s | -45.7°C | 34.6% | 0hPa | 2.6V | 08:16:00 | 01:55:39 | 00:00:00 | |
| 9A1FER-3 | 2026-08-30 12:59:37 | 45.84489 | 16.64901 | 102° | 84km/h | 10692m | -12.5m/s | -46.8°C | 28.6% | 0hPa | 2.6V | 00:00:00 | 01:55:28 | 00:00:00 | |
| 9A1FER-10 | 2026-08-30 12:59:33 | 45.84505 | 16.64785 | 102° | 84km/h | 10747m | -13.8m/s | -47.1°C | 28.7% | 0hPa | 2.6V | 00:00:00 | 01:55:24 | 00:00:00 | |
| 9A1FER-3 | 2026-08-30 12:59:22 | 45.84560 | 16.64459 | 105° | 88km/h | 10901m | -14.9m/s | -48.0°C | 30.8% | 0hPa | 2.6V | 08:16:00 | 01:55:13 | 00:00:00 | |
| 9A1FER-10 | 2026-08-30 12:59:18 | 45.84578 | 16.64337 | 102° | 88km/h | 10959m | -14.5m/s | -48.3°C | 31.2% | 0hPa | 2.5V | 00:00:00 | 01:55:09 | 00:00:00 | |
| 9A1FER-3 | 2026-08-30 12:59:07 | 45.84616 | 16.63992 | 98° | 88km/h | 11117m | -14.2m/s | -49.2°C | 31.7% | 0hPa | 2.5V | 00:00:00 | 01:54:58 | 00:00:00 | |
| 9A1FER-10 | 2026-08-30 12:59:03 | 45.84627 | 16.63865 | 99° | 89km/h | 11175m | -14.2m/s | -49.6°C | 32.3% | 0hPa | 2.5V | 00:00:00 | 01:54:54 | 00:00:00 | |
| 9A1FER-3 | 2026-08-30 12:58:53 | 45.84662 | 16.63521 | 98° | 97km/h | 11334m | -14.8m/s | -50.7°C | 33.7% | 0hPa | 2.5V | 00:00:00 | 01:54:43 | 00:00:00 | |
| OE3JTB-15 | 2026-08-30 12:58:52 | 45.84662 | 16.63521 | 98° | 99km/h | 11334m | -14.8m/s | -50.7°C | 33.7% | 0hPa | 2.5V | 00:00:00 | 01:54:43 | 00:00:00 | |
| 9A1FER-10 | 2026-08-30 12:58:48 | 45.84673 | 16.63388 | 98° | 99km/h | 11394m | -14.2m/s | -51.2°C | 32.9% | 0hPa | 2.5V | 00:00:00 | 01:54:39 | 00:00:00 | |
| 9A1FER-3 | 2026-08-30 12:58:37 | 45.84694 | 16.62999 | 95° | 102km/h | 11564m | -14.3m/s | -51.8°C | 34.0% | 0hPa | 2.5V | 00:00:00 | 01:54:28 | 00:00:00 | |
| 9A1FER-10 | 2026-08-30 12:58:33 | 45.84701 | 16.62854 | 95° | 104km/h | 11623m | -14.7m/s | -52.2°C | 37.0% | 0hPa | 2.5V | 00:00:00 | 01:54:24 | 00:00:00 | |
| OE3JTB-15 | 2026-08-30 12:58:23 | 45.84721 | 16.62479 | 95° | 97km/h | 11777m | -15.8m/s | -53.0°C | 37.3% | 0hPa | 2.5V | 08:17:00 | 00:00:00 | 00:00:00 | |
| 9A1FER-3 | 2026-08-30 12:58:22 | 45.84723 | 16.62440 | 95° | 100km/h | 11793m | -15.9m/s | -53.0°C | 37.2% | 0hPa | 2.5V | 00:00:00 | 01:54:13 | 00:00:00 | |
| 9A1FER-10 | 2026-08-30 12:58:18 | 45.84732 | 16.62291 | 96° | 97km/h | 11856m | -15.7m/s | -53.5°C | 36.5% | 0hPa | 2.5V | 00:00:00 | 01:54:09 | 00:00:00 | |
| PETON7-10 | 2026-08-30 12:58:16 | 45.84737 | 16.62217 | 96° | 93km/h | 11887m | -16.6m/s | -53.6°C | 35.2% | 0hPa | 2.5V | 00:00:00 | 01:54:07 | 00:00:00 | |
| 9A1FER-3 | 2026-08-30 12:58:07 | 45.84756 | 16.61901 | 96° | 88km/h | 12027m | -15.5m/s | -54.2°C | 32.2% | 0hPa | 2.5V | 00:00:00 | 01:53:58 | 00:00:00 | |
| 9A1FER-10 | 2026-08-30 12:58:03 | 45.84765 | 16.61769 | 97° | 86km/h | 12092m | -15.9m/s | -54.4°C | 30.5% | 0hPa | 2.5V | 00:00:00 | 01:53:54 | 00:00:00 | |
| PETON7-10 | 2026-08-30 12:58:00 | 45.84771 | 16.61674 | 97° | 86km/h | 12139m | -15.0m/s | -54.3°C | 29.4% | 0hPa | 2.5V | 00:00:00 | 00:00:00 | 00:00:00 | |
| OE3JTB-15 | 2026-08-30 12:57:54 | 45.84783 | 16.61487 | 95° | 88km/h | 12232m | -16.1m/s | -54.8°C | 28.2% | 0hPa | 2.6V | 00:00:00 | 00:00:00 | 00:00:00 | |
| 9A1FER-3 | 2026-08-30 12:57:52 | 45.84786 | 16.61427 | 93° | 86km/h | 12266m | -17.2m/s | -54.9°C | 27.6% | 0hPa | 2.6V | 00:00:00 | 01:53:43 | 00:00:00 | |
| 9A1FER-10 | 2026-08-30 12:57:48 | 45.84789 | 16.61306 | 92° | 88km/h | 12334m | -17.5m/s | -54.9°C | 26.4% | 0hPa | 2.5V | 00:00:00 | 01:53:39 | 00:00:00 | |
| PETON7-10 | 2026-08-30 12:57:45 | 45.84790 | 16.61214 | 91° | 88km/h | 12383m | -16.1m/s | -55.3°C | 26.5% | 0hPa | 2.5V | 00:00:00 | 00:00:00 | 00:00:00 | |
| 9A1FER-3 | 2026-08-30 12:57:37 | 45.84790 | 16.60962 | 89° | 89km/h | 12519m | -17.5m/s | -56.2°C | 26.2% | 0hPa | 2.5V | 00:00:00 | 01:53:28 | 00:00:00 | |
| 9A1FER-10 | 2026-08-30 12:57:33 | 45.84786 | 16.60832 | 87° | 88km/h | 12587m | -16.5m/s | -56.7°C | 26.1% | 0hPa | 2.5V | 08:18:00 | 01:53:24 | 00:00:00 | |
| PETON7-10 | 2026-08-30 12:57:30 | 45.84783 | 16.60736 | 88° | 86km/h | 12637m | -17.2m/s | -57.1°C | 25.7% | 0hPa | 2.5V | 00:00:00 | 01:53:21 | 00:00:00 | |
| 9A1FER-3 | 2026-08-30 12:57:22 | 45.84779 | 16.60481 | 92° | 84km/h | 12776m | -16.6m/s | -57.5°C | 24.1% | 0hPa | 2.5V | 00:00:00 | 01:53:13 | 00:00:00 | |
| OE3JTB-15 | 2026-08-30 12:57:19 | 45.84780 | 16.60389 | 92° | 46km/h | 12825m | -15.1m/s | -57.6°C | 23.4% | 0hPa | 2.5V | 00:00:00 | 01:53:10 | 00:00:00 | |
| 9A1FER-10 | 2026-08-30 12:57:18 | 45.84780 | 16.60359 | 92° | 84km/h | 12841m | -15.5m/s | -57.7°C | 23.1% | 0hPa | 2.5V | 00:00:00 | 01:53:09 | 00:00:00 | |
| PETON7-10 | 2026-08-30 12:57:15 | 45.84780 | 16.60269 | 90° | 86km/h | 12890m | -17.6m/s | -57.7°C | 22.0% | 0hPa | 2.5V | 08:18:00 | 00:00:00 | 00:00:00 | |
| 9A1FER-3 | 2026-08-30 12:57:07 | 45.84774 | 16.60030 | 89° | 88km/h | 13031m | -17.0m/s | -57.7°C | 19.2% | 0hPa | 2.6V | 08:19:00 | 01:52:58 | 00:00:00 | |
| 9A1FER-10 | 2026-08-30 12:57:03 | 45.84769 | 16.59907 | 88° | 89km/h | 13099m | -17.3m/s | -58.0°C | 18.3% | 0hPa | 2.5V | 00:00:00 | 01:52:54 | 00:00:00 | |
| PETON7-10 | 2026-08-30 12:56:58 | 45.84767 | 16.59746 | 90° | 88km/h | 13185m | -18.5m/s | -58.1°C | 17.1% | 0hPa | 2.5V | 00:00:00 | 00:00:00 | 00:00:00 | |
| 9A1FER-3 | 2026-08-30 12:56:52 | 45.84771 | 16.59550 | 95° | 82km/h | 13291m | -16.7m/s | -58.5°C | 16.4% | 0hPa | 2.5V | 00:00:00 | 01:52:43 | 00:00:00 | |
| 9A1FER-10 | 2026-08-30 12:56:48 | 45.84781 | 16.59424 | 99° | 77km/h | 13362m | -18.2m/s | -59.0°C | 16.5% | 0hPa | 2.5V | 00:00:00 | 01:52:39 | 00:00:00 | |
| PETON7-10 | 2026-08-30 12:56:43 | 45.84801 | 16.59276 | 105° | 75km/h | 13453m | -16.9m/s | -58.8°C | 15.5% | 0hPa | 2.5V | 00:00:00 | 01:52:34 | 00:00:00 | |
| 9A1FER-3 | 2026-08-30 12:56:37 | 45.84832 | 16.59114 | 108° | 69km/h | 13557m | -16.9m/s | -58.9°C | 14.5% | 0hPa | 2.5V | 00:00:00 | 01:52:28 | 00:00:00 | |
| 9A1FER-10 | 2026-08-30 12:56:31 | 45.84862 | 16.58963 | 105° | 68km/h | 13661m | -17.3m/s | -58.9°C | 13.4% | 0hPa | 2.5V | 00:00:00 | 01:52:22 | 00:00:00 | |
| PETON7-10 | 2026-08-30 12:56:28 | 45.84873 | 16.58889 | 101° | 68km/h | 13711m | -17.9m/s | -58.7°C | 12.4% | 0hPa | 2.5V | 00:00:00 | 00:00:00 | 00:00:00 | |
| 9A1FER-3 | 2026-08-30 12:56:22 | 45.84889 | 16.58742 | 98° | 66km/h | 13820m | -18.5m/s | -58.0°C | 11.1% | 0hPa | 2.5V | 00:00:00 | 01:52:13 | 00:00:00 | |
| 9A1FER-10 | 2026-08-30 12:56:16 | 45.84900 | 16.58599 | 95° | 66km/h | 13925m | -17.3m/s | -58.1°C | 10.4% | 0hPa | 2.5V | 00:00:00 | 01:52:07 | 00:00:00 | |
| PETON7-10 | 2026-08-30 12:56:13 | 45.84903 | 16.58529 | 93° | 66km/h | 13979m | -18.6m/s | -58.4°C | 10.6% | 0hPa | 2.5V | 00:00:00 | 00:00:00 | 00:00:00 | |
| 9A1FER-3 | 2026-08-30 12:56:07 | 45.84905 | 16.58389 | 90° | 69km/h | 14084m | -16.8m/s | -57.8°C | 9.8% | 0hPa | 2.5V | 00:00:00 | 01:51:58 | 00:00:00 | |
| 9A1FER-10 | 2026-08-30 12:56:01 | 45.84900 | 16.58245 | 87° | 77km/h | 14190m | -18.1m/s | -58.2°C | 10.3% | 0hPa | 2.5V | 00:00:00 | 01:51:52 | 00:00:00 | |
| PETON7-10 | 2026-08-30 12:55:58 | 45.84897 | 16.58171 | 85° | 77km/h | 14242m | -17.4m/s | -58.2°C | 10.4% | 0hPa | 2.6V | 00:00:00 | 01:51:49 | 00:00:00 | |
| 9A1FER-3 | 2026-08-30 12:55:52 | 45.84892 | 16.58009 | 91° | 77km/h | 14354m | -18.6m/s | -58.9°C | 10.5% | 0hPa | 2.6V | 00:00:00 | 01:51:43 | 00:00:00 | |
| OE5DRO-10 | 2026-08-30 12:55:50 | 45.84893 | 16.57953 | 93° | 71km/h | 14392m | -18.6m/s | -59.0°C | 10.4% | 0hPa | 2.6V | 00:00:00 | 00:00:00 | 00:00:00 | |
| PETON7-10 | 2026-08-30 12:55:43 | 45.84912 | 16.57756 | 104° | 66km/h | 14519m | -17.2m/s | -59.0°C | 9.8% | 0hPa | 2.5V | 00:00:00 | 00:00:00 | 00:00:00 | |
| 9A1FER-10 | 2026-08-30 12:55:39 | 45.84932 | 16.57653 | 109° | 57km/h | 14592m | -20.2m/s | -58.7°C | 9.1% | 0hPa | 2.5V | 00:00:00 | 01:51:30 | 00:00:00 | |
| 9A1FER-3 | 2026-08-30 12:55:37 | 45.84945 | 16.57606 | 111° | 53km/h | 14631m | -19.1m/s | -58.8°C | 9.0% | 0hPa | 2.5V | 00:00:00 | 01:51:28 | 00:00:00 | |
| OE5DRO-10 | 2026-08-30 12:55:31 | 45.84981 | 16.57482 | 116° | 40km/h | 14751m | -20.6m/s | -59.1°C | 8.5% | 0hPa | 2.6V | 00:00:00 | 00:00:00 | 00:00:00 | |
| PETON7-10 | 2026-08-30 12:55:28 | 45.84999 | 16.57433 | 119° | 38km/h | 14811m | -19.3m/s | -59.1°C | 8.4% | 0hPa | 2.6V | 00:00:00 | 00:00:00 | 00:00:00 | |
| 9A1FER-10 | 2026-08-30 12:55:24 | 45.85017 | 16.57379 | 110° | 37km/h | 14882m | -16.7m/s | -59.1°C | 8.1% | 0hPa | 2.6V | 00:00:00 | 01:51:15 | 00:00:00 | |
| 9A1FER-3 | 2026-08-30 12:55:22 | 45.85023 | 16.57353 | 105° | 37km/h | 14918m | -17.7m/s | -59.0°C | 7.9% | 0hPa | 2.6V | 00:00:00 | 01:51:13 | 00:00:00 | |
| OE5DRO-10 | 2026-08-30 12:55:12 | 45.85029 | 16.57223 | 90° | 42km/h | 15105m | -19.8m/s | -58.5°C | 6.8% | 0hPa | 2.6V | 00:00:00 | 00:00:00 | 00:00:00 | |
| 9A1FER-10 | 2026-08-30 12:55:09 | 45.85028 | 16.57180 | 89° | 42km/h | 15164m | -19.0m/s | -58.5°C | 6.7% | 0hPa | 2.6V | 08:21:00 | 01:51:00 | 00:00:00 | |
| 9A1FER-3 | 2026-08-30 12:55:07 | 45.85028 | 16.57151 | 88° | 44km/h | 15203m | -19.8m/s | -58.6°C | 6.7% | 0hPa | 2.5V | 00:00:00 | 01:50:58 | 00:00:00 | |
| PETON7-10 | 2026-08-30 12:54:58 | 45.85015 | 16.57018 | 86° | 49km/h | 15375m | -19.9m/s | -58.1°C | 6.0% | 0hPa | 2.5V | 08:21:00 | 00:00:00 | 00:00:00 | |
| 9A1FER-10 | 2026-08-30 12:54:54 | 45.85011 | 16.56951 | 89° | 51km/h | 15454m | -18.1m/s | -58.2°C | 6.1% | 0hPa | 2.6V | 00:00:00 | 01:50:45 | 00:00:00 | |
| OE5DRO-10 | 2026-08-30 12:54:53 | 45.85011 | 16.56934 | 91° | 49km/h | 15472m | -17.8m/s | -58.1°C | 6.1% | 0hPa | 2.6V | 08:21:00 | 00:00:00 | 00:00:00 | |
| 9A1FER-3 | 2026-08-30 12:54:52 | 45.85011 | 16.56915 | 92° | 51km/h | 15490m | -18.1m/s | -58.0°C | 6.0% | 0hPa | 2.6V | 08:21:00 | 01:50:43 | 00:00:00 | |
| PETON7-10 | 2026-08-30 12:54:43 | 45.85025 | 16.56750 | 103° | 47km/h | 15657m | -19.8m/s | -57.4°C | 5.5% | 0hPa | 2.6V | 00:00:00 | 00:00:00 | 00:00:00 | |
| 9A1FER-10 | 2026-08-30 12:54:39 | 45.85037 | 16.56682 | 104° | 46km/h | 15732m | -20.5m/s | -57.2°C | 5.3% | 0hPa | 2.6V | 00:00:00 | 01:50:30 | 00:00:00 | |
| 9A1FER-3 | 2026-08-30 12:54:37 | 45.85042 | 16.56650 | 102° | 44km/h | 15772m | -18.8m/s | -57.3°C | 5.3% | 0hPa | 2.6V | 00:00:00 | 01:50:28 | 00:00:00 | |
| OE5DXL-15 | 2026-08-30 12:54:35 | 45.85047 | 16.56617 | 101° | 38km/h | 15811m | -19.7m/s | -57.4°C | 5.3% | 0hPa | 2.6V | 00:00:00 | 00:00:00 | 00:00:00 | |
| OE5DRO-10 | 2026-08-30 12:54:34 | 45.85049 | 16.56600 | 100° | 38km/h | 15830m | -19.2m/s | -57.4°C | 5.3% | 0hPa | 2.7V | 00:00:00 | 00:00:00 | 00:00:00 | |
| PETON7-10 | 2026-08-30 12:54:28 | 45.85054 | 16.56502 | 90° | 35km/h | 15941m | -19.4m/s | -57.6°C | 5.3% | 0hPa | 2.7V | 00:00:00 | 01:50:19 | 00:00:00 | |
| 9A1FER-10 | 2026-08-30 12:54:24 | 45.85051 | 16.56444 | 86° | 33km/h | 16024m | -21.0m/s | -57.5°C | 5.2% | 0hPa | 2.7V | 00:00:00 | 01:50:15 | 00:00:00 | |
| 9A1FER-3 | 2026-08-30 12:54:22 | 45.85048 | 16.56419 | 81° | 33km/h | 16064m | -19.5m/s | -57.5°C | 5.2% | 0hPa | 2.7V | 00:00:00 | 01:50:13 | 00:00:00 | |
| OE5DRO-10 | 2026-08-30 12:54:15 | 45.85042 | 16.56336 | 90° | 31km/h | 16205m | -19.8m/s | -57.8°C | 5.3% | 0hPa | 2.7V | 00:00:00 | 00:00:00 | 00:00:00 | |
| PETON7-10 | 2026-08-30 12:54:13 | 45.85042 | 16.56312 | 95° | 31km/h | 16243m | -18.9m/s | -58.1°C | 5.4% | 0hPa | 2.7V | 00:00:00 | 00:00:00 | 00:00:00 | |
| 9A1FER-10 | 2026-08-30 12:54:09 | 45.85046 | 16.56266 | 101° | 29km/h | 16319m | -18.8m/s | -58.5°C | 5.7% | 0hPa | 2.7V | 00:00:00 | 01:50:00 | 00:00:00 | |
| 9A1FER-3 | 2026-08-30 12:54:08 | 45.85050 | 16.56243 | 105° | 27km/h | 16358m | -19.0m/s | -58.4°C | 5.6% | 0hPa | 2.7V | 00:00:00 | 01:49:58 | 00:00:00 | |
| OE3JTB-15 | 2026-08-30 12:54:01 | 45.85067 | 16.56181 | 115° | 13km/h | 16487m | -22.8m/s | -58.1°C | 5.3% | 0hPa | 2.7V | 00:00:00 | 00:00:00 | 00:00:00 | |
| PETON7-10 | 2026-08-30 12:53:58 | 45.85077 | 16.56155 | 128° | 16km/h | 16554m | -20.7m/s | -58.4°C | 5.5% | 0hPa | 2.5V | 00:00:00 | 00:00:00 | 00:00:00 | |
| OE5DRO-10 | 2026-08-30 12:53:56 | 45.85084 | 16.56142 | 126° | 15km/h | 16595m | -19.8m/s | -58.6°C | 5.6% | 0hPa | 2.5V | 00:00:00 | 00:00:00 | 00:00:00 | |
| 9A1FER-10 | 2026-08-30 12:53:54 | 45.85090 | 16.56131 | 126° | 15km/h | 16634m | -19.5m/s | -58.5°C | 5.6% | 0hPa | 2.7V | 00:00:00 | 01:49:45 | 00:00:00 | |
| 9A1FER-3 | 2026-08-30 12:53:52 | 45.85095 | 16.56121 | 128° | 13km/h | 16673m | -18.8m/s | -58.1°C | 5.4% | 0hPa | 2.7V | 00:00:00 | 01:49:43 | 00:00:00 | |
| PETON7-10 | 2026-08-30 12:53:43 | 45.85100 | 16.56081 | 81° | 11km/h | 16848m | -21.1m/s | -57.7°C | 5.2% | 0hPa | 2.7V | 00:00:00 | 01:49:34 | 00:00:00 | |
| 9A1FER-10 | 2026-08-30 12:53:39 | 45.85099 | 16.56062 | 95° | 11km/h | 16932m | -19.4m/s | -57.9°C | 5.4% | 0hPa | 2.7V | 00:00:00 | 01:49:30 | 00:00:00 | |
| 9A1FER-3 | 2026-08-30 12:53:37 | 45.85099 | 16.56054 | 109° | 11km/h | 16971m | -20.1m/s | -57.8°C | 5.3% | 0hPa | 2.5V | 00:00:00 | 01:49:28 | 00:00:00 | |
| OE3JTB-15 | 2026-08-30 12:53:30 | 45.85104 | 16.56025 | 96° | 22km/h | 17122m | -21.0m/s | -57.6°C | 5.3% | 0hPa | 2.5V | 00:00:00 | 00:00:00 | 00:00:00 | |
| PETON7-10 | 2026-08-30 12:53:28 | 45.85104 | 16.56019 | 68° | 18km/h | 17165m | -21.9m/s | -57.6°C | 5.3% | 0hPa | 2.5V | 00:00:00 | 00:00:00 | 00:00:00 | |
| 9A1FER-10 | 2026-08-30 12:53:24 | 45.85096 | 16.56009 | 24° | 22km/h | 17253m | -20.1m/s | -57.2°C | 5.0% | 0hPa | 2.5V | 00:00:00 | 01:49:15 | 00:00:00 | |
| PG1ADW-2 | 2026-08-30 12:53:23 | 45.85092 | 16.56007 | 21° | 22km/h | 17274m | -21.6m/s | -57.1°C | 5.0% | 0hPa | 2.5V | 00:00:00 | 00:00:00 | 00:00:00 | |
| 9A1FER-3 | 2026-08-30 12:53:22 | 45.85088 | 16.56005 | 19° | 24km/h | 17297m | -23.7m/s | -57.1°C | 5.0% | 0hPa | 2.5V | 00:00:00 | 01:49:13 | 00:00:00 | |
| OE5DRO-10 | 2026-08-30 12:53:18 | 45.85068 | 16.55993 | 26° | 24km/h | 17386m | -23.8m/s | -56.9°C | 4.9% | 0hPa | 2.6V | 00:00:00 | 00:00:00 | 00:00:00 | |
| OE5DXL-15 | 2026-08-30 12:53:16 | 45.85057 | 16.55985 | 29° | 20km/h | 17434m | -22.8m/s | -56.9°C | 5.0% | 0hPa | 2.6V | 00:00:00 | 00:00:00 | 00:00:00 | |
| PETON7-10 | 2026-08-30 12:53:13 | 45.85042 | 16.55971 | 35° | 24km/h | 17503m | -22.6m/s | -56.9°C | 4.9% | 0hPa | 2.6V | 00:00:00 | 00:00:00 | 00:00:00 | |
| 9A1FER-10 | 2026-08-30 12:53:09 | 45.85025 | 16.55949 | 51° | 22km/h | 17594m | -22.5m/s | -57.6°C | 5.2% | 0hPa | 2.6V | 00:00:00 | 01:49:00 | 00:00:00 | |
| 9A1FER-3 | 2026-08-30 12:53:07 | 45.85019 | 16.55936 | 65° | 18km/h | 17641m | -23.4m/s | -57.6°C | 5.2% | 0hPa | 2.6V | 00:00:00 | 01:48:58 | 00:00:00 | |
| PG1ADW-2 | 2026-08-30 12:53:03 | 45.85014 | 16.55902 | 84° | 18km/h | 17732m | -21.5m/s | -57.7°C | 5.3% | 0hPa | 2.6V | 00:00:00 | 00:00:00 | 00:00:00 | |
| OE3JTB-15 | 2026-08-30 12:53:01 | 45.85014 | 16.55884 | 92° | 20km/h | 17778m | -22.8m/s | -57.3°C | 5.1% | 0hPa | 2.6V | 00:00:00 | 01:48:52 | 00:00:00 | |
| OE5DRO-10 | 2026-08-30 12:52:59 | 45.85014 | 16.55869 | 91° | 18km/h | 17826m | -23.9m/s | -57.0°C | 5.0% | 0hPa | 2.6V | 00:00:00 | 00:00:00 | 00:00:00 | |
| PETON7-10 | 2026-08-30 12:52:58 | 45.85014 | 16.55863 | 91° | 16km/h | 17849m | -23.6m/s | -56.7°C | 4.8% | 0hPa | 2.5V | 00:00:00 | 01:48:49 | 00:00:00 | |
| 9A1FER-10 | 2026-08-30 12:52:54 | 45.85012 | 16.55843 | 62° | 22km/h | 17945m | -23.8m/s | -56.6°C | 4.7% | 0hPa | 2.5V | 08:23:00 | 01:48:45 | 00:00:00 | |
| 9A1FER-3 | 2026-08-30 12:52:52 | 45.85008 | 16.55836 | 53° | 22km/h | 17993m | -23.6m/s | -56.8°C | 4.7% | 0hPa | 2.5V | 00:00:00 | 01:48:43 | 00:00:00 | |
| OE5DXL-15 | 2026-08-30 12:52:46 | 45.84994 | 16.55810 | 55° | 16km/h | 18130m | -20.3m/s | -57.1°C | 5.0% | 0hPa | 2.5V | 00:00:00 | 00:00:00 | 00:00:00 | |
| PG1ADW-2 | 2026-08-30 12:52:43 | 45.84983 | 16.55788 | 57° | 26km/h | 18197m | -22.8m/s | -57.1°C | 5.0% | 0hPa | 2.5V | 00:00:00 | 00:00:00 | 00:00:00 | |
| OE5DRO-10 | 2026-08-30 12:52:40 | 45.84973 | 16.55758 | 68° | 16km/h | 18266m | -21.5m/s | -57.2°C | 5.1% | 0hPa | 2.5V | 00:00:00 | 00:00:00 | 00:00:00 | |
| 9A1FER-10 | 2026-08-30 12:52:39 | 45.84971 | 16.55748 | 70° | 16km/h | 18288m | -22.7m/s | -57.3°C | 5.1% | 0hPa | 2.5V | 00:00:00 | 01:48:30 | 00:00:00 | |
| 9A1FER-3 | 2026-08-30 12:52:37 | 45.84966 | 16.55729 | 76° | 15km/h | 18333m | -22.7m/s | -57.6°C | 5.2% | 0hPa | 2.5V | 08:23:00 | 01:48:28 | 00:00:00 | |
| OE3JTB-15 | 2026-08-30 12:52:31 | 45.84959 | 16.55683 | 76° | 16km/h | 18470m | -23.4m/s | -57.0°C | 4.9% | 0hPa | 2.7V | 00:00:00 | 00:00:00 | 00:00:00 | |
| PETON7-10 | 2026-08-30 12:52:29 | 45.84956 | 16.55673 | 34° | 7km/h | 18537m | -21.2m/s | -56.9°C | 5.0% | 0hPa | 2.5V | 00:00:00 | 00:00:00 | 00:00:00 | |
| 9A1FER-10 | 2026-08-30 12:52:24 | 45.84948 | 16.55667 | 24° | 5km/h | 18622m | -20.8m/s | -56.1°C | 4.6% | 0hPa | 2.5V | 00:00:00 | 01:48:15 | 00:00:00 | |
| PG1ADW-2 | 2026-08-30 12:52:23 | 45.84945 | 16.55666 | 6° | 4km/h | 18643m | -20.7m/s | -56.2°C | 4.6% | 0hPa | 2.5V | 00:00:00 | 01:48:14 | 00:00:00 | |
| 9A1FER-3 | 2026-08-30 12:52:22 | 45.84943 | 16.55666 | 354° | 4km/h | 18664m | -22.0m/s | -56.3°C | 4.7% | 0hPa | 2.5V | 00:00:00 | 01:48:13 | 00:00:00 | |
| OE5DRO-10 | 2026-08-30 12:52:21 | 45.84940 | 16.55666 | 355° | 4km/h | 18686m | -21.4m/s | -56.4°C | 4.8% | 0hPa | 2.5V | 00:00:00 | 00:00:00 | 00:00:00 | |
| OE5DXL-15 | 2026-08-30 12:52:16 | 45.84933 | 16.55664 | 69° | 7km/h | 18798m | -21.6m/s | -56.5°C | 4.9% | 0hPa | 2.5V | 00:00:00 | 00:00:00 | 00:00:00 | |
| PETON7-10 | 2026-08-30 12:52:13 | 45.84932 | 16.55661 | 93° | 4km/h | 18865m | -22.9m/s | -56.5°C | 4.9% | 0hPa | 2.5V | 00:00:00 | 01:48:04 | 00:00:00 | |
| 9A1FER-10 | 2026-08-30 12:52:09 | 45.84932 | 16.55657 | 75° | 5km/h | 18951m | -22.0m/s | -56.7°C | 5.0% | 0hPa | 2.5V | 00:00:00 | 01:48:00 | 00:00:00 | |
| 9A1FER-3 | 2026-08-30 12:52:07 | 45.84931 | 16.55654 | 21° | 7km/h | 18997m | -22.5m/s | -56.6°C | 4.9% | 0hPa | 2.6V | 00:00:00 | 01:47:58 | 00:00:00 | |
| PG1ADW-2 | 2026-08-30 12:52:03 | 45.84927 | 16.55653 | 29° | 11km/h | 19086m | -22.8m/s | -55.9°C | 4.6% | 0hPa | 2.6V | 00:00:00 | 00:00:00 | 00:00:00 | |
| OE5DRO-10 | 2026-08-30 12:52:02 | 45.84926 | 16.55652 | 352° | 11km/h | 19109m | -23.2m/s | -55.9°C | 4.6% | 0hPa | 2.6V | 08:24:00 | 00:00:00 | 00:00:00 | |
| PETON7-10 | 2026-08-30 12:51:58 | 45.84921 | 16.55653 | 335° | 13km/h | 19196m | -22.5m/s | -55.4°C | 4.5% | 0hPa | 2.5V | 00:00:00 | 00:00:00 | 00:00:00 | |
| 9A1FER-10 | 2026-08-30 12:51:54 | 45.84912 | 16.55656 | 356° | 15km/h | 19287m | -22.3m/s | -55.8°C | 4.6% | 0hPa | 2.7V | 00:00:00 | 01:47:45 | 00:00:00 | |
| 9A1FER-3 | 2026-08-30 12:51:52 | 45.84905 | 16.55656 | 1° | 15km/h | 19333m | -23.8m/s | -56.0°C | 4.7% | 0hPa | 2.7V | 00:00:00 | 01:47:43 | 00:00:00 | |
| OE5DXL-15 | 2026-08-30 12:51:46 | 45.84882 | 16.55652 | 359° | 13km/h | 19483m | -23.4m/s | -56.1°C | 4.8% | 0hPa | 2.7V | 00:00:00 | 00:00:00 | 00:00:00 | |
| PETON7-10 | 2026-08-30 12:51:43 | 45.84872 | 16.55653 | 347° | 18km/h | 19550m | -22.8m/s | -56.1°C | 4.8% | 0hPa | 2.7V | 00:00:00 | 00:00:00 | 00:00:00 | |
| 9A1FER-10 | 2026-08-30 12:51:38 | 45.84853 | 16.55660 | 339° | 18km/h | 19663m | -22.1m/s | -55.6°C | 4.6% | 0hPa | 2.7V | 00:00:00 | 01:47:29 | 00:00:00 | |
| 9A1FER-3 | 2026-08-30 12:51:37 | 45.84848 | 16.55663 | 343° | 18km/h | 19685m | -22.9m/s | -55.5°C | 4.7% | 0hPa | 2.7V | 00:00:00 | 01:47:28 | 00:00:00 | |
| DO3MHA-11 | 2026-08-30 12:51:28 | 45.84803 | 16.55673 | 1° | 13km/h | 19881m | -23.2m/s | 0°C | 0% | 0hPa | 2.7V | 00:00:00 | 01:47:19 | 00:00:00 | |
| PETON7-10 | 2026-08-30 12:51:27 | 45.84799 | 16.55673 | 356° | 11km/h | 19904m | -23.1m/s | -55.2°C | 4.5% | 0hPa | 2.7V | 00:00:00 | 01:47:18 | 00:00:00 | |
| OE5DRO-10 | 2026-08-30 12:51:24 | 45.84787 | 16.55673 | 357° | 11km/h | 19970m | -21.0m/s | 0°C | 0% | 0hPa | 2.7V | 00:00:00 | 00:00:00 | 00:00:00 | |
| 9A1FER-10 | 2026-08-30 12:51:23 | 45.84784 | 16.55673 | 353° | 11km/h | 19992m | -22.4m/s | -55.3°C | 4.5% | 0hPa | 2.7V | 00:00:00 | 01:47:14 | 00:00:00 | |
| 9A1FER-3 | 2026-08-30 12:51:22 | 45.84781 | 16.55673 | 355° | 11km/h | 20013m | -21.4m/s | -55.3°C | 4.5% | 0hPa | 2.6V | 00:00:00 | 01:47:13 | 00:00:00 | |
| DO3MHA-11 | 2026-08-30 12:51:18 | 45.84773 | 16.55674 | 14° | 11km/h | 20110m | -25.9m/s | 0°C | 0% | 0hPa | 2.6V | 00:00:00 | 01:47:09 | 00:00:00 | |
| OE5DXL-15 | 2026-08-30 12:51:15 | 45.84766 | 16.55675 | 357° | 16km/h | 20183m | -24.0m/s | -55.0°C | 4.4% | 0hPa | 2.6V | 08:24:00 | 00:00:00 | 00:00:00 | |
| PETON7-10 | 2026-08-30 12:51:12 | 45.84758 | 16.55676 | 352° | 20km/h | 20257m | -25.7m/s | -54.9°C | 4.4% | 0hPa | 2.7V | 00:00:00 | 00:00:00 | 00:00:00 | |
| DO3MHA-12 | 2026-08-30 12:51:09 | 45.84747 | 16.55677 | 8° | 16km/h | 20332m | -25.1m/s | 0°C | 0% | 0hPa | 2.7V | 00:00:00 | 01:47:00 | 00:00:00 | |
| DO3MHA-11 | 2026-08-30 12:51:08 | 45.84744 | 16.55676 | 16° | 16km/h | 20357m | -27.4m/s | 0°C | 0% | 0hPa | 2.7V | 00:00:00 | 01:46:59 | 00:00:00 | |
| 9A1FER-3 | 2026-08-30 12:51:07 | 45.84740 | 16.55674 | 24° | 20km/h | 20384m | -26.7m/s | -55.4°C | 4.6% | 0hPa | 2.7V | 00:00:00 | 01:46:58 | 00:00:00 | |
| OE5DRO-10 | 2026-08-30 12:51:05 | 45.84732 | 16.55668 | 32° | 18km/h | 20436m | -24.1m/s | -55.4°C | 4.6% | 0hPa | 2.7V | 00:00:00 | 00:00:00 | 00:00:00 | |
| PG1ADW-2 | 2026-08-30 12:51:03 | 45.84723 | 16.55658 | 48° | 16km/h | 20484m | -24.8m/s | -55.6°C | 4.6% | 0hPa | 2.7V | 00:00:00 | 01:46:54 | 00:00:00 | |
| PETON7-10 | 2026-08-30 12:50:57 | 45.84708 | 16.55614 | 76° | 11km/h | 20631m | -24.0m/s | -55.7°C | 4.7% | 0hPa | 2.7V | 00:00:00 | 00:00:00 | 00:00:00 | |
| 9A1FER-10 | 2026-08-30 12:50:53 | 45.84706 | 16.55587 | 93° | 11km/h | 20726m | -25.1m/s | -55.3°C | 4.5% | 0hPa | 2.7V | 00:00:00 | 01:46:44 | 00:00:00 | |
| 9A1FER-3 | 2026-08-30 12:50:52 | 45.84706 | 16.55582 | 110° | 9km/h | 20750m | -24.6m/s | -55.4°C | 4.5% | 0hPa | 2.7V | 00:00:00 | 01:46:43 | 00:00:00 | |
| OE5DRO-10 | 2026-08-30 12:50:46 | 45.84715 | 16.55570 | 205° | 9km/h | 20902m | -24.9m/s | -55.6°C | 4.7% | 0hPa | 2.7V | 00:00:00 | 00:00:00 | 00:00:00 | |
| OE5DXL-15 | 2026-08-30 12:50:45 | 45.84717 | 16.55572 | 219° | 11km/h | 20927m | -24.4m/s | -55.7°C | 4.8% | 0hPa | 2.7V | 00:00:00 | 00:00:00 | 00:00:00 | |
| PG1ADW-2 | 2026-08-30 12:50:43 | 45.84720 | 16.55577 | 241° | 11km/h | 20974m | -23.1m/s | -55.5°C | 4.8% | 0hPa | 2.7V | 00:00:00 | 00:00:00 | 00:00:00 | |
| PETON7-10 | 2026-08-30 12:50:41 | 45.84722 | 16.55584 | 256° | 11km/h | 21018m | -23.3m/s | -55.4°C | 4.7% | 0hPa | 2.7V | 00:00:00 | 01:46:32 | 00:00:00 | |
| 9A1FER-10 | 2026-08-30 12:50:38 | 45.84722 | 16.55594 | 300° | 11km/h | 21087m | -25.1m/s | -55.5°C | 4.8% | 0hPa | 2.7V | 08:25:00 | 01:46:29 | 00:00:00 | |
| OE8JPQ-2 | 2026-08-30 12:50:37 | 45.84721 | 16.55596 | 299° | 7km/h | 21112m | -24.7m/s | -55.5°C | 4.8% | 0hPa | 2.6V | 00:00:00 | 01:46:28 | 00:00:00 | |
| OE5DRO-10 | 2026-08-30 12:50:27 | 45.84726 | 16.55563 | 122° | 11km/h | 21381m | -26.3m/s | -54.7°C | 4.4% | 0hPa | 2.6V | 00:00:00 | 00:00:00 | 00:00:00 | |
| PETON7-10 | 2026-08-30 12:50:26 | 45.84729 | 16.55558 | 131° | 11km/h | 21408m | -26.8m/s | -54.8°C | 4.4% | 0hPa | 2.6V | 08:25:00 | 00:00:00 | 00:00:00 | |
| PG1ADW-2 | 2026-08-30 12:50:23 | 45.84735 | 16.55553 | 181° | 13km/h | 21487m | -26.8m/s | -54.7°C | 4.4% | 0hPa | 2.7V | 00:00:00 | 00:00:00 | 00:00:00 | |
| 9A1FER-3 | 2026-08-30 12:50:22 | 45.84736 | 16.55553 | 195° | 13km/h | 21514m | -26.5m/s | -54.8°C | 4.4% | 0hPa | 2.7V | 08:25:00 | 01:46:13 | 00:00:00 | |
| OE8JPQ-2 | 2026-08-30 12:50:17 | 45.84739 | 16.55569 | 277° | 15km/h | 21636m | -26.1m/s | -54.7°C | 4.4% | 0hPa | 2.7V | 00:00:00 | 00:00:00 | 00:00:00 | |
| OE5DXL-15 | 2026-08-30 12:50:15 | 45.84737 | 16.55579 | 286° | 15km/h | 21688m | -26.5m/s | -54.8°C | 4.5% | 0hPa | 2.7V | 00:00:00 | 00:00:00 | 00:00:00 | |
| PETON7-10 | 2026-08-30 12:50:11 | 45.84738 | 16.55597 | 255° | 15km/h | 21790m | -24.8m/s | -54.6°C | 4.4% | 0hPa | 2.7V | 00:00:00 | 00:00:00 | 00:00:00 | |
| 9A1FER-10 | 2026-08-30 12:50:08 | 45.84742 | 16.55611 | 244° | 15km/h | 21868m | -25.7m/s | -54.3°C | 4.3% | 0hPa | 2.7V | 00:00:00 | 01:45:59 | 00:00:00 | |
| 9A1FER-3 | 2026-08-30 12:50:07 | 45.84744 | 16.55617 | 246° | 15km/h | 21893m | -25.6m/s | -54.4°C | 4.3% | 0hPa | 2.7V | 00:00:00 | 01:45:58 | 00:00:00 | |
| OE5DRO-10 | 2026-08-30 12:50:06 | 45.84746 | 16.55622 | 250° | 15km/h | 21919m | -26.6m/s | -54.3°C | 4.2% | 0hPa | 2.7V | 00:00:00 | 00:00:00 | 00:00:00 | |
| PG1ADW-2 | 2026-08-30 12:50:03 | 45.84749 | 16.55638 | 261° | 15km/h | 21991m | -22.4m/s | -54.7°C | 4.4% | 0hPa | 2.6V | 00:00:00 | 00:00:00 | 00:00:00 | |
| OE8JPQ-2 | 2026-08-30 12:49:57 | 45.84739 | 16.55668 | 316° | 13km/h | 22144m | -26.9m/s | -54.9°C | 4.6% | 0hPa | 2.6V | 00:00:00 | 00:00:00 | 00:00:00 | |
| PETON7-10 | 2026-08-30 12:49:56 | 45.84737 | 16.55672 | 319° | 16km/h | 22171m | -27.2m/s | -55.0°C | 4.5% | 0hPa | 2.6V | 00:00:00 | 01:45:47 | 00:00:00 | |
| 9A1FER-10 | 2026-08-30 12:49:53 | 45.84729 | 16.55683 | 319° | 18km/h | 22252m | -26.7m/s | -54.8°C | 4.5% | 0hPa | 2.6V | 00:00:00 | 01:45:44 | 00:00:00 | |
| 9A1FER-3 | 2026-08-30 12:49:52 | 45.84726 | 16.55686 | 309° | 18km/h | 22279m | -27.8m/s | -54.7°C | 4.5% | 0hPa | 2.6V | 00:00:00 | 01:45:43 | 00:00:00 | |
| OE5DRO-10 | 2026-08-30 12:49:47 | 45.84718 | 16.55709 | 290° | 22km/h | 22406m | -24.7m/s | -54.7°C | 4.5% | 0hPa | 2.6V | 00:00:00 | 00:00:00 | 00:00:00 | |
| PG1ADW-2 | 2026-08-30 12:49:43 | 45.84711 | 16.55735 | 290° | 26km/h | 22510m | -27.7m/s | -54.6°C | 4.5% | 0hPa | 2.6V | 00:00:00 | 01:45:34 | 00:00:00 | |
| PETON7-10 | 2026-08-30 12:49:41 | 45.84707 | 16.55751 | 290° | 26km/h | 22565m | -26.9m/s | -54.6°C | 4.5% | 0hPa | 2.6V | 00:00:00 | 00:00:00 | 00:00:00 | |
| 9A1FER-10 | 2026-08-30 12:49:38 | 45.84700 | 16.55776 | 295° | 29km/h | 22642m | -26.2m/s | -54.5°C | 4.5% | 0hPa | 2.6V | 00:00:00 | 01:45:29 | 00:00:00 | |
| 9A1FER-3 | 2026-08-30 12:49:37 | 45.84697 | 16.55784 | 296° | 27km/h | 22668m | -25.7m/s | -54.3°C | 4.4% | 0hPa | 2.6V | 00:00:00 | 01:45:28 | 00:00:00 | |
| OE5DRO-10 | 2026-08-30 12:49:28 | 45.84664 | 16.55845 | 328° | 20km/h | 22886m | -24.6m/s | -53.8°C | 4.3% | 0hPa | 2.7V | 00:00:00 | 00:00:00 | 00:00:00 | |
| PETON7-10 | 2026-08-30 12:49:26 | 45.84649 | 16.55856 | 338° | 20km/h | 22935m | -22.9m/s | -53.9°C | 4.3% | 0hPa | 2.7V | 00:00:00 | 00:00:00 | 00:00:00 | |
| PG1ADW-2 | 2026-08-30 12:49:24 | 45.84624 | 16.55866 | 351° | 15km/h | 23005m | -25.3m/s | -54.0°C | 4.3% | 0hPa | 2.7V | 00:00:00 | 00:00:00 | 00:00:00 | |
| 9A1FER-3 | 2026-08-30 12:49:22 | 45.84617 | 16.55867 | 358° | 15km/h | 23031m | -26.3m/s | -54.0°C | 4.3% | 0hPa | 2.7V | 00:00:00 | 01:45:13 | 00:00:00 | |
| 9A1FER-10 | 2026-08-30 12:49:21 | 45.84610 | 16.55868 | 2° | 13km/h | 23057m | -26.4m/s | -54.1°C | 4.4% | 0hPa | 2.7V | 00:00:00 | 01:45:12 | 00:00:00 | |
| OE8JPQ-2 | 2026-08-30 12:49:15 | 45.84589 | 16.55860 | 62° | 11km/h | 23219m | -25.7m/s | -53.8°C | 4.3% | 0hPa | 2.7V | 00:00:00 | 01:45:06 | 00:00:00 | |
| PETON7-10 | 2026-08-30 12:49:11 | 45.84594 | 16.55852 | 166° | 9km/h | 23323m | -27.4m/s | -53.7°C | 4.4% | 0hPa | 2.7V | 00:00:00 | 01:45:02 | 00:00:00 | |
| OE5DRO-10 | 2026-08-30 12:49:09 | 45.84599 | 16.55851 | 196° | 11km/h | 23377m | -27.1m/s | -53.6°C | 4.4% | 0hPa | 2.7V | 00:00:00 | 00:00:00 | 08:30:00 | |
| 9A1FER-3 | 2026-08-30 12:49:07 | 45.84605 | 16.55856 | 227° | 11km/h | 23432m | -26.7m/s | -53.7°C | 4.4% | 0hPa | 2.7V | 00:00:00 | 01:44:58 | 00:00:00 | |
| 9A1FER-10 | 2026-08-30 12:49:06 | 45.84607 | 16.55860 | 234° | 11km/h | 23458m | -26.1m/s | -53.9°C | 4.5% | 0hPa | 2.7V | 00:00:00 | 01:44:57 | 00:00:00 | |
| PG1ADW-2 | 2026-08-30 12:49:03 | 45.84610 | 16.55871 | 258° | 11km/h | 23540m | -29.9m/s | -53.9°C | 4.5% | 0hPa | 2.6V | 00:00:00 | 00:00:00 | 00:00:00 | |
| PETON7-10 | 2026-08-30 12:48:56 | 45.84614 | 16.55862 | 112° | 13km/h | 23749m | -26.1m/s | -53.0°C | 4.3% | 0hPa | 2.6V | 00:00:00 | 00:00:00 | 00:00:00 | |
| OE8JPQ-2 | 2026-08-30 12:48:53 | 45.84621 | 16.55845 | 124° | 15km/h | 23822m | -23.0m/s | -52.4°C | 4.1% | 0hPa | 2.6V | 08:27:00 | 00:00:00 | 00:00:00 | |
| 9A1FER-3 | 2026-08-30 12:48:52 | 45.84623 | 16.55840 | 140° | 13km/h | 23845m | -23.4m/s | -52.4°C | 4.1% | 0hPa | 2.6V | 00:00:00 | 01:44:43 | 00:00:00 | |
| OE5DRO-10 | 2026-08-30 12:48:51 | 45.84629 | 16.55835 | 160° | 15km/h | 23894m | -25.1m/s | -52.1°C | 3.9% | 0hPa | 2.6V | 00:00:00 | 00:00:00 | 00:00:00 | |
| OE5DXL-15 | 2026-08-30 12:48:45 | 45.84640 | 16.55841 | 234° | 16km/h | 24027m | -27.0m/s | -52.0°C | 3.9% | 0hPa | 2.6V | 00:00:00 | 00:00:00 | 00:00:00 | |
| PG1ADW-2 | 2026-08-30 12:48:43 | 45.84643 | 16.55849 | 246° | 16km/h | 24080m | -27.7m/s | -52.0°C | 4.0% | 0hPa | 2.6V | 08:27:00 | 00:00:00 | 00:00:00 | |
| PETON7-10 | 2026-08-30 12:48:41 | 45.84646 | 16.55858 | 253° | 16km/h | 24138m | -28.4m/s | -52.1°C | 4.0% | 0hPa | 2.6V | 00:00:00 | 00:00:00 | 00:00:00 | |
| 9A1FER-3 | 2026-08-30 12:48:37 | 45.84648 | 16.55877 | 272° | 18km/h | 24250m | -27.0m/s | -52.1°C | 4.0% | 0hPa | 2.6V | 00:00:00 | 01:44:28 | 00:00:00 | |
| 9A1FER-10 | 2026-08-30 12:48:36 | 45.84647 | 16.55882 | 281° | 18km/h | 24277m | -25.7m/s | -52.1°C | 4.1% | 0hPa | 2.6V | 00:00:00 | 01:44:27 | 00:00:00 | |
| OE8JPQ-2 | 2026-08-30 12:48:33 | 45.84642 | 16.55899 | 307° | 18km/h | 24358m | -29.0m/s | -52.0°C | 4.0% | 0hPa | 2.6V | 00:00:00 | 00:00:00 | 00:00:00 | |
| OE5DRO-10 | 2026-08-30 12:48:28 | 45.84623 | 16.55923 | 337° | 15km/h | 24504m | -29.3m/s | -51.7°C | 4.0% | 0hPa | 2.6V | 00:00:00 | 00:00:00 | 00:00:00 | |
| PETON7-10 | 2026-08-30 12:48:26 | 45.84616 | 16.55926 | 353° | 18km/h | 24561m | -27.1m/s | -51.6°C | 4.0% | 0hPa | 2.6V | 00:00:00 | 01:44:17 | 00:00:00 | |
| PG1ADW-2 | 2026-08-30 12:48:23 | 45.84604 | 16.55920 | 30° | 16km/h | 24644m | -27.3m/s | -51.2°C | 3.9% | 0hPa | 2.6V | 00:00:00 | 01:44:14 | 00:00:00 | |
| 9A1FER-3 | 2026-08-30 12:48:22 | 45.84601 | 16.55916 | 44° | 16km/h | 24672m | -29.6m/s | -51.0°C | 3.8% | 0hPa | 2.6V | 00:00:00 | 01:44:13 | 00:00:00 | |
| 9A1FER-10 | 2026-08-30 12:48:21 | 45.84597 | 16.55910 | 53° | 15km/h | 24702m | -29.0m/s | -50.8°C | 3.7% | 0hPa | 2.6V | 08:27:00 | 01:44:12 | 00:00:00 | |
| OE5DXL-15 | 2026-08-30 12:48:15 | 45.84586 | 16.55875 | 95° | 18km/h | 24866m | -27.3m/s | -50.8°C | 3.7% | 0hPa | 2.6V | 00:00:00 | 00:00:00 | 00:00:00 | |
| OE8JPQ-2 | 2026-08-30 12:48:12 | 45.84590 | 16.55866 | 166° | 24km/h | 24948m | -26.5m/s | -50.5°C | 3.6% | 0hPa | 2.7V | 00:00:00 | 01:44:03 | 00:00:00 | |
| PETON7-10 | 2026-08-30 12:48:11 | 45.84593 | 16.55864 | 170° | 18km/h | 24974m | -27.3m/s | -50.6°C | 3.6% | 0hPa | 2.7V | 08:27:00 | 00:00:00 | 00:00:00 | |
| 9A1FER-3 | 2026-08-30 12:48:07 | 45.84606 | 16.55869 | 216° | 22km/h | 25079m | -27.4m/s | -50.5°C | 3.6% | 0hPa | 2.6V | 08:28:00 | 01:43:58 | 00:00:00 | |
| 9A1FER-10 | 2026-08-30 12:48:06 | 45.84608 | 16.55873 | 233° | 22km/h | 25106m | -27.3m/s | -50.5°C | 3.6% | 0hPa | 2.6V | 00:00:00 | 01:43:57 | 00:00:00 | |
| PG1ADW-2 | 2026-08-30 12:48:03 | 45.84612 | 16.55887 | 270° | 22km/h | 25186m | -27.2m/s | -50.8°C | 3.7% | 0hPa | 2.6V | 00:00:00 | 00:00:00 | 00:00:00 | |
| PETON7-10 | 2026-08-30 12:47:56 | 45.84587 | 16.55928 | 336° | 20km/h | 25387m | -27.9m/s | -51.2°C | 4.0% | 0hPa | 2.6V | 00:00:00 | 00:00:00 | 00:00:00 | |
| OE8JPQ-2 | 2026-08-30 12:47:52 | 45.84560 | 16.55939 | 1° | 15km/h | 25497m | -28.2m/s | -50.9°C | 3.8% | 0hPa | 2.6V | 00:00:00 | 00:00:00 | 00:00:00 | |
| 9A1FER-10 | 2026-08-30 12:47:51 | 45.84553 | 16.55938 | 9° | 13km/h | 25525m | -29.6m/s | -50.6°C | 3.7% | 0hPa | 2.7V | 00:00:00 | 01:43:42 | 00:00:00 | |
| OE5DXL-15 | 2026-08-30 12:47:45 | 45.84527 | 16.55923 | 51° | 16km/h | 25702m | -28.6m/s | -50.7°C | 3.8% | 0hPa | 2.7V | 00:00:00 | 00:00:00 | 00:00:00 | |
| PG1ADW-2 | 2026-08-30 12:47:43 | 45.84523 | 16.55919 | 26° | 16km/h | 25757m | -29.3m/s | -50.3°C | 3.7% | 0hPa | 2.7V | 00:00:00 | 00:00:00 | 00:00:00 | |
| PETON7-10 | 2026-08-30 12:47:41 | 45.84522 | 16.55918 | 345° | 18km/h | 25815m | -28.8m/s | -50.2°C | 3.7% | 0hPa | 2.7V | 00:00:00 | 01:43:32 | 00:00:00 | |
| 9A1FER-3 | 2026-08-30 12:47:37 | 45.84516 | 16.55929 | 315° | 22km/h | 25922m | -27.1m/s | -50.3°C | 3.7% | 0hPa | 2.7V | 00:00:00 | 01:43:28 | 00:00:00 | |
| 9A1FER-10 | 2026-08-30 12:47:36 | 45.84513 | 16.55934 | 317° | 22km/h | 25950m | -29.7m/s | -50.3°C | 3.7% | 0hPa | 2.7V | 00:00:00 | 01:43:27 | 00:00:00 | |
| OE8JPQ-2 | 2026-08-30 12:47:32 | 45.84495 | 16.55951 | 341° | 16km/h | 26067m | -31.0m/s | -50.0°C | 3.7% | 0hPa | 2.6V | 00:00:00 | 00:00:00 | 00:00:00 | |
| PETON7-10 | 2026-08-30 12:47:26 | 45.84462 | 16.55957 | 9° | 15km/h | 26253m | -31.7m/s | -49.7°C | 3.5% | 0hPa | 2.6V | 00:00:00 | 00:00:00 | 00:00:00 | |
| PG1ADW-2 | 2026-08-30 12:47:23 | 45.84447 | 16.55951 | 25° | 15km/h | 26344m | -29.4m/s | -49.6°C | 3.5% | 0hPa | 2.7V | 00:00:00 | 00:00:00 | 00:00:00 | |
| 9A1FER-3 | 2026-08-30 12:47:22 | 45.84442 | 16.55948 | 25° | 13km/h | 26373m | -27.3m/s | -49.7°C | 3.5% | 0hPa | 2.7V | 00:00:00 | 01:43:13 | 00:00:00 | |
| 9A1FER-10 | 2026-08-30 12:47:21 | 45.84438 | 16.55944 | 42° | 13km/h | 26401m | -30.0m/s | -49.8°C | 3.6% | 0hPa | 2.7V | 00:00:00 | 01:43:12 | 00:00:00 | |
| OE5DXL-15 | 2026-08-30 12:47:15 | 45.84429 | 16.55919 | 105° | 15km/h | 26578m | -27.1m/s | -49.8°C | 3.7% | 0hPa | 2.7V | 00:00:00 | 00:00:00 | 00:00:00 | |
| OE8JPQ-2 | 2026-08-30 12:47:12 | 45.84430 | 16.55918 | 226° | 18km/h | 26666m | -30.3m/s | -49.5°C | 3.6% | 0hPa | 2.7V | 00:00:00 | 01:43:03 | 00:00:00 | |
| PETON7-10 | 2026-08-30 12:47:11 | 45.84430 | 16.55920 | 278° | 20km/h | 26696m | -28.5m/s | -49.6°C | 3.6% | 0hPa | 2.7V | 00:00:00 | 00:00:00 | 00:00:00 | |
| 9A1FER-3 | 2026-08-30 12:47:07 | 45.84425 | 16.55940 | 307° | 22km/h | 26809m | -28.0m/s | -49.6°C | 3.7% | 0hPa | 2.7V | 00:00:00 | 01:42:58 | 00:00:00 | |
| 9A1FER-10 | 2026-08-30 12:47:06 | 45.84421 | 16.55946 | 317° | 20km/h | 26837m | -28.2m/s | -49.7°C | 3.7% | 0hPa | 2.7V | 00:00:00 | 01:42:57 | 00:00:00 | |
| PG1ADW-2 | 2026-08-30 12:47:03 | 45.84406 | 16.55958 | 351° | 13km/h | 26927m | -31.0m/s | -49.8°C | 3.8% | 0hPa | 2.7V | 00:00:00 | 01:42:54 | 00:00:00 | |
| PETON7-10 | 2026-08-30 12:46:56 | 45.84365 | 16.55945 | 21° | 7km/h | 27136m | -28.5m/s | -48.9°C | 3.6% | 0hPa | 2.7V | 00:00:00 | 01:42:47 | 00:00:00 | |
| 9A1FER-3 | 2026-08-30 12:46:52 | 45.84353 | 16.55941 | 344° | 5km/h | 27249m | -29.1m/s | -48.4°C | 3.5% | 0hPa | 2.7V | 00:00:00 | 01:42:43 | 00:00:00 | |
| 9A1FER-10 | 2026-08-30 12:46:51 | 45.84352 | 16.55942 | 330° | 5km/h | 27278m | -29.1m/s | -48.2°C | 3.4% | 0hPa | 2.7V | 00:00:00 | 01:42:42 | 00:00:00 | |
| OE5DXL-15 | 2026-08-30 12:46:45 | 45.84348 | 16.55950 | 254° | 7km/h | 27467m | -31.6m/s | -47.3°C | 3.2% | 0hPa | 2.7V | 00:00:00 | 00:00:00 | 08:30:00 | |
| PG1ADW-2 | 2026-08-30 12:46:43 | 45.84349 | 16.55952 | 248° | 7km/h | 27526m | -27.9m/s | -47.2°C | 3.1% | 0hPa | 2.7V | 00:00:00 | 00:00:00 | 00:00:00 | |
| PETON7-10 | 2026-08-30 12:46:41 | 45.84351 | 16.55955 | 248° | 7km/h | 27583m | -28.6m/s | -47.2°C | 3.1% | 0hPa | 2.6V | 00:00:00 | 00:00:00 | 00:00:00 | |
| 9A1FER-3 | 2026-08-30 12:46:37 | 45.84353 | 16.55966 | 273° | 7km/h | 27696m | -29.4m/s | -47.1°C | 3.2% | 0hPa | 2.6V | 00:00:00 | 01:42:28 | 00:00:00 | |
| 9A1FER-10 | 2026-08-30 12:46:36 | 45.84352 | 16.55969 | 295° | 7km/h | 27725m | -29.2m/s | -47.2°C | 3.2% | 0hPa | 2.7V | 00:00:00 | 01:42:27 | 00:00:00 | |
| OE8JPQ-2 | 2026-08-30 12:46:32 | 45.84348 | 16.55973 | 25° | 9km/h | 27835m | -26.8m/s | -47.6°C | 3.3% | 0hPa | 2.7V | 00:00:00 | 00:00:00 | 00:00:00 | |
| PETON7-10 | 2026-08-30 12:46:26 | 45.84339 | 16.55964 | 21° | 11km/h | 28013m | -32.6m/s | -47.3°C | 3.3% | 0hPa | 2.7V | 00:00:00 | 00:00:00 | 00:00:00 | |
| PG1ADW-2 | 2026-08-30 12:46:23 | 45.84336 | 16.55968 | 311° | 13km/h | 28098m | -27.1m/s | -47.2°C | 3.3% | 0hPa | 2.7V | 00:00:00 | 00:00:00 | 00:00:00 | |
| 9A1FER-3 | 2026-08-30 12:46:22 | 45.84335 | 16.55970 | 299° | 13km/h | 28124m | -25.3m/s | -47.2°C | 3.3% | 0hPa | 2.7V | 00:00:00 | 01:42:13 | 00:00:00 | |
| 9A1FER-10 | 2026-08-30 12:46:21 | 45.84334 | 16.55973 | 295° | 13km/h | 28149m | -24.1m/s | -47.2°C | 3.3% | 0hPa | 2.7V | 00:00:00 | 01:42:12 | 00:00:00 | |
| OE5DXL-15 | 2026-08-30 12:46:15 | 45.84323 | 16.55988 | 19° | 20km/h | 28318m | -33.6m/s | -46.9°C | 3.3% | 0hPa | 2.7V | 00:00:00 | 00:00:00 | 00:00:00 | |
| OE8JPQ-2 | 2026-08-30 12:46:13 | 45.84314 | 16.55981 | 32° | 20km/h | 28411m | -26.9m/s | -46.5°C | 3.2% | 0hPa | 2.7V | 00:00:00 | 01:42:03 | 00:00:00 | |
| PETON7-10 | 2026-08-30 12:46:11 | 45.84311 | 16.55979 | 14° | 20km/h | 28440m | -31.0m/s | -46.5°C | 3.3% | 0hPa | 2.7V | 00:00:00 | 01:42:02 | 00:00:00 | |
| 9A1FER-3 | 2026-08-30 12:46:07 | 45.84297 | 16.55979 | 345° | 22km/h | 28563m | -33.7m/s | -46.2°C | 3.1% | 0hPa | 2.7V | 00:00:00 | 01:41:58 | 00:00:00 | |
| 9A1FER-10 | 2026-08-30 12:46:06 | 45.84293 | 16.55980 | 344° | 20km/h | 28598m | -35.5m/s | -46.2°C | 3.1% | 0hPa | 2.7V | 00:00:00 | 01:41:57 | 08:30:00 | |
| PG1ADW-2 | 2026-08-30 12:46:03 | 45.84281 | 16.55984 | 353° | 24km/h | 28709m | -38.9m/s | -45.8°C | 3.0% | 0hPa | 2.6V | 00:00:00 | 00:00:00 | 00:00:00 | |
| LZ4TU-5 | 2026-08-30 12:45:57 | 45.84254 | 16.55978 | 16° | 26km/h | 28899m | -31.7m/s | 0°C | 0% | 0hPa | 2.6V | 00:00:00 | 00:00:00 | 00:00:00 | |
| PETON7-10 | 2026-08-30 12:45:55 | 45.84235 | 16.55969 | 14° | 24km/h | 28977m | -22.1m/s | -45.4°C | 3.1% | 0hPa | 2.6V | 00:00:00 | 00:00:00 | 08:30:00 | |
| LZ4TU-5 | 2026-08-30 12:45:53 | 45.84230 | 16.55968 | 18° | 22km/h | 28999m | -22.6m/s | 0°C | 0% | 0hPa | 2.7V | 00:00:00 | 00:00:00 | 00:00:00 | |
| OE8JPQ-2 | 2026-08-30 12:45:52 | 45.84219 | 16.55961 | 28° | 24km/h | 29050m | -25.4m/s | -45.3°C | 3.0% | 0hPa | 2.7V | 00:00:00 | 00:00:00 | 08:30:00 | |
| 9A1FER-10 | 2026-08-30 12:45:51 | 45.84214 | 16.55957 | 29° | 24km/h | 29075m | -24.9m/s | -45.2°C | 3.0% | 0hPa | 2.6V | 00:00:00 | 01:41:42 | 00:00:00 | |
| OE5DXL-15 | 2026-08-30 12:45:45 | 45.84182 | 16.55930 | 31° | 27km/h | 29246m | -29.4m/s | -44.8°C | 2.8% | 0hPa | 2.6V | 00:00:00 | 00:00:00 | 00:00:00 | |
| OE5DRO-10 | 2026-08-30 12:45:44 | 45.84178 | 16.55927 | 29° | 27km/h | 29275m | -28.9m/s | -44.7°C | 2.8% | 0hPa | 2.6V | 00:00:00 | 00:00:00 | 00:00:00 | |
| PG1ADW-2 | 2026-08-30 12:45:43 | 45.84173 | 16.55923 | 23° | 27km/h | 29304m | -30.0m/s | -44.6°C | 2.8% | 0hPa | 2.7V | 00:00:00 | 01:41:34 | 08:30:00 | |
| PETON7-10 | 2026-08-30 12:45:40 | 45.84158 | 16.55914 | 23° | 29km/h | 29355m | -3.1m/s | -44.3°C | 2.7% | 0hPa | 2.7V | 00:00:00 | 00:00:00 | 00:00:00 | |
| 9A1FER-3 | 2026-08-30 12:45:37 | 45.84142 | 16.55906 | 14° | 31km/h | 29340m | 7.6m/s | -44.6°C | 2.8% | 0hPa | 2.7V | 00:00:00 | 01:41:28 | 00:00:00 | |
| OE8JPQ-2 | 2026-08-30 12:45:32 | 45.84110 | 16.55888 | 40° | 31km/h | 29306m | 6.8m/s | -44.7°C | 2.9% | 0hPa | 2.7V | 00:00:00 | 00:00:00 | 00:00:00 | |
| OE5DRO-10 | 2026-08-30 12:45:26 | 45.84066 | 16.55829 | 41° | 24km/h | 29262m | 5.5m/s | -44.9°C | 2.8% | 0hPa | 2.7V | 00:00:00 | 00:00:00 | 00:00:00 | |
| PG1ADW-2 | 2026-08-30 12:45:23 | 45.84054 | 16.55816 | 33° | 24km/h | 29249m | 7.0m/s | -44.7°C | 2.8% | 0hPa | 2.7V | 00:00:00 | 00:00:00 | 00:00:00 | |
| 9A1FER-3 | 2026-08-30 12:45:22 | 45.84049 | 16.55812 | 29° | 26km/h | 29242m | 7.0m/s | -44.7°C | 2.8% | 0hPa | 2.7V | 00:00:00 | 01:41:13 | 00:00:00 | |
| 9A1FER-10 | 2026-08-30 12:45:18 | 45.84025 | 16.55784 | 44° | 27km/h | 29208m | 7.3m/s | -44.7°C | 2.8% | 0hPa | 2.7V | 00:00:00 | 01:41:08 | 00:00:00 | |
| OE5DXL-15 | 2026-08-30 12:45:15 | 45.84013 | 16.55769 | 39° | 24km/h | 29194m | 6.2m/s | -44.7°C | 2.7% | 0hPa | 2.7V | 00:00:00 | 00:00:00 | 00:00:00 | |
| OE8JPQ-2 | 2026-08-30 12:45:12 | 45.83995 | 16.55748 | 37° | 22km/h | 29175m | 5.9m/s | -44.9°C | 2.8% | 0hPa | 2.7V | 00:00:00 | 01:41:03 | 00:00:00 | |
| PETON7-10 | 2026-08-30 12:45:10 | 45.83985 | 16.55741 | 19° | 22km/h | 29161m | 7.2m/s | -44.9°C | 2.8% | 0hPa | 2.7V | 00:00:00 | 00:00:00 | 00:00:00 | |
| 9A1FER-3 | 2026-08-30 12:45:07 | 45.83973 | 16.55737 | 10° | 24km/h | 29140m | 6.0m/s | -44.9°C | 2.8% | 0hPa | 2.6V | 00:00:00 | 01:40:58 | 00:00:00 | |
| OE5DRO-10 | 2026-08-30 12:45:06 | 45.83968 | 16.55736 | 2° | 22km/h | 29134m | 6.6m/s | -45.0°C | 2.9% | 0hPa | 2.7V | 00:00:00 | 00:00:00 | 00:00:00 | |
| 9A1FER-10 | 2026-08-30 12:45:01 | 45.83938 | 16.55733 | 19° | 24km/h | 29100m | 5.2m/s | -45.3°C | 2.9% | 0hPa | 2.7V | 00:00:00 | 01:40:52 | 00:00:00 | |
| PETON7-10 | 2026-08-30 12:44:55 | 45.83903 | 16.55713 | 45° | 24km/h | 29061m | 7.9m/s | -45.3°C | 2.9% | 0hPa | 2.7V | 00:00:00 | 00:00:00 | 00:00:00 | |
| 9A1FER-3 | 2026-08-30 12:44:52 | 45.83893 | 16.55696 | 52° | 22km/h | 29041m | 7.3m/s | -45.4°C | 2.9% | 0hPa | 2.7V | 00:00:00 | 01:40:43 | 00:00:00 | |
| OE5DRO-10 | 2026-08-30 12:44:47 | 45.83870 | 16.55683 | 2° | 24km/h | 29008m | 7.7m/s | -45.5°C | 3.0% | 0hPa | 2.7V | 00:00:00 | 00:00:00 | 08:30:00 | |
| 9A1FER-10 | 2026-08-30 12:44:46 | 45.83863 | 16.55683 | 354° | 24km/h | 29000m | 7.5m/s | -45.4°C | 2.9% | 0hPa | 2.6V | 00:00:00 | 01:40:37 | 00:00:00 | |
| OE5DXL-15 | 2026-08-30 12:44:45 | 45.83856 | 16.55684 | 351° | 22km/h | 28993m | 6.0m/s | -45.3°C | 2.9% | 0hPa | 2.6V | 00:00:00 | 00:00:00 | 00:00:00 | |
| PG1ADW-2 | 2026-08-30 12:44:43 | 45.83842 | 16.55685 | 7° | 22km/h | 28980m | 7.7m/s | -45.4°C | 2.9% | 0hPa | 2.6V | 00:00:00 | 00:00:00 | 00:00:00 | |
| PETON7-10 | 2026-08-30 12:44:40 | 45.83826 | 16.55673 | 46° | 22km/h | 28959m | 7.2m/s | -45.4°C | 2.9% | 0hPa | 2.7V | 00:00:00 | 01:40:31 | 00:00:00 | |
| 9A1FER-3 | 2026-08-30 12:44:37 | 45.83816 | 16.55661 | 30° | 22km/h | 28939m | 8.3m/s | -45.4°C | 2.9% | 0hPa | 2.7V | 00:00:00 | 01:40:28 | 00:00:00 | |
| OE8JPQ-2 | 2026-08-30 12:44:32 | 45.83788 | 16.55665 | 347° | 20km/h | 28904m | 8.5m/s | -45.4°C | 2.8% | 0hPa | 2.7V | 00:00:00 | 00:00:00 | 00:00:00 | |
| 9A1FER-10 | 2026-08-30 12:44:31 | 45.83780 | 16.55667 | 352° | 20km/h | 28897m | 6.9m/s | -45.4°C | 2.8% | 0hPa | 2.7V | 00:00:00 | 01:40:22 | 00:00:00 | |
| OE5DRO-10 | 2026-08-30 12:44:27 | 45.83755 | 16.55670 | 10° | 16km/h | 28869m | 5.5m/s | -45.6°C | 2.9% | 0hPa | 2.7V | 00:00:00 | 00:00:00 | 00:00:00 | |
| PETON7-10 | 2026-08-30 12:44:25 | 45.83747 | 16.55667 | 18° | 18km/h | 28855m | 7.3m/s | -45.6°C | 2.9% | 0hPa | 2.7V | 00:00:00 | 00:00:00 | 00:00:00 | |
| PG1ADW-2 | 2026-08-30 12:44:23 | 45.83739 | 16.55664 | 8° | 16km/h | 28843m | 6.1m/s | -45.7°C | 2.9% | 0hPa | 2.7V | 00:00:00 | 01:40:14 | 00:00:00 | |
| 9A1FER-3 | 2026-08-30 12:44:22 | 45.83735 | 16.55664 | 357° | 18km/h | 28836m | 7.9m/s | -45.8°C | 3.0% | 0hPa | 2.7V | 00:00:00 | 01:40:13 | 00:00:00 | |
| 9A1FER-10 | 2026-08-30 12:44:16 | 45.83711 | 16.55679 | 340° | 16km/h | 28793m | 6.8m/s | -45.8°C | 2.9% | 0hPa | 2.7V | 00:00:00 | 01:40:07 | 00:00:00 | |
| OE5DXL-15 | 2026-08-30 12:44:15 | 45.83706 | 16.55682 | 336° | 16km/h | 28786m | 7.2m/s | -45.8°C | 2.9% | 0hPa | 2.7V | 00:00:00 | 00:00:00 | 00:00:00 | |
| OE8JPQ-2 | 2026-08-30 12:44:12 | 45.83690 | 16.55690 | 352° | 16km/h | 28766m | 7.3m/s | -45.9°C | 2.9% | 0hPa | 2.7V | 00:00:00 | 01:40:03 | 00:00:00 | |
| PETON7-10 | 2026-08-30 12:44:10 | 45.83680 | 16.55691 | 5° | 16km/h | 28752m | 6.9m/s | -46.0°C | 3.0% | 0hPa | 2.7V | 00:00:00 | 00:00:00 | 00:00:00 | |
| OE5DRO-10 | 2026-08-30 12:44:08 | 45.83675 | 16.55691 | 341° | 16km/h | 28737m | 7.2m/s | -46.0°C | 3.0% | 0hPa | 2.7V | 00:00:00 | 00:00:00 | 00:00:00 | |
| 9A1FER-3 | 2026-08-30 12:44:07 | 45.83674 | 16.55692 | 339° | 16km/h | 28731m | 6.1m/s | -46.0°C | 3.0% | 0hPa | 2.7V | 00:00:00 | 01:39:58 | 00:00:00 | |
| PG1ADW-2 | 2026-08-30 12:44:03 | 45.83662 | 16.55694 | 345° | 16km/h | 28704m | 8.2m/s | -46.0°C | 3.0% | 0hPa | 2.7V | 00:00:00 | 00:00:00 | 00:00:00 | |
| 9A1FER-10 | 2026-08-30 12:44:01 | 45.83653 | 16.55698 | 344° | 18km/h | 28689m | 7.6m/s | -46.1°C | 3.0% | 0hPa | 2.7V | 00:00:00 | 01:39:52 | 00:00:00 | |
| PETON7-10 | 2026-08-30 12:43:55 | 45.83620 | 16.55713 | 326° | 15km/h | 28650m | 5.9m/s | -46.2°C | 3.0% | 0hPa | 2.7V | 00:00:00 | 01:39:46 | 00:00:00 | |
| 9A1FER-3 | 2026-08-30 12:43:52 | 45.83612 | 16.55715 | 12° | 16km/h | 28629m | 6.8m/s | -46.2°C | 3.1% | 0hPa | 2.7V | 00:00:00 | 01:39:43 | 00:00:00 | |
| OE5DRO-10 | 2026-08-30 12:43:49 | 45.83602 | 16.55713 | 16° | 13km/h | 28610m | 5.4m/s | -46.4°C | 3.1% | 0hPa | 2.7V | 00:00:00 | 00:00:00 | 00:00:00 | |
| 9A1FER-10 | 2026-08-30 12:43:46 | 45.83593 | 16.55704 | 41° | 16km/h | 28589m | 5.4m/s | -46.3°C | 3.1% | 0hPa | 2.6V | 00:00:00 | 01:39:37 | 08:30:00 | |
| OE5DXL-15 | 2026-08-30 12:43:45 | 45.83590 | 16.55701 | 28° | 16km/h | 28582m | 7.7m/s | -46.3°C | 3.0% | 0hPa | 2.7V | 00:00:00 | 00:00:00 | 00:00:00 | |
| PG1ADW-2 | 2026-08-30 12:43:43 | 45.83582 | 16.55697 | 9° | 16km/h | 28569m | 6.5m/s | -46.4°C | 3.0% | 0hPa | 2.6V | 00:00:00 | 00:00:00 | 00:00:00 | |
| PETON7-10 | 2026-08-30 12:43:40 | 45.83567 | 16.55695 | 3° | 16km/h | 28549m | 5.5m/s | -46.2°C | 3.0% | 0hPa | 2.7V | 00:00:00 | 00:00:00 | 08:30:00 | |
| 9A1FER-3 | 2026-08-30 12:43:37 | 45.83552 | 16.55699 | 345° | 16km/h | 28530m | 5.1m/s | -46.1°C | 3.0% | 0hPa | 2.6V | 00:00:00 | 01:39:28 | 08:30:00 | |
| OE8JPQ-2 | 2026-08-30 12:43:32 | 45.83539 | 16.55692 | 66° | 15km/h | 28494m | 5.9m/s | -46.1°C | 3.0% | 0hPa | 2.6V | 00:00:00 | 00:00:00 | 00:00:00 | |
| 9A1FER-10 | 2026-08-30 12:43:31 | 45.83538 | 16.55689 | 69° | 13km/h | 28489m | 5.2m/s | -46.2°C | 3.0% | 0hPa | 2.6V | 00:00:00 | 01:39:22 | 00:00:00 | |
| OE5DRO-10 | 2026-08-30 12:43:27 | 45.83530 | 16.55671 | 28° | 16km/h | 28464m | 7.0m/s | -46.6°C | 3.1% | 0hPa | 2.6V | 00:00:00 | 00:00:00 | 00:00:00 | |
| PETON7-10 | 2026-08-30 12:43:25 | 45.83519 | 16.55669 | 357° | 16km/h | 28449m | 6.5m/s | -46.7°C | 3.2% | 0hPa | 2.6V | 00:00:00 | 00:00:00 | 00:00:00 | |
| PG1ADW-2 | 2026-08-30 12:43:23 | 45.83505 | 16.55670 | 355° | 15km/h | 28435m | 6.1m/s | -46.8°C | 3.2% | 0hPa | 2.6V | 00:00:00 | 00:00:00 | 00:00:00 | |
| 9A1FER-10 | 2026-08-30 12:43:16 | 45.83487 | 16.55679 | 63° | 16km/h | 28390m | 6.0m/s | -46.3°C | 2.9% | 0hPa | 2.6V | 00:00:00 | 01:39:07 | 00:00:00 | |
| OE5DXL-15 | 2026-08-30 12:43:15 | 45.83485 | 16.55676 | 43° | 13km/h | 28385m | 5.1m/s | -46.3°C | 2.9% | 0hPa | 2.6V | 00:00:00 | 00:00:00 | 00:00:00 | |
| OE8JPQ-2 | 2026-08-30 12:43:12 | 45.83475 | 16.55675 | 335° | 15km/h | 28366m | 5.9m/s | -46.6°C | 3.0% | 0hPa | 2.6V | 00:00:00 | 01:39:03 | 00:00:00 | |
| PETON7-10 | 2026-08-30 12:43:10 | 45.83467 | 16.55684 | 323° | 15km/h | 28354m | 7.2m/s | -46.8°C | 3.1% | 0hPa | 2.6V | 00:00:00 | 01:39:01 | 00:00:00 | |
| 9A1FER-3 | 2026-08-30 12:43:07 | 45.83456 | 16.55697 | 311° | 13km/h | 28335m | 6.3m/s | -46.8°C | 3.1% | 0hPa | 2.6V | 00:00:00 | 01:38:58 | 00:00:00 | |
| OE5DRO-10 | 2026-08-30 12:43:06 | 45.83454 | 16.55702 | 292° | 13km/h | 28328m | 7.0m/s | -46.9°C | 3.1% | 0hPa | 2.6V | 00:00:00 | 00:00:00 | 00:00:00 | |
| PG1ADW-2 | 2026-08-30 12:43:04 | 45.83452 | 16.55719 | 279° | 11km/h | 28309m | 7.3m/s | -47.0°C | 3.2% | 0hPa | 2.6V | 00:00:00 | 01:38:54 | 00:00:00 | |
| 9A1FER-10 | 2026-08-30 12:43:01 | 45.83450 | 16.55726 | 302° | 11km/h | 28295m | 6.3m/s | -46.8°C | 3.1% | 0hPa | 2.6V | 00:00:00 | 01:38:52 | 00:00:00 | |
| PETON7-10 | 2026-08-30 12:42:55 | 45.83438 | 16.55740 | 340° | 9km/h | 28256m | 6.1m/s | -47.0°C | 3.1% | 0hPa | 2.6V | 00:00:00 | 00:00:00 | 00:00:00 | |
| OE8JPQ-2 | 2026-08-30 12:42:52 | 45.83427 | 16.55750 | 315° | 5km/h | 28237m | 4.1m/s | -46.8°C | 3.1% | 0hPa | 2.7V | 00:00:00 | 00:00:00 | 08:30:00 | |
| OE5DRO-10 | 2026-08-30 12:42:47 | 45.83418 | 16.55759 | 43° | 5km/h | 28206m | 6.9m/s | -47.0°C | 3.1% | 0hPa | 2.7V | 00:00:00 | 00:00:00 | 00:00:00 | |
| 9A1FER-10 | 2026-08-30 12:42:46 | 45.83417 | 16.55759 | 289° | 4km/h | 28199m | 6.5m/s | -47.0°C | 3.1% | 0hPa | 2.6V | 00:00:00 | 01:38:37 | 00:00:00 | |
| OE5DXL-15 | 2026-08-30 12:42:45 | 45.83417 | 16.55760 | 284° | 7km/h | 28193m | 5.2m/s | -47.0°C | 3.1% | 0hPa | 2.6V | 00:00:00 | 00:00:00 | 00:00:00 | |
| PG1ADW-2 | 2026-08-30 12:42:43 | 45.83416 | 16.55760 | 41° | 7km/h | 28180m | 8.2m/s | -47.1°C | 3.1% | 0hPa | 2.6V | 00:00:00 | 00:00:00 | 08:30:00 | |
| PETON7-10 | 2026-08-30 12:42:40 | 45.83414 | 16.55760 | 305° | 7km/h | 28160m | 6.0m/s | -47.0°C | 3.1% | 0hPa | 2.7V | 00:00:00 | 00:00:00 | 00:00:00 | |
| 9A1FER-3 | 2026-08-30 12:42:37 | 45.83412 | 16.55763 | 355° | 9km/h | 28140m | 4.6m/s | -47.0°C | 3.1% | 0hPa | 2.7V | 00:00:00 | 01:38:28 | 00:00:00 | |
| OE8JPQ-2 | 2026-08-30 12:42:32 | 45.83407 | 16.55767 | 41° | 11km/h | 28107m | 6.6m/s | -47.1°C | 3.2% | 0hPa | 2.7V | 00:00:00 | 00:00:00 | 00:00:00 | |
| 9A1FER-10 | 2026-08-30 12:42:31 | 45.83405 | 16.55764 | 46° | 9km/h | 28101m | 5.5m/s | -47.0°C | 3.1% | 0hPa | 2.7V | 00:00:00 | 01:38:22 | 00:00:00 | |
| PETON7-10 | 2026-08-30 12:42:25 | 45.83395 | 16.55742 | 53° | 9km/h | 28061m | 8.8m/s | -47.2°C | 3.1% | 0hPa | 2.7V | 00:00:00 | 01:38:16 | 00:00:00 | |
| PG1ADW-2 | 2026-08-30 12:42:23 | 45.83392 | 16.55739 | 25° | 11km/h | 28048m | 7.2m/s | -47.3°C | 3.1% | 0hPa | 2.7V | 00:00:00 | 00:00:00 | 00:00:00 | |
| 9A1FER-3 | 2026-08-30 12:42:22 | 45.83390 | 16.55738 | 27° | 11km/h | 28041m | 7.1m/s | -47.3°C | 3.1% | 0hPa | 2.7V | 00:00:00 | 01:38:13 | 00:00:00 | |
| 9A1FER-10 | 2026-08-30 12:42:16 | 45.83380 | 16.55736 | 45° | 13km/h | 28004m | 6.1m/s | -47.5°C | 3.2% | 0hPa | 2.7V | 00:00:00 | 01:38:07 | 00:00:00 | |
| OE5DXL-15 | 2026-08-30 12:42:15 | 45.83377 | 16.55732 | 47° | 9km/h | 27998m | 5.5m/s | -47.5°C | 3.2% | 0hPa | 2.7V | 00:00:00 | 00:00:00 | 08:30:00 | |
| OE8JPQ-2 | 2026-08-30 12:42:12 | 45.83369 | 16.55721 | 30° | 9km/h | 27979m | 5.8m/s | -47.6°C | 3.2% | 0hPa | 2.7V | 00:00:00 | 01:38:03 | 00:00:00 | |
| PETON7-10 | 2026-08-30 12:42:10 | 45.83363 | 16.55716 | 31° | 9km/h | 27967m | 6.8m/s | -47.7°C | 3.2% | 0hPa | 2.7V | 00:00:00 | 00:00:00 | 00:00:00 | |
| 9A1FER-3 | 2026-08-30 12:42:07 | 45.83354 | 16.55714 | 331° | 9km/h | 27948m | 7.1m/s | -47.7°C | 3.3% | 0hPa | 2.6V | 00:00:00 | 01:37:58 | 00:00:00 | |
| PG1ADW-2 | 2026-08-30 12:42:03 | 45.83344 | 16.55726 | 342° | 7km/h | 27924m | 5.2m/s | -47.8°C | 3.3% | 0hPa | 2.6V | 00:00:00 | 00:00:00 | 00:00:00 | |
| 9A1FER-10 | 2026-08-30 12:42:01 | 45.83339 | 16.55727 | 355° | 5km/h | 27913m | 5.4m/s | -47.8°C | 3.4% | 0hPa | 2.6V | 00:00:00 | 01:37:52 | 00:00:00 | |
| PETON7-10 | 2026-08-30 12:41:55 | 45.83332 | 16.55724 | 71° | 5km/h | 27876m | 6.7m/s | -47.7°C | 3.4% | 0hPa | 2.6V | 00:00:00 | 00:00:00 | 00:00:00 | |
| OE8JPQ-2 | 2026-08-30 12:41:52 | 45.83329 | 16.55726 | 327° | 7km/h | 27859m | 5.2m/s | -47.6°C | 3.2% | 0hPa | 2.6V | 00:00:00 | 00:00:00 | 00:00:00 | |
| 9A1FER-10 | 2026-08-30 12:41:46 | 45.83325 | 16.55731 | 249° | 9km/h | 27822m | 6.5m/s | -47.4°C | 3.3% | 0hPa | 2.7V | 00:00:00 | 01:37:37 | 00:00:00 | |
| OE5DXL-15 | 2026-08-30 12:41:45 | 45.83326 | 16.55734 | 241° | 9km/h | 27816m | 5.1m/s | -47.4°C | 3.3% | 0hPa | 2.7V | 00:00:00 | 00:00:00 | 00:00:00 | |
| PG1ADW-2 | 2026-08-30 12:41:43 | 45.83327 | 16.55738 | 258° | 9km/h | 27803m | 4.9m/s | -47.4°C | 3.3% | 0hPa | 2.7V | 00:00:00 | 01:37:34 | 00:00:00 | |
| PETON7-10 | 2026-08-30 12:41:40 | 45.83325 | 16.55746 | 313° | 9km/h | 27784m | 5.4m/s | -47.3°C | 3.2% | 0hPa | 2.7V | 00:00:00 | 01:37:31 | 00:00:00 | |
| 9A1FER-3 | 2026-08-30 12:41:37 | 45.83318 | 16.55751 | 350° | 9km/h | 27766m | 5.1m/s | -47.2°C | 3.2% | 0hPa | 2.7V | 00:00:00 | 01:37:28 | 00:00:00 | |
| OE8JPQ-2 | 2026-08-30 12:41:32 | 45.83318 | 16.55761 | 203° | 9km/h | 27734m | 6.7m/s | -47.2°C | 3.2% | 0hPa | 2.7V | 00:00:00 | 00:00:00 | 00:00:00 | |
| 9A1FER-10 | 2026-08-30 12:41:31 | 45.83320 | 16.55763 | 207° | 7km/h | 27728m | 5.7m/s | -47.1°C | 3.1% | 0hPa | 2.7V | 00:00:00 | 01:37:22 | 08:30:00 | |
| PETON7-10 | 2026-08-30 12:41:25 | 45.83325 | 16.55770 | 21° | 7km/h | 27690m | 6.1m/s | -47.2°C | 3.2% | 0hPa | 2.7V | 00:00:00 | 00:00:00 | 08:30:00 | |
| PG1ADW-2 | 2026-08-30 12:41:23 | 45.83320 | 16.55769 | 353° | 7km/h | 27677m | 5.9m/s | -47.3°C | 3.2% | 0hPa | 2.6V | 00:00:00 | 00:00:00 | 00:00:00 | |
| 9A1FER-3 | 2026-08-30 12:41:22 | 45.83318 | 16.55770 | 357° | 7km/h | 27670m | 7.0m/s | -47.3°C | 3.2% | 0hPa | 2.6V | 00:00:00 | 01:37:13 | 08:30:00 | |
| 9A1FER-10 | 2026-08-30 12:41:16 | 45.83319 | 16.55779 | 224° | 7km/h | 27634m | 6.8m/s | -47.3°C | 3.2% | 0hPa | 2.6V | 00:00:00 | 01:37:07 | 00:00:00 | |
| OE5DXL-15 | 2026-08-30 12:41:15 | 45.83321 | 16.55781 | 210° | 7km/h | 27627m | 6.5m/s | -47.2°C | 3.1% | 0hPa | 2.6V | 00:00:00 | 00:00:00 | 00:00:00 | |
| OE8JPQ-2 | 2026-08-30 12:41:12 | 45.83327 | 16.55786 | 229° | 7km/h | 27608m | 6.5m/s | -47.2°C | 3.1% | 0hPa | 2.6V | 00:00:00 | 01:37:03 | 00:00:00 | |
| PETON7-10 | 2026-08-30 12:41:10 | 45.83329 | 16.55789 | 200° | 7km/h | 27595m | 7.0m/s | -47.2°C | 3.2% | 0hPa | 2.6V | 00:00:00 | 00:00:00 | 00:00:00 | |
| 9A1FER-3 | 2026-08-30 12:41:07 | 45.83330 | 16.55792 | 303° | 7km/h | 27576m | 7.5m/s | -47.2°C | 3.3% | 0hPa | 2.6V | 00:00:00 | 01:36:58 | 00:00:00 | |
| PG1ADW-2 | 2026-08-30 12:41:03 | 45.83323 | 16.55800 | 331° | 7km/h | 27550m | 5.9m/s | -47.2°C | 3.2% | 0hPa | 2.6V | 00:00:00 | 00:00:00 | 00:00:00 | |
| 9A1FER-10 | 2026-08-30 12:41:01 | 45.83319 | 16.55805 | 311° | 7km/h | 27536m | 5.6m/s | -47.3°C | 3.2% | 0hPa | 2.6V | 00:00:00 | 01:36:52 | 00:00:00 | |
| PETON7-10 | 2026-08-30 12:40:55 | 45.83319 | 16.55815 | 247° | 7km/h | 27499m | 6.7m/s | -47.3°C | 3.1% | 0hPa | 2.6V | 00:00:00 | 01:36:46 | 00:00:00 | |
| 9A1FER-3 | 2026-08-30 12:40:52 | 45.83321 | 16.55823 | 258° | 7km/h | 27479m | 5.6m/s | -47.4°C | 3.2% | 0hPa | 2.6V | 00:00:00 | 01:36:43 | 00:00:00 | |
| 9A1FER-10 | 2026-08-30 12:40:46 | 45.83312 | 16.55839 | 9° | 7km/h | 27441m | 5.9m/s | -47.6°C | 3.2% | 0hPa | 2.6V | 00:00:00 | 01:36:37 | 00:00:00 | |
| OE5DXL-15 | 2026-08-30 12:40:45 | 45.83311 | 16.55838 | 25° | 11km/h | 27435m | 6.1m/s | -47.7°C | 3.2% | 0hPa | 2.6V | 00:00:00 | 00:00:00 | 00:00:00 | |
| PETON7-10 | 2026-08-30 12:40:40 | 45.83312 | 16.55837 | 156° | 11km/h | 27402m | 5.9m/s | -47.8°C | 3.2% | 0hPa | 2.6V | 00:00:00 | 00:00:00 | 00:00:00 | |
| 9A1FER-3 | 2026-08-30 12:40:37 | 45.83313 | 16.55840 | 306° | 11km/h | 27381m | 6.5m/s | -47.9°C | 3.3% | 0hPa | 2.7V | 00:00:00 | 01:36:28 | 00:00:00 | |
| OE8JPQ-2 | 2026-08-30 12:40:32 | 45.83298 | 16.55847 | 347° | 16km/h | 27348m | 6.6m/s | -48.0°C | 3.3% | 0hPa | 2.6V | 00:00:00 | 00:00:00 | 00:00:00 | |
| 9A1FER-10 | 2026-08-30 12:40:31 | 45.83295 | 16.55848 | 356° | 13km/h | 27341m | 5.6m/s | -48.1°C | 3.3% | 0hPa | 2.6V | 00:00:00 | 01:36:22 | 00:00:00 | |
| PETON7-10 | 2026-08-30 12:40:25 | 45.83286 | 16.55832 | 77° | 18km/h | 27301m | 5.6m/s | -48.1°C | 3.2% | 0hPa | 2.6V | 00:00:00 | 00:00:00 | 00:00:00 | |
| PG1ADW-2 | 2026-08-30 12:40:23 | 45.83285 | 16.55828 | 60° | 20km/h | 27288m | 5.4m/s | -48.2°C | 3.3% | 0hPa | 2.6V | 00:00:00 | 01:36:14 | 00:00:00 | |
| 9A1FER-3 | 2026-08-30 12:40:22 | 45.83284 | 16.55826 | 22° | 20km/h | 27281m | 7.5m/s | -48.2°C | 3.3% | 0hPa | 2.6V | 00:00:00 | 01:36:13 | 00:00:00 | |
| 9A1FER-10 | 2026-08-30 12:40:16 | 45.83253 | 16.55814 | 33° | 24km/h | 27242m | 5.7m/s | -48.5°C | 3.3% | 0hPa | 2.6V | 00:00:00 | 01:36:07 | 00:00:00 | |
| OE5DXL-15 | 2026-08-30 12:40:15 | 45.83247 | 16.55808 | 32° | 26km/h | 27236m | 7.0m/s | -48.5°C | 3.3% | 0hPa | 2.6V | 00:00:00 | 00:00:00 | 00:00:00 | |
| OE8JPQ-2 | 2026-08-30 12:40:12 | 45.83230 | 16.55795 | 36° | 26km/h | 27216m | 6.5m/s | -48.6°C | 3.3% | 0hPa | 2.6V | 00:00:00 | 01:36:03 | 00:00:00 | |
| PETON7-10 | 2026-08-30 12:40:10 | 45.83225 | 16.55786 | 56° | 27km/h | 27202m | 5.3m/s | -48.6°C | 3.3% | 0hPa | 2.6V | 00:00:00 | 01:36:01 | 00:00:00 | |
| 9A1FER-3 | 2026-08-30 12:40:07 | 45.83216 | 16.55779 | 11° | 29km/h | 27183m | 5.8m/s | -48.5°C | 3.4% | 0hPa | 2.6V | 00:00:00 | 01:35:58 | 00:00:00 | |
| 9A1FER-10 | 2026-08-30 12:40:01 | 45.83171 | 16.55766 | 5° | 29km/h | 27143m | 7.5m/s | -48.7°C | 3.3% | 0hPa | 2.6V | 00:00:00 | 01:35:52 | 00:00:00 | |
| PETON7-10 | 2026-08-30 12:39:55 | 45.83127 | 16.55753 | 13° | 29km/h | 27103m | 7.3m/s | -48.7°C | 3.4% | 0hPa | 2.6V | 00:00:00 | 00:00:00 | 00:00:00 | |
| OE8JPQ-2 | 2026-08-30 12:39:52 | 45.83109 | 16.55748 | 14° | 27km/h | 27084m | 7.1m/s | -48.8°C | 3.4% | 0hPa | 2.7V | 00:00:00 | 00:00:00 | 08:30:00 | |
| 9A1FER-10 | 2026-08-30 12:39:46 | 45.83066 | 16.55746 | 353° | 27km/h | 27043m | 7.3m/s | -49.1°C | 3.4% | 0hPa | 2.6V | 00:00:00 | 01:35:37 | 00:00:00 | |
| OE5DXL-15 | 2026-08-30 12:39:45 | 45.83058 | 16.55747 | 357° | 27km/h | 27037m | 6.2m/s | -49.1°C | 3.4% | 0hPa | 2.6V | 00:00:00 | 00:00:00 | 00:00:00 | |
| PG1ADW-2 | 2026-08-30 12:39:43 | 45.83041 | 16.55748 | 356° | 27km/h | 27025m | 6.7m/s | -49.2°C | 3.5% | 0hPa | 2.6V | 00:00:00 | 00:00:00 | 08:30:00 | |
| PETON7-10 | 2026-08-30 12:39:40 | 45.83019 | 16.55756 | 341° | 27km/h | 27004m | 6.5m/s | -49.1°C | 3.4% | 0hPa | 2.6V | 00:00:00 | 00:00:00 | 00:00:00 | |
| 9A1FER-3 | 2026-08-30 12:39:37 | 45.83001 | 16.55763 | 345° | 26km/h | 26983m | 6.2m/s | -49.3°C | 3.4% | 0hPa | 2.6V | 00:00:00 | 01:35:28 | 00:00:00 | |
| OE8JPQ-2 | 2026-08-30 12:39:32 | 45.82970 | 16.55779 | 349° | 24km/h | 26948m | 6.1m/s | -49.8°C | 3.6% | 0hPa | 2.6V | 00:00:00 | 00:00:00 | 00:00:00 | |
| 9A1FER-10 | 2026-08-30 12:39:31 | 45.82962 | 16.55782 | 347° | 26km/h | 26942m | 6.9m/s | -49.8°C | 3.6% | 0hPa | 2.6V | 00:00:00 | 01:35:22 | 00:00:00 | |
| PETON7-10 | 2026-08-30 12:39:25 | 45.82925 | 16.55810 | 314° | 20km/h | 26902m | 5.6m/s | -49.8°C | 3.7% | 0hPa | 2.6V | 00:00:00 | 01:35:16 | 00:00:00 | |
| PG1ADW-2 | 2026-08-30 12:39:23 | 45.82919 | 16.55822 | 296° | 16km/h | 26887m | 7.6m/s | -49.6°C | 3.6% | 0hPa | 2.6V | 00:00:00 | 00:00:00 | 00:00:00 | |
| 9A1FER-3 | 2026-08-30 12:39:22 | 45.82917 | 16.55829 | 299° | 18km/h | 26880m | 5.7m/s | -49.5°C | 3.6% | 0hPa | 2.6V | 00:00:00 | 01:35:13 | 00:00:00 | |
| 9A1FER-10 | 2026-08-30 12:39:16 | 45.82890 | 16.55863 | 329° | 13km/h | 26839m | 7.9m/s | -49.5°C | 3.5% | 0hPa | 2.6V | 00:00:00 | 01:35:07 | 08:30:00 | |
| OE5DXL-15 | 2026-08-30 12:39:15 | 45.82885 | 16.55867 | 332° | 9km/h | 26831m | 6.4m/s | -49.4°C | 3.5% | 0hPa | 2.6V | 00:00:00 | 00:00:00 | 00:00:00 | |
| OE8JPQ-2 | 2026-08-30 12:39:12 | 45.82876 | 16.55879 | 291° | 9km/h | 26811m | 5.8m/s | -49.4°C | 3.5% | 0hPa | 2.6V | 00:00:00 | 01:35:03 | 00:00:00 | |
| PETON7-10 | 2026-08-30 12:39:10 | 45.82876 | 16.55885 | 260° | 11km/h | 26796m | 7.3m/s | -49.3°C | 3.5% | 0hPa | 2.6V | 00:00:00 | 00:00:00 | 08:30:00 | |
| 9A1FER-3 | 2026-08-30 12:39:07 | 45.82875 | 16.55893 | 294° | 9km/h | 26776m | 6.3m/s | -49.3°C | 3.5% | 0hPa | 2.7V | 00:00:00 | 01:34:58 | 08:30:00 | |
| PG1ADW-2 | 2026-08-30 12:39:03 | 45.82864 | 16.55904 | 344° | 7km/h | 26749m | 7.0m/s | -49.5°C | 3.6% | 0hPa | 2.6V | 00:00:00 | 01:34:54 | 00:00:00 | |
| 9A1FER-10 | 2026-08-30 12:39:01 | 45.82858 | 16.55908 | 330° | 5km/h | 26734m | 5.6m/s | -49.4°C | 3.6% | 0hPa | 2.6V | 00:00:00 | 01:34:52 | 00:00:00 | |
| PETON7-10 | 2026-08-30 12:38:55 | 45.82848 | 16.55906 | 68° | 5km/h | 26695m | 6.9m/s | -49.3°C | 3.5% | 0hPa | 2.6V | 00:00:00 | 00:00:00 | 00:00:00 | |
| 9A1FER-3 | 2026-08-30 12:38:52 | 45.82851 | 16.55906 | 158° | 7km/h | 26676m | 7.1m/s | -49.3°C | 3.5% | 0hPa | 2.6V | 00:00:00 | 01:34:43 | 00:00:00 | |
| 9A1FER-10 | 2026-08-30 12:38:46 | 45.82849 | 16.55901 | 46° | 11km/h | 26634m | 7.2m/s | -49.2°C | 3.4% | 0hPa | 2.6V | 00:00:00 | 01:34:37 | 00:00:00 | |
| OE5DXL-15 | 2026-08-30 12:38:45 | 45.82847 | 16.55898 | 50° | 15km/h | 26628m | 5.7m/s | -49.2°C | 3.5% | 0hPa | 2.6V | 00:00:00 | 00:00:00 | 00:00:00 | |
| PG1ADW-2 | 2026-08-30 12:38:43 | 45.82842 | 16.55892 | 34° | 13km/h | 26614m | 6.7m/s | -49.4°C | 3.5% | 0hPa | 2.6V | 00:00:00 | 00:00:00 | 00:00:00 | |
| PETON7-10 | 2026-08-30 12:38:40 | 45.82837 | 16.55885 | 63° | 13km/h | 26593m | 7.1m/s | -49.4°C | 3.5% | 0hPa | 2.6V | 00:00:00 | 01:34:31 | 00:00:00 | |
| 9A1FER-3 | 2026-08-30 12:38:37 | 45.82834 | 16.55876 | 50° | 15km/h | 26574m | 5.8m/s | -49.5°C | 3.6% | 0hPa | 2.6V | 00:00:00 | 01:34:28 | 00:00:00 | |
| OE8JPQ-2 | 2026-08-30 12:38:32 | 45.82825 | 16.55858 | 39° | 18km/h | 26540m | 7.0m/s | -49.6°C | 3.6% | 0hPa | 2.6V | 00:00:00 | 00:00:00 | 00:00:00 | |
| 9A1FER-10 | 2026-08-30 12:38:31 | 45.82823 | 16.55856 | 36° | 16km/h | 26534m | 6.0m/s | -49.7°C | 3.6% | 0hPa | 2.6V | 00:00:00 | 01:34:22 | 00:00:00 | |
| PETON7-10 | 2026-08-30 12:38:25 | 45.82800 | 16.55836 | 39° | 20km/h | 26493m | 8.0m/s | -49.6°C | 3.5% | 0hPa | 2.6V | 00:00:00 | 00:00:00 | 00:00:00 | |
| PG1ADW-2 | 2026-08-30 12:38:23 | 45.82794 | 16.55827 | 58° | 18km/h | 26480m | 5.9m/s | 0°C | 0% | 0hPa | 2.7V | 00:00:00 | 00:00:00 | 00:00:00 | |
| 9A1FER-3 | 2026-08-30 12:38:22 | 45.82792 | 16.55823 | 58° | 20km/h | 26473m | 7.9m/s | -49.6°C | 3.6% | 0hPa | 2.7V | 00:00:00 | 01:34:13 | 00:00:00 | |
| 9A1FER-10 | 2026-08-30 12:38:16 | 45.82771 | 16.55801 | 28° | 20km/h | 26434m | 7.9m/s | -49.7°C | 3.6% | 0hPa | 2.6V | 00:00:00 | 01:34:07 | 00:00:00 | |
| OE5DXL-15 | 2026-08-30 12:38:15 | 45.82766 | 16.55797 | 22° | 22km/h | 26426m | 7.0m/s | -49.7°C | 3.6% | 0hPa | 2.6V | 00:00:00 | 00:00:00 | 00:00:00 | |
| OE8JPQ-2 | 2026-08-30 12:38:12 | 45.82749 | 16.55787 | 27° | 22km/h | 26407m | 5.7m/s | -49.6°C | 3.6% | 0hPa | 2.6V | 00:00:00 | 01:34:03 | 00:00:00 | |
| PETON7-10 | 2026-08-30 12:38:10 | 45.82739 | 16.55781 | 16° | 20km/h | 26393m | 7.2m/s | -49.6°C | 3.6% | 0hPa | 2.6V | 00:00:00 | 00:00:00 | 00:00:00 | |
| 9A1FER-3 | 2026-08-30 12:38:07 | 45.82727 | 16.55775 | 30° | 22km/h | 26373m | 6.8m/s | -49.5°C | 3.5% | 0hPa | 2.6V | 00:00:00 | 01:33:58 | 00:00:00 | |
| PG1ADW-2 | 2026-08-30 12:38:03 | 45.82711 | 16.55764 | 14° | 24km/h | 26348m | 6.4m/s | -49.5°C | 3.5% | 0hPa | 2.6V | 00:00:00 | 00:00:00 | 00:00:00 | |
| 9A1FER-10 | 2026-08-30 12:38:01 | 45.82700 | 16.55760 | 19° | 24km/h | 26334m | 6.1m/s | -49.3°C | 3.4% | 0hPa | 2.6V | 00:00:00 | 01:33:52 | 00:00:00 | |
| PETON7-10 | 2026-08-30 12:37:55 | 45.82667 | 16.55756 | 360° | 26km/h | 26297m | 6.8m/s | -49.4°C | 3.5% | 0hPa | 2.6V | 00:00:00 | 01:33:46 | 00:00:00 | |
| 9A1FER-3 | 2026-08-30 12:37:52 | 45.82647 | 16.55755 | 358° | 27km/h | 26279m | 6.4m/s | -49.5°C | 3.6% | 0hPa | 2.6V | 00:00:00 | 01:33:43 | 00:00:00 | |
| OE8JPQ-2 | 2026-08-30 12:37:49 | 45.82626 | 16.55756 | 6° | 26km/h | 26260m | 6.8m/s | -49.5°C | 3.5% | 0hPa | 2.6V | 00:00:00 | 00:00:00 | 00:00:00 | |
| 9A1FER-10 | 2026-08-30 12:37:46 | 45.82609 | 16.55753 | 359° | 27km/h | 26241m | 7.4m/s | -49.6°C | 3.5% | 0hPa | 2.7V | 00:00:00 | 01:33:37 | 00:00:00 | |
| OE5DXL-15 | 2026-08-30 12:37:45 | 45.82604 | 16.55754 | 355° | 24km/h | 26235m | 5.4m/s | -49.5°C | 3.6% | 0hPa | 2.6V | 00:00:00 | 00:00:00 | 08:30:00 | |
| PG1ADW-2 | 2026-08-30 12:37:43 | 45.82594 | 16.55755 | 357° | 26km/h | 26222m | 5.3m/s | -49.6°C | 3.5% | 0hPa | 2.6V | 00:00:00 | 01:33:34 | 00:00:00 | |
| PETON7-10 | 2026-08-30 12:37:40 | 45.82573 | 16.55761 | 340° | 26km/h | 26204m | 6.2m/s | -49.5°C | 3.4% | 0hPa | 2.7V | 00:00:00 | 00:00:00 | 00:00:00 | |
| 9A1FER-3 | 2026-08-30 12:37:37 | 45.82547 | 16.55777 | 342° | 24km/h | 26186m | 6.1m/s | -49.6°C | 3.4% | 0hPa | 2.6V | 00:00:00 | 01:33:28 | 00:00:00 | |
| 9A1FER-10 | 2026-08-30 12:37:31 | 45.82512 | 16.55791 | 347° | 20km/h | 26149m | 5.9m/s | -49.7°C | 3.5% | 0hPa | 2.6V | 00:00:00 | 01:33:22 | 00:00:00 | |
| OE8JPQ-2 | 2026-08-30 12:37:29 | 45.82505 | 16.55795 | 327° | 22km/h | 26138m | 6.7m/s | -49.7°C | 3.5% | 0hPa | 2.6V | 00:00:00 | 00:00:00 | 00:00:00 | |
| OE5DRO-10 | 2026-08-30 12:37:27 | 45.82498 | 16.55805 | 314° | 24km/h | 26125m | 5.8m/s | -49.8°C | 3.5% | 0hPa | 2.6V | 00:00:00 | 00:00:00 | 08:30:00 | |
| PETON7-10 | 2026-08-30 12:37:25 | 45.82487 | 16.55818 | 327° | 22km/h | 26112m | 6.0m/s | -50.0°C | 3.6% | 0hPa | 2.7V | 00:00:00 | 00:00:00 | 00:00:00 | |
| PG1ADW-2 | 2026-08-30 12:37:23 | 45.82476 | 16.55829 | 324° | 18km/h | 26099m | 7.0m/s | -50.1°C | 3.6% | 0hPa | 2.7V | 00:00:00 | 00:00:00 | 00:00:00 | |
| 9A1FER-3 | 2026-08-30 12:37:22 | 45.82471 | 16.55834 | 322° | 20km/h | 26093m | 5.7m/s | -50.1°C | 3.5% | 0hPa | 2.7V | 00:00:00 | 01:33:13 | 00:00:00 | |
| 9A1FER-10 | 2026-08-30 12:37:16 | 45.82451 | 16.55852 | 310° | 18km/h | 26057m | 5.2m/s | -50.1°C | 3.6% | 0hPa | 2.7V | 00:00:00 | 01:33:07 | 00:00:00 | |
| OE5DXL-15 | 2026-08-30 12:37:15 | 45.82448 | 16.55857 | 314° | 11km/h | 26051m | 5.9m/s | -50.1°C | 3.6% | 0hPa | 2.7V | 00:00:00 | 00:00:00 | 00:00:00 | |
| PETON7-10 | 2026-08-30 12:37:10 | 45.82425 | 16.55885 | 315° | 11km/h | 26022m | 5.4m/s | -50.4°C | 3.7% | 0hPa | 2.7V | 00:00:00 | 01:33:01 | 00:00:00 | |
| OE8JPQ-2 | 2026-08-30 12:37:09 | 45.82421 | 16.55890 | 317° | 9km/h | 26016m | 5.6m/s | -50.3°C | 3.7% | 0hPa | 2.7V | 00:00:00 | 01:33:00 | 00:00:00 | |
| OE5DRO-10 | 2026-08-30 12:37:08 | 45.82417 | 16.55894 | 326° | 9km/h | 26010m | 6.2m/s | -50.4°C | 3.7% | 0hPa | 2.7V | 00:00:00 | 00:00:00 | 00:00:00 | |
| 9A1FER-3 | 2026-08-30 12:37:07 | 45.82414 | 16.55897 | 328° | 9km/h | 26005m | 4.5m/s | -50.4°C | 3.6% | 0hPa | 2.7V | 00:00:00 | 01:32:58 | 00:00:00 | |
| PG1ADW-2 | 2026-08-30 12:37:03 | 45.82407 | 16.55910 | 302° | 7km/h | 25980m | 6.7m/s | -50.4°C | 3.6% | 0hPa | 2.7V | 00:00:00 | 00:00:00 | 00:00:00 | |
| 9A1FER-10 | 2026-08-30 12:37:01 | 45.82405 | 16.55915 | 291° | 7km/h | 25968m | 6.8m/s | -50.5°C | 3.7% | 0hPa | 2.7V | 00:00:00 | 01:32:52 | 08:30:00 | |
| PETON7-10 | 2026-08-30 12:36:55 | 45.82399 | 16.55931 | 312° | 5km/h | 25931m | 6.8m/s | -50.4°C | 3.7% | 0hPa | 2.6V | 00:00:00 | 00:00:00 | 08:30:00 | |
| 9A1FER-3 | 2026-08-30 12:36:52 | 45.82395 | 16.55934 | 10° | 7km/h | 25912m | 6.0m/s | -50.4°C | 3.6% | 0hPa | 2.7V | 00:00:00 | 01:32:43 | 08:30:00 | |
| OE8JPQ-2 | 2026-08-30 12:36:49 | 45.82391 | 16.55934 | 324° | 9km/h | 25894m | 5.4m/s | -50.4°C | 3.6% | 0hPa | 2.6V | 00:00:00 | 00:00:00 | 08:30:00 | |
| 9A1FER-10 | 2026-08-30 12:36:46 | 45.82388 | 16.55934 | 2° | 11km/h | 25876m | 5.0m/s | -50.4°C | 3.6% | 0hPa | 2.7V | 00:00:00 | 01:32:37 | 00:00:00 | |
| OE5DXL-15 | 2026-08-30 12:36:45 | 45.82386 | 16.55934 | 356° | 15km/h | 25870m | 5.8m/s | -50.5°C | 3.6% | 0hPa | 2.7V | 00:00:00 | 00:00:00 | 00:00:00 | |
| PG1ADW-2 | 2026-08-30 12:36:43 | 45.82383 | 16.55936 | 329° | 11km/h | 25859m | 4.9m/s | -50.4°C | 3.7% | 0hPa | 2.7V | 00:00:00 | 00:00:00 | 08:30:00 | |
| PETON7-10 | 2026-08-30 12:36:39 | 45.82377 | 16.55930 | 40° | 13km/h | 25836m | 5.8m/s | -50.5°C | 3.6% | 0hPa | 2.7V | 00:00:00 | 00:00:00 | 00:00:00 | |
| 9A1FER-3 | 2026-08-30 12:36:37 | 45.82371 | 16.55925 | 28° | 13km/h | 25824m | 5.6m/s | -50.5°C | 3.6% | 0hPa | 2.7V | 00:00:00 | 01:32:28 | 00:00:00 | |
| 9A1FER-10 | 2026-08-30 12:36:31 | 45.82353 | 16.55911 | 7° | 16km/h | 25788m | 6.1m/s | -50.8°C | 3.7% | 0hPa | 2.7V | 00:00:00 | 01:32:22 | 00:00:00 | |
| OE5DRO-10 | 2026-08-30 12:36:30 | 45.82351 | 16.55910 | 17° | 18km/h | 25781m | 6.6m/s | -50.9°C | 3.7% | 0hPa | 2.7V | 00:00:00 | 00:00:00 | 00:00:00 | |
| OE8JPQ-2 | 2026-08-30 12:36:29 | 45.82349 | 16.55908 | 31° | 20km/h | 25775m | 5.5m/s | -51.0°C | 3.7% | 0hPa | 2.7V | 00:00:00 | 00:00:00 | 00:00:00 | |
| PETON7-10 | 2026-08-30 12:36:24 | 45.82335 | 16.55898 | 41° | 24km/h | 25746m | 7.1m/s | -51.2°C | 3.8% | 0hPa | 2.7V | 00:00:00 | 01:32:15 | 00:00:00 | |
| PG1ADW-2 | 2026-08-30 12:36:23 | 45.82332 | 16.55894 | 44° | 22km/h | 25740m | 5.3m/s | -51.2°C | 3.8% | 0hPa | 2.7V | 00:00:00 | 01:32:14 | 00:00:00 | |
| 9A1FER-3 | 2026-08-30 12:36:22 | 45.82328 | 16.55889 | 42° | 24km/h | 25735m | 5.7m/s | -51.3°C | 3.8% | 0hPa | 2.7V | 00:00:00 | 01:32:13 | 00:00:00 | |
| 9A1FER-10 | 2026-08-30 12:36:16 | 45.82296 | 16.55876 | 3° | 24km/h | 25699m | 4.7m/s | -51.4°C | 4.0% | 0hPa | 2.7V | 00:00:00 | 01:32:07 | 00:00:00 | |
| OE5DXL-15 | 2026-08-30 12:36:15 | 45.82290 | 16.55876 | 356° | 26km/h | 25693m | 7.8m/s | -51.3°C | 3.9% | 0hPa | 2.6V | 00:00:00 | 00:00:00 | 00:00:00 | |
| OE5DRO-10 | 2026-08-30 12:36:11 | 45.82262 | 16.55877 | 2° | 26km/h | 25668m | 5.8m/s | -51.3°C | 3.8% | 0hPa | 2.7V | 00:00:00 | 00:00:00 | 00:00:00 | |
| OE8JPQ-2 | 2026-08-30 12:36:09 | 45.82249 | 16.55878 | 359° | 24km/h | 25655m | 5.6m/s | -51.2°C | 3.8% | 0hPa | 2.7V | 00:00:00 | 01:32:00 | 00:00:00 | |
| 9A1FER-3 | 2026-08-30 12:36:07 | 45.82240 | 16.55876 | 14° | 24km/h | 25642m | 5.6m/s | -51.2°C | 3.8% | 0hPa | 2.7V | 00:00:00 | 01:31:58 | 00:00:00 | |
| PG1ADW-2 | 2026-08-30 12:36:03 | 45.82220 | 16.55879 | 344° | 27km/h | 25617m | 6.8m/s | -51.0°C | 3.8% | 0hPa | 2.7V | 00:00:00 | 00:00:00 | 00:00:00 | |
| 9A1FER-10 | 2026-08-30 12:36:01 | 45.82208 | 16.55884 | 340° | 26km/h | 25605m | 4.1m/s | -51.0°C | 3.8% | 0hPa | 2.7V | 00:00:00 | 01:31:52 | 00:00:00 | |
| PETON7-10 | 2026-08-30 12:35:54 | 45.82169 | 16.55906 | 6° | 31km/h | 25563m | 4.8m/s | -51.4°C | 3.8% | 0hPa | 2.7V | 00:00:00 | 00:00:00 | 00:00:00 | |
| 9A1FER-3 | 2026-08-30 12:35:52 | 45.82156 | 16.55906 | 358° | 29km/h | 25550m | 6.7m/s | -51.6°C | 3.9% | 0hPa | 2.7V | 00:00:00 | 01:31:43 | 00:00:00 | |
| OE8JPQ-2 | 2026-08-30 12:35:49 | 45.82136 | 16.55910 | 342° | 27km/h | 25532m | 5.1m/s | -51.7°C | 3.9% | 0hPa | 2.7V | 00:00:00 | 00:00:00 | 00:00:00 | |
| OE5DRO-10 | 2026-08-30 12:35:47 | 45.82124 | 16.55921 | 315° | 26km/h | 25518m | 6.4m/s | -51.7°C | 3.9% | 0hPa | 2.6V | 00:00:00 | 00:00:00 | 00:00:00 | |
| 9A1FER-10 | 2026-08-30 12:35:46 | 45.82119 | 16.55929 | 311° | 29km/h | 25513m | 4.7m/s | -51.6°C | 3.9% | 0hPa | 2.6V | 00:00:00 | 01:31:37 | 00:00:00 | |
| OE5DXL-15 | 2026-08-30 12:35:45 | 45.82113 | 16.55939 | 313° | 22km/h | 25507m | 7.6m/s | -51.6°C | 3.9% | 0hPa | 2.6V | 00:00:00 | 00:00:00 | 00:00:00 | |
| PG1ADW-2 | 2026-08-30 12:35:43 | 45.82099 | 16.55957 | 321° | 24km/h | 25495m | 5.1m/s | -51.6°C | 3.9% | 0hPa | 2.6V | 00:00:00 | 00:00:00 | 00:00:00 | |
| PETON7-10 | 2026-08-30 12:35:39 | 45.82075 | 16.55985 | 322° | 22km/h | 25471m | 5.3m/s | -51.7°C | 4.0% | 0hPa | 2.7V | 00:00:00 | 01:31:30 | 00:00:00 | |
| 9A1FER-3 | 2026-08-30 12:35:37 | 45.82065 | 16.55995 | 330° | 22km/h | 25458m | 5.8m/s | -51.6°C | 3.9% | 0hPa | 2.7V | 00:00:00 | 01:31:28 | 00:00:00 | |
| 9A1FER-10 | 2026-08-30 12:35:31 | 45.82042 | 16.56032 | 305° | 18km/h | 25421m | 4.6m/s | -51.5°C | 3.9% | 0hPa | 2.7V | 00:00:00 | 01:31:22 | 00:00:00 | |
| OE8JPQ-2 | 2026-08-30 12:35:29 | 45.82036 | 16.56047 | 297° | 18km/h | 25408m | 7.3m/s | -51.5°C | 4.0% | 0hPa | 2.6V | 00:00:00 | 00:00:00 | 00:00:00 | |
| OE5DRO-10 | 2026-08-30 12:35:28 | 45.82033 | 16.56053 | 297° | 18km/h | 25401m | 6.1m/s | -51.4°C | 3.9% | 0hPa | 2.6V | 00:00:00 | 00:00:00 | 00:00:00 | |
| PETON7-10 | 2026-08-30 12:35:24 | 45.82023 | 16.56075 | 297° | 18km/h | 25375m | 7.2m/s | -51.5°C | 4.0% | 0hPa | 2.7V | 00:00:00 | 00:00:00 | 00:00:00 | |
| PG1ADW-2 | 2026-08-30 12:35:23 | 45.82022 | 16.56080 | 286° | 18km/h | 25369m | 5.5m/s | -51.6°C | 4.0% | 0hPa | 2.7V | 00:00:00 | 00:00:00 | 00:00:00 | |
| 9A1FER-3 | 2026-08-30 12:35:22 | 45.82021 | 16.56086 | 291° | 18km/h | 25362m | 6.6m/s | -51.5°C | 4.0% | 0hPa | 2.7V | 00:00:00 | 01:31:13 | 00:00:00 | |
| 9A1FER-10 | 2026-08-30 12:35:16 | 45.82014 | 16.56121 | 278° | 18km/h | 25324m | 6.7m/s | -51.5°C | 3.9% | 0hPa | 2.6V | 00:00:00 | 01:31:07 | 00:00:00 | |
| OE5DXL-15 | 2026-08-30 12:35:15 | 45.82014 | 16.56127 | 274° | 16km/h | 25318m | 4.9m/s | -51.3°C | 3.9% | 0hPa | 2.6V | 00:00:00 | 00:00:00 | 00:00:00 | |
| OE8JPQ-2 | 2026-08-30 12:35:09 | 45.82023 | 16.56167 | 260° | 16km/h | 25280m | 5.8m/s | -51.1°C | 3.8% | 0hPa | 2.6V | 00:00:00 | 01:31:00 | 00:00:00 | |
| 9A1FER-3 | 2026-08-30 12:35:07 | 45.82025 | 16.56180 | 249° | 16km/h | 25267m | 7.0m/s | -51.0°C | 3.9% | 0hPa | 2.6V | 00:00:00 | 01:30:58 | 00:00:00 | |
| PG1ADW-2 | 2026-08-30 12:35:03 | 45.82031 | 16.56203 | 244° | 15km/h | 25242m | 5.9m/s | -51.0°C | 3.9% | 0hPa | 2.6V | 00:00:00 | 01:30:54 | 00:00:00 | |
| 9A1FER-10 | 2026-08-30 12:35:01 | 45.82036 | 16.56212 | 222° | 15km/h | 25229m | 5.9m/s | -51.0°C | 3.9% | 0hPa | 2.6V | 00:00:00 | 01:30:52 | 00:00:00 | |
| PETON7-10 | 2026-08-30 12:34:53 | 45.82062 | 16.56247 | 227° | 13km/h | 25177m | 6.0m/s | -50.8°C | 3.7% | 0hPa | 2.6V | 00:00:00 | 01:30:44 | 00:00:00 | |
| 9A1FER-3 | 2026-08-30 12:34:52 | 45.82064 | 16.56250 | 214° | 13km/h | 25171m | 7.0m/s | -50.7°C | 3.7% | 0hPa | 2.6V | 00:00:00 | 01:30:43 | 00:00:00 | |
| OE5DRO-10 | 2026-08-30 12:34:50 | 45.82070 | 16.56253 | 184° | 15km/h | 25157m | 5.6m/s | -50.6°C | 3.7% | 0hPa | 2.6V | 00:00:00 | 00:00:00 | 00:00:00 | |
| OE8JPQ-2 | 2026-08-30 12:34:49 | 45.82072 | 16.56253 | 184° | 13km/h | 25151m | 7.0m/s | -50.6°C | 3.7% | 0hPa | 2.6V | 00:00:00 | 00:00:00 | 00:00:00 | |
| OE5DXL-15 | 2026-08-30 12:34:45 | 45.82084 | 16.56256 | 189° | 13km/h | 25125m | 5.4m/s | -50.6°C | 3.7% | 0hPa | 2.6V | 00:00:00 | 00:00:00 | 00:00:00 | |
| PG1ADW-2 | 2026-08-30 12:34:43 | 45.82092 | 16.56258 | 191° | 13km/h | 25113m | 7.2m/s | -50.7°C | 3.7% | 0hPa | 2.6V | 00:00:00 | 00:00:00 | 00:00:00 | |
| PETON7-10 | 2026-08-30 12:34:38 | 45.82108 | 16.56257 | 170° | 11km/h | 25082m | 5.6m/s | -50.8°C | 3.8% | 0hPa | 2.6V | 00:00:00 | 00:00:00 | 08:30:00 | |
| 9A1FER-3 | 2026-08-30 12:34:37 | 45.82113 | 16.56256 | 174° | 11km/h | 25076m | 7.4m/s | -50.8°C | 3.8% | 0hPa | 2.6V | 00:00:00 | 01:30:28 | 08:30:00 | |
| 9A1FER-10 | 2026-08-30 12:34:31 | 45.82135 | 16.56247 | 150° | 11km/h | 25040m | 6.1m/s | -50.9°C | 3.8% | 0hPa | 2.6V | 00:00:00 | 01:30:22 | 00:00:00 | |
| OE8JPQ-2 | 2026-08-30 12:34:26 | 45.82145 | 16.56240 | 168° | 15km/h | 25007m | 6.3m/s | -50.8°C | 3.8% | 0hPa | 2.6V | 00:00:00 | 00:00:00 | 00:00:00 | |
| PG1ADW-2 | 2026-08-30 12:34:23 | 45.82146 | 16.56236 | 81° | 18km/h | 24989m | 5.0m/s | -50.8°C | 3.8% | 0hPa | 2.6V | 00:00:00 | 00:00:00 | 00:00:00 | |
| 9A1FER-3 | 2026-08-30 12:34:22 | 45.82146 | 16.56233 | 100° | 16km/h | 24982m | 7.4m/s | -50.8°C | 3.7% | 0hPa | 2.6V | 00:00:00 | 01:30:13 | 00:00:00 | |
| 9A1FER-10 | 2026-08-30 12:34:16 | 45.82149 | 16.56199 | 100° | 20km/h | 24945m | 6.2m/s | -50.9°C | 3.7% | 0hPa | 2.6V | 00:00:00 | 01:30:07 | 00:00:00 | |
| OE5DXL-15 | 2026-08-30 12:34:15 | 45.82149 | 16.56192 | 96° | 18km/h | 24939m | 4.6m/s | -50.9°C | 3.8% | 0hPa | 2.6V | 00:00:00 | 00:00:00 | 00:00:00 | |
| OE5DRO-10 | 2026-08-30 12:34:12 | 45.82147 | 16.56173 | 69° | 20km/h | 24920m | 5.6m/s | -50.7°C | 3.7% | 0hPa | 2.6V | 00:00:00 | 00:00:00 | 00:00:00 | |
| 9A1FER-3 | 2026-08-30 12:34:07 | 45.82134 | 16.56146 | 46° | 22km/h | 24888m | 5.9m/s | -51.0°C | 3.8% | 0hPa | 2.6V | 00:00:00 | 01:29:58 | 00:00:00 | |
| OE8JPQ-2 | 2026-08-30 12:34:06 | 45.82130 | 16.56140 | 48° | 18km/h | 24881m | 6.5m/s | -51.1°C | 3.8% | 0hPa | 2.6V | 00:00:00 | 01:29:57 | 00:00:00 | |
| PG1ADW-2 | 2026-08-30 12:34:03 | 45.82120 | 16.56121 | 57° | 16km/h | 24862m | 7.1m/s | -51.1°C | 3.9% | 0hPa | 2.6V | 00:00:00 | 00:00:00 | 00:00:00 | |
| 9A1FER-10 | 2026-08-30 12:34:01 | 45.82114 | 16.56106 | 63° | 16km/h | 24849m | 5.0m/s | -51.1°C | 3.9% | 0hPa | 2.6V | 00:00:00 | 01:29:52 | 00:00:00 | |
| OE5DRO-10 | 2026-08-30 12:33:53 | 45.82094 | 16.56055 | 36° | 13km/h | 24799m | 6.7m/s | -51.1°C | 3.8% | 0hPa | 2.7V | 00:00:00 | 00:00:00 | 00:00:00 | |
| PETON7-10 | 2026-08-30 12:33:52 | 45.82091 | 16.56053 | 22° | 13km/h | 24793m | 5.7m/s | -51.1°C | 3.7% | 0hPa | 2.7V | 00:00:00 | 00:00:00 | 00:00:00 | |
| 9A1FER-10 | 2026-08-30 12:33:46 | 45.82075 | 16.56042 | 48° | 11km/h | 24757m | 6.2m/s | -50.8°C | 3.7% | 0hPa | 2.7V | 00:00:00 | 01:29:37 | 00:00:00 | |
| OE8JPQ-2 | 2026-08-30 12:33:45 | 45.82073 | 16.56039 | 46° | 13km/h | 24751m | 6.0m/s | -50.8°C | 3.7% | 0hPa | 2.7V | 00:00:00 | 00:00:00 | 08:30:00 | |
| PG1ADW-2 | 2026-08-30 12:33:43 | 45.82067 | 16.56032 | 33° | 15km/h | 24740m | 5.2m/s | -50.8°C | 3.7% | 0hPa | 2.6V | 00:00:00 | 01:29:34 | 08:30:00 | |
| 9A1FER-3 | 2026-08-30 12:33:37 | 45.82047 | 16.56030 | 330° | 15km/h | 24702m | 7.8m/s | -51.1°C | 3.7% | 0hPa | 2.7V | 00:00:00 | 01:29:28 | 00:00:00 | |
| OE5DRO-10 | 2026-08-30 12:33:34 | 45.82042 | 16.56035 | 351° | 15km/h | 24683m | 7.0m/s | -51.3°C | 3.8% | 0hPa | 2.7V | 00:00:00 | 00:00:00 | 00:00:00 | |
| 9A1FER-10 | 2026-08-30 12:33:31 | 45.82036 | 16.56033 | 8° | 20km/h | 24666m | 6.3m/s | -51.3°C | 3.8% | 0hPa | 2.6V | 00:00:00 | 01:29:22 | 00:00:00 | |
| OE8JPQ-2 | 2026-08-30 12:33:25 | 45.82009 | 16.56036 | 334° | 24km/h | 24631m | 5.8m/s | -51.4°C | 3.9% | 0hPa | 2.6V | 00:00:00 | 00:00:00 | 00:00:00 | |
| PG1ADW-2 | 2026-08-30 12:33:23 | 45.82000 | 16.56043 | 325° | 24km/h | 24619m | 6.6m/s | -51.5°C | 3.9% | 0hPa | 2.6V | 00:00:00 | 00:00:00 | 00:00:00 | |
| 9A1FER-3 | 2026-08-30 12:33:22 | 45.81996 | 16.56048 | 323° | 24km/h | 24613m | 5.4m/s | -51.4°C | 3.9% | 0hPa | 2.6V | 00:00:00 | 01:29:13 | 00:00:00 | |
| 9A1FER-10 | 2026-08-30 12:33:16 | 45.81973 | 16.56080 | 326° | 26km/h | 24575m | 4.9m/s | -51.5°C | 3.9% | 0hPa | 2.6V | 00:00:00 | 01:29:07 | 00:00:00 | |
| OE5DXL-15 | 2026-08-30 12:33:15 | 45.81969 | 16.56084 | 322° | 22km/h | 24569m | 7.3m/s | -51.5°C | 3.9% | 0hPa | 2.7V | 00:00:00 | 01:29:06 | 08:30:00 | |
| 9A1FER-3 | 2026-08-30 12:33:07 | 45.81927 | 16.56132 | 319° | 20km/h | 24521m | 6.0m/s | -51.7°C | 3.9% | 0hPa | 2.7V | 00:00:00 | 01:28:58 | 00:00:00 | |
| OE8JPQ-2 | 2026-08-30 12:33:05 | 45.81917 | 16.56144 | 315° | 20km/h | 24510m | 5.5m/s | 0°C | 0% | 0hPa | 2.7V | 00:00:00 | 01:28:56 | 00:00:00 | |
| OE5DRO-10 | 2026-08-30 12:33:04 | 45.81912 | 16.56151 | 307° | 20km/h | 24503m | 7.5m/s | -51.7°C | 4.0% | 0hPa | 2.7V | 00:00:00 | 00:00:00 | 00:00:00 | |
| PG1ADW-2 | 2026-08-30 12:33:03 | 45.81909 | 16.56158 | 300° | 20km/h | 24497m | 5.4m/s | -51.7°C | 4.0% | 0hPa | 2.7V | 00:00:00 | 00:00:00 | 00:00:00 | |
| 9A1FER-10 | 2026-08-30 12:33:01 | 45.81903 | 16.56172 | 305° | 20km/h | 24485m | 5.8m/s | -51.7°C | 3.9% | 0hPa | 2.7V | 00:00:00 | 01:28:52 | 00:00:00 | |
| 9A1FER-3 | 2026-08-30 12:32:52 | 45.81884 | 16.56223 | 289° | 20km/h | 24431m | 5.7m/s | -51.8°C | 3.9% | 0hPa | 2.7V | 00:00:00 | 01:28:43 | 00:00:00 | |
| 9A1FER-10 | 2026-08-30 12:32:46 | 45.81879 | 16.56270 | 278° | 16km/h | 24394m | 5.9m/s | -51.8°C | 4.0% | 0hPa | 2.7V | 00:00:00 | 01:28:37 | 00:00:00 | |
| OE5DXL-15 | 2026-08-30 12:32:45 | 45.81879 | 16.56277 | 282° | 18km/h | 24389m | 4.6m/s | -51.8°C | 4.0% | 0hPa | 2.7V | 00:00:00 | 00:00:00 | 00:00:00 | |
| OE8JPQ-2 | 2026-08-30 12:32:44 | 45.81877 | 16.56285 | 279° | 20km/h | 24383m | 6.8m/s | 0°C | 0% | 0hPa | 2.7V | 00:00:00 | 00:00:00 | 00:00:00 | |
| PG1ADW-2 | 2026-08-30 12:32:43 | 45.81877 | 16.56292 | 274° | 18km/h | 24377m | 5.9m/s | -51.8°C | 4.0% | 0hPa | 2.7V | 00:00:00 | 00:00:00 | 00:00:00 | |
| OE5DRO-10 | 2026-08-30 12:32:41 | 45.81876 | 16.56306 | 287° | 18km/h | 24365m | 7.2m/s | -51.8°C | 3.9% | 0hPa | 2.6V | 00:00:00 | 00:00:00 | 00:00:00 | |
| PETON7-10 | 2026-08-30 12:32:37 | 45.81872 | 16.56325 | 268° | 18km/h | 24341m | 5.5m/s | -51.8°C | 3.9% | 0hPa | 2.6V | 00:00:00 | 01:28:28 | 00:00:00 | |
| 9A1FER-10 | 2026-08-30 12:32:31 | 45.81870 | 16.56360 | 270° | 20km/h | 24305m | 5.2m/s | -51.8°C | 3.9% | 0hPa | 2.6V | 00:00:00 | 01:28:22 | 08:30:00 | |
| OE8JPQ-2 | 2026-08-30 12:32:24 | 45.81869 | 16.56417 | 274° | 16km/h | 24264m | 5.7m/s | 0°C | 0% | 0hPa | 2.6V | 00:00:00 | 00:00:00 | 00:00:00 | |
| 9A1FER-3 | 2026-08-30 12:32:22 | 45.81870 | 16.56426 | 254° | 16km/h | 24253m | 7.1m/s | -52.0°C | 4.0% | 0hPa | 2.6V | 00:00:00 | 01:28:13 | 08:30:00 | |
| 9A1FER-10 | 2026-08-30 12:32:16 | 45.81877 | 16.56461 | 264° | 16km/h | 24217m | 6.8m/s | -51.9°C | 4.0% | 0hPa | 2.7V | 00:00:00 | 01:28:07 | 00:00:00 | |
| OE5DXL-15 | 2026-08-30 12:32:15 | 45.81877 | 16.56468 | 260° | 18km/h | 24210m | 6.0m/s | -51.9°C | 4.0% | 0hPa | 2.7V | 00:00:00 | 00:00:00 | 00:00:00 | |
| 9A1FER-3 | 2026-08-30 12:32:07 | 45.81880 | 16.56516 | 256° | 18km/h | 24162m | 5.4m/s | -51.9°C | 4.0% | 0hPa | 2.7V | 00:00:00 | 01:27:58 | 00:00:00 | |
| OE5DRO-10 | 2026-08-30 12:32:03 | 45.81887 | 16.56539 | 260° | 18km/h | 24138m | 5.5m/s | -51.9°C | 4.0% | 0hPa | 2.7V | 00:00:00 | 00:00:00 | 00:00:00 | |
| PG1ADW-2 | 2026-08-30 12:32:02 | 45.81888 | 16.56545 | 264° | 18km/h | 24132m | 5.4m/s | -51.9°C | 4.0% | 0hPa | 2.7V | 00:00:00 | 00:00:00 | 00:00:00 | |
| OE8JPQ-2 | 2026-08-30 12:32:01 | 45.81888 | 16.56552 | 260° | 18km/h | 24126m | 7.0m/s | 0°C | 0% | 0hPa | 2.7V | 00:00:00 | 01:27:52 | 00:00:00 | |
| PETON7-10 | 2026-08-30 12:31:52 | 45.81895 | 16.56608 | 242° | 16km/h | 24072m | 5.5m/s | -51.7°C | 3.9% | 0hPa | 2.7V | 00:00:00 | 01:27:43 | 00:00:00 | |
| 9A1FER-10 | 2026-08-30 12:31:46 | 45.81912 | 16.56639 | 226° | 16km/h | 24037m | 6.1m/s | -51.9°C | 3.9% | 0hPa | 2.7V | 00:00:00 | 01:27:37 | 00:00:00 | |
| OE5DXL-15 | 2026-08-30 12:31:45 | 45.81915 | 16.56643 | 223° | 15km/h | 24031m | 6.5m/s | -51.9°C | 3.9% | 0hPa | 2.7V | 00:00:00 | 00:00:00 | 00:00:00 | |
| OE5DRO-10 | 2026-08-30 12:31:44 | 45.81918 | 16.56647 | 222° | 15km/h | 24025m | 5.1m/s | -51.8°C | 3.9% | 0hPa | 2.7V | 00:00:00 | 00:00:00 | 00:00:00 | |
| PG1ADW-2 | 2026-08-30 12:31:42 | 45.81923 | 16.56655 | 235° | 13km/h | 24013m | 5.6m/s | -51.8°C | 3.9% | 0hPa | 2.7V | 00:00:00 | 00:00:00 | 00:00:00 | |
| OE8JPQ-2 | 2026-08-30 12:31:41 | 45.81925 | 16.56659 | 237° | 11km/h | 24007m | 5.8m/s | 0°C | 0% | 0hPa | 2.7V | 00:00:00 | 00:00:00 | 00:00:00 | |
| 9A1FER-3 | 2026-08-30 12:31:37 | 45.81934 | 16.56677 | 237° | 11km/h | 23984m | 5.5m/s | -51.9°C | 3.9% | 0hPa | 2.7V | 00:00:00 | 01:27:28 | 00:00:00 | |
| 9A1FER-10 | 2026-08-30 12:31:31 | 45.81953 | 16.56673 | 138° | 15km/h | 23949m | 5.6m/s | -52.1°C | 4.0% | 0hPa | 2.7V | 00:00:00 | 01:27:22 | 00:00:00 | |
| OE5DRO-10 | 2026-08-30 12:31:25 | 45.81967 | 16.56659 | 111° | 13km/h | 23915m | 5.0m/s | -51.9°C | 3.9% | 0hPa | 2.7V | 00:00:00 | 00:00:00 | 08:30:00 | |
| 9A1FER-3 | 2026-08-30 12:31:22 | 45.81970 | 16.56654 | 148° | 13km/h | 23898m | 4.9m/s | -52.0°C | 3.9% | 0hPa | 2.6V | 00:00:00 | 01:27:13 | 00:00:00 | |
| OE8JPQ-2 | 2026-08-30 12:31:20 | 45.81975 | 16.56647 | 124° | 18km/h | 23887m | 6.7m/s | 0°C | 0% | 0hPa | 2.6V | 00:00:00 | 00:00:00 | 00:00:00 | |
| OE5DXL-15 | 2026-08-30 12:31:15 | 45.81990 | 16.56619 | 135° | 9km/h | 23859m | 5.3m/s | -52.2°C | 3.9% | 0hPa | 2.6V | 00:00:00 | 00:00:00 | 00:00:00 | |
| 9A1FER-10 | 2026-08-30 12:31:13 | 45.81993 | 16.56612 | 108° | 7km/h | 23847m | 5.0m/s | -52.2°C | 3.9% | 0hPa | 2.6V | 00:00:00 | 01:27:04 | 00:00:00 | |
| PETON7-10 | 2026-08-30 12:31:07 | 45.81994 | 16.56595 | 78° | 7km/h | 23813m | 4.8m/s | -52.3°C | 4.0% | 0hPa | 2.6V | 00:00:00 | 01:26:58 | 00:00:00 | |
| OE5DRO-10 | 2026-08-30 12:31:06 | 45.81993 | 16.56591 | 85° | 7km/h | 23808m | 6.4m/s | -52.3°C | 3.9% | 0hPa | 2.6V | 00:00:00 | 00:00:00 | 00:00:00 | |
| PG1ADW-2 | 2026-08-30 12:31:02 | 45.81993 | 16.56582 | 67° | 9km/h | 23785m | 6.4m/s | -52.6°C | 4.0% | 0hPa | 2.6V | 00:00:00 | 01:26:53 | 00:00:00 | |
| 9A1FER-10 | 2026-08-30 12:30:58 | 45.81992 | 16.56572 | 81° | 9km/h | 23761m | 6.7m/s | -52.9°C | 4.1% | 0hPa | 2.6V | 00:00:00 | 01:26:49 | 00:00:00 | |
| 9A1FER-3 | 2026-08-30 12:30:52 | 45.81987 | 16.56557 | 4° | 7km/h | 23727m | 5.0m/s | -53.0°C | 4.0% | 0hPa | 2.6V | 00:00:00 | 01:26:43 | 00:00:00 | |
| OE5DRO-10 | 2026-08-30 12:30:47 | 45.81977 | 16.56566 | 324° | 9km/h | 23698m | 6.7m/s | -53.4°C | 4.2% | 0hPa | 2.7V | 00:00:00 | 00:00:00 | 00:00:00 | |
| OE5DXL-15 | 2026-08-30 12:30:45 | 45.81973 | 16.56569 | 328° | 13km/h | 23688m | 3.9m/s | -53.5°C | 4.2% | 0hPa | 2.7V | 00:00:00 | 00:00:00 | 00:00:00 | |
| 9A1FER-10 | 2026-08-30 12:30:43 | 45.81970 | 16.56573 | 280° | 9km/h | 23676m | 6.0m/s | -53.7°C | 4.3% | 0hPa | 2.7V | 00:00:00 | 01:26:34 | 00:00:00 | |
| PG1ADW-2 | 2026-08-30 12:30:42 | 45.81970 | 16.56575 | 265° | 11km/h | 23670m | 5.3m/s | -53.6°C | 4.3% | 0hPa | 2.7V | 00:00:00 | 00:00:00 | 08:30:00 | |
| PETON7-10 | 2026-08-30 12:30:37 | 45.81972 | 16.56586 | 262° | 13km/h | 23641m | 4.9m/s | -53.8°C | 4.3% | 0hPa | 2.6V | 00:00:00 | 00:00:00 | 00:00:00 | |
| 9A1FER-10 | 2026-08-30 12:30:28 | 45.81978 | 16.56626 | 252° | 16km/h | 23591m | 5.2m/s | -53.8°C | 4.3% | 0hPa | 2.6V | 00:00:00 | 01:26:19 | 00:00:00 | |
| 9A1FER-3 | 2026-08-30 12:30:22 | 45.81980 | 16.56659 | 254° | 13km/h | 23556m | 6.6m/s | -53.9°C | 4.4% | 0hPa | 2.6V | 00:00:00 | 01:26:13 | 00:00:00 | |
| OE5DXL-15 | 2026-08-30 12:30:16 | 45.82000 | 16.56686 | 208° | 9km/h | 23513m | 4.8m/s | -53.9°C | 4.4% | 0hPa | 2.6V | 00:00:00 | 00:00:00 | 00:00:00 | |
| 9A1FER-10 | 2026-08-30 12:30:13 | 45.82005 | 16.56690 | 204° | 11km/h | 23501m | 6.3m/s | -53.9°C | 4.4% | 0hPa | 2.6V | 00:00:00 | 01:26:04 | 08:30:00 | |
| OE5DRO-10 | 2026-08-30 12:30:09 | 45.82008 | 16.56699 | 254° | 11km/h | 23476m | 5.3m/s | -53.7°C | 4.3% | 0hPa | 2.7V | 00:00:00 | 00:00:00 | 00:00:00 | |
| PETON7-10 | 2026-08-30 12:30:07 | 45.82010 | 16.56704 | 225° | 11km/h | 23464m | 5.2m/s | -53.9°C | 4.4% | 0hPa | 2.7V | 00:00:00 | 00:00:00 | 08:30:00 | |
| PG1ADW-2 | 2026-08-30 12:30:02 | 45.82028 | 16.56714 | 178° | 7km/h | 23435m | 6.0m/s | -53.7°C | 4.4% | 0hPa | 2.7V | 00:00:00 | 00:00:00 | 00:00:00 | |
| 9A1FER-10 | 2026-08-30 12:29:58 | 45.82036 | 16.56714 | 205° | 5km/h | 23411m | 4.3m/s | -53.6°C | 4.3% | 0hPa | 2.7V | 00:00:00 | 01:25:49 | 00:00:00 | |
| PETON7-10 | 2026-08-30 12:29:52 | 45.82047 | 16.56714 | 163° | 4km/h | 23376m | 7.0m/s | -53.5°C | 4.3% | 0hPa | 2.7V | 00:00:00 | 00:00:00 | 00:00:00 | |
| OE5DRO-10 | 2026-08-30 12:29:50 | 45.82051 | 16.56711 | 146° | 5km/h | 23365m | 5.0m/s | -53.5°C | 4.3% | 0hPa | 2.7V | 00:00:00 | 00:00:00 | 00:00:00 | |
| OE5DXL-15 | 2026-08-30 12:29:45 | 45.82056 | 16.56710 | 346° | 11km/h | 23335m | 4.8m/s | -53.5°C | 4.2% | 0hPa | 2.7V | 00:00:00 | 00:00:00 | 00:00:00 | |
| 9A1FER-10 | 2026-08-30 12:29:43 | 45.82056 | 16.56711 | 256° | 7km/h | 23322m | 6.6m/s | -53.7°C | 4.3% | 0hPa | 2.7V | 00:00:00 | 01:25:34 | 00:00:00 | |
| PG1ADW-2 | 2026-08-30 12:29:42 | 45.82056 | 16.56712 | 281° | 9km/h | 23316m | 5.5m/s | -53.7°C | 4.3% | 0hPa | 2.7V | 00:00:00 | 01:25:33 | 00:00:00 | |
| 9A1FER-3 | 2026-08-30 12:29:37 | 45.82052 | 16.56712 | 40° | 11km/h | 23284m | 7.0m/s | -53.9°C | 4.4% | 0hPa | 2.6V | 00:00:00 | 01:25:28 | 00:00:00 | |
| OE5DRO-10 | 2026-08-30 12:29:29 | 45.82037 | 16.56698 | 10° | 20km/h | 23236m | 6.0m/s | -53.7°C | 4.3% | 0hPa | 2.6V | 00:00:00 | 00:00:00 | 00:00:00 | |
| 9A1FER-10 | 2026-08-30 12:29:28 | 45.82034 | 16.56697 | 3° | 16km/h | 23230m | 6.5m/s | -53.7°C | 4.3% | 0hPa | 2.6V | 00:00:00 | 01:25:19 | 00:00:00 | |
| 9A1FER-3 | 2026-08-30 12:29:22 | 45.82012 | 16.56692 | 4° | 22km/h | 23195m | 5.3m/s | -53.6°C | 4.3% | 0hPa | 2.6V | 00:00:00 | 01:25:13 | 00:00:00 | |
| OE5DXL-15 | 2026-08-30 12:29:15 | 45.81981 | 16.56696 | 350° | 33km/h | 23153m | 5.9m/s | -53.8°C | 4.2% | 0hPa | 2.6V | 00:00:00 | 00:00:00 | 00:00:00 | |
| 9A1FER-10 | 2026-08-30 12:29:13 | 45.81969 | 16.56699 | 346° | 31km/h | 23141m | 7.1m/s | -53.9°C | 4.3% | 0hPa | 2.6V | 00:00:00 | 01:25:04 | 00:00:00 | |
| OE5DRO-10 | 2026-08-30 12:29:08 | 45.81935 | 16.56708 | 358° | 37km/h | 23111m | 6.0m/s | -54.0°C | 4.4% | 0hPa | 2.6V | 00:00:00 | 00:00:00 | 00:00:00 | |
| PETON7-10 | 2026-08-30 12:29:07 | 45.81928 | 16.56709 | 355° | 37km/h | 23105m | 6.5m/s | -53.8°C | 4.3% | 0hPa | 2.6V | 00:00:00 | 00:00:00 | 00:00:00 | |
| 9A1FER-10 | 2026-08-30 12:28:58 | 45.81851 | 16.56741 | 343° | 35km/h | 23052m | 5.4m/s | -53.9°C | 4.3% | 0hPa | 2.6V | 00:00:00 | 01:24:49 | 00:00:00 | |
| 9A1FER-3 | 2026-08-30 12:28:52 | 45.81795 | 16.56771 | 336° | 31km/h | 23017m | 6.0m/s | -53.9°C | 4.3% | 0hPa | 2.6V | 00:00:00 | 01:24:43 | 00:00:00 | |
| OE5DRO-10 | 2026-08-30 12:28:49 | 45.81773 | 16.56789 | 329° | 31km/h | 22998m | 7.1m/s | -53.8°C | 4.4% | 0hPa | 2.6V | 00:00:00 | 00:00:00 | 00:00:00 | |
| OE5DXL-15 | 2026-08-30 12:28:45 | 45.81745 | 16.56814 | 326° | 27km/h | 22974m | 5.6m/s | -53.6°C | 4.3% | 0hPa | 2.6V | 00:00:00 | 00:00:00 | 08:30:00 | |
| 9A1FER-10 | 2026-08-30 12:28:43 | 45.81732 | 16.56825 | 335° | 27km/h | 22962m | 5.5m/s | -53.8°C | 4.3% | 0hPa | 2.6V | 00:00:00 | 01:24:34 | 00:00:00 | |
| PG1ADW-2 | 2026-08-30 12:28:42 | 45.81726 | 16.56829 | 335° | 26km/h | 22957m | 5.0m/s | -53.7°C | 4.3% | 0hPa | 2.6V | 00:00:00 | 00:00:00 | 00:00:00 | |
| 9A1FER-3 | 2026-08-30 12:28:37 | 45.81696 | 16.56861 | 314° | 24km/h | 22926m | 6.0m/s | -53.8°C | 4.3% | 0hPa | 2.6V | 00:00:00 | 01:24:28 | 00:00:00 | |
| OE5DRO-10 | 2026-08-30 12:28:30 | 45.81662 | 16.56916 | 313° | 24km/h | 22887m | 6.5m/s | -53.9°C | 4.3% | 0hPa | 2.6V | 00:00:00 | 00:00:00 | 08:30:00 | |
| 9A1FER-10 | 2026-08-30 12:28:28 | 45.81656 | 16.56925 | 317° | 26km/h | 22875m | 6.3m/s | -53.8°C | 4.2% | 0hPa | 2.6V | 00:00:00 | 01:24:19 | 00:00:00 | |
| 9A1FER-3 | 2026-08-30 12:28:22 | 45.81643 | 16.56964 | 293° | 26km/h | 22840m | 4.5m/s | -53.9°C | 4.4% | 0hPa | 2.6V | 00:00:00 | 01:24:13 | 00:00:00 | |
| OE5DXL-15 | 2026-08-30 12:28:15 | 45.81621 | 16.57032 | 293° | 26km/h | 22799m | 5.3m/s | -54.0°C | 4.3% | 0hPa | 2.6V | 00:00:00 | 00:00:00 | 00:00:00 | |
| 9A1FER-10 | 2026-08-30 12:28:13 | 45.81616 | 16.57048 | 296° | 26km/h | 22787m | 5.8m/s | -53.9°C | 4.2% | 0hPa | 2.6V | 00:00:00 | 01:24:04 | 00:00:00 | |
| OE5DRO-10 | 2026-08-30 12:28:10 | 45.81612 | 16.57069 | 272° | 26km/h | 22769m | 5.1m/s | -54.1°C | 4.3% | 0hPa | 2.6V | 00:00:00 | 00:00:00 | 00:00:00 | |
| 9A1FER-3 | 2026-08-30 12:28:07 | 45.81610 | 16.57091 | 278° | 27km/h | 22752m | 5.8m/s | -54.1°C | 4.3% | 0hPa | 2.6V | 00:00:00 | 01:23:58 | 00:00:00 | |
| PG1ADW-2 | 2026-08-30 12:28:02 | 45.81602 | 16.57141 | 292° | 27km/h | 22723m | 5.3m/s | -54.2°C | 4.4% | 0hPa | 2.6V | 00:00:00 | 00:00:00 | 00:00:00 | |
| 9A1FER-10 | 2026-08-30 12:27:58 | 45.81594 | 16.57180 | 284° | 26km/h | 22700m | 5.5m/s | -54.5°C | 4.5% | 0hPa | 2.6V | 00:00:00 | 01:23:49 | 08:30:00 | |
| 9A1FER-3 | 2026-08-30 12:27:52 | 45.81593 | 16.57236 | 277° | 27km/h | 22665m | 5.9m/s | -54.5°C | 4.5% | 0hPa | 2.6V | 00:00:00 | 01:23:43 | 08:30:00 | |
| OE5DRO-10 | 2026-08-30 12:27:51 | 45.81592 | 16.57245 | 277° | 24km/h | 22659m | 6.5m/s | -54.5°C | 4.5% | 0hPa | 2.6V | 00:00:00 | 00:00:00 | 00:00:00 | |
| OE3JTB-15 | 2026-08-30 12:27:45 | 45.81576 | 16.57308 | 281° | 24km/h | 22618m | 5.7m/s | -54.5°C | 4.5% | 0hPa | 2.6V | 00:00:00 | 00:00:00 | 00:00:00 | |
| 9A1FER-10 | 2026-08-30 12:27:43 | 45.81575 | 16.57317 | 279° | 22km/h | 22612m | 6.9m/s | -54.5°C | 4.5% | 0hPa | 2.6V | 00:00:00 | 01:23:34 | 00:00:00 | |
| PG1ADW-2 | 2026-08-30 12:27:42 | 45.81574 | 16.57327 | 274° | 24km/h | 22606m | 4.2m/s | -54.6°C | 4.5% | 0hPa | 2.6V | 00:00:00 | 00:00:00 | 08:30:00 | |
| 9A1FER-3 | 2026-08-30 12:27:37 | 45.81574 | 16.57374 | 288° | 24km/h | 22577m | 4.7m/s | -54.5°C | 4.5% | 0hPa | 2.7V | 00:00:00 | 01:23:28 | 00:00:00 | |
| PETON7-10 | 2026-08-30 12:27:36 | 45.81572 | 16.57380 | 295° | 22km/h | 22571m | 6.9m/s | -54.4°C | 4.5% | 0hPa | 2.7V | 00:00:00 | 00:00:00 | 00:00:00 | |
| OE5DRO-10 | 2026-08-30 12:27:32 | 45.81564 | 16.57401 | 298° | 22km/h | 22548m | 4.2m/s | -54.5°C | 4.5% | 0hPa | 2.7V | 00:00:00 | 00:00:00 | 00:00:00 | |
| 9A1FER-10 | 2026-08-30 12:27:28 | 45.81561 | 16.57435 | 264° | 22km/h | 22524m | 6.4m/s | -54.4°C | 4.4% | 0hPa | 2.6V | 00:00:00 | 01:23:19 | 00:00:00 | |
| 9A1FER-3 | 2026-08-30 12:27:22 | 45.81574 | 16.57490 | 257° | 18km/h | 22489m | 5.5m/s | -54.3°C | 4.4% | 0hPa | 2.6V | 00:00:00 | 01:23:13 | 00:00:00 | |
| PETON7-10 | 2026-08-30 12:27:21 | 45.81575 | 16.57497 | 262° | 18km/h | 22484m | 5.7m/s | -54.2°C | 4.4% | 0hPa | 2.6V | 00:00:00 | 01:23:12 | 00:00:00 | |
| OE5DXL-15 | 2026-08-30 12:27:15 | 45.81578 | 16.57535 | 260° | 16km/h | 22448m | 6.2m/s | -54.3°C | 4.3% | 0hPa | 2.6V | 00:00:00 | 00:00:00 | 00:00:00 | |
| 9A1FER-10 | 2026-08-30 12:27:14 | 45.81580 | 16.57550 | 262° | 16km/h | 22437m | 6.5m/s | -54.3°C | 4.4% | 0hPa | 2.7V | 00:00:00 | 01:23:04 | 00:00:00 | |
| 9A1FER-3 | 2026-08-30 12:27:07 | 45.81582 | 16.57590 | 272° | 13km/h | 22402m | 5.2m/s | -54.4°C | 4.5% | 0hPa | 2.6V | 00:00:00 | 01:22:58 | 00:00:00 | |
| PETON7-10 | 2026-08-30 12:27:06 | 45.81582 | 16.57595 | 267° | 13km/h | 22396m | 6.9m/s | -54.3°C | 4.5% | 0hPa | 2.7V | 00:00:00 | 00:00:00 | 00:00:00 | |
| PG1ADW-2 | 2026-08-30 12:27:02 | 45.81583 | 16.57617 | 275° | 15km/h | 22373m | 4.7m/s | -54.4°C | 4.5% | 0hPa | 2.6V | 00:00:00 | 01:22:53 | 00:00:00 | |
| 9A1FER-10 | 2026-08-30 12:26:58 | 45.81581 | 16.57635 | 289° | 15km/h | 22351m | 6.0m/s | -54.4°C | 4.5% | 0hPa | 2.6V | 00:00:00 | 01:22:49 | 00:00:00 | |
| OE5DRO-10 | 2026-08-30 12:26:54 | 45.81578 | 16.57652 | 279° | 15km/h | 22328m | 4.9m/s | -54.4°C | 4.4% | 0hPa | 2.6V | 00:00:00 | 00:00:00 | 00:00:00 | |
| 9A1FER-3 | 2026-08-30 12:26:52 | 45.81576 | 16.57661 | 287° | 15km/h | 22315m | 5.3m/s | -54.4°C | 4.4% | 0hPa | 2.6V | 00:00:00 | 01:22:43 | 00:00:00 | |
| PETON7-10 | 2026-08-30 12:26:51 | 45.81575 | 16.57667 | 286° | 15km/h | 22309m | 6.5m/s | -54.4°C | 4.3% | 0hPa | 2.6V | 00:00:00 | 00:00:00 | 00:00:00 | |
| OE3JTB-15 | 2026-08-30 12:26:46 | 45.81567 | 16.57692 | 306° | 15km/h | 22280m | 7.0m/s | -54.5°C | 4.4% | 0hPa | 2.6V | 00:00:00 | 00:00:00 | 08:30:00 | |
| OE5DXL-15 | 2026-08-30 12:26:45 | 45.81565 | 16.57696 | 313° | 15km/h | 22274m | 5.7m/s | -54.5°C | 4.4% | 0hPa | 2.7V | 00:00:00 | 00:00:00 | 00:00:00 | |
| 9A1FER-10 | 2026-08-30 12:26:43 | 45.81560 | 16.57703 | 319° | 15km/h | 22262m | 6.1m/s | -54.5°C | 4.4% | 0hPa | 2.7V | 00:00:00 | 01:22:34 | 00:00:00 | |
| PG1ADW-2 | 2026-08-30 12:26:42 | 45.81557 | 16.57706 | 319° | 15km/h | 22256m | 5.0m/s | -54.5°C | 4.4% | 0hPa | 2.7V | 00:00:00 | 00:00:00 | 00:00:00 | |
| 9A1FER-3 | 2026-08-30 12:26:37 | 45.81548 | 16.57725 | 296° | 15km/h | 22227m | 5.0m/s | -54.6°C | 4.5% | 0hPa | 2.7V | 00:00:00 | 01:22:28 | 00:00:00 | |
| PETON7-10 | 2026-08-30 12:26:36 | 45.81546 | 16.57730 | 293° | 15km/h | 22221m | 5.4m/s | -54.7°C | 4.6% | 0hPa | 2.7V | 00:00:00 | 01:22:27 | 00:00:00 | |
| OE5DRO-10 | 2026-08-30 12:26:35 | 45.81544 | 16.57736 | 295° | 15km/h | 22215m | 6.1m/s | -54.6°C | 4.5% | 0hPa | 2.7V | 00:00:00 | 00:00:00 | 00:00:00 | |
| 9A1FER-10 | 2026-08-30 12:26:28 | 45.81528 | 16.57766 | 301° | 15km/h | 22175m | 6.2m/s | -54.8°C | 4.5% | 0hPa | 2.7V | 00:00:00 | 01:22:19 | 00:00:00 | |
| 9A1FER-3 | 2026-08-30 12:26:22 | 45.81523 | 16.57794 | 282° | 13km/h | 22140m | 6.5m/s | -54.8°C | 4.5% | 0hPa | 2.7V | 00:00:00 | 01:22:13 | 00:00:00 | |
| PETON7-10 | 2026-08-30 12:26:21 | 45.81522 | 16.57799 | 286° | 13km/h | 22134m | 4.7m/s | -54.9°C | 4.5% | 0hPa | 2.7V | 00:00:00 | 00:00:00 | 00:00:00 | |
| OE5DRO-10 | 2026-08-30 12:26:16 | 45.81520 | 16.57823 | 264° | 13km/h | 22106m | 5.1m/s | -54.8°C | 4.6% | 0hPa | 2.7V | 00:00:00 | 00:00:00 | 00:00:00 | |
| OE5DXL-15 | 2026-08-30 12:26:15 | 45.81521 | 16.57829 | 253° | 13km/h | 22101m | 4.2m/s | -54.7°C | 4.5% | 0hPa | 2.7V | 00:00:00 | 00:00:00 | 00:00:00 | |
| 9A1FER-10 | 2026-08-30 12:26:13 | 45.81524 | 16.57838 | 230° | 13km/h | 22089m | 5.6m/s | -54.7°C | 4.6% | 0hPa | 2.7V | 00:00:00 | 01:22:04 | 00:00:00 | |
| 9A1FER-3 | 2026-08-30 12:26:07 | 45.81533 | 16.57860 | 259° | 13km/h | 22053m | 6.1m/s | -54.6°C | 4.5% | 0hPa | 2.7V | 00:00:00 | 01:21:58 | 00:00:00 | |
| PETON7-10 | 2026-08-30 12:26:06 | 45.81534 | 16.57864 | 267° | 13km/h | 22046m | 6.2m/s | -54.7°C | 4.5% | 0hPa | 2.7V | 00:00:00 | 00:00:00 | 00:00:00 | |
| PG1ADW-2 | 2026-08-30 12:26:02 | 45.81536 | 16.57881 | 249° | 13km/h | 22023m | 6.8m/s | -54.7°C | 4.5% | 0hPa | 2.7V | 00:00:00 | 00:00:00 | 00:00:00 | |
| 9A1FER-10 | 2026-08-30 12:25:58 | 45.81545 | 16.57896 | 198° | 13km/h | 22000m | 5.9m/s | -54.7°C | 4.5% | 0hPa | 2.7V | 00:00:00 | 01:21:49 | 00:00:00 | |
| OE5DRO-10 | 2026-08-30 12:25:57 | 45.81549 | 16.57897 | 192° | 13km/h | 21995m | 5.3m/s | -54.7°C | 4.5% | 0hPa | 2.7V | 00:00:00 | 00:00:00 | 00:00:00 | |
| 9A1FER-3 | 2026-08-30 12:25:52 | 45.81564 | 16.57906 | 214° | 11km/h | 21965m | 5.5m/s | -54.5°C | 4.4% | 0hPa | 2.7V | 00:00:00 | 01:21:43 | 00:00:00 | |
| PETON7-10 | 2026-08-30 12:25:51 | 45.81566 | 16.57909 | 225° | 11km/h | 21959m | 6.3m/s | -54.5°C | 4.4% | 0hPa | 2.7V | 00:00:00 | 01:21:42 | 00:00:00 | |
| OE5DXL-15 | 2026-08-30 12:25:45 | 45.81581 | 16.57927 | 217° | 11km/h | 21924m | 5.2m/s | -54.7°C | 4.4% | 0hPa | 2.7V | 00:00:00 | 00:00:00 | 00:00:00 | |
| 9A1FER-10 | 2026-08-30 12:25:43 | 45.81586 | 16.57932 | 211° | 9km/h | 21912m | 4.5m/s | -54.7°C | 4.4% | 0hPa | 2.6V | 00:00:00 | 01:21:34 | 08:30:00 | |
| PG1ADW-2 | 2026-08-30 12:25:42 | 45.81588 | 16.57934 | 223° | 9km/h | 21907m | 6.6m/s | -54.7°C | 4.4% | 0hPa | 2.6V | 00:00:00 | 01:21:33 | 00:00:00 | |
| OE5DRO-10 | 2026-08-30 12:25:38 | 45.81594 | 16.57944 | 242° | 9km/h | 21883m | 5.4m/s | -54.7°C | 4.4% | 0hPa | 2.7V | 00:00:00 | 00:00:00 | 08:30:00 | |
| 9A1FER-3 | 2026-08-30 12:25:37 | 45.81595 | 16.57947 | 261° | 9km/h | 21877m | 6.4m/s | -54.7°C | 4.4% | 0hPa | 2.6V | 00:00:00 | 01:21:28 | 08:30:00 | |
| PETON7-10 | 2026-08-30 12:25:36 | 45.81595 | 16.57951 | 269° | 9km/h | 21872m | 4.7m/s | -54.7°C | 4.4% | 0hPa | 2.6V | 00:00:00 | 00:00:00 | 08:30:00 | |
| OE3JTB-15 | 2026-08-30 12:25:30 | 45.81597 | 16.57971 | 260° | 9km/h | 21838m | 3.9m/s | -55.1°C | 4.5% | 0hPa | 2.6V | 00:00:00 | 01:21:21 | 00:00:00 | |
| 9A1FER-10 | 2026-08-30 12:25:28 | 45.81599 | 16.57979 | 251° | 11km/h | 21826m | 5.4m/s | -55.3°C | 4.7% | 0hPa | 2.6V | 00:00:00 | 01:21:19 | 00:00:00 | |
| 9A1FER-3 | 2026-08-30 12:25:22 | 45.81598 | 16.57999 | 262° | 9km/h | 21792m | 5.9m/s | -55.5°C | 4.6% | 0hPa | 2.6V | 00:00:00 | 01:21:13 | 00:00:00 | |
| PETON7-10 | 2026-08-30 12:25:20 | 45.81599 | 16.58007 | 255° | 9km/h | 21780m | 4.7m/s | -55.6°C | 4.6% | 0hPa | 2.6V | 00:00:00 | 00:00:00 | 00:00:00 | |
| OE5DRO-10 | 2026-08-30 12:25:19 | 45.81601 | 16.58012 | 248° | 9km/h | 21775m | 6.7m/s | -55.6°C | 4.7% | 0hPa | 2.6V | 00:00:00 | 00:00:00 | 00:00:00 | |
| OE5DXL-15 | 2026-08-30 12:25:15 | 45.81605 | 16.58029 | 263° | 11km/h | 21752m | 4.5m/s | -55.4°C | 4.7% | 0hPa | 2.6V | 00:00:00 | 00:00:00 | 00:00:00 | |
| 9A1FER-3 | 2026-08-30 12:25:07 | 45.81607 | 16.58048 | 211° | 11km/h | 21707m | 4.8m/s | -55.4°C | 4.6% | 0hPa | 2.6V | 00:00:00 | 01:20:58 | 00:00:00 | |
| PETON7-10 | 2026-08-30 12:25:05 | 45.81610 | 16.58052 | 228° | 13km/h | 21695m | 5.7m/s | -55.5°C | 4.6% | 0hPa | 2.6V | 00:00:00 | 01:20:56 | 00:00:00 | |
| PG1ADW-2 | 2026-08-30 12:25:02 | 45.81617 | 16.58060 | 206° | 13km/h | 21678m | 5.3m/s | -55.6°C | 4.7% | 0hPa | 2.6V | 00:00:00 | 00:00:00 | 00:00:00 | |
| OE3JTB-15 | 2026-08-30 12:25:01 | 45.81619 | 16.58062 | 213° | 15km/h | 21673m | 5.9m/s | -55.7°C | 4.7% | 0hPa | 2.6V | 00:00:00 | 00:00:00 | 00:00:00 | |
| OE5DRO-10 | 2026-08-30 12:25:00 | 45.81621 | 16.58064 | 216° | 15km/h | 21667m | 5.9m/s | -55.7°C | 4.8% | 0hPa | 2.7V | 00:00:00 | 00:00:00 | 00:00:00 | |
| 9A1FER-10 | 2026-08-30 12:24:58 | 45.81626 | 16.58066 | 184° | 13km/h | 21656m | 6.6m/s | -55.5°C | 4.7% | 0hPa | 2.7V | 00:00:00 | 01:20:49 | 00:00:00 | |
| 9A1FER-3 | 2026-08-30 12:24:52 | 45.81644 | 16.58053 | 139° | 15km/h | 21622m | 5.2m/s | -55.7°C | 4.8% | 0hPa | 2.6V | 00:00:00 | 01:20:43 | 00:00:00 | |
| PETON7-10 | 2026-08-30 12:24:49 | 45.81653 | 16.58045 | 161° | 16km/h | 21604m | 5.9m/s | -55.6°C | 4.8% | 0hPa | 2.7V | 00:00:00 | 00:00:00 | 00:00:00 | |
| 9A1FER-10 | 2026-08-30 12:24:43 | 45.81672 | 16.58034 | 152° | 18km/h | 21573m | 5.7m/s | -55.4°C | 4.6% | 0hPa | 2.7V | 00:00:00 | 01:20:34 | 00:00:00 | |
| PG1ADW-2 | 2026-08-30 12:24:42 | 45.81676 | 16.58030 | 139° | 20km/h | 21567m | 5.8m/s | -55.4°C | 4.6% | 0hPa | 2.7V | 00:00:00 | 00:00:00 | 08:30:00 | |
| OE5DRO-10 | 2026-08-30 12:24:41 | 45.81679 | 16.58025 | 128° | 20km/h | 21561m | 5.0m/s | -55.4°C | 4.6% | 0hPa | 2.6V | 00:00:00 | 00:00:00 | 00:00:00 | |
| PETON7-10 | 2026-08-30 12:24:34 | 45.81693 | 16.57989 | 134° | 22km/h | 21523m | 6.5m/s | -55.6°C | 4.8% | 0hPa | 2.7V | 00:00:00 | 00:00:00 | 00:00:00 | |
| OE3JTB-15 | 2026-08-30 12:24:32 | 45.81700 | 16.57981 | 142° | 15km/h | 21512m | 5.0m/s | -55.5°C | 4.8% | 0hPa | 2.7V | 00:00:00 | 00:00:00 | 00:00:00 | |
| 9A1FER-10 | 2026-08-30 12:24:28 | 45.81713 | 16.57955 | 117° | 20km/h | 21491m | 5.8m/s | -55.4°C | 4.8% | 0hPa | 2.7V | 00:00:00 | 01:20:19 | 00:00:00 | |
| 9A1FER-3 | 2026-08-30 12:24:22 | 45.81723 | 16.57903 | 94° | 18km/h | 21457m | 6.0m/s | -55.4°C | 4.7% | 0hPa | 2.7V | 00:00:00 | 01:20:13 | 00:00:00 | |
| PETON7-10 | 2026-08-30 12:24:19 | 45.81723 | 16.57883 | 93° | 16km/h | 21440m | 5.5m/s | -55.2°C | 4.6% | 0hPa | 2.7V | 00:00:00 | 01:20:10 | 00:00:00 | |
| OE5DXL-15 | 2026-08-30 12:24:15 | 45.81724 | 16.57864 | 105° | 13km/h | 21418m | 6.1m/s | -55.3°C | 4.6% | 0hPa | 2.7V | 00:00:00 | 00:00:00 | 08:30:00 | |
| 9A1FER-10 | 2026-08-30 12:24:13 | 45.81726 | 16.57851 | 101° | 16km/h | 21408m | 5.2m/s | -55.4°C | 4.7% | 0hPa | 2.6V | 00:00:00 | 01:20:04 | 00:00:00 | |
| 9A1FER-3 | 2026-08-30 12:24:07 | 45.81730 | 16.57809 | 83° | 11km/h | 21374m | 4.7m/s | -55.2°C | 4.6% | 0hPa | 2.7V | 00:00:00 | 01:19:58 | 00:00:00 | |
| OE5DRO-10 | 2026-08-30 12:24:03 | 45.81728 | 16.57790 | 84° | 9km/h | 21352m | 6.1m/s | -55.1°C | 4.5% | 0hPa | 2.6V | 00:00:00 | 00:00:00 | 00:00:00 | |
| PG1ADW-2 | 2026-08-30 12:24:02 | 45.81728 | 16.57786 | 92° | 9km/h | 21346m | 5.3m/s | -55.2°C | 4.4% | 0hPa | 2.6V | 00:00:00 | 00:00:00 | 00:00:00 | |
| 9A1FER-10 | 2026-08-30 12:23:58 | 45.81730 | 16.57766 | 90° | 7km/h | 21323m | 4.9m/s | -55.1°C | 4.5% | 0hPa | 2.6V | 00:00:00 | 01:19:49 | 00:00:00 | |
| 9A1FER-3 | 2026-08-30 12:23:52 | 45.81727 | 16.57751 | 349° | 7km/h | 21287m | 6.7m/s | -55.5°C | 4.7% | 0hPa | 2.6V | 00:00:00 | 01:19:43 | 00:00:00 | |
| PETON7-10 | 2026-08-30 12:23:48 | 45.81724 | 16.57753 | 85° | 11km/h | 21264m | 5.0m/s | -55.6°C | 4.7% | 0hPa | 2.6V | 00:00:00 | 00:00:00 | 00:00:00 | |
| OE5DXL-15 | 2026-08-30 12:23:45 | 45.81727 | 16.57747 | 120° | 11km/h | 21246m | 5.9m/s | -55.7°C | 4.7% | 0hPa | 2.6V | 00:00:00 | 00:00:00 | 00:00:00 | |
| OE5DRO-10 | 2026-08-30 12:23:44 | 45.81728 | 16.57744 | 105° | 9km/h | 21241m | 5.3m/s | -55.7°C | 4.7% | 0hPa | 2.6V | 00:00:00 | 00:00:00 | 00:00:00 | |
| 9A1FER-10 | 2026-08-30 12:23:43 | 45.81729 | 16.57741 | 97° | 11km/h | 21236m | 3.7m/s | -55.8°C | 4.7% | 0hPa | 2.6V | 00:00:00 | 01:19:34 | 00:00:00 | |
| PG1ADW-2 | 2026-08-30 12:23:42 | 45.81729 | 16.57738 | 91° | 11km/h | 21231m | 6.1m/s | -55.7°C | 4.7% | 0hPa | 2.6V | 00:00:00 | 00:00:00 | 00:00:00 | |
| 9A1FER-3 | 2026-08-30 12:23:37 | 45.81722 | 16.57754 | 302° | 11km/h | 21206m | 3.4m/s | -55.8°C | 4.8% | 0hPa | 2.6V | 00:00:00 | 01:19:28 | 00:00:00 | |
| PETON7-10 | 2026-08-30 12:23:32 | 45.81723 | 16.57773 | 198° | 11km/h | 21180m | 4.8m/s | -55.7°C | 4.8% | 0hPa | 2.6V | 00:00:00 | 01:19:23 | 00:00:00 | |
| 9A1FER-10 | 2026-08-30 12:23:28 | 45.81732 | 16.57774 | 209° | 13km/h | 21160m | 4.5m/s | -55.7°C | 4.8% | 0hPa | 2.6V | 00:00:00 | 01:19:19 | 08:30:00 | |
| OE5DRO-10 | 2026-08-30 12:23:25 | 45.81733 | 16.57780 | 273° | 13km/h | 21145m | 4.9m/s | -55.8°C | 4.7% | 0hPa | 2.6V | 00:00:00 | 00:00:00 | 00:00:00 | |
| 9A1FER-3 | 2026-08-30 12:23:22 | 45.81735 | 16.57796 | 249° | 13km/h | 21129m | 5.5m/s | -55.8°C | 4.7% | 0hPa | 2.6V | 00:00:00 | 01:19:13 | 08:30:00 | |
| PETON7-10 | 2026-08-30 12:23:17 | 45.81748 | 16.57822 | 237° | 9km/h | 21102m | 6.4m/s | -55.8°C | 4.8% | 0hPa | 2.6V | 00:00:00 | 00:00:00 | 08:30:00 | |
| OE5DXL-15 | 2026-08-30 12:23:15 | 45.81751 | 16.57831 | 249° | 7km/h | 21091m | 6.2m/s | -55.7°C | 4.8% | 0hPa | 2.7V | 00:00:00 | 00:00:00 | 00:00:00 | |
| 9A1FER-10 | 2026-08-30 12:23:13 | 45.81752 | 16.57838 | 268° | 7km/h | 21081m | 4.8m/s | -55.7°C | 4.8% | 0hPa | 2.7V | 00:00:00 | 01:19:04 | 00:00:00 | |
| OE3JTB-15 | 2026-08-30 12:23:09 | 45.81752 | 16.57846 | 239° | 7km/h | 21058m | 5.6m/s | -55.5°C | 4.7% | 0hPa | 2.7V | 00:00:00 | 01:19:00 | 00:00:00 | |
| 9A1FER-3 | 2026-08-30 12:23:07 | 45.81754 | 16.57851 | 235° | 7km/h | 21048m | 6.4m/s | -55.5°C | 4.7% | 0hPa | 2.7V | 00:00:00 | 01:18:58 | 00:00:00 | |
| OE5DRO-10 | 2026-08-30 12:23:06 | 45.81756 | 16.57853 | 239° | 7km/h | 21042m | 4.8m/s | -55.5°C | 4.7% | 0hPa | 2.7V | 00:00:00 | 00:00:00 | 00:00:00 | |
| PETON7-10 | 2026-08-30 12:23:02 | 45.81762 | 16.57869 | 240° | 5km/h | 21021m | 6.1m/s | -55.6°C | 4.7% | 0hPa | 2.7V | 00:00:00 | 00:00:00 | 00:00:00 | |
| 9A1FER-10 | 2026-08-30 12:22:58 | 45.81765 | 16.57871 | 133° | 5km/h | 21000m | 4.3m/s | -55.7°C | 4.7% | 0hPa | 2.7V | 00:00:00 | 01:18:49 | 00:00:00 | |
| 9A1FER-3 | 2026-08-30 12:22:52 | 45.81768 | 16.57866 | 228° | 7km/h | 20966m | 6.2m/s | -55.9°C | 4.8% | 0hPa | 2.7V | 00:00:00 | 01:18:43 | 00:00:00 | |
| PETON7-10 | 2026-08-30 12:22:47 | 45.81772 | 16.57881 | 273° | 5km/h | 20941m | 5.6m/s | -55.9°C | 4.8% | 0hPa | 2.7V | 00:00:00 | 01:18:38 | 00:00:00 | |
| OE5DXL-15 | 2026-08-30 12:22:45 | 45.81772 | 16.57884 | 284° | 9km/h | 20931m | 5.3m/s | -55.8°C | 4.8% | 0hPa | 2.7V | 00:00:00 | 00:00:00 | 00:00:00 | |
| 9A1FER-10 | 2026-08-30 12:22:43 | 45.81773 | 16.57883 | 134° | 7km/h | 20920m | 5.1m/s | -55.8°C | 4.8% | 0hPa | 2.7V | 00:00:00 | 01:18:34 | 00:00:00 | |
| PG1ADW-2 | 2026-08-30 12:22:42 | 45.81774 | 16.57881 | 120° | 9km/h | 20914m | 6.5m/s | -55.7°C | 4.7% | 0hPa | 2.6V | 00:00:00 | 00:00:00 | 00:00:00 | |
| OE3JTB-15 | 2026-08-30 12:22:40 | 45.81776 | 16.57875 | 126° | 11km/h | 20904m | 4.4m/s | -55.8°C | 4.8% | 0hPa | 2.6V | 00:00:00 | 00:00:00 | 00:00:00 | |
| 9A1FER-3 | 2026-08-30 12:22:37 | 45.81782 | 16.57871 | 179° | 9km/h | 20889m | 4.7m/s | -55.8°C | 4.8% | 0hPa | 2.7V | 00:00:00 | 01:18:28 | 00:00:00 | |
| PETON7-10 | 2026-08-30 12:22:32 | 45.81786 | 16.57870 | 122° | 13km/h | 20863m | 4.8m/s | -55.7°C | 4.8% | 0hPa | 2.6V | 00:00:00 | 00:00:00 | 00:00:00 | |
| 9A1FER-10 | 2026-08-30 12:22:28 | 45.81784 | 16.57857 | 91° | 15km/h | 20843m | 6.0m/s | -55.7°C | 4.8% | 0hPa | 2.6V | 00:00:00 | 01:18:19 | 00:00:00 | |
| 9A1FER-3 | 2026-08-30 12:22:22 | 45.81786 | 16.57827 | 100° | 15km/h | 20812m | 6.0m/s | -55.5°C | 4.7% | 0hPa | 2.6V | 00:00:00 | 01:18:13 | 00:00:00 | |
| PETON7-10 | 2026-08-30 12:22:17 | 45.81783 | 16.57804 | 59° | 18km/h | 20786m | 5.5m/s | -55.4°C | 4.6% | 0hPa | 2.6V | 00:00:00 | 00:00:00 | 00:00:00 | |
| OE5DXL-15 | 2026-08-30 12:22:15 | 45.81780 | 16.57795 | 59° | 26km/h | 20775m | 4.1m/s | -55.3°C | 4.6% | 0hPa | 2.6V | 00:00:00 | 00:00:00 | 00:00:00 | |
| 9A1FER-10 | 2026-08-30 12:22:13 | 45.81776 | 16.57787 | 59° | 20km/h | 20764m | 4.6m/s | -55.4°C | 4.6% | 0hPa | 2.6V | 00:00:00 | 01:18:04 | 00:00:00 | |
| OE3JTB-15 | 2026-08-30 12:22:11 | 45.81773 | 16.57777 | 84° | 18km/h | 20753m | 5.9m/s | -55.4°C | 4.6% | 0hPa | 2.6V | 00:00:00 | 00:00:00 | 00:00:00 | |
| OE5DRO-10 | 2026-08-30 12:22:09 | 45.81773 | 16.57766 | 88° | 26km/h | 20743m | 5.5m/s | -55.4°C | 4.6% | 0hPa | 2.6V | 00:00:00 | 00:00:00 | 00:00:00 | |
| 9A1FER-3 | 2026-08-30 12:22:07 | 45.81771 | 16.57751 | 71° | 26km/h | 20732m | 5.8m/s | -55.4°C | 4.6% | 0hPa | 2.6V | 00:00:00 | 01:17:58 | 00:00:00 | |
| PETON7-10 | 2026-08-30 12:22:02 | 45.81758 | 16.57714 | 57° | 29km/h | 20704m | 6.0m/s | -55.2°C | 4.5% | 0hPa | 2.6V | 00:00:00 | 01:17:53 | 00:00:00 | |
| 9A1FER-10 | 2026-08-30 12:21:58 | 45.81744 | 16.57686 | 57° | 31km/h | 20684m | 6.6m/s | -55.7°C | 4.7% | 0hPa | 2.6V | 00:00:00 | 01:17:49 | 00:00:00 | |
| 9A1FER-3 | 2026-08-30 12:21:52 | 45.81721 | 16.57627 | 60° | 31km/h | 20650m | 4.3m/s | -55.6°C | 4.7% | 0hPa | 2.6V | 00:00:00 | 01:17:43 | 00:00:00 | |
| OE5DRO-10 | 2026-08-30 12:21:50 | 45.81713 | 16.57605 | 63° | 27km/h | 20640m | 5.4m/s | -55.6°C | 4.7% | 0hPa | 2.6V | 00:00:00 | 00:00:00 | 00:00:00 | |
| PETON7-10 | 2026-08-30 12:21:47 | 45.81701 | 16.57575 | 59° | 27km/h | 20623m | 5.4m/s | -55.7°C | 4.8% | 0hPa | 2.7V | 00:00:00 | 00:00:00 | 00:00:00 | |
| OE5DXL-15 | 2026-08-30 12:21:45 | 45.81692 | 16.57556 | 50° | 24km/h | 20611m | 4.8m/s | -55.6°C | 4.7% | 0hPa | 2.7V | 00:00:00 | 00:00:00 | 00:00:00 | |
| 9A1FER-10 | 2026-08-30 12:21:43 | 45.81682 | 16.57542 | 42° | 26km/h | 20601m | 5.8m/s | -55.5°C | 4.7% | 0hPa | 2.7V | 00:00:00 | 01:17:34 | 00:00:00 | |
| PG1ADW-2 | 2026-08-30 12:21:42 | 45.81676 | 16.57534 | 40° | 24km/h | 20596m | 4.6m/s | -55.6°C | 4.7% | 0hPa | 2.7V | 00:00:00 | 01:17:33 | 08:30:00 | |
| 9A1FER-3 | 2026-08-30 12:21:37 | 45.81653 | 16.57499 | 54° | 24km/h | 20569m | 4.4m/s | -55.7°C | 4.7% | 0hPa | 2.6V | 00:00:00 | 01:17:28 | 00:00:00 | |
| PETON7-10 | 2026-08-30 12:21:32 | 45.81630 | 16.57468 | 30° | 22km/h | 20541m | 4.9m/s | -55.7°C | 4.7% | 0hPa | 2.6V | 00:00:00 | 00:00:00 | 00:00:00 | |
| OE5DRO-10 | 2026-08-30 12:21:31 | 45.81625 | 16.57464 | 24° | 22km/h | 20535m | 6.5m/s | -55.7°C | 4.8% | 0hPa | 2.6V | 00:00:00 | 00:00:00 | 00:00:00 | |
| 9A1FER-3 | 2026-08-30 12:21:22 | 45.81579 | 16.57431 | 20° | 20km/h | 20486m | 6.3m/s | -55.5°C | 4.6% | 0hPa | 2.6V | 00:00:00 | 01:17:13 | 00:00:00 | |
| OE5DXL-15 | 2026-08-30 12:21:15 | 45.81544 | 16.57425 | 10° | 16km/h | 20448m | 6.8m/s | -55.6°C | 4.7% | 0hPa | 2.6V | 00:00:00 | 00:00:00 | 00:00:00 | |
| 9A1FER-10 | 2026-08-30 12:21:13 | 45.81535 | 16.57421 | 22° | 16km/h | 20437m | 5.2m/s | -55.6°C | 4.7% | 0hPa | 2.7V | 00:00:00 | 01:17:04 | 08:30:00 | |
| OE5DRO-10 | 2026-08-30 12:21:12 | 45.81530 | 16.57419 | 17° | 16km/h | 20431m | 5.7m/s | -55.5°C | 4.8% | 0hPa | 2.7V | 00:00:00 | 00:00:00 | 00:00:00 | |
| 9A1FER-3 | 2026-08-30 12:21:07 | 45.81506 | 16.57414 | 358° | 16km/h | 20405m | 6.3m/s | -55.5°C | 4.7% | 0hPa | 2.7V | 00:00:00 | 01:16:58 | 08:30:00 | |
| PG1ADW-2 | 2026-08-30 12:21:02 | 45.81485 | 16.57422 | 345° | 15km/h | 20378m | 6.2m/s | -55.4°C | 4.7% | 0hPa | 2.7V | 00:00:00 | 00:00:00 | 00:00:00 | |
| PETON7-10 | 2026-08-30 12:21:00 | 45.81479 | 16.57425 | 343° | 13km/h | 20367m | 4.1m/s | -55.3°C | 4.7% | 0hPa | 2.7V | 00:00:00 | 00:00:00 | 08:30:00 | |
| 9A1FER-10 | 2026-08-30 12:20:58 | 45.81471 | 16.57427 | 355° | 13km/h | 20355m | 5.7m/s | -55.3°C | 4.7% | 0hPa | 2.7V | 00:00:00 | 01:16:49 | 00:00:00 | |
| OE5DRO-10 | 2026-08-30 12:20:54 | 45.81451 | 16.57429 | 356° | 13km/h | 20327m | 4.8m/s | -55.2°C | 4.5% | 0hPa | 2.7V | 00:00:00 | 00:00:00 | 00:00:00 | |
| 9A1FER-3 | 2026-08-30 12:20:52 | 45.81448 | 16.57430 | 358° | 13km/h | 20322m | 5.6m/s | -55.2°C | 4.5% | 0hPa | 2.6V | 00:00:00 | 01:16:43 | 00:00:00 | |
| PETON7-10 | 2026-08-30 12:20:45 | 45.81428 | 16.57430 | 7° | 13km/h | 20284m | 4.8m/s | -54.9°C | 4.5% | 0hPa | 2.6V | 00:00:00 | 00:00:00 | 00:00:00 | |
| 9A1FER-10 | 2026-08-30 12:20:43 | 45.81420 | 16.57429 | 9° | 13km/h | 20273m | 4.8m/s | -54.9°C | 4.5% | 0hPa | 2.6V | 00:00:00 | 01:16:34 | 00:00:00 | |
| PG1ADW-2 | 2026-08-30 12:20:42 | 45.81416 | 16.57427 | 16° | 11km/h | 20267m | 6.6m/s | -54.9°C | 4.5% | 0hPa | 2.6V | 00:00:00 | 00:00:00 | 00:00:00 | |
| 9A1FER-3 | 2026-08-30 12:20:37 | 45.81398 | 16.57419 | 29° | 11km/h | 20240m | 5.8m/s | -55.3°C | 4.6% | 0hPa | 2.6V | 00:00:00 | 01:16:28 | 00:00:00 | |
| OE5DRO-10 | 2026-08-30 12:20:34 | 45.81393 | 16.57414 | 13° | 11km/h | 20224m | 5.9m/s | -55.5°C | 4.6% | 0hPa | 2.6V | 00:00:00 | 00:00:00 | 00:00:00 | |
| PETON7-10 | 2026-08-30 12:20:30 | 45.81383 | 16.57413 | 357° | 11km/h | 20202m | 6.3m/s | -55.5°C | 4.6% | 0hPa | 2.6V | 00:00:00 | 01:16:21 | 00:00:00 | |
| 9A1FER-10 | 2026-08-30 12:20:28 | 45.81377 | 16.57414 | 354° | 11km/h | 20191m | 4.9m/s | -55.5°C | 4.7% | 0hPa | 2.6V | 00:00:00 | 01:16:19 | 00:00:00 | |
| 9A1FER-3 | 2026-08-30 12:20:22 | 45.81360 | 16.57410 | 37° | 11km/h | 20157m | 4.7m/s | -55.4°C | 4.6% | 0hPa | 2.6V | 00:00:00 | 01:16:13 | 00:00:00 | |
| PETON7-10 | 2026-08-30 12:20:15 | 45.81344 | 16.57399 | 8° | 11km/h | 20117m | 6.2m/s | -55.5°C | 4.6% | 0hPa | 2.6V | 00:00:00 | 00:00:00 | 00:00:00 | |
| 9A1FER-10 | 2026-08-30 12:20:13 | 45.81338 | 16.57398 | 14° | 13km/h | 20106m | 6.2m/s | -55.6°C | 4.6% | 0hPa | 2.7V | 00:00:00 | 01:16:04 | 00:00:00 | |
| 9A1FER-3 | 2026-08-30 12:20:07 | 45.81319 | 16.57395 | 8° | 13km/h | 20072m | 5.1m/s | -55.6°C | 4.8% | 0hPa | 2.7V | 00:00:00 | 01:15:58 | 00:00:00 | |
| PG1ADW-2 | 2026-08-30 12:20:02 | 45.81308 | 16.57399 | 354° | 15km/h | 20046m | 5.8m/s | 0°C | 0% | 0hPa | 2.7V | 00:00:00 | 00:00:00 | 00:00:00 | |
| PETON7-10 | 2026-08-30 12:20:00 | 45.81301 | 16.57400 | 353° | 15km/h | 20035m | 5.8m/s | -55.5°C | 4.7% | 0hPa | 2.7V | 00:00:00 | 00:00:00 | 00:00:00 | |
| 9A1FER-10 | 2026-08-30 12:19:58 | 45.81293 | 16.57402 | 356° | 15km/h | 20024m | 6.5m/s | -55.5°C | 4.6% | 0hPa | 2.7V | 00:00:00 | 01:15:49 | 00:00:00 | |
| OE5DRO-10 | 2026-08-30 12:19:56 | 45.81286 | 16.57402 | 355° | 16km/h | 20013m | 5.8m/s | -55.5°C | 4.6% | 0hPa | 2.7V | 00:00:00 | 00:00:00 | 08:30:00 | |
| 9A1FER-3 | 2026-08-30 12:19:52 | 45.81270 | 16.57405 | 360° | 16km/h | 19990m | 5.3m/s | -55.4°C | 4.6% | 0hPa | 2.6V | 00:00:00 | 01:15:43 | 00:00:00 | |
| PETON7-10 | 2026-08-30 12:19:45 | 45.81245 | 16.57407 | 360° | 18km/h | 19954m | 5.5m/s | -55.5°C | 4.6% | 0hPa | 2.6V | 00:00:00 | 01:15:36 | 00:00:00 | |
| 9A1FER-10 | 2026-08-30 12:19:43 | 45.81235 | 16.57407 | 359° | 18km/h | 19943m | 5.6m/s | -55.4°C | 4.6% | 0hPa | 2.6V | 00:00:00 | 01:15:34 | 00:00:00 | |
| PG1ADW-2 | 2026-08-30 12:19:42 | 45.81230 | 16.57407 | 2° | 18km/h | 19938m | 5.4m/s | 0°C | 0% | 0hPa | 2.6V | 00:00:00 | 00:00:00 | 00:00:00 | |
| OE3JTB-15 | 2026-08-30 12:19:41 | 45.81226 | 16.57407 | 359° | 16km/h | 19933m | 4.6m/s | -55.5°C | 4.6% | 0hPa | 2.6V | 00:00:00 | 01:15:32 | 00:00:00 | |
| 9A1FER-3 | 2026-08-30 12:19:37 | 45.81209 | 16.57409 | 6° | 20km/h | 19911m | 5.7m/s | -55.5°C | 4.7% | 0hPa | 2.6V | 00:00:00 | 01:15:28 | 00:00:00 | |
| PETON7-10 | 2026-08-30 12:19:30 | 45.81174 | 16.57410 | 355° | 18km/h | 19874m | 6.3m/s | -55.6°C | 4.7% | 0hPa | 2.6V | 00:00:00 | 00:00:00 | 00:00:00 | |
| 9A1FER-10 | 2026-08-30 12:19:28 | 45.81162 | 16.57413 | 349° | 18km/h | 19863m | 5.7m/s | -55.5°C | 4.6% | 0hPa | 2.7V | 00:00:00 | 01:15:19 | 00:00:00 | |
| 9A1FER-3 | 2026-08-30 12:19:22 | 45.81135 | 16.57427 | 339° | 16km/h | 19829m | 5.0m/s | -55.7°C | 4.7% | 0hPa | 2.7V | 00:00:00 | 01:15:13 | 00:00:00 | |
| OE5DRO-10 | 2026-08-30 12:19:18 | 45.81119 | 16.57436 | 341° | 15km/h | 19807m | 4.6m/s | -55.6°C | 4.6% | 0hPa | 2.7V | 00:00:00 | 00:00:00 | 00:00:00 | |
| PETON7-10 | 2026-08-30 12:19:15 | 45.81108 | 16.57444 | 331° | 15km/h | 19791m | 4.8m/s | -55.8°C | 4.6% | 0hPa | 2.7V | 00:00:00 | 00:00:00 | 00:00:00 | |
| 9A1FER-10 | 2026-08-30 12:19:13 | 45.81099 | 16.57451 | 334° | 15km/h | 19780m | 5.2m/s | -55.7°C | 4.7% | 0hPa | 2.7V | 00:00:00 | 01:15:04 | 00:00:00 | |
| PG1ADW-2 | 2026-08-30 12:19:02 | 45.81075 | 16.57490 | 316° | 15km/h | 19722m | 4.9m/s | 0°C | 0% | 0hPa | 2.7V | 00:00:00 | 01:14:53 | 00:00:00 | |
| PETON7-10 | 2026-08-30 12:19:00 | 45.81069 | 16.57497 | 326° | 16km/h | 19711m | 5.9m/s | -55.7°C | 4.7% | 0hPa | 2.7V | 00:00:00 | 01:14:51 | 00:00:00 | |
| OE5DRO-10 | 2026-08-30 12:18:59 | 45.81064 | 16.57501 | 328° | 16km/h | 19706m | 4.2m/s | -55.8°C | 4.6% | 0hPa | 2.7V | 00:00:00 | 00:00:00 | 00:00:00 | |
| 9A1FER-3 | 2026-08-30 12:18:52 | 45.81035 | 16.57529 | 315° | 15km/h | 19669m | 5.6m/s | -55.7°C | 4.7% | 0hPa | 2.7V | 00:00:00 | 01:14:43 | 08:30:00 | |
| OE3JTB-15 | 2026-08-30 12:18:47 | 45.81023 | 16.57546 | 333° | 20km/h | 19642m | 6.7m/s | -55.7°C | 4.7% | 0hPa | 2.6V | 00:00:00 | 00:00:00 | 08:30:00 | |
| 9A1FER-10 | 2026-08-30 12:18:43 | 45.81008 | 16.57552 | 352° | 15km/h | 19619m | 6.7m/s | -55.7°C | 4.7% | 0hPa | 2.7V | 00:00:00 | 01:14:34 | 00:00:00 | |
| PG1ADW-2 | 2026-08-30 12:18:42 | 45.81004 | 16.57553 | 354° | 18km/h | 19614m | 4.4m/s | 0°C | 0% | 0hPa | 2.7V | 00:00:00 | 00:00:00 | 08:30:00 | |
| OE5DRO-10 | 2026-08-30 12:18:40 | 45.80998 | 16.57556 | 331° | 18km/h | 19602m | 5.4m/s | -55.8°C | 4.7% | 0hPa | 2.7V | 00:00:00 | 00:00:00 | 00:00:00 | |
| 9A1FER-3 | 2026-08-30 12:18:37 | 45.80990 | 16.57562 | 333° | 18km/h | 19585m | 4.9m/s | -56.0°C | 4.8% | 0hPa | 2.7V | 00:00:00 | 01:14:28 | 00:00:00 | |
| PETON7-10 | 2026-08-30 12:18:29 | 45.80965 | 16.57556 | 32° | 22km/h | 19543m | 4.1m/s | -55.9°C | 4.7% | 0hPa | 2.7V | 00:00:00 | 00:00:00 | 00:00:00 | |
| 9A1FER-10 | 2026-08-30 12:18:28 | 45.80960 | 16.57552 | 29° | 22km/h | 19538m | 6.5m/s | -55.9°C | 4.8% | 0hPa | 2.7V | 00:00:00 | 01:14:19 | 00:00:00 | |
| 9A1FER-3 | 2026-08-30 12:18:22 | 45.80924 | 16.57550 | 349° | 22km/h | 19505m | 4.9m/s | -55.6°C | 4.6% | 0hPa | 2.7V | 00:00:00 | 01:14:13 | 00:00:00 | |
| OE5DRO-10 | 2026-08-30 12:18:21 | 45.80918 | 16.57552 | 348° | 22km/h | 19499m | 6.2m/s | -55.6°C | 4.6% | 0hPa | 2.7V | 00:00:00 | 00:00:00 | 00:00:00 | |
| OE3JTB-15 | 2026-08-30 12:18:17 | 45.80896 | 16.57557 | 2° | 20km/h | 19478m | 4.7m/s | -55.5°C | 4.6% | 0hPa | 2.7V | 00:00:00 | 00:00:00 | 00:00:00 | |
| PETON7-10 | 2026-08-30 12:18:14 | 45.80882 | 16.57556 | 7° | 24km/h | 19462m | 5.2m/s | -55.6°C | 4.7% | 0hPa | 2.7V | 00:00:00 | 01:14:05 | 00:00:00 | |
| 9A1FER-3 | 2026-08-30 12:18:07 | 45.80840 | 16.57560 | 343° | 20km/h | 19425m | 5.3m/s | -55.7°C | 4.7% | 0hPa | 2.7V | 00:00:00 | 01:13:58 | 00:00:00 | |
| OE5DRO-10 | 2026-08-30 12:18:02 | 45.80813 | 16.57580 | 326° | 18km/h | 19400m | 6.1m/s | -55.6°C | 4.7% | 0hPa | 2.6V | 00:00:00 | 00:00:00 | 00:00:00 | |
| PETON7-10 | 2026-08-30 12:17:59 | 45.80799 | 16.57591 | 347° | 16km/h | 19383m | 5.0m/s | -55.7°C | 4.7% | 0hPa | 2.7V | 00:00:00 | 00:00:00 | 00:00:00 | |
| 9A1FER-10 | 2026-08-30 12:17:58 | 45.80794 | 16.57592 | 354° | 16km/h | 19379m | 3.9m/s | -55.6°C | 4.7% | 0hPa | 2.6V | 00:00:00 | 01:13:49 | 00:00:00 | |
| 9A1FER-3 | 2026-08-30 12:17:52 | 45.80774 | 16.57599 | 326° | 13km/h | 19345m | 5.4m/s | -55.8°C | 4.8% | 0hPa | 2.6V | 00:00:00 | 01:13:43 | 00:00:00 | |
| OE3JTB-15 | 2026-08-30 12:17:48 | 45.80759 | 16.57613 | 326° | 11km/h | 19324m | 5.9m/s | -55.9°C | 4.9% | 0hPa | 2.6V | 00:00:00 | 01:13:39 | 00:00:00 | |
| OE5DXL-15 | 2026-08-30 12:17:45 | 45.80746 | 16.57623 | 341° | 11km/h | 19310m | 4.1m/s | -55.7°C | 4.8% | 0hPa | 2.6V | 00:00:00 | 00:00:00 | 00:00:00 | |
| PETON7-10 | 2026-08-30 12:17:44 | 45.80742 | 16.57625 | 342° | 9km/h | 19305m | 4.8m/s | -55.7°C | 4.8% | 0hPa | 2.6V | 00:00:00 | 00:00:00 | 00:00:00 | |
| 9A1FER-10 | 2026-08-30 12:17:43 | 45.80740 | 16.57627 | 334° | 9km/h | 19300m | 5.7m/s | -55.7°C | 4.7% | 0hPa | 2.6V | 00:00:00 | 01:13:34 | 00:00:00 | |
| 9A1FER-3 | 2026-08-30 12:17:37 | 45.80736 | 16.57632 | 301° | 13km/h | 19268m | 4.8m/s | -55.6°C | 4.7% | 0hPa | 2.6V | 00:00:00 | 01:13:28 | 00:00:00 | |
| PG1ADW-2 | 2026-08-30 12:17:32 | 45.80725 | 16.57644 | 334° | 13km/h | 19241m | 4.3m/s | 0°C | 0% | 0hPa | 2.6V | 00:00:00 | 01:13:23 | 00:00:00 | |
| PETON7-10 | 2026-08-30 12:17:29 | 45.80714 | 16.57646 | 5° | 9km/h | 19226m | 4.8m/s | -55.5°C | 4.7% | 0hPa | 2.6V | 00:00:00 | 01:13:20 | 00:00:00 | |
| 9A1FER-10 | 2026-08-30 12:17:28 | 45.80711 | 16.57645 | 4° | 9km/h | 19220m | 5.9m/s | -55.4°C | 4.7% | 0hPa | 2.6V | 00:00:00 | 01:13:19 | 00:00:00 | |
| OE5DRO-10 | 2026-08-30 12:17:24 | 45.80699 | 16.57643 | 12° | 9km/h | 19201m | 3.9m/s | -55.3°C | 4.6% | 0hPa | 2.6V | 00:00:00 | 00:00:00 | 00:00:00 | |
| 9A1FER-3 | 2026-08-30 12:17:22 | 45.80695 | 16.57644 | 332° | 7km/h | 19190m | 4.7m/s | -55.2°C | 4.5% | 0hPa | 2.6V | 00:00:00 | 01:13:13 | 00:00:00 | |
| OE3JTB-15 | 2026-08-30 12:17:19 | 45.80688 | 16.57649 | 340° | 5km/h | 19176m | 3.7m/s | -55.2°C | 4.5% | 0hPa | 2.7V | 00:00:00 | 00:00:00 | 00:00:00 | |
| PETON7-10 | 2026-08-30 12:17:14 | 45.80680 | 16.57653 | 348° | 7km/h | 19151m | 4.2m/s | -55.1°C | 4.5% | 0hPa | 2.6V | 00:00:00 | 00:00:00 | 00:00:00 | |
| 9A1FER-10 | 2026-08-30 12:17:13 | 45.80678 | 16.57654 | 340° | 7km/h | 19146m | 5.7m/s | -55.2°C | 4.5% | 0hPa | 2.7V | 00:00:00 | 01:13:04 | 00:00:00 | |
| OE5DXL-15 | 2026-08-30 12:17:11 | 45.80675 | 16.57656 | 346° | 5km/h | 19135m | 5.9m/s | -55.4°C | 4.6% | 0hPa | 2.7V | 00:00:00 | 00:00:00 | 00:00:00 | |
| 9A1FER-3 | 2026-08-30 12:17:07 | 45.80667 | 16.57661 | 303° | 5km/h | 19116m | 4.1m/s | -55.7°C | 4.7% | 0hPa | 2.7V | 00:00:00 | 01:12:58 | 00:00:00 | |
| OE5DRO-10 | 2026-08-30 12:17:05 | 45.80665 | 16.57667 | 304° | 4km/h | 19106m | 4.1m/s | -55.7°C | 4.7% | 0hPa | 2.7V | 00:00:00 | 00:00:00 | 08:30:00 | |
| PETON7-10 | 2026-08-30 12:16:59 | 45.80663 | 16.57673 | 40° | 5km/h | 19076m | 5.1m/s | -56.0°C | 4.6% | 0hPa | 2.6V | 00:00:00 | 00:00:00 | 00:00:00 | |
| 9A1FER-10 | 2026-08-30 12:16:58 | 45.80662 | 16.57673 | 36° | 5km/h | 19071m | 5.1m/s | -56.0°C | 4.6% | 0hPa | 2.6V | 00:00:00 | 01:12:49 | 00:00:00 | |
| 9A1FER-3 | 2026-08-30 12:16:52 | 45.80655 | 16.57673 | 357° | 5km/h | 19040m | 4.0m/s | -56.0°C | 4.8% | 0hPa | 2.6V | 00:00:00 | 01:12:43 | 00:00:00 | |
| PG1ADW-2 | 2026-08-30 12:16:47 | 45.80651 | 16.57669 | 41° | 9km/h | 19013m | 5.9m/s | 0°C | 0% | 0hPa | 2.6V | 00:00:00 | 00:00:00 | 00:00:00 | |
| OE5DRO-10 | 2026-08-30 12:16:46 | 45.80649 | 16.57668 | 33° | 7km/h | 19008m | 4.6m/s | -56.4°C | 4.8% | 0hPa | 2.6V | 00:00:00 | 00:00:00 | 00:00:00 | |
| PETON7-10 | 2026-08-30 12:16:44 | 45.80647 | 16.57665 | 45° | 7km/h | 18998m | 5.7m/s | -56.5°C | 4.8% | 0hPa | 2.6V | 00:00:00 | 01:12:35 | 00:00:00 | |
| 9A1FER-10 | 2026-08-30 12:16:43 | 45.80646 | 16.57663 | 50° | 7km/h | 18993m | 4.6m/s | -56.5°C | 4.8% | 0hPa | 2.6V | 00:00:00 | 01:12:34 | 08:30:00 | |
| OE5DXL-15 | 2026-08-30 12:16:40 | 45.80642 | 16.57659 | 40° | 4km/h | 18978m | 3.5m/s | -56.4°C | 4.8% | 0hPa | 2.6V | 00:00:00 | 00:00:00 | 00:00:00 | |
| 9A1FER-3 | 2026-08-30 12:16:37 | 45.80642 | 16.57659 | 259° | 9km/h | 18963m | 6.2m/s | -56.4°C | 4.9% | 0hPa | 2.6V | 00:00:00 | 01:12:28 | 08:30:00 | |
| PETON7-10 | 2026-08-30 12:16:29 | 45.80657 | 16.57667 | 167° | 5km/h | 18920m | 4.3m/s | -56.4°C | 4.9% | 0hPa | 2.6V | 00:00:00 | 00:00:00 | 08:30:00 | |
| 9A1FER-10 | 2026-08-30 12:16:28 | 45.80660 | 16.57665 | 157° | 5km/h | 18916m | 5.4m/s | -56.4°C | 4.9% | 0hPa | 2.6V | 00:00:00 | 01:12:19 | 00:00:00 | |
| OE5DRO-10 | 2026-08-30 12:16:27 | 45.80663 | 16.57664 | 153° | 5km/h | 18911m | 3.6m/s | -56.4°C | 5.0% | 0hPa | 2.6V | 00:00:00 | 00:00:00 | 00:00:00 | |
| 9A1FER-3 | 2026-08-30 12:16:22 | 45.80672 | 16.57662 | 201° | 4km/h | 18887m | 4.3m/s | -56.3°C | 4.9% | 0hPa | 2.6V | 00:00:00 | 01:12:13 | 00:00:00 | |
| PETON7-10 | 2026-08-30 12:16:14 | 45.80678 | 16.57665 | 218° | 4km/h | 18845m | 4.3m/s | -56.2°C | 4.9% | 0hPa | 2.6V | 00:00:00 | 00:00:00 | 00:00:00 | |
| OE3JTB-15 | 2026-08-30 12:16:13 | 45.80679 | 16.57668 | 301° | 5km/h | 18830m | 3.9m/s | -56.1°C | 4.8% | 0hPa | 2.6V | 00:00:00 | 01:12:02 | 00:00:00 | |
| OE5DXL-15 | 2026-08-30 12:16:10 | 45.80679 | 16.57669 | 273° | 7km/h | 18825m | 6.4m/s | -56.1°C | 4.8% | 0hPa | 2.6V | 00:00:00 | 00:00:00 | 00:00:00 | |
| OE5DRO-10 | 2026-08-30 12:16:09 | 45.80679 | 16.57671 | 297° | 7km/h | 18815m | 5.4m/s | -56.1°C | 4.9% | 0hPa | 2.6V | 00:00:00 | 00:00:00 | 00:00:00 | |
| 9A1FER-3 | 2026-08-30 12:16:07 | 45.80678 | 16.57673 | 319° | 5km/h | 18810m | 5.0m/s | -56.1°C | 4.8% | 0hPa | 2.7V | 00:00:00 | 01:11:58 | 00:00:00 | |
| PETON7-10 | 2026-08-30 12:15:59 | 45.80674 | 16.57682 | 153° | 7km/h | 18770m | 5.2m/s | -56.3°C | 4.8% | 0hPa | 2.7V | 00:00:00 | 01:11:50 | 00:00:00 | |
| 9A1FER-10 | 2026-08-30 12:15:58 | 45.80674 | 16.57681 | 61° | 9km/h | 18765m | 3.6m/s | -56.3°C | 4.9% | 0hPa | 2.7V | 00:00:00 | 01:11:49 | 00:00:00 | |
| 9A1FER-3 | 2026-08-30 12:15:52 | 45.80662 | 16.57681 | 346° | 11km/h | 18735m | 5.5m/s | -56.3°C | 4.9% | 0hPa | 2.7V | 00:00:00 | 01:11:43 | 00:00:00 | |
| OE5DRO-10 | 2026-08-30 12:15:49 | 45.80653 | 16.57684 | 337° | 11km/h | 18720m | 5.3m/s | -56.1°C | 4.9% | 0hPa | 2.6V | 00:00:00 | 00:00:00 | 00:00:00 | |
| PETON7-10 | 2026-08-30 12:15:44 | 45.80643 | 16.57684 | 11° | 11km/h | 18695m | 5.8m/s | -56.2°C | 4.8% | 0hPa | 2.6V | 00:00:00 | 00:00:00 | 00:00:00 | |
| 9A1FER-10 | 2026-08-30 12:15:43 | 45.80641 | 16.57684 | 3° | 11km/h | 18690m | 4.3m/s | -56.2°C | 4.9% | 0hPa | 2.6V | 00:00:00 | 01:11:34 | 00:00:00 | |
| OE5DXL-15 | 2026-08-30 12:15:40 | 45.80632 | 16.57685 | 347° | 18km/h | 18674m | 5.5m/s | -56.1°C | 4.8% | 0hPa | 2.6V | 00:00:00 | 00:00:00 | 00:00:00 | |
| 9A1FER-3 | 2026-08-30 12:15:37 | 45.80625 | 16.57691 | 318° | 11km/h | 18658m | 5.4m/s | -56.1°C | 4.8% | 0hPa | 2.6V | 00:00:00 | 01:11:28 | 00:00:00 | |
| OE5DRO-10 | 2026-08-30 12:15:30 | 45.80617 | 16.57719 | 314° | 9km/h | 18624m | 4.0m/s | -56.0°C | 4.6% | 0hPa | 2.6V | 00:00:00 | 00:00:00 | 00:00:00 | |
| PETON7-10 | 2026-08-30 12:15:29 | 45.80615 | 16.57722 | 310° | 7km/h | 18619m | 5.5m/s | !°C | 4.6% | 0hPa | 2.6V | 00:00:00 | 00:00:00 | 00:00:00 | |
| 9A1FER-10 | 2026-08-30 12:15:28 | 45.80613 | 16.57725 | 310° | 7km/h | 18614m | 4.9m/s | -55.9°C | 4.6% | 0hPa | 2.6V | 00:00:00 | 01:11:19 | 00:00:00 | |
| 9A1FER-3 | 2026-08-30 12:15:22 | 45.80605 | 16.57740 | 279° | 7km/h | 18582m | 6.1m/s | -56.2°C | 4.7% | 0hPa | 2.6V | 00:00:00 | 01:11:13 | 00:00:00 | |
| PETON7-10 | 2026-08-30 12:15:14 | 45.80599 | 16.57752 | 342° | 13km/h | 18540m | 4.2m/s | -56.9°C | 4.9% | 0hPa | 2.6V | 00:00:00 | 01:11:05 | 00:00:00 | |
| 9A1FER-10 | 2026-08-30 12:15:13 | 45.80597 | 16.57753 | 356° | 13km/h | 18535m | 6.3m/s | -57.0°C | 4.9% | 0hPa | 2.6V | 00:00:00 | 01:11:04 | 00:00:00 | |
| OE5DRO-10 | 2026-08-30 12:15:11 | 45.80590 | 16.57751 | 19° | 15km/h | 18524m | 5.0m/s | -57.2°C | 5.0% | 0hPa | 2.6V | 00:00:00 | 00:00:00 | 00:00:00 | |
| 9A1FER-3 | 2026-08-30 12:15:07 | 45.80583 | 16.57742 | 77° | 16km/h | 18504m | 4.1m/s | -57.5°C | 5.1% | 0hPa | 2.7V | 00:00:00 | 01:10:58 | 00:00:00 | |
| PETON7-10 | 2026-08-30 12:14:59 | 45.80577 | 16.57702 | 70° | 18km/h | 18460m | 6.2m/s | -57.3°C | 5.2% | 0hPa | 2.6V | 00:00:00 | 00:00:00 | 00:00:00 | |
| 9A1FER-10 | 2026-08-30 12:14:58 | 45.80575 | 16.57695 | 68° | 20km/h | 18455m | 4.3m/s | -57.3°C | 5.1% | 0hPa | 2.7V | 00:00:00 | 01:10:49 | 00:00:00 | |
| 9A1FER-3 | 2026-08-30 12:14:52 | 45.80567 | 16.57657 | 81° | 24km/h | 18423m | 5.5m/s | -57.3°C | 5.0% | 0hPa | 2.7V | 00:00:00 | 01:10:43 | 00:00:00 | |
| PG1ADW-2 | 2026-08-30 12:14:46 | 45.80563 | 16.57620 | 85° | 26km/h | 18391m | 5.1m/s | 0°C | 0% | 0hPa | 2.7V | 00:00:00 | 00:00:00 | 00:00:00 | |
| PETON7-10 | 2026-08-30 12:14:44 | 45.80561 | 16.57601 | 82° | 27km/h | 18379m | 5.7m/s | -57.5°C | 5.2% | 0hPa | 2.7V | 00:00:00 | 00:00:00 | 00:00:00 | |
| 9A1FER-10 | 2026-08-30 12:14:43 | 45.80560 | 16.57591 | 79° | 27km/h | 18374m | 5.5m/s | -57.5°C | 5.2% | 0hPa | 2.7V | 00:00:00 | 01:10:34 | 00:00:00 | |
| OE5DXL-15 | 2026-08-30 12:14:37 | 45.80543 | 16.57534 | 61° | 24km/h | 18342m | 4.4m/s | -57.5°C | 5.3% | 0hPa | 2.7V | 00:00:00 | 00:00:00 | 00:00:00 | |
| OE5DRO-10 | 2026-08-30 12:14:33 | 45.80532 | 16.57501 | 73° | 26km/h | 18321m | 4.7m/s | -57.5°C | 5.3% | 0hPa | 2.7V | 00:00:00 | 00:00:00 | 00:00:00 | |
| PETON7-10 | 2026-08-30 12:14:29 | 45.80522 | 16.57464 | 66° | 78km/h | 18300m | 6.5m/s | -57.4°C | 5.4% | 0hPa | 2.7V | 00:00:00 | 01:10:20 | 00:00:00 | |
| 9A1FER-10 | 2026-08-30 12:14:28 | 45.80519 | 16.57455 | 61° | 26km/h | 18294m | 4.6m/s | -57.3°C | 5.4% | 0hPa | 2.7V | 00:00:00 | 01:10:19 | 08:30:00 | |
| OE8JPQ-2 | 2026-08-30 12:14:22 | 45.80492 | 16.57407 | 48° | 22km/h | 18262m | 4.6m/s | 0°C | 0% | 0hPa | 2.7V | 00:00:00 | 01:10:13 | 00:00:00 | |
| PETON7-10 | 2026-08-30 12:14:14 | 45.80471 | 16.57351 | 66° | 20km/h | 18220m | 4.9m/s | -56.7°C | 5.0% | 0hPa | 2.7V | 00:00:00 | 00:00:00 | 08:30:00 | |
| 9A1FER-10 | 2026-08-30 12:14:13 | 45.80469 | 16.57343 | 64° | 20km/h | 18215m | 5.4m/s | -56.7°C | 5.0% | 0hPa | 2.6V | 00:00:00 | 01:10:04 | 00:00:00 | |
| 9A1FER-3 | 2026-08-30 12:14:07 | 45.80451 | 16.57305 | 55° | 18km/h | 18184m | 4.0m/s | -56.3°C | 4.9% | 0hPa | 2.6V | 00:00:00 | 01:09:58 | 00:00:00 | |
| OE5DXL-15 | 2026-08-30 12:14:05 | 45.80445 | 16.57293 | 53° | 16km/h | 18174m | 5.2m/s | -56.4°C | 4.9% | 0hPa | 2.6V | 00:00:00 | 00:00:00 | 00:00:00 | |
| PG1ADW-2 | 2026-08-30 12:14:02 | 45.80439 | 16.57278 | 68° | 18km/h | 18158m | 5.0m/s | 0°C | 0% | 0hPa | 2.6V | 00:00:00 | 00:00:00 | 00:00:00 | |
| OE8JPQ-2 | 2026-08-30 12:14:00 | 45.80435 | 16.57266 | 63° | 20km/h | 18147m | 5.1m/s | 0°C | 0% | 0hPa | 2.6V | 00:00:00 | 00:00:00 | 00:00:00 | |
| PETON7-10 | 2026-08-30 12:13:59 | 45.80433 | 16.57260 | 59° | 16km/h | 18141m | 6.0m/s | -56.7°C | 5.0% | 0hPa | 2.6V | 00:00:00 | 00:00:00 | 00:00:00 | |
| 9A1FER-10 | 2026-08-30 12:13:58 | 45.80430 | 16.57253 | 56° | 16km/h | 18136m | 4.8m/s | -56.7°C | 5.0% | 0hPa | 2.6V | 00:00:00 | 01:09:49 | 00:00:00 | |
| OE5DRO-10 | 2026-08-30 12:13:55 | 45.80419 | 16.57237 | 40° | 15km/h | 18120m | 5.2m/s | -56.6°C | 5.0% | 0hPa | 2.6V | 00:00:00 | 00:00:00 | 00:00:00 | |
| 9A1FER-3 | 2026-08-30 12:13:52 | 45.80409 | 16.57224 | 42° | 15km/h | 18105m | 6.6m/s | -56.5°C | 5.0% | 0hPa | 2.6V | 00:00:00 | 01:09:43 | 00:00:00 | |
| PETON7-10 | 2026-08-30 12:13:44 | 45.80387 | 16.57202 | 32° | 9km/h | 18064m | 4.3m/s | -56.4°C | 4.8% | 0hPa | 2.6V | 00:00:00 | 01:09:35 | 00:00:00 | |
| 9A1FER-10 | 2026-08-30 12:13:43 | 45.80383 | 16.57199 | 25° | 9km/h | 18058m | 5.8m/s | -56.5°C | 4.9% | 0hPa | 2.6V | 00:00:00 | 01:09:34 | 00:00:00 | |
| PG1ADW-2 | 2026-08-30 12:13:42 | 45.80379 | 16.57197 | 15° | 15km/h | 18053m | 5.1m/s | 0°C | 0% | 0hPa | 2.7V | 00:00:00 | 00:00:00 | 00:00:00 | |
| 9A1FER-3 | 2026-08-30 12:13:37 | 45.80362 | 16.57194 | 340° | 5km/h | 18027m | 4.8m/s | -56.7°C | 5.1% | 0hPa | 2.7V | 00:00:00 | 01:09:28 | 00:00:00 | |
| OE5DRO-10 | 2026-08-30 12:13:36 | 45.80360 | 16.57195 | 339° | 5km/h | 18022m | 5.7m/s | -56.6°C | 5.0% | 0hPa | 2.6V | 00:00:00 | 00:00:00 | 00:00:00 | |
| OE5DXL-15 | 2026-08-30 12:13:35 | 45.80359 | 16.57196 | 348° | 9km/h | 18016m | 5.2m/s | -56.5°C | 5.0% | 0hPa | 2.6V | 00:00:00 | 00:00:00 | 08:30:00 | |
| PETON7-10 | 2026-08-30 12:13:29 | 45.80356 | 16.57195 | 61° | 9km/h | 17986m | 6.2m/s | -56.6°C | 5.1% | 0hPa | 2.6V | 00:00:00 | 00:00:00 | 00:00:00 | |
| 9A1FER-10 | 2026-08-30 12:13:28 | 45.80355 | 16.57194 | 71° | 13km/h | 17980m | 4.7m/s | -56.6°C | 5.1% | 0hPa | 2.6V | 00:00:00 | 01:09:19 | 00:00:00 | |
| 9A1FER-3 | 2026-08-30 12:13:22 | 45.80354 | 16.57178 | 74° | 13km/h | 17948m | 5.2m/s | -56.5°C | 4.9% | 0hPa | 2.6V | 00:00:00 | 01:09:13 | 00:00:00 | |
| OE5DRO-10 | 2026-08-30 12:13:17 | 45.80347 | 16.57163 | 62° | 16km/h | 17923m | 5.0m/s | -56.4°C | 4.9% | 0hPa | 2.6V | 00:00:00 | 00:00:00 | 00:00:00 | |
| OE3JTB-15 | 2026-08-30 12:13:15 | 45.80345 | 16.57154 | 78° | 18km/h | 17913m | 4.3m/s | -56.3°C | 4.8% | 0hPa | 2.6V | 00:00:00 | 01:09:06 | 00:00:00 | |
| PETON7-10 | 2026-08-30 12:13:14 | 45.80344 | 16.57149 | 83° | 16km/h | 17908m | 6.3m/s | -56.4°C | 4.8% | 0hPa | 2.6V | 00:00:00 | 00:00:00 | 00:00:00 | |
| 9A1FER-3 | 2026-08-30 12:13:07 | 45.80342 | 16.57114 | 86° | 22km/h | 17872m | 6.0m/s | -56.6°C | 4.9% | 0hPa | 2.6V | 00:00:00 | 01:08:58 | 00:00:00 | |
| OE5DXL-15 | 2026-08-30 12:13:05 | 45.80342 | 16.57106 | 81° | 24km/h | 17862m | 4.6m/s | -56.7°C | 5.0% | 0hPa | 2.6V | 00:00:00 | 00:00:00 | 00:00:00 | |
| 9A1FER-10 | 2026-08-30 12:13:04 | 45.80341 | 16.57101 | 80° | 22km/h | 17857m | 5.1m/s | -56.7°C | 5.0% | 0hPa | 2.6V | 00:00:00 | 01:08:55 | 00:00:00 | |
| PETON7-10 | 2026-08-30 12:12:59 | 45.80333 | 16.57062 | 79° | 24km/h | 17832m | 4.5m/s | -56.9°C | 4.9% | 0hPa | 2.6V | 00:00:00 | 01:08:50 | 00:00:00 | |
| OE5DRO-10 | 2026-08-30 12:12:58 | 45.80332 | 16.57051 | 80° | 26km/h | 17827m | 5.7m/s | -57.0°C | 4.9% | 0hPa | 2.6V | 00:00:00 | 00:00:00 | 00:00:00 | |
| 9A1FER-3 | 2026-08-30 12:12:52 | 45.80332 | 16.57001 | 103° | 26km/h | 17797m | 4.2m/s | -57.2°C | 5.1% | 0hPa | 2.6V | 00:00:00 | 01:08:43 | 00:00:00 | |
| 9A1FER-10 | 2026-08-30 12:12:49 | 45.80335 | 16.56981 | 93° | 26km/h | 17783m | 5.2m/s | -57.2°C | 5.1% | 0hPa | 2.6V | 00:00:00 | 01:08:40 | 00:00:00 | |
| OE3JTB-15 | 2026-08-30 12:12:46 | 45.80334 | 16.56957 | 86° | 27km/h | 17768m | 5.3m/s | -57.1°C | 5.1% | 0hPa | 2.7V | 00:00:00 | 00:00:00 | 00:00:00 | |
| PETON7-10 | 2026-08-30 12:12:44 | 45.80332 | 16.56936 | 80° | 26km/h | 17758m | 5.9m/s | -57.1°C | 5.1% | 0hPa | 2.6V | 00:00:00 | 00:00:00 | 00:00:00 | |
| OE5DRO-10 | 2026-08-30 12:12:39 | 45.80327 | 16.56884 | 79° | 26km/h | 17734m | 5.3m/s | -57.6°C | 5.3% | 0hPa | 2.6V | 00:00:00 | 00:00:00 | 00:00:00 | |
| 9A1FER-3 | 2026-08-30 12:12:37 | 45.80323 | 16.56868 | 72° | 26km/h | 17724m | 6.0m/s | -57.7°C | 5.2% | 0hPa | 2.6V | 00:00:00 | 01:08:28 | 00:00:00 | |
| OE5DXL-15 | 2026-08-30 12:12:35 | 45.80320 | 16.56855 | 69° | 26km/h | 17713m | 5.3m/s | -57.7°C | 5.2% | 0hPa | 2.6V | 00:00:00 | 00:00:00 | 00:00:00 | |
| 9A1FER-10 | 2026-08-30 12:12:34 | 45.80319 | 16.56848 | 69° | 27km/h | 17708m | 5.0m/s | -57.7°C | 5.3% | 0hPa | 2.6V | 00:00:00 | 01:08:25 | 00:00:00 | |
| PETON7-10 | 2026-08-30 12:12:29 | 45.80307 | 16.56805 | 62° | 27km/h | 17684m | 5.0m/s | -57.5°C | 5.4% | 0hPa | 2.6V | 00:00:00 | 00:00:00 | 00:00:00 | |
| 9A1FER-3 | 2026-08-30 12:12:22 | 45.80275 | 16.56750 | 48° | 26km/h | 17649m | 5.3m/s | -57.3°C | 5.3% | 0hPa | 2.6V | 00:00:00 | 01:08:13 | 00:00:00 | |
| OE5DRO-10 | 2026-08-30 12:12:20 | 45.80267 | 16.56735 | 53° | 26km/h | 17639m | 5.9m/s | -57.4°C | 5.2% | 0hPa | 2.6V | 00:00:00 | 00:00:00 | 00:00:00 | |
| 9A1FER-10 | 2026-08-30 12:12:19 | 45.80263 | 16.56727 | 54° | 26km/h | 17634m | 4.3m/s | -57.4°C | 5.2% | 0hPa | 2.7V | 00:00:00 | 01:08:10 | 00:00:00 | |
| OE3JTB-15 | 2026-08-30 12:12:16 | 45.80246 | 16.56694 | 56° | 26km/h | 17614m | 6.3m/s | -57.2°C | 5.1% | 0hPa | 2.7V | 00:00:00 | 00:00:00 | 00:00:00 | |
| PETON7-10 | 2026-08-30 12:12:14 | 45.80242 | 16.56686 | 56° | 26km/h | 17609m | 4.5m/s | -57.2°C | 5.1% | 0hPa | 2.7V | 00:00:00 | 01:08:05 | 00:00:00 | |
| 9A1FER-3 | 2026-08-30 12:12:07 | 45.80212 | 16.56643 | 39° | 27km/h | 17572m | 6.1m/s | -57.2°C | 5.3% | 0hPa | 2.7V | 00:00:00 | 01:07:58 | 08:30:00 | |
| OE5DXL-15 | 2026-08-30 12:12:05 | 45.80203 | 16.56631 | 46° | 26km/h | 17562m | 4.7m/s | -57.1°C | 5.3% | 0hPa | 2.6V | 00:00:00 | 00:00:00 | 00:00:00 | |
| 9A1FER-10 | 2026-08-30 12:12:04 | 45.80199 | 16.56624 | 49° | 27km/h | 17557m | 4.7m/s | -57.1°C | 5.3% | 0hPa | 2.6V | 00:00:00 | 01:07:55 | 08:30:00 | |
| OE5DRO-10 | 2026-08-30 12:12:01 | 45.80184 | 16.56603 | 40° | 26km/h | 17543m | 5.3m/s | -57.3°C | 5.3% | 0hPa | 2.6V | 00:00:00 | 00:00:00 | 00:00:00 | |
| PETON7-10 | 2026-08-30 12:11:59 | 45.80172 | 16.56591 | 36° | 26km/h | 17533m | 5.1m/s | -57.2°C | 5.2% | 0hPa | 2.6V | 00:00:00 | 00:00:00 | 08:30:00 | |
| 9A1FER-3 | 2026-08-30 12:11:52 | 45.80132 | 16.56552 | 34° | 24km/h | 17499m | 4.0m/s | -56.7°C | 5.1% | 0hPa | 2.6V | 00:00:00 | 01:07:43 | 00:00:00 | |
| 9A1FER-10 | 2026-08-30 12:11:49 | 45.80117 | 16.56537 | 31° | 24km/h | 17483m | 6.1m/s | -56.7°C | 5.2% | 0hPa | 2.6V | 00:00:00 | 01:07:40 | 00:00:00 | |
| OE3JTB-15 | 2026-08-30 12:11:47 | 45.80106 | 16.56528 | 32° | 15km/h | 17473m | 5.9m/s | -56.7°C | 5.2% | 0hPa | 2.6V | 00:00:00 | 01:07:38 | 00:00:00 | |
| PETON7-10 | 2026-08-30 12:11:44 | 45.80092 | 16.56513 | 38° | 22km/h | 17457m | 4.4m/s | -56.5°C | 5.1% | 0hPa | 2.6V | 00:00:00 | 00:00:00 | 00:00:00 | |
| OE5DRO-10 | 2026-08-30 12:11:42 | 45.80083 | 16.56502 | 45° | 24km/h | 17448m | 4.8m/s | -56.6°C | 5.0% | 0hPa | 2.6V | 00:00:00 | 00:00:00 | 00:00:00 | |
| 9A1FER-3 | 2026-08-30 12:11:37 | 45.80062 | 16.56475 | 43° | 24km/h | 17424m | 3.9m/s | -56.5°C | 4.8% | 0hPa | 2.6V | 00:00:00 | 01:07:28 | 00:00:00 | |
| OE5DXL-15 | 2026-08-30 12:11:36 | 45.80057 | 16.56469 | 37° | 16km/h | 17419m | 4.7m/s | -56.6°C | 4.9% | 0hPa | 2.6V | 00:00:00 | 00:00:00 | 00:00:00 | |
| 9A1FER-10 | 2026-08-30 12:11:34 | 45.80047 | 16.56461 | 27° | 26km/h | 17410m | 4.3m/s | -56.4°C | 4.9% | 0hPa | 2.6V | 00:00:00 | 01:07:25 | 00:00:00 | |
| PETON7-10 | 2026-08-30 12:11:29 | 45.80022 | 16.56442 | 33° | 26km/h | 17386m | 4.8m/s | -56.5°C | 5.1% | 0hPa | 2.6V | 00:00:00 | 01:07:20 | 00:00:00 | |
| OE5DRO-10 | 2026-08-30 12:11:23 | 45.79991 | 16.56409 | 31° | 18km/h | 17358m | 4.4m/s | -57.3°C | 5.2% | 0hPa | 2.6V | 00:00:00 | 00:00:00 | 08:30:00 | |
| 9A1FER-3 | 2026-08-30 12:11:22 | 45.79985 | 16.56405 | 24° | 18km/h | 17354m | 5.2m/s | -57.3°C | 5.2% | 0hPa | 2.6V | 00:00:00 | 01:07:13 | 00:00:00 | |
| 9A1FER-10 | 2026-08-30 12:11:19 | 45.79964 | 16.56399 | 4° | 16km/h | 17338m | 6.4m/s | -57.4°C | 5.1% | 0hPa | 2.7V | 00:00:00 | 01:07:10 | 00:00:00 | |
| PETON7-10 | 2026-08-30 12:11:14 | 45.79934 | 16.56401 | 14° | 13km/h | 17314m | 5.4m/s | -57.3°C | 5.1% | 0hPa | 2.6V | 00:00:00 | 00:00:00 | 00:00:00 | |
| 9A1FER-3 | 2026-08-30 12:11:07 | 45.79917 | 16.56388 | 24° | 13km/h | 17268m | 7.1m/s | -57.5°C | 5.1% | 0hPa | 2.7V | 00:00:00 | 01:06:58 | 00:00:00 | |
| 9A1FER-10 | 2026-08-30 12:11:04 | 45.79907 | 16.56381 | 33° | 13km/h | 17251m | 7.8m/s | -57.6°C | 5.2% | 0hPa | 2.7V | 00:00:00 | 01:06:55 | 00:00:00 | |
| PETON7-10 | 2026-08-30 12:10:59 | 45.79899 | 16.56364 | 102° | 11km/h | 17222m | 5.7m/s | -58.2°C | 5.4% | 0hPa | 2.7V | 00:00:00 | 00:00:00 | 00:00:00 | |
| 9A1FER-3 | 2026-08-30 12:10:52 | 45.79914 | 16.56338 | 117° | 11km/h | 17188m | 3.9m/s | -58.5°C | 5.6% | 0hPa | 2.7V | 00:00:00 | 01:06:43 | 00:00:00 | |
| 9A1FER-10 | 2026-08-30 12:10:49 | 45.79916 | 16.56328 | 98° | 11km/h | 17172m | 5.6m/s | -58.5°C | 5.5% | 0hPa | 2.7V | 00:00:00 | 01:06:40 | 00:00:00 | |
| OE5DRO-10 | 2026-08-30 12:10:45 | 45.79917 | 16.56315 | 89° | 11km/h | 17153m | 5.0m/s | -58.4°C | 5.5% | 0hPa | 2.7V | 00:00:00 | 00:00:00 | 00:00:00 | |
| PETON7-10 | 2026-08-30 12:10:44 | 45.79917 | 16.56312 | 103° | 11km/h | 17148m | 4.4m/s | -58.4°C | 5.5% | 0hPa | 2.7V | 00:00:00 | 01:06:35 | 00:00:00 | |
| 9A1FER-3 | 2026-08-30 12:10:37 | 45.79929 | 16.56288 | 136° | 13km/h | 17113m | 6.0m/s | -58.4°C | 5.5% | 0hPa | 2.7V | 00:00:00 | 01:06:28 | 00:00:00 | |
| 9A1FER-10 | 2026-08-30 12:10:34 | 45.79934 | 16.56280 | 128° | 13km/h | 17098m | 5.0m/s | -58.4°C | 5.5% | 0hPa | 2.7V | 00:00:00 | 01:06:25 | 00:00:00 | |
| PETON7-10 | 2026-08-30 12:10:29 | 45.79942 | 16.56260 | 107° | 13km/h | 17073m | 4.9m/s | -58.3°C | 5.4% | 0hPa | 2.7V | 00:00:00 | 00:00:00 | 00:00:00 | |
| OE5DRO-10 | 2026-08-30 12:10:26 | 45.79944 | 16.56246 | 105° | 13km/h | 17058m | 4.7m/s | -58.5°C | 5.5% | 0hPa | 2.7V | 00:00:00 | 00:00:00 | 00:00:00 | |
| 9A1FER-3 | 2026-08-30 12:10:22 | 45.79949 | 16.56227 | 115° | 11km/h | 17038m | 4.2m/s | -58.6°C | 5.6% | 0hPa | 2.6V | 00:00:00 | 01:06:13 | 00:00:00 | |
| 9A1FER-10 | 2026-08-30 12:10:19 | 45.79954 | 16.56211 | 106° | 11km/h | 17024m | 4.6m/s | -58.8°C | 5.7% | 0hPa | 2.6V | 00:00:00 | 01:06:10 | 00:00:00 | |
| PETON7-10 | 2026-08-30 12:10:14 | 45.79955 | 16.56190 | 77° | 11km/h | 17000m | 5.1m/s | -58.7°C | 5.8% | 0hPa | 2.6V | 00:00:00 | 00:00:00 | 00:00:00 | |
| 9A1FER-10 | 2026-08-30 12:10:04 | 45.79964 | 16.56162 | 102° | 11km/h | 16949m | 5.0m/s | -58.6°C | 5.5% | 0hPa | 2.6V | 00:00:00 | 01:05:55 | 00:00:00 | |
| OE3JTB-15 | 2026-08-30 12:10:03 | 45.79965 | 16.56157 | 99° | 13km/h | 16944m | 5.9m/s | -58.6°C | 5.5% | 0hPa | 2.6V | 00:00:00 | 00:00:00 | 00:00:00 | |
| PETON7-10 | 2026-08-30 12:09:59 | 45.79964 | 16.56138 | 86° | 11km/h | 16922m | 5.2m/s | -58.6°C | 5.6% | 0hPa | 2.6V | 00:00:00 | 01:05:50 | 00:00:00 | |
| 9A1FER-3 | 2026-08-30 12:09:52 | 45.79966 | 16.56112 | 92° | 13km/h | 16887m | 5.1m/s | -58.3°C | 5.6% | 0hPa | 2.6V | 00:00:00 | 01:05:43 | 08:30:00 | |
| 9A1FER-10 | 2026-08-30 12:09:49 | 45.79967 | 16.56102 | 96° | 15km/h | 16873m | 4.1m/s | -58.5°C | 5.6% | 0hPa | 2.7V | 00:00:00 | 01:05:40 | 08:30:00 | |
| OE5DRO-10 | 2026-08-30 12:09:48 | 45.79967 | 16.56097 | 88° | 15km/h | 16868m | 4.9m/s | -58.5°C | 5.6% | 0hPa | 2.6V | 00:00:00 | 00:00:00 | 00:00:00 | |
| PETON7-10 | 2026-08-30 12:09:44 | 45.79966 | 16.56077 | 100° | 15km/h | 16848m | 4.1m/s | -58.6°C | 5.8% | 0hPa | 2.6V | 00:00:00 | 00:00:00 | 08:30:00 | |
| 9A1FER-3 | 2026-08-30 12:09:37 | 45.79975 | 16.56043 | 114° | 16km/h | 16813m | 4.6m/s | -58.4°C | 5.6% | 0hPa | 2.7V | 00:00:00 | 01:05:28 | 00:00:00 | |
| 9A1FER-10 | 2026-08-30 12:09:34 | 45.79981 | 16.56027 | 136° | 18km/h | 16798m | 5.6m/s | -58.3°C | 5.5% | 0hPa | 2.7V | 00:00:00 | 01:05:25 | 00:00:00 | |
| OE5DXL-15 | 2026-08-30 12:09:30 | 45.79995 | 16.56016 | 167° | 26km/h | 16778m | 5.7m/s | -58.1°C | 5.5% | 0hPa | 2.7V | 00:00:00 | 00:00:00 | 00:00:00 | |
| PETON7-10 | 2026-08-30 12:09:29 | 45.79999 | 16.56015 | 165° | 18km/h | 16773m | 4.3m/s | -58.2°C | 5.6% | 0hPa | 2.7V | 00:00:00 | 00:00:00 | 00:00:00 | |
| 9A1FER-3 | 2026-08-30 12:09:22 | 45.80023 | 16.55986 | 131° | 22km/h | 16738m | 5.7m/s | -58.1°C | 5.5% | 0hPa | 2.7V | 00:00:00 | 01:05:13 | 00:00:00 | |
| 9A1FER-10 | 2026-08-30 12:09:19 | 45.80034 | 16.55971 | 143° | 22km/h | 16723m | 3.9m/s | -58.1°C | 5.5% | 0hPa | 2.7V | 00:00:00 | 01:05:10 | 00:00:00 | |
| PETON7-10 | 2026-08-30 12:09:14 | 45.80056 | 16.55954 | 149° | 26km/h | 16699m | 4.0m/s | -58.3°C | 5.6% | 0hPa | 2.7V | 00:00:00 | 01:05:05 | 00:00:00 | |
| OE5DRO-10 | 2026-08-30 12:09:10 | 45.80073 | 16.55932 | 129° | 27km/h | 16679m | 4.2m/s | -58.4°C | 5.6% | 0hPa | 2.7V | 00:00:00 | 00:00:00 | 00:00:00 | |
| 9A1FER-3 | 2026-08-30 12:09:07 | 45.80086 | 16.55912 | 139° | 29km/h | 16664m | 4.2m/s | -58.5°C | 5.7% | 0hPa | 2.7V | 00:00:00 | 01:04:58 | 00:00:00 | |
| 9A1FER-10 | 2026-08-30 12:09:04 | 45.80101 | 16.55894 | 145° | 29km/h | 16649m | 6.0m/s | -58.5°C | 5.7% | 0hPa | 2.7V | 00:00:00 | 01:04:55 | 00:00:00 | |
| PETON7-10 | 2026-08-30 12:08:59 | 45.80130 | 16.55856 | 131° | 31km/h | 16622m | 6.0m/s | -58.6°C | 5.8% | 0hPa | 2.7V | 00:00:00 | 00:00:00 | 00:00:00 | |
| OE5DXL-15 | 2026-08-30 12:08:58 | 45.80134 | 16.55847 | 128° | 31km/h | 16617m | 4.6m/s | -58.6°C | 5.8% | 0hPa | 2.7V | 00:00:00 | 00:00:00 | 00:00:00 | |
| 9A1FER-3 | 2026-08-30 12:08:52 | 45.80160 | 16.55798 | 130° | 31km/h | 16586m | 4.2m/s | -58.4°C | 5.8% | 0hPa | 2.7V | 00:00:00 | 01:04:43 | 00:00:00 | |
| OE5DRO-10 | 2026-08-30 12:08:51 | 45.80165 | 16.55790 | 131° | 31km/h | 16581m | 5.1m/s | -58.4°C | 5.8% | 0hPa | 2.7V | 00:00:00 | 00:00:00 | 00:00:00 | |
| 9A1FER-10 | 2026-08-30 12:08:49 | 45.80174 | 16.55773 | 125° | 31km/h | 16572m | 3.5m/s | -58.3°C | 5.7% | 0hPa | 2.7V | 00:00:00 | 01:04:40 | 00:00:00 | |
| PETON7-10 | 2026-08-30 12:08:44 | 45.80193 | 16.55715 | 112° | 31km/h | 16548m | 5.9m/s | -58.2°C | 5.6% | 0hPa | 2.7V | 00:00:00 | 00:00:00 | 00:00:00 | |
| 9A1FER-3 | 2026-08-30 12:08:37 | 45.80221 | 16.55652 | 129° | 31km/h | 16514m | 5.2m/s | -58.2°C | 5.6% | 0hPa | 2.7V | 00:00:00 | 01:04:28 | 00:00:00 | |
| 9A1FER-10 | 2026-08-30 12:08:34 | 45.80234 | 16.55624 | 115° | 31km/h | 16499m | 4.0m/s | -58.1°C | 5.7% | 0hPa | 2.7V | 00:00:00 | 01:04:25 | 00:00:00 | |
| OE5DRO-10 | 2026-08-30 12:08:32 | 45.80240 | 16.55602 | 111° | 35km/h | 16489m | 4.5m/s | -58.1°C | 5.6% | 0hPa | 2.7V | 00:00:00 | 00:00:00 | 08:30:00 | |
| PETON7-10 | 2026-08-30 12:08:29 | 45.80247 | 16.55568 | 106° | 35km/h | 16472m | 5.9m/s | -57.9°C | 5.6% | 0hPa | 2.7V | 00:00:00 | 01:04:20 | 00:00:00 | |
| OE5DXL-15 | 2026-08-30 12:08:28 | 45.80249 | 16.55557 | 109° | 37km/h | 16467m | 4.5m/s | 0°C | 0% | 0hPa | 2.7V | 00:00:00 | 00:00:00 | 00:00:00 | |
| 9A1FER-3 | 2026-08-30 12:08:22 | 45.80263 | 16.55496 | 107° | 38km/h | 16439m | 5.8m/s | -58.1°C | 5.6% | 0hPa | 2.7V | 00:00:00 | 01:04:13 | 00:00:00 | |
| 9A1FER-10 | 2026-08-30 12:08:19 | 45.80271 | 16.55459 | 110° | 38km/h | 16423m | 4.8m/s | -58.0°C | 5.6% | 0hPa | 2.7V | 00:00:00 | 01:04:10 | 00:00:00 | |
| PETON7-10 | 2026-08-30 12:08:14 | 45.80288 | 16.55391 | 109° | 37km/h | 16398m | 5.9m/s | -58.0°C | 5.5% | 0hPa | 2.7V | 00:00:00 | 00:00:00 | 00:00:00 | |
| OE5DRO-10 | 2026-08-30 12:08:13 | 45.80291 | 16.55377 | 107° | 38km/h | 16392m | 5.0m/s | -57.9°C | 5.6% | 0hPa | 2.7V | 00:00:00 | 00:00:00 | 00:00:00 | |
| 9A1FER-3 | 2026-08-30 12:08:07 | 45.80305 | 16.55301 | 104° | 38km/h | 16363m | 5.7m/s | -57.8°C | 5.5% | 0hPa | 2.7V | 00:00:00 | 01:03:58 | 00:00:00 | |
| 9A1FER-10 | 2026-08-30 12:08:04 | 45.80311 | 16.55263 | 100° | 40km/h | 16349m | 5.3m/s | -58.0°C | 5.6% | 0hPa | 2.7V | 00:00:00 | 01:03:55 | 00:00:00 | |
| PETON7-10 | 2026-08-30 12:07:59 | 45.80320 | 16.55193 | 100° | 40km/h | 16325m | 5.8m/s | -58.1°C | 5.8% | 0hPa | 2.7V | 00:00:00 | 00:00:00 | 00:00:00 | |
| OE5DXL-15 | 2026-08-30 12:07:58 | 45.80321 | 16.55179 | 97° | 38km/h | 16319m | 4.6m/s | 0°C | 0% | 0hPa | 2.7V | 00:00:00 | 01:03:49 | 00:00:00 | |
| OE5DRO-10 | 2026-08-30 12:07:54 | 45.80325 | 16.55123 | 94° | 40km/h | 16300m | 5.7m/s | -58.0°C | 5.7% | 0hPa | 2.7V | 00:00:00 | 00:00:00 | 00:00:00 | |
| 9A1FER-3 | 2026-08-30 12:07:52 | 45.80326 | 16.55090 | 93° | 38km/h | 16290m | 5.0m/s | -57.9°C | 5.6% | 0hPa | 2.7V | 00:00:00 | 01:03:43 | 00:00:00 | |
| 9A1FER-10 | 2026-08-30 12:07:49 | 45.80329 | 16.55042 | 94° | 38km/h | 16275m | 5.0m/s | -57.8°C | 5.6% | 0hPa | 2.7V | 00:00:00 | 01:03:40 | 00:00:00 | |
| PETON7-10 | 2026-08-30 12:07:44 | 45.80333 | 16.54975 | 92° | 37km/h | 16250m | 4.5m/s | -57.7°C | 5.7% | 0hPa | 2.7V | 00:00:00 | 01:03:35 | 00:00:00 | |
| 9A1FER-3 | 2026-08-30 12:07:37 | 45.80336 | 16.54881 | 92° | 37km/h | 16215m | 4.9m/s | -57.2°C | 5.4% | 0hPa | 2.7V | 00:00:00 | 01:03:28 | 08:30:00 | |
| OE5DRO-10 | 2026-08-30 12:07:35 | 45.80336 | 16.54853 | 90° | 35km/h | 16205m | 4.3m/s | -57.2°C | 5.3% | 0hPa | 2.7V | 00:00:00 | 00:00:00 | 00:00:00 | |
| 9A1FER-10 | 2026-08-30 12:07:34 | 45.80336 | 16.54840 | 93° | 35km/h | 16200m | 5.4m/s | -57.3°C | 5.4% | 0hPa | 2.7V | 00:00:00 | 01:03:25 | 08:30:00 | |
| PETON7-10 | 2026-08-30 12:07:29 | 45.80338 | 16.54776 | 96° | 35km/h | 16175m | 4.9m/s | -57.4°C | 5.5% | 0hPa | 2.7V | 00:00:00 | 00:00:00 | 08:30:00 | |
| OE5DXL-15 | 2026-08-30 12:07:28 | 45.80339 | 16.54763 | 95° | 37km/h | 16170m | 4.2m/s | 0°C | 0% | 0hPa | 2.7V | 00:00:00 | 00:00:00 | 00:00:00 | |
| 9A1FER-3 | 2026-08-30 12:07:22 | 45.80342 | 16.54686 | 88° | 35km/h | 16141m | 4.8m/s | -57.3°C | 5.6% | 0hPa | 2.7V | 00:00:00 | 01:03:13 | 00:00:00 | |
| 9A1FER-10 | 2026-08-30 12:07:19 | 45.80341 | 16.54648 | 88° | 35km/h | 16126m | 5.7m/s | -57.2°C | 5.5% | 0hPa | 2.7V | 00:00:00 | 01:03:10 | 00:00:00 | |
| OE5DRO-10 | 2026-08-30 12:07:16 | 45.80339 | 16.54613 | 89° | 37km/h | 16111m | 5.1m/s | -57.2°C | 5.5% | 0hPa | 2.7V | 00:00:00 | 00:00:00 | 00:00:00 | |
| OM5KV | 2026-08-30 12:07:15 | 45.80339 | 16.54613 | 90° | 33km/h | 16111m | 5.1m/s | -57.3°C | 2.0% | 0hPa | 2.7V | 00:00:00 | 00:00:00 | 00:00:00 | |
| PETON7-10 | 2026-08-30 12:07:14 | 45.80338 | 16.54590 | 85° | 37km/h | 16101m | 5.3m/s | -57.2°C | 5.6% | 0hPa | 2.7V | 00:00:00 | 00:00:00 | 00:00:00 | |
| 9A1FER-3 | 2026-08-30 12:07:07 | 45.80336 | 16.54499 | 91° | 38km/h | 16068m | 4.2m/s | -57.3°C | 5.6% | 0hPa | 2.7V | 00:00:00 | 01:02:58 | 00:00:00 | |
| OM5KV | 2026-08-30 12:07:05 | 45.80335 | 16.54485 | 88° | 38km/h | 16063m | 5.8m/s | -57.3°C | 2.1% | 0hPa | 2.7V | 00:00:00 | 00:00:00 | 00:00:00 | |
| 9A1FER-10 | 2026-08-30 12:07:04 | 45.80334 | 16.54458 | 85° | 40km/h | 16052m | 5.7m/s | -57.2°C | 5.6% | 0hPa | 2.7V | 00:00:00 | 01:02:55 | 00:00:00 | |
| PETON7-10 | 2026-08-30 12:06:59 | 45.80325 | 16.54394 | 79° | 42km/h | 16026m | 4.7m/s | -57.1°C | 5.7% | 0hPa | 2.7V | 00:00:00 | 01:02:50 | 00:00:00 | |
| OE5DRO-10 | 2026-08-30 12:06:57 | 45.80321 | 16.54367 | 79° | 44km/h | 16016m | 6.5m/s | -57.1°C | 5.6% | 0hPa | 2.7V | 00:00:00 | 00:00:00 | 00:00:00 | |
| OM5KV | 2026-08-30 12:06:53 | 45.80314 | 16.54322 | 82° | 44km/h | 16001m | 5.6m/s | -57.0°C | 2.1% | 0hPa | 2.7V | 00:00:00 | 00:00:00 | 00:00:00 | |
| 9A1FER-3 | 2026-08-30 12:06:52 | 45.80311 | 16.54290 | 79° | 46km/h | 15991m | 5.5m/s | -57.0°C | 5.5% | 0hPa | 2.7V | 00:00:00 | 01:02:43 | 00:00:00 | |
| 9A1FER-10 | 2026-08-30 12:06:49 | 45.80305 | 16.54241 | 79° | 46km/h | 15976m | 4.3m/s | -56.8°C | 5.5% | 0hPa | 2.7V | 00:00:00 | 01:02:40 | 00:00:00 | |
| OM5KV | 2026-08-30 12:06:48 | 45.80305 | 16.54241 | 79° | 44km/h | 15976m | 4.4m/s | -56.8°C | 2.1% | 0hPa | 2.7V | 00:00:00 | 00:00:00 | 00:00:00 | |
| PETON7-10 | 2026-08-30 12:06:44 | 45.80290 | 16.54169 | 73° | 47km/h | 15951m | 4.8m/s | -56.7°C | 5.6% | 0hPa | 2.7V | 00:00:00 | 00:00:00 | 00:00:00 | |
| OM5KV | 2026-08-30 12:06:42 | 45.80287 | 16.54155 | 73° | 42km/h | 15947m | 4.8m/s | -56.8°C | 2.2% | 0hPa | 2.7V | 00:00:00 | 00:00:00 | 00:00:00 | |
| OE5DRO-10 | 2026-08-30 12:06:38 | 45.80277 | 16.54071 | 84° | 46km/h | 15923m | 5.2m/s | -56.9°C | 5.7% | 0hPa | 2.7V | 00:00:00 | 00:00:00 | 00:00:00 | |
| 9A1FER-3 | 2026-08-30 12:06:37 | 45.80275 | 16.54053 | 83° | 46km/h | 15918m | 4.2m/s | -56.9°C | 5.7% | 0hPa | 2.7V | 00:00:00 | 01:02:28 | 00:00:00 | |
| OM5KV | 2026-08-30 12:06:36 | 45.80275 | 16.54053 | 84° | 49km/h | 15918m | 4.2m/s | -57.0°C | 2.2% | 0hPa | 2.7V | 00:00:00 | 00:00:00 | 00:00:00 | |
| 9A1FER-10 | 2026-08-30 12:06:34 | 45.80271 | 16.54000 | 82° | 46km/h | 15902m | 5.6m/s | -57.2°C | 5.8% | 0hPa | 2.7V | 00:00:00 | 01:02:25 | 00:00:00 | |
| OM5KV | 2026-08-30 12:06:31 | 45.80267 | 16.53967 | 82° | 46km/h | 15892m | 5.1m/s | -57.2°C | 2.3% | 0hPa | 2.7V | 00:00:00 | 00:00:00 | 00:00:00 | |
| OM5KV | 2026-08-30 12:06:30 | 45.80264 | 16.53934 | 82° | 44km/h | 15882m | 6.0m/s | -57.1°C | 2.3% | 0hPa | 2.7V | 00:00:00 | 00:00:00 | 00:00:00 | |
| PETON7-10 | 2026-08-30 12:06:29 | 45.80262 | 16.53919 | 82° | 47km/h | 15876m | 4.8m/s | -57.1°C | 5.8% | 0hPa | 2.7V | 00:00:00 | 00:00:00 | 00:00:00 | |
| 9A1FER-3 | 2026-08-30 12:06:22 | 45.80257 | 16.53809 | 91° | 49km/h | 15842m | 5.5m/s | -57.2°C | 5.8% | 0hPa | 2.7V | 00:00:00 | 01:02:13 | 00:00:00 | |
| OE5DRO-10 | 2026-08-30 12:06:18 | 45.80258 | 16.53736 | 94° | 49km/h | 15822m | 6.2m/s | -57.1°C | 5.8% | 0hPa | 2.7V | 00:00:00 | 00:00:00 | 00:00:00 | |
| OM5KV | 2026-08-30 12:06:17 | 45.80258 | 16.53736 | 95° | 51km/h | 15822m | 6.2m/s | -57.2°C | 2.4% | 0hPa | 2.7V | 00:00:00 | 00:00:00 | 00:00:00 | |
| PETON7-10 | 2026-08-30 12:06:14 | 45.80262 | 16.53663 | 91° | 49km/h | 15803m | 3.4m/s | -57.2°C | 5.8% | 0hPa | 2.7V | 00:00:00 | 01:02:05 | 00:00:00 | |
| OM5KV | 2026-08-30 12:06:12 | 45.80262 | 16.53646 | 92° | 49km/h | 15798m | 5.4m/s | -57.3°C | 2.4% | 0hPa | 2.7V | 00:00:00 | 00:00:00 | 00:00:00 | |
| 9A1FER-3 | 2026-08-30 12:06:07 | 45.80266 | 16.53538 | 95° | 49km/h | 15769m | 3.9m/s | -57.7°C | 6.1% | 0hPa | 2.7V | 00:00:00 | 01:01:58 | 00:00:00 | |
| 9A1FER-10 | 2026-08-30 12:06:04 | 45.80268 | 16.53483 | 95° | 49km/h | 15753m | 5.9m/s | -57.9°C | 6.2% | 0hPa | 2.7V | 00:00:00 | 01:01:55 | 00:00:00 | |
| OM5KV | 2026-08-30 12:06:03 | 45.80268 | 16.53482 | 96° | 51km/h | 15753m | 5.9m/s | -58.0°C | 2.6% | 0hPa | 2.7V | 00:00:00 | 00:00:00 | 00:00:00 | |
| PETON7-10 | 2026-08-30 12:05:59 | 45.80276 | 16.53394 | 99° | 53km/h | 15728m | 3.9m/s | -58.4°C | 6.5% | 0hPa | 2.7V | 00:00:00 | 00:00:00 | 00:00:00 | |
| OM5KV | 2026-08-30 12:05:58 | 45.80276 | 16.53395 | 100° | 47km/h | 15728m | 3.9m/s | -58.5°C | 2.7% | 0hPa | 2.7V | 00:00:00 | 00:00:00 | 00:00:00 | |
| OM5KV | 2026-08-30 12:05:53 | 45.80283 | 16.53290 | 95° | 53km/h | 15700m | 5.6m/s | -58.8°C | 2.9% | 0hPa | 2.7V | 00:00:00 | 00:00:00 | 00:00:00 | |
| 9A1FER-10 | 2026-08-30 12:05:49 | 45.80288 | 16.53210 | 94° | 53km/h | 15681m | 6.1m/s | -58.7°C | 6.8% | 0hPa | 2.7V | 00:00:00 | 01:01:40 | 00:00:00 | |
| OM5KV | 2026-08-30 12:05:47 | 45.80289 | 16.53169 | 93° | 58km/h | 15670m | 6.5m/s | -58.9°C | 2.9% | 0hPa | 2.7V | 00:00:00 | 00:00:00 | 00:00:00 | |
| PETON7-10 | 2026-08-30 12:05:44 | 45.80289 | 16.53107 | 90° | 53km/h | 15655m | 3.7m/s | -58.8°C | 7.0% | 0hPa | 2.7V | 00:00:00 | 00:00:00 | 00:00:00 | |
| OE5DRO-10 | 2026-08-30 12:05:40 | 45.80289 | 16.53033 | 88° | 53km/h | 15637m | 2.8m/s | -59.0°C | 7.2% | 0hPa | 2.7V | 00:00:00 | 00:00:00 | 08:30:00 | |
| 9A1FER-3 | 2026-08-30 12:05:37 | 45.80289 | 16.52980 | 92° | 53km/h | 15623m | 3.8m/s | -58.9°C | 7.1% | 0hPa | 2.7V | 00:00:00 | 01:01:28 | 00:00:00 | |
| 9A1FER-10 | 2026-08-30 12:05:34 | 45.80288 | 16.52922 | 87° | 53km/h | 15610m | 4.2m/s | -58.8°C | 7.0% | 0hPa | 2.7V | 00:00:00 | 01:01:25 | 00:00:00 | |
| PETON7-10 | 2026-08-30 12:05:29 | 45.80286 | 16.52822 | 90° | 51km/h | 15586m | 5.5m/s | -58.8°C | 7.1% | 0hPa | 2.7V | 00:00:00 | 01:01:20 | 00:00:00 | |
| OM5KV | 2026-08-30 12:05:28 | 45.80286 | 16.52822 | 91° | 55km/h | 15586m | 5.6m/s | -58.8°C | 3.1% | 0hPa | 2.7V | 00:00:00 | 00:00:00 | 00:00:00 | |
| 9A1FER-3 | 2026-08-30 12:05:22 | 45.80287 | 16.52688 | 89° | 49km/h | 15552m | 5.6m/s | -58.6°C | 7.1% | 0hPa | 2.7V | 00:00:00 | 01:01:13 | 08:30:00 | |
| OM5KV | 2026-08-30 12:05:21 | 45.80288 | 16.52688 | 89° | 47km/h | 15552m | 5.6m/s | -58.6°C | 3.1% | 0hPa | 2.7V | 00:00:00 | 00:00:00 | 00:00:00 | |
| 9A1FER-10 | 2026-08-30 12:05:19 | 45.80286 | 16.52637 | 91° | 49km/h | 15538m | 5.0m/s | -58.5°C | 7.1% | 0hPa | 2.7V | 00:00:00 | 01:01:10 | 08:30:00 | |
| OM5KV | 2026-08-30 12:05:15 | 45.80287 | 16.52584 | 92° | 49km/h | 15523m | 4.8m/s | -58.5°C | 3.2% | 0hPa | 2.7V | 00:00:00 | 00:00:00 | 00:00:00 | |
| PETON7-10 | 2026-08-30 12:05:14 | 45.80288 | 16.52548 | 93° | 47km/h | 15514m | 3.7m/s | -58.5°C | 7.3% | 0hPa | 2.7V | 00:00:00 | 00:00:00 | 08:30:00 | |
| OM5KV | 2026-08-30 12:05:11 | 45.80288 | 16.52512 | 91° | 47km/h | 15505m | 3.2m/s | -58.6°C | 3.2% | 0hPa | 2.7V | 00:00:00 | 00:00:00 | 00:00:00 | |
| OM5KV | 2026-08-30 12:05:10 | 45.80289 | 16.52495 | 92° | 49km/h | 15501m | 5.3m/s | -58.6°C | 3.3% | 0hPa | 2.7V | 00:00:00 | 00:00:00 | 00:00:00 | |
| 9A1FER-3 | 2026-08-30 12:05:07 | 45.80289 | 16.52424 | 92° | 42km/h | 15481m | 5.9m/s | -58.9°C | 7.5% | 0hPa | 2.7V | 00:00:00 | 01:00:58 | 00:00:00 | |
| OM5KV | 2026-08-30 12:05:05 | 45.80289 | 16.52407 | 93° | 46km/h | 15476m | 4.4m/s | -59.0°C | 3.5% | 0hPa | 2.7V | 00:00:00 | 00:00:00 | 00:00:00 | |
| 9A1FER-10 | 2026-08-30 12:05:04 | 45.80289 | 16.52376 | 89° | 42km/h | 15466m | 4.4m/s | -58.9°C | 7.7% | 0hPa | 2.7V | 00:00:00 | 01:00:55 | 00:00:00 | |
| OE5DRO-10 | 2026-08-30 12:05:02 | 45.80289 | 16.52348 | 91° | 38km/h | 15455m | 4.5m/s | -58.9°C | 7.8% | 0hPa | 2.7V | 00:00:00 | 00:00:00 | 00:00:00 | |
| PETON7-10 | 2026-08-30 12:04:59 | 45.80287 | 16.52308 | 86° | 40km/h | 15441m | 4.8m/s | -58.9°C | 7.9% | 0hPa | 2.7V | 00:00:00 | 00:00:00 | 00:00:00 | |
| OM5KV | 2026-08-30 12:04:53 | 45.80281 | 16.52229 | 85° | 47km/h | 15416m | 4.8m/s | -58.9°C | 3.9% | 0hPa | 2.7V | 00:00:00 | 00:00:00 | 00:00:00 | |
| 9A1FER-3 | 2026-08-30 12:04:52 | 45.80279 | 16.52195 | 82° | 38km/h | 15408m | 5.4m/s | -58.9°C | 8.2% | 0hPa | 2.7V | 00:00:00 | 01:00:43 | 00:00:00 | |
| OE3JTB-15 | 2026-08-30 12:04:51 | 45.80277 | 16.52180 | 82° | 40km/h | 15403m | 3.9m/s | -58.8°C | 8.2% | 0hPa | 2.7V | 00:00:00 | 01:00:42 | 00:00:00 | |
| 9A1FER-10 | 2026-08-30 12:04:49 | 45.80275 | 16.52153 | 88° | 38km/h | 15394m | 4.7m/s | -58.9°C | 8.3% | 0hPa | 2.7V | 00:00:00 | 01:00:40 | 00:00:00 | |
| PETON7-10 | 2026-08-30 12:04:43 | 45.80275 | 16.52080 | 91° | 40km/h | 15367m | 5.3m/s | -58.8°C | 8.5% | 0hPa | 2.7V | 00:00:00 | 01:00:34 | 00:00:00 | |
| OE5DRO-10 | 2026-08-30 12:04:42 | 45.80275 | 16.52066 | 89° | 42km/h | 15362m | 4.5m/s | -58.8°C | 8.5% | 0hPa | 2.7V | 00:00:00 | 00:00:00 | 00:00:00 | |
| OM5KV | 2026-08-30 12:04:41 | 45.80275 | 16.52066 | 89° | 40km/h | 15362m | 4.5m/s | -58.9°C | 0% | 0hPa | 2.7V | 00:00:00 | 00:00:00 | 00:00:00 | |
| 9A1FER-3 | 2026-08-30 12:04:37 | 45.80273 | 16.51990 | 88° | 42km/h | 15338m | 5.4m/s | -58.8°C | 8.6% | 0hPa | 2.7V | 00:00:00 | 01:00:28 | 00:00:00 | |
| OM5KV | 2026-08-30 12:04:36 | 45.80273 | 16.51991 | 89° | 42km/h | 15338m | 5.5m/s | -58.8°C | 4.3% | 0hPa | 2.7V | 00:00:00 | 00:00:00 | 00:00:00 | |
| OM5KV | 2026-08-30 12:04:35 | 45.80273 | 16.51976 | 90° | 40km/h | 15332m | 4.7m/s | 0°C | 0% | 0hPa | 2.7V | 00:00:00 | 00:00:00 | 00:00:00 | |
| 9A1FER-10 | 2026-08-30 12:04:34 | 45.80272 | 16.51947 | 89° | 42km/h | 15322m | 4.8m/s | -58.9°C | 8.8% | 0hPa | 2.7V | 00:00:00 | 01:00:25 | 00:00:00 | |
| OM5KV | 2026-08-30 12:04:30 | 45.80273 | 16.51905 | 94° | 38km/h | 15308m | 4.9m/s | 0°C | 0% | 0hPa | 2.7V | 00:00:00 | 00:00:00 | 00:00:00 | |
| OM5KV | 2026-08-30 12:04:29 | 45.80273 | 16.51892 | 92° | 38km/h | 15303m | 5.0m/s | -59.1°C | 4.5% | 0hPa | 2.7V | 00:00:00 | 00:00:00 | 00:00:00 | |
| PETON7-10 | 2026-08-30 12:04:28 | 45.80275 | 16.51862 | 94° | 40km/h | 15293m | 5.0m/s | -59.1°C | 9.1% | 0hPa | 2.7V | 00:00:00 | 00:00:00 | 00:00:00 | |
| OM5KV | 2026-08-30 12:04:24 | 45.80275 | 16.51814 | 90° | 46km/h | 15278m | 4.9m/s | 0°C | 0% | 0hPa | 2.7V | 00:00:00 | 00:00:00 | 00:00:00 | |
| OE5DRO-10 | 2026-08-30 12:04:23 | 45.80275 | 16.51781 | 91° | 40km/h | 15269m | 3.6m/s | -58.9°C | 9.0% | 0hPa | 2.7V | 00:00:00 | 00:00:00 | 00:00:00 | |
| 9A1FER-3 | 2026-08-30 12:04:22 | 45.80275 | 16.51766 | 89° | 40km/h | 15265m | 4.9m/s | -59.0°C | 9.1% | 0hPa | 2.7V | 00:00:00 | 01:00:13 | 00:00:00 | |
| 9A1FER-10 | 2026-08-30 12:04:19 | 45.80275 | 16.51724 | 95° | 40km/h | 15251m | 3.6m/s | -58.8°C | 9.0% | 0hPa | 2.7V | 00:00:00 | 01:00:10 | 00:00:00 | |
| OM5KV | 2026-08-30 12:04:18 | 45.80275 | 16.51724 | 95° | 37km/h | 15251m | 3.7m/s | 0°C | 0% | 0hPa | 2.7V | 00:00:00 | 00:00:00 | 00:00:00 | |
| PETON7-10 | 2026-08-30 12:04:13 | 45.80277 | 16.51640 | 93° | 42km/h | 15223m | 4.6m/s | -58.8°C | 8.8% | 0hPa | 2.7V | 00:00:00 | 00:00:00 | 00:00:00 | |
| 9A1FER-3 | 2026-08-30 12:04:07 | 45.80282 | 16.51545 | 95° | 38km/h | 15194m | 5.0m/s | -58.6°C | 8.6% | 0hPa | 2.7V | 00:00:00 | 00:59:58 | 00:00:00 | |
| OM5KV | 2026-08-30 12:04:06 | 45.80282 | 16.51545 | 96° | 42km/h | 15194m | 5.1m/s | -58.7°C | 0% | 0hPa | 2.7V | 00:00:00 | 00:00:00 | 00:00:00 | |
| OE3JTB-15 | 2026-08-30 12:04:05 | 45.80285 | 16.51516 | 101° | 35km/h | 15185m | 4.4m/s | -58.6°C | 8.7% | 0hPa | 2.7V | 00:00:00 | 00:00:00 | 08:30:00 | |
| 9A1FER-10 | 2026-08-30 12:04:04 | 45.80286 | 16.51503 | 99° | 37km/h | 15180m | 5.0m/s | -58.6°C | 8.7% | 0hPa | 2.7V | 00:00:00 | 00:59:55 | 00:00:00 | |
| OM5KV | 2026-08-30 12:04:00 | 45.80292 | 16.51461 | 105° | 40km/h | 15166m | 3.7m/s | -58.5°C | 0% | 0hPa | 2.7V | 00:00:00 | 00:00:00 | 00:00:00 | |
| PETON7-10 | 2026-08-30 12:03:58 | 45.80297 | 16.51418 | 90° | 35km/h | 15154m | 4.7m/s | -58.6°C | 8.6% | 0hPa | 2.7V | 00:00:00 | 00:59:49 | 00:00:00 | |
| OM5KV | 2026-08-30 12:03:54 | 45.80295 | 16.51377 | 89° | 38km/h | 15139m | 5.4m/s | -59.0°C | 0% | 0hPa | 2.7V | 00:00:00 | 00:00:00 | 00:00:00 | |
| 9A1FER-3 | 2026-08-30 12:03:52 | 45.80296 | 16.51340 | 97° | 33km/h | 15126m | 4.1m/s | -59.1°C | 9.4% | 0hPa | 2.7V | 00:00:00 | 00:59:43 | 00:00:00 | |
| OE5DRO-10 | 2026-08-30 12:03:45 | 45.80303 | 16.51256 | 90° | 33km/h | 15093m | 3.9m/s | -59.2°C | 9.7% | 0hPa | 2.7V | 00:00:00 | 00:00:00 | 00:00:00 | |
| PETON7-10 | 2026-08-30 12:03:43 | 45.80303 | 16.51232 | 88° | 33km/h | 15083m | 3.8m/s | -59.2°C | 9.8% | 0hPa | 2.7V | 00:00:00 | 00:00:00 | 00:00:00 | |
| OM5KV | 2026-08-30 12:03:38 | 45.80302 | 16.51184 | 95° | 31km/h | 15066m | 3.7m/s | 0°C | 0% | 0hPa | 2.7V | 00:00:00 | 00:00:00 | 00:00:00 | |
| 9A1FER-3 | 2026-08-30 12:03:37 | 45.80303 | 16.51162 | 94° | 35km/h | 15057m | 3.8m/s | -59.4°C | 10.3% | 0hPa | 2.7V | 00:00:00 | 00:59:28 | 00:00:00 | |
| 9A1FER-10 | 2026-08-30 12:03:34 | 45.80306 | 16.51128 | 98° | 35km/h | 15042m | 5.8m/s | -59.4°C | 10.6% | 0hPa | 2.7V | 00:00:00 | 00:59:25 | 00:00:00 | |
| OM5KV | 2026-08-30 12:03:33 | 45.80308 | 16.51116 | 100° | 35km/h | 15037m | 4.0m/s | 0°C | 0% | 0hPa | 2.7V | 00:00:00 | 00:00:00 | 00:00:00 | |
| PETON7-10 | 2026-08-30 12:03:28 | 45.80318 | 16.51054 | 107° | 38km/h | 15013m | 6.1m/s | -59.8°C | 10.9% | 0hPa | 2.7V | 00:00:00 | 00:00:00 | 00:00:00 | |
| OE5DRO-10 | 2026-08-30 12:03:26 | 45.80323 | 16.51031 | 110° | 40km/h | 15003m | 5.3m/s | -59.8°C | 11.0% | 0hPa | 2.7V | 00:00:00 | 00:00:00 | 00:00:00 | |
| 9A1FER-3 | 2026-08-30 12:03:22 | 45.80336 | 16.50982 | 113° | 40km/h | 14984m | 4.1m/s | -59.7°C | 10.9% | 0hPa | 2.7V | 00:00:00 | 00:59:13 | 00:00:00 | |
| 9A1FER-10 | 2026-08-30 12:03:19 | 45.80347 | 16.50945 | 119° | 42km/h | 14970m | 5.0m/s | -59.7°C | 11.1% | 0hPa | 2.7V | 00:00:00 | 00:59:10 | 00:00:00 | |
| PETON7-10 | 2026-08-30 12:03:13 | 45.80377 | 16.50869 | 121° | 47km/h | 14941m | 6.1m/s | -59.7°C | 11.1% | 0hPa | 2.7V | 00:00:00 | 00:59:04 | 00:00:00 | |
| OE5DRO-10 | 2026-08-30 12:03:07 | 45.80412 | 16.50786 | 125° | 53km/h | 14911m | 3.9m/s | -59.6°C | 11.2% | 0hPa | 2.7V | 00:00:00 | 00:00:00 | 00:00:00 | |
| 9A1FER-10 | 2026-08-30 12:03:04 | 45.80432 | 16.50747 | 128° | 53km/h | 14897m | 5.9m/s | -59.6°C | 11.3% | 0hPa | 2.7V | 00:00:00 | 00:58:55 | 08:30:00 | |
| 9A1FER-3 | 2026-08-30 12:02:52 | 45.80525 | 16.50557 | 125° | 60km/h | 14838m | 5.0m/s | -59.5°C | 11.6% | 0hPa | 2.7V | 00:00:00 | 00:58:43 | 00:00:00 | |
| 9A1FER-10 | 2026-08-30 12:02:49 | 45.80548 | 16.50505 | 122° | 62km/h | 14824m | 4.1m/s | -59.5°C | 11.5% | 0hPa | 2.7V | 00:00:00 | 00:58:40 | 00:00:00 | |
| OE5DRO-10 | 2026-08-30 12:02:48 | 45.80556 | 16.50487 | 123° | 64km/h | 14819m | 4.5m/s | -59.5°C | 11.5% | 0hPa | 2.7V | 00:00:00 | 00:00:00 | 08:30:00 | |
| PETON7-10 | 2026-08-30 12:02:43 | 45.80596 | 16.50396 | 121° | 64km/h | 14796m | 4.2m/s | -59.5°C | 11.5% | 0hPa | 2.7V | 00:00:00 | 00:00:00 | 00:00:00 | |
| 9A1FER-3 | 2026-08-30 12:02:37 | 45.80637 | 16.50274 | 113° | 66km/h | 14768m | 4.0m/s | -59.2°C | 11.6% | 0hPa | 2.7V | 00:00:00 | 00:58:28 | 00:00:00 | |
| 9A1FER-10 | 2026-08-30 12:02:34 | 45.80658 | 16.50209 | 116° | 68km/h | 14755m | 4.6m/s | -59.2°C | 11.7% | 0hPa | 2.7V | 00:00:00 | 00:58:25 | 00:00:00 | |
| PETON7-10 | 2026-08-30 12:02:27 | 45.80707 | 16.50059 | 114° | 69km/h | 14722m | 5.9m/s | -59.0°C | 11.6% | 0hPa | 2.7V | 00:00:00 | 00:58:18 | 00:00:00 | |
| OE5DRO-10 | 2026-08-30 12:02:26 | 45.80714 | 16.50037 | 113° | 69km/h | 14717m | 4.3m/s | -58.9°C | 11.6% | 0hPa | 2.7V | 00:00:00 | 00:00:00 | 00:00:00 | |
| 9A1FER-3 | 2026-08-30 12:02:22 | 45.80739 | 16.49946 | 113° | 71km/h | 14697m | 4.5m/s | -58.8°C | 11.4% | 0hPa | 2.7V | 00:00:00 | 00:58:13 | 00:00:00 | |
| 9A1FER-10 | 2026-08-30 12:02:19 | 45.80758 | 16.49876 | 111° | 73km/h | 14683m | 5.6m/s | -58.8°C | 11.5% | 0hPa | 2.7V | 00:00:00 | 00:58:10 | 00:00:00 | |
| PETON7-10 | 2026-08-30 12:02:12 | 45.80800 | 16.49707 | 110° | 73km/h | 14648m | 4.7m/s | -58.9°C | 11.5% | 0hPa | 2.7V | 00:00:00 | 00:00:00 | 00:00:00 | |
| 9A1FER-3 | 2026-08-30 12:02:07 | 45.80832 | 16.49584 | 110° | 73km/h | 14625m | 4.5m/s | -59.0°C | 11.7% | 0hPa | 2.7V | 00:00:00 | 00:57:58 | 00:00:00 | |
| 9A1FER-10 | 2026-08-30 12:02:04 | 45.80849 | 16.49506 | 107° | 75km/h | 14610m | 5.2m/s | -59.0°C | 12.0% | 0hPa | 2.7V | 00:00:00 | 00:57:55 | 00:00:00 | |
| PETON7-10 | 2026-08-30 12:01:58 | 45.80877 | 16.49328 | 100° | 77km/h | 14576m | 4.6m/s | -59.1°C | 12.0% | 0hPa | 2.7V | 00:00:00 | 00:00:00 | 00:00:00 | |
| 9A1FER-3 | 2026-08-30 12:01:52 | 45.80896 | 16.49195 | 104° | 77km/h | 14551m | 5.1m/s | -59.0°C | 11.8% | 0hPa | 2.7V | 00:00:00 | 00:57:43 | 00:00:00 | |
| 9A1FER-10 | 2026-08-30 12:01:49 | 45.80907 | 16.49112 | 99° | 77km/h | 14538m | 4.0m/s | -59.0°C | 11.9% | 0hPa | 2.7V | 00:00:00 | 00:57:40 | 00:00:00 | |
| OE5DRO-10 | 2026-08-30 12:01:48 | 45.80910 | 16.49084 | 98° | 77km/h | 14533m | 4.5m/s | -58.9°C | 12.0% | 0hPa | 2.7V | 00:00:00 | 00:00:00 | 00:00:00 | |
| PETON7-10 | 2026-08-30 12:01:42 | 45.80916 | 16.48919 | 92° | 78km/h | 14506m | 5.5m/s | -58.8°C | 11.9% | 0hPa | 2.7V | 00:00:00 | 00:57:33 | 00:00:00 | |
| 9A1FER-3 | 2026-08-30 12:01:37 | 45.80922 | 16.48777 | 95° | 77km/h | 14483m | 4.7m/s | -58.6°C | 11.7% | 0hPa | 2.7V | 00:00:00 | 00:57:28 | 00:00:00 | |
| 9A1FER-10 | 2026-08-30 12:01:34 | 45.80927 | 16.48692 | 94° | 77km/h | 14470m | 4.1m/s | -58.7°C | 11.8% | 0hPa | 2.7V | 00:00:00 | 00:57:25 | 00:00:00 | |
| OE5DRO-10 | 2026-08-30 12:01:29 | 45.80930 | 16.48553 | 93° | 75km/h | 14448m | 3.4m/s | -58.6°C | 11.7% | 0hPa | 2.7V | 00:00:00 | 00:00:00 | 00:00:00 | |
| PETON7-10 | 2026-08-30 12:01:27 | 45.80931 | 16.48498 | 92° | 75km/h | 14439m | 3.7m/s | -58.5°C | 11.7% | 0hPa | 2.7V | 00:00:00 | 00:00:00 | 00:00:00 | |
| 9A1FER-3 | 2026-08-30 12:01:22 | 45.80933 | 16.48361 | 91° | 75km/h | 14415m | 5.2m/s | -58.4°C | 11.9% | 0hPa | 2.7V | 00:00:00 | 00:57:13 | 00:00:00 | |
| 9A1FER-10 | 2026-08-30 12:01:19 | 45.80932 | 16.48281 | 89° | 75km/h | 14402m | 4.1m/s | -58.3°C | 11.8% | 0hPa | 2.7V | 00:00:00 | 00:57:10 | 00:00:00 | |
| PETON7-10 | 2026-08-30 12:01:12 | 45.80927 | 16.48093 | 86° | 73km/h | 14370m | 4.9m/s | -58.2°C | 11.4% | 0hPa | 2.7V | 00:00:00 | 00:00:00 | 00:00:00 | |
| OE5DRO-10 | 2026-08-30 12:01:10 | 45.80924 | 16.48040 | 87° | 71km/h | 14360m | 4.9m/s | -58.2°C | 11.3% | 0hPa | 2.7V | 00:00:00 | 00:00:00 | 00:00:00 | |
| 9A1FER-3 | 2026-08-30 12:01:07 | 45.80921 | 16.47959 | 90° | 71km/h | 14345m | 5.7m/s | -58.1°C | 11.3% | 0hPa | 2.7V | 00:00:00 | 00:56:58 | 00:00:00 | |
| 9A1FER-10 | 2026-08-30 12:01:04 | 45.80921 | 16.47879 | 90° | 71km/h | 14331m | 4.1m/s | -58.1°C | 11.4% | 0hPa | 2.7V | 00:00:00 | 00:56:55 | 00:00:00 | |
| PETON7-10 | 2026-08-30 12:00:57 | 45.80910 | 16.47702 | 80° | 68km/h | 14297m | 5.6m/s | -57.9°C | 11.3% | 0hPa | 2.7V | 00:00:00 | 00:56:48 | 00:00:00 | |
| 9A1FER-3 | 2026-08-30 12:00:52 | 45.80897 | 16.47577 | 84° | 68km/h | 14274m | 4.7m/s | -58.0°C | 11.5% | 0hPa | 2.7V | 00:00:00 | 00:56:43 | 08:30:00 | |
| OE5DRO-10 | 2026-08-30 12:00:51 | 45.80895 | 16.47551 | 84° | 68km/h | 14270m | 4.0m/s | -58.1°C | 11.4% | 0hPa | 2.7V | 00:00:00 | 00:00:00 | 00:00:00 | |
| 9A1FER-10 | 2026-08-30 12:00:49 | 45.80892 | 16.47502 | 86° | 68km/h | 14261m | 3.8m/s | -58.1°C | 11.4% | 0hPa | 2.7V | 00:00:00 | 00:56:40 | 08:30:00 | |
| PETON7-10 | 2026-08-30 12:00:41 | 45.80879 | 16.47311 | 82° | 68km/h | 14222m | 4.9m/s | -58.2°C | 10.9% | 0hPa | 2.7V | 00:00:00 | 00:00:00 | 08:30:00 | |
| 9A1FER-3 | 2026-08-30 12:00:37 | 45.80869 | 16.47215 | 81° | 68km/h | 14202m | 4.6m/s | -58.0°C | 10.8% | 0hPa | 2.7V | 00:00:00 | 00:56:28 | 00:00:00 | |
| 9A1FER-10 | 2026-08-30 12:00:34 | 45.80860 | 16.47143 | 80° | 68km/h | 14189m | 4.3m/s | -58.0°C | 10.6% | 0hPa | 2.7V | 00:00:00 | 00:56:25 | 00:00:00 | |
| OE5DRO-10 | 2026-08-30 12:00:32 | 45.80854 | 16.47095 | 80° | 66km/h | 14179m | 4.2m/s | -58.0°C | 10.5% | 0hPa | 2.7V | 00:00:00 | 00:00:00 | 00:00:00 | |
| PETON7-10 | 2026-08-30 12:00:26 | 45.80835 | 16.46951 | 79° | 66km/h | 14151m | 3.4m/s | -57.8°C | 10.2% | 0hPa | 2.7V | 00:00:00 | 00:00:00 | 00:00:00 | |
| 9A1FER-3 | 2026-08-30 12:00:23 | 45.80822 | 16.46855 | 80° | 64km/h | 14131m | 4.0m/s | -57.6°C | 10.2% | 0hPa | 2.7V | 00:00:00 | 00:56:13 | 00:00:00 | |
| 9A1FER-10 | 2026-08-30 12:00:19 | 45.80814 | 16.46785 | 82° | 62km/h | 14116m | 5.4m/s | -57.6°C | 10.1% | 0hPa | 2.7V | 00:00:00 | 00:56:10 | 00:00:00 | |
| OE5DRO-10 | 2026-08-30 12:00:13 | 45.80802 | 16.46649 | 83° | 60km/h | 14087m | 4.4m/s | -57.6°C | 10.1% | 0hPa | 2.7V | 00:00:00 | 00:00:00 | 00:00:00 | |
| PETON7-10 | 2026-08-30 12:00:11 | 45.80797 | 16.46603 | 80° | 58km/h | 14078m | 4.3m/s | -57.5°C | 10.2% | 0hPa | 2.7V | 00:00:00 | 00:56:02 | 00:00:00 | |
| 9A1FER-3 | 2026-08-30 12:00:07 | 45.80789 | 16.46514 | 88° | 60km/h | 14057m | 4.6m/s | -57.5°C | 10.6% | 0hPa | 2.7V | 00:00:00 | 00:55:58 | 00:00:00 | |
| 9A1FER-10 | 2026-08-30 12:00:04 | 45.80790 | 16.46452 | 93° | 60km/h | 14041m | 6.1m/s | -57.5°C | 11.0% | 0hPa | 2.7V | 00:00:00 | 00:55:55 | 00:00:00 | |
| PETON7-10 | 2026-08-30 11:59:56 | 45.80788 | 16.46282 | 89° | 66km/h | 14005m | 4.5m/s | -57.5°C | 11.1% | 0hPa | 2.7V | 00:00:00 | 00:00:00 | 00:00:00 | |
| OE5DRO-10 | 2026-08-30 11:59:54 | 45.80787 | 16.46236 | 89° | 66km/h | 13996m | 4.3m/s | -57.6°C | 11.2% | 0hPa | 2.7V | 00:00:00 | 00:00:00 | 08:30:00 | |
| 9A1FER-3 | 2026-08-30 11:59:52 | 45.80786 | 16.46191 | 90° | 66km/h | 13986m | 4.4m/s | -57.5°C | 11.5% | 0hPa | 2.7V | 00:00:00 | 00:55:43 | 00:00:00 | |
| 9A1FER-10 | 2026-08-30 11:59:49 | 45.80788 | 16.46121 | 95° | 66km/h | 13972m | 4.1m/s | -57.4°C | 11.6% | 0hPa | 2.7V | 00:00:00 | 00:55:40 | 00:00:00 | |
| OE3JTB-15 | 2026-08-30 11:59:48 | 45.80789 | 16.46098 | 96° | 64km/h | 13967m | 5.5m/s | -57.5°C | 11.7% | 0hPa | 2.7V | 00:00:00 | 00:00:00 | 00:00:00 | |
| PETON7-10 | 2026-08-30 11:59:40 | 45.80803 | 16.45905 | 94° | 62km/h | 13927m | 3.9m/s | -57.4°C | 12.4% | 0hPa | 2.7V | 00:00:00 | 00:00:00 | 00:00:00 | |
| 9A1FER-3 | 2026-08-30 11:59:37 | 45.80805 | 16.45837 | 94° | 62km/h | 13912m | 4.8m/s | -57.5°C | 12.6% | 0hPa | 2.7V | 00:00:00 | 00:55:28 | 00:00:00 | |
| OE5DRO-10 | 2026-08-30 11:59:35 | 45.80807 | 16.45793 | 95° | 62km/h | 13903m | 4.4m/s | -57.5°C | 12.7% | 0hPa | 2.7V | 00:00:00 | 00:00:00 | 00:00:00 | |
| PETON7-10 | 2026-08-30 11:59:25 | 45.80827 | 16.45570 | 99° | 64km/h | 13856m | 5.3m/s | -57.9°C | 13.5% | 0hPa | 2.7V | 00:00:00 | 00:55:16 | 00:00:00 | |
| 9A1FER-3 | 2026-08-30 11:59:22 | 45.80835 | 16.45502 | 102° | 64km/h | 13842m | 4.7m/s | -57.8°C | 13.7% | 0hPa | 2.7V | 00:00:00 | 00:55:13 | 00:00:00 | |
| 9A1FER-10 | 2026-08-30 11:59:19 | 45.80843 | 16.45434 | 98° | 66km/h | 13828m | 5.6m/s | -57.8°C | 13.7% | 0hPa | 2.7V | 00:00:00 | 00:55:10 | 00:00:00 | |
| OE5DRO-10 | 2026-08-30 11:59:17 | 45.80848 | 16.45366 | 96° | 66km/h | 13812m | 4.5m/s | -57.9°C | 13.9% | 0hPa | 2.7V | 00:00:00 | 00:00:00 | 00:00:00 | |
| OE3JTB-15 | 2026-08-30 11:59:16 | 45.80848 | 16.45366 | 96° | 68km/h | 13812m | 4.5m/s | -57.9°C | 13.9% | 0hPa | 2.7V | 00:00:00 | 00:00:00 | 00:00:00 | |
| PETON7-10 | 2026-08-30 11:59:10 | 45.80858 | 16.45223 | 97° | 66km/h | 13783m | 5.1m/s | -57.9°C | 14.3% | 0hPa | 2.7V | 00:00:00 | 00:00:00 | 00:00:00 | |
| 9A1FER-3 | 2026-08-30 11:59:07 | 45.80863 | 16.45154 | 96° | 68km/h | 13770m | 5.1m/s | -57.9°C | 14.2% | 0hPa | 2.7V | 00:00:00 | 00:54:58 | 00:00:00 | |
| 9A1FER-10 | 2026-08-30 11:59:04 | 45.80869 | 16.45083 | 99° | 68km/h | 13755m | 3.8m/s | -57.9°C | 14.3% | 0hPa | 2.7V | 00:00:00 | 00:54:55 | 00:00:00 | |
| OE5DRO-10 | 2026-08-30 11:58:57 | 45.80890 | 16.44919 | 101° | 69km/h | 13724m | 3.8m/s | -58.1°C | 15.1% | 0hPa | 2.7V | 00:00:00 | 00:00:00 | 00:00:00 | |
| PETON7-10 | 2026-08-30 11:58:55 | 45.80897 | 16.44872 | 103° | 69km/h | 13714m | 4.3m/s | -58.3°C | 15.5% | 0hPa | 2.7V | 00:00:00 | 00:00:00 | 00:00:00 | |
| 9A1FER-3 | 2026-08-30 11:58:52 | 45.80909 | 16.44797 | 106° | 69km/h | 13700m | 5.3m/s | -58.4°C | 16.0% | 0hPa | 2.7V | 00:00:00 | 00:54:43 | 00:00:00 | |
| 9A1FER-10 | 2026-08-30 11:58:49 | 45.80925 | 16.44721 | 107° | 69km/h | 13686m | 4.6m/s | -58.4°C | 16.2% | 0hPa | 2.7V | 00:00:00 | 00:54:40 | 00:00:00 | |
| OE3JTB-15 | 2026-08-30 11:58:47 | 45.80935 | 16.44673 | 108° | 71km/h | 13677m | 4.7m/s | -58.4°C | 16.4% | 0hPa | 2.7V | 00:00:00 | 00:54:38 | 00:00:00 | |
| PETON7-10 | 2026-08-30 11:58:40 | 45.80967 | 16.44507 | 104° | 69km/h | 13646m | 3.0m/s | -58.3°C | 16.9% | 0hPa | 2.7V | 00:00:00 | 00:54:31 | 00:00:00 | |
| OE5DRO-10 | 2026-08-30 11:58:38 | 45.80976 | 16.44457 | 106° | 71km/h | 13637m | 4.3m/s | -58.3°C | 16.9% | 0hPa | 2.7V | 00:00:00 | 00:00:00 | 00:00:00 | |
| 9A1FER-3 | 2026-08-30 11:58:37 | 45.80981 | 16.44432 | 106° | 71km/h | 13632m | 5.8m/s | -58.3°C | 17.0% | 0hPa | 2.7V | 00:00:00 | 00:54:28 | 08:30:00 | |
| 9A1FER-10 | 2026-08-30 11:58:34 | 45.80996 | 16.44358 | 108° | 71km/h | 13617m | 4.3m/s | -58.4°C | 16.9% | 0hPa | 2.7V | 00:00:00 | 00:54:25 | 08:30:00 | |
| PETON7-10 | 2026-08-30 11:58:25 | 45.81045 | 16.44143 | 110° | 77km/h | 13575m | 4.4m/s | -58.8°C | 18.1% | 0hPa | 2.7V | 00:00:00 | 00:00:00 | 08:30:00 | |
| 9A1FER-3 | 2026-08-30 11:58:22 | 45.81064 | 16.44068 | 112° | 78km/h | 13562m | 5.4m/s | -58.9°C | 18.7% | 0hPa | 2.7V | 00:00:00 | 00:54:13 | 00:00:00 | |
| 9A1FER-10 | 2026-08-30 11:58:19 | 45.81084 | 16.43990 | 111° | 80km/h | 13548m | 4.6m/s | -59.2°C | 19.3% | 0hPa | 2.7V | 00:00:00 | 00:54:10 | 00:00:00 | |
| OE3JTB-15 | 2026-08-30 11:58:18 | 45.81091 | 16.43964 | 112° | 80km/h | 13543m | 4.9m/s | -59.2°C | 19.5% | 0hPa | 2.7V | 00:00:00 | 00:00:00 | 00:00:00 | |
| PETON7-10 | 2026-08-30 11:58:10 | 45.81146 | 16.43747 | 109° | 78km/h | 13508m | 5.1m/s | -59.2°C | 19.6% | 0hPa | 2.7V | 00:00:00 | 00:00:00 | 00:00:00 | |
| 9A1FER-3 | 2026-08-30 11:58:07 | 45.81164 | 16.43663 | 107° | 80km/h | 13493m | 4.2m/s | -59.2°C | 19.6% | 0hPa | 2.7V | 00:00:00 | 00:53:58 | 00:00:00 | |
| 9A1FER-10 | 2026-08-30 11:58:04 | 45.81182 | 16.43582 | 106° | 80km/h | 13480m | 5.4m/s | -59.2°C | 19.8% | 0hPa | 2.7V | 00:00:00 | 00:53:55 | 00:00:00 | |
| OE5DRO-10 | 2026-08-30 11:57:58 | 45.81213 | 16.43418 | 103° | 80km/h | 13453m | 4.3m/s | 0°C | 0% | 0hPa | 2.7V | 00:00:00 | 00:00:00 | 00:00:00 | |
| PETON7-10 | 2026-08-30 11:57:55 | 45.81225 | 16.43332 | 101° | 80km/h | 13440m | 4.9m/s | -59.0°C | 20.9% | 0hPa | 2.7V | 00:00:00 | 00:53:46 | 00:00:00 | |
| 9A1FER-3 | 2026-08-30 11:57:52 | 45.81237 | 16.43246 | 101° | 82km/h | 13426m | 4.2m/s | -58.8°C | 20.6% | 0hPa | 2.7V | 00:00:00 | 00:53:43 | 00:00:00 | |
| 9A1FER-10 | 2026-08-30 11:57:49 | 45.81247 | 16.43160 | 101° | 82km/h | 13413m | 5.0m/s | -58.8°C | 20.6% | 0hPa | 2.7V | 00:00:00 | 00:53:40 | 00:00:00 | |
| OE3JTB-15 | 2026-08-30 11:57:47 | 45.81255 | 16.43101 | 100° | 84km/h | 13405m | 5.3m/s | -58.8°C | 20.6% | 0hPa | 2.7V | 00:00:00 | 00:00:00 | 00:00:00 | |
| PETON7-10 | 2026-08-30 11:57:40 | 45.81273 | 16.42899 | 95° | 82km/h | 13370m | 4.6m/s | -58.6°C | 20.8% | 0hPa | 2.7V | 00:00:00 | 00:00:00 | 00:00:00 | |
| OE5DRO-10 | 2026-08-30 11:57:39 | 45.81274 | 16.42869 | 95° | 84km/h | 13365m | 5.3m/s | 0°C | 0% | 0hPa | 2.7V | 00:00:00 | 00:00:00 | 00:00:00 | |
| 9A1FER-3 | 2026-08-30 11:57:37 | 45.81277 | 16.42809 | 94° | 82km/h | 13355m | 5.7m/s | -58.4°C | 21.1% | 0hPa | 2.7V | 00:00:00 | 00:53:28 | 00:00:00 | |
| 9A1FER-10 | 2026-08-30 11:57:34 | 45.81280 | 16.42721 | 93° | 84km/h | 13340m | 3.8m/s | -58.3°C | 21.6% | 0hPa | 2.7V | 00:00:00 | 00:53:25 | 00:00:00 | |
| PETON7-10 | 2026-08-30 11:57:25 | 45.81293 | 16.42453 | 92° | 86km/h | 13301m | 5.4m/s | -58.6°C | 23.1% | 0hPa | 2.7V | 00:00:00 | 00:00:00 | 00:00:00 | |
| 9A1FER-3 | 2026-08-30 11:57:22 | 45.81295 | 16.42361 | 92° | 86km/h | 13286m | 4.0m/s | -58.6°C | 23.6% | 0hPa | 2.7V | 00:00:00 | 00:53:13 | 00:00:00 | |
| 9A1FER-10 | 2026-08-30 11:57:19 | 45.81296 | 16.42267 | 93° | 86km/h | 13271m | 5.4m/s | -58.7°C | 23.7% | 0hPa | 2.7V | 00:00:00 | 00:53:10 | 00:00:00 | |
| OE5DRO-10 | 2026-08-30 11:57:18 | 45.81297 | 16.42235 | 93° | 84km/h | 13266m | 4.0m/s | 0°C | 0% | 0hPa | 2.7V | 00:00:00 | 00:00:00 | 00:00:00 | |
| PETON7-10 | 2026-08-30 11:57:06 | 45.81281 | 16.41865 | 84° | 80km/h | 13210m | 3.7m/s | -58.8°C | 26.3% | 0hPa | 2.7V | 00:00:00 | 00:52:57 | 00:00:00 | |
| 9A1FER-10 | 2026-08-30 11:57:04 | 45.81276 | 16.41805 | 83° | 80km/h | 13200m | 4.4m/s | -58.8°C | 26.8% | 0hPa | 2.7V | 00:00:00 | 00:52:55 | 00:00:00 | |
| OE5DRO-10 | 2026-08-30 11:56:59 | 45.81259 | 16.41660 | 81° | 78km/h | 13177m | 5.9m/s | 0°C | 0% | 0hPa | 2.7V | 00:00:00 | 00:00:00 | 00:00:00 | |
| PETON7-10 | 2026-08-30 11:56:51 | 45.81227 | 16.41437 | 79° | 80km/h | 13141m | 3.9m/s | -58.5°C | 26.5% | 0hPa | 2.7V | 00:00:00 | 00:00:00 | 00:00:00 | |
| 9A1FER-10 | 2026-08-30 11:56:49 | 45.81219 | 16.41380 | 81° | 80km/h | 13132m | 4.2m/s | -58.6°C | 26.7% | 0hPa | 2.7V | 00:00:00 | 00:52:40 | 00:00:00 | |
| OE3JTB-15 | 2026-08-30 11:56:46 | 45.81209 | 16.41294 | 81° | 78km/h | 13118m | 5.1m/s | -58.4°C | 26.5% | 0hPa | 2.7V | 00:00:00 | 00:00:00 | 08:30:00 | |
| 9A1FER-3 | 2026-08-30 11:56:36 | 45.81173 | 16.41009 | 80° | 77km/h | 13073m | 5.2m/s | -58.4°C | 27.9% | 0hPa | 2.7V | 00:00:00 | 00:52:27 | 00:00:00 | |
| 9A1FER-10 | 2026-08-30 11:56:34 | 45.81166 | 16.40952 | 81° | 77km/h | 13063m | 5.8m/s | -58.3°C | 27.9% | 0hPa | 2.7V | 00:00:00 | 00:52:25 | 00:00:00 | |
| 9A1FER-3 | 2026-08-30 11:56:21 | 45.81138 | 16.40593 | 86° | 75km/h | 13001m | 4.2m/s | -57.9°C | 27.2% | 0hPa | 2.7V | 00:00:00 | 00:52:12 | 08:30:00 | |
| 9A1FER-10 | 2026-08-30 11:56:19 | 45.81135 | 16.40541 | 86° | 75km/h | 12990m | 4.6m/s | -57.9°C | 27.6% | 0hPa | 2.7V | 00:00:00 | 00:52:10 | 08:30:00 | |
| 9A1FER-3 | 2026-08-30 11:56:06 | 45.81114 | 16.40189 | 84° | 73km/h | 12931m | 3.9m/s | -57.8°C | 28.9% | 0hPa | 2.7V | 00:00:00 | 00:51:57 | 00:00:00 | |
| 9A1FER-10 | 2026-08-30 11:56:04 | 45.81109 | 16.40137 | 83° | 73km/h | 12922m | 4.1m/s | -57.8°C | 29.4% | 0hPa | 2.7V | 00:00:00 | 00:51:55 | 00:00:00 | |
| 9A1FER-3 | 2026-08-30 11:55:51 | 45.81086 | 16.39796 | 86° | 77km/h | 12864m | 4.9m/s | -57.7°C | 30.1% | 0hPa | 2.7V | 00:00:00 | 00:51:42 | 00:00:00 | |
| 9A1FER-10 | 2026-08-30 11:55:49 | 45.81084 | 16.39745 | 87° | 78km/h | 12855m | 2.9m/s | -57.7°C | 30.4% | 0hPa | 2.7V | 00:00:00 | 00:51:40 | 00:00:00 | |
| OE3JTB-15 | 2026-08-30 11:55:48 | 45.81083 | 16.39718 | 86° | 78km/h | 12851m | 4.9m/s | -57.8°C | 30.5% | 0hPa | 2.7V | 00:00:00 | 00:51:39 | 00:00:00 | |
| 9A1FER-3 | 2026-08-30 11:55:36 | 45.81068 | 16.39382 | 87° | 80km/h | 12796m | 5.3m/s | -57.5°C | 30.3% | 0hPa | 2.7V | 00:00:00 | 00:51:27 | 00:00:00 | |
| 9A1FER-10 | 2026-08-30 11:55:30 | 45.81062 | 16.39208 | 88° | 80km/h | 12768m | 5.3m/s | -57.5°C | 30.8% | 0hPa | 2.7V | 00:00:00 | 00:51:21 | 00:00:00 | |
| 9A1FER-3 | 2026-08-30 11:55:21 | 45.81054 | 16.38947 | 87° | 78km/h | 12727m | 5.7m/s | -57.4°C | 30.5% | 0hPa | 2.7V | 00:00:00 | 00:51:12 | 00:00:00 | |
| PETON7-10 | 2026-08-30 11:55:20 | 45.81053 | 16.38918 | 86° | 80km/h | 12721m | 4.1m/s | -57.3°C | 30.6% | 0hPa | 2.7V | 00:00:00 | 00:00:00 | 00:00:00 | |
| OE3JTB-15 | 2026-08-30 11:55:19 | 45.81051 | 16.38888 | 85° | 78km/h | 12717m | 5.7m/s | -57.3°C | 30.5% | 0hPa | 2.7V | 00:00:00 | 00:00:00 | 00:00:00 | |
| 9A1FER-10 | 2026-08-30 11:55:15 | 45.81043 | 16.38773 | 84° | 78km/h | 12698m | 5.0m/s | -57.4°C | 30.7% | 0hPa | 2.7V | 00:00:00 | 00:51:06 | 00:00:00 | |
| PETON7-10 | 2026-08-30 11:55:05 | 45.81024 | 16.38493 | 85° | 77km/h | 12650m | 5.2m/s | -57.2°C | 30.9% | 0hPa | 2.7V | 00:00:00 | 00:50:56 | 00:00:00 | |
| 9A1FER-10 | 2026-08-30 11:55:00 | 45.81013 | 16.38353 | 85° | 78km/h | 12628m | 4.9m/s | -57.2°C | 31.1% | 0hPa | 2.7V | 00:00:00 | 00:50:51 | 00:00:00 | |
| 9A1FER-3 | 2026-08-30 11:54:51 | 45.80998 | 16.38104 | 84° | 80km/h | 12586m | 4.4m/s | -57.1°C | 31.8% | 0hPa | 2.7V | 00:00:00 | 00:50:42 | 00:00:00 | |
| PETON7-10 | 2026-08-30 11:54:50 | 45.80995 | 16.38075 | 83° | 80km/h | 12582m | 4.3m/s | -57.0°C | 31.5% | 0hPa | 2.7V | 00:00:00 | 00:00:00 | 08:30:00 | |
| 9A1FER-10 | 2026-08-30 11:54:45 | 45.80982 | 16.37928 | 84° | 80km/h | 12559m | 4.4m/s | -56.9°C | 30.8% | 0hPa | 2.7V | 00:00:00 | 00:50:36 | 00:00:00 | |
| 9A1FER-3 | 2026-08-30 11:54:36 | 45.80965 | 16.37667 | 85° | 80km/h | 12518m | 5.2m/s | -56.5°C | 32.2% | 0hPa | 2.7V | 00:00:00 | 00:50:27 | 00:00:00 | |
| PETON7-10 | 2026-08-30 11:54:32 | 45.80957 | 16.37553 | 85° | 80km/h | 12498m | 5.6m/s | -56.5°C | 32.1% | 0hPa | 2.7V | 00:00:00 | 00:00:00 | 00:00:00 | |
| 9A1FER-10 | 2026-08-30 11:54:30 | 45.80953 | 16.37496 | 84° | 80km/h | 12488m | 5.4m/s | -56.4°C | 32.0% | 0hPa | 2.7V | 00:00:00 | 00:50:21 | 00:00:00 | |
| 9A1FER-3 | 2026-08-30 11:54:21 | 45.80936 | 16.37237 | 88° | 82km/h | 12443m | 3.7m/s | -56.3°C | 32.0% | 0hPa | 2.7V | 00:00:00 | 00:50:12 | 00:00:00 | |
| PETON7-10 | 2026-08-30 11:54:17 | 45.80935 | 16.37119 | 90° | 82km/h | 12422m | 4.6m/s | -56.1°C | 31.5% | 0hPa | 2.7V | 00:00:00 | 00:50:08 | 00:00:00 | |
| 9A1FER-10 | 2026-08-30 11:54:15 | 45.80935 | 16.37059 | 92° | 82km/h | 12413m | 5.6m/s | -56.1°C | 30.9% | 0hPa | 2.7V | 00:00:00 | 00:50:06 | 00:00:00 | |
| 9A1FER-3 | 2026-08-30 11:54:06 | 45.80937 | 16.36790 | 92° | 80km/h | 12370m | 3.3m/s | -55.8°C | 31.6% | 0hPa | 2.7V | 00:00:00 | 00:49:57 | 08:30:00 | |
| PETON7-10 | 2026-08-30 11:54:02 | 45.80939 | 16.36677 | 93° | 80km/h | 12351m | 4.4m/s | 0°C | 0% | 0hPa | 2.7V | 00:00:00 | 00:00:00 | 00:00:00 | |
| 9A1FER-10 | 2026-08-30 11:54:00 | 45.80940 | 16.36618 | 93° | 80km/h | 12342m | 3.9m/s | -55.7°C | 31.6% | 0hPa | 2.7V | 00:00:00 | 00:49:51 | 08:30:00 | |
| OE3JTB-15 | 2026-08-30 11:53:52 | 45.80947 | 16.36384 | 94° | 82km/h | 12302m | 5.5m/s | -55.5°C | 31.4% | 0hPa | 2.9V | 00:00:00 | 00:00:00 | 00:00:00 | |
| 9A1FER-3 | 2026-08-30 11:53:51 | 45.80948 | 16.36356 | 95° | 82km/h | 12297m | 4.2m/s | -55.5°C | 31.6% | 0hPa | 2.9V | 00:00:00 | 00:49:42 | 00:00:00 | |
| PETON7-10 | 2026-08-30 11:53:47 | 45.80953 | 16.36241 | 94° | 84km/h | 12277m | 4.0m/s | 0°C | 0% | 0hPa | 2.9V | 00:00:00 | 00:00:00 | 00:00:00 | |
| 9A1FER-10 | 2026-08-30 11:53:45 | 45.80955 | 16.36185 | 94° | 84km/h | 12267m | 4.1m/s | -55.2°C | 31.7% | 0hPa | 2.9V | 00:00:00 | 00:49:36 | 00:00:00 | |
| 9A1FER-3 | 2026-08-30 11:53:36 | 45.80971 | 16.35912 | 94° | 84km/h | 12226m | 4.2m/s | -55.0°C | 31.5% | 0hPa | 2.9V | 00:00:00 | 00:49:27 | 00:00:00 | |
| PETON7-10 | 2026-08-30 11:53:32 | 45.80976 | 16.35790 | 93° | 84km/h | 12208m | 6.4m/s | 0°C | 0% | 0hPa | 2.9V | 00:00:00 | 00:49:23 | 00:00:00 | |
| 9A1FER-10 | 2026-08-30 11:53:30 | 45.80976 | 16.35731 | 90° | 84km/h | 12197m | 4.6m/s | -54.7°C | 31.6% | 0hPa | 2.9V | 00:00:00 | 00:49:21 | 00:00:00 | |
| OE3JTB-15 | 2026-08-30 11:53:23 | 45.80977 | 16.35519 | 92° | 86km/h | 12162m | 5.5m/s | -54.5°C | 32.2% | 0hPa | 2.9V | 00:00:00 | 00:00:00 | 00:00:00 | |
| 9A1FER-3 | 2026-08-30 11:53:21 | 45.80979 | 16.35456 | 93° | 84km/h | 12152m | 5.8m/s | -54.5°C | 32.7% | 0hPa | 2.9V | 00:00:00 | 00:49:12 | 00:00:00 | |
| PETON7-10 | 2026-08-30 11:53:17 | 45.80981 | 16.35334 | 91° | 84km/h | 12133m | 3.9m/s | 0°C | 0% | 0hPa | 2.7V | 00:00:00 | 00:00:00 | 00:00:00 | |
| 9A1FER-10 | 2026-08-30 11:53:15 | 45.80981 | 16.35274 | 90° | 84km/h | 12124m | 3.5m/s | -54.6°C | 35.0% | 0hPa | 2.7V | 00:00:00 | 00:49:06 | 00:00:00 | |
| 9A1FER-3 | 2026-08-30 11:53:06 | 45.80971 | 16.34998 | 87° | 86km/h | 12079m | 6.0m/s | -54.7°C | 38.8% | 0hPa | 2.9V | 00:00:00 | 00:48:57 | 00:00:00 | |
| PETON7-10 | 2026-08-30 11:53:02 | 45.80967 | 16.34878 | 88° | 88km/h | 12059m | 5.4m/s | 0°C | 0% | 0hPa | 2.9V | 00:00:00 | 00:00:00 | 00:00:00 | |
| 9A1FER-10 | 2026-08-30 11:53:00 | 45.80965 | 16.34819 | 88° | 89km/h | 12049m | 5.5m/s | -54.6°C | 39.1% | 0hPa | 2.9V | 00:00:00 | 00:48:51 | 00:00:00 | |
| OE3JTB-15 | 2026-08-30 11:52:54 | 45.80957 | 16.34629 | 88° | 95km/h | 12021m | 4.4m/s | -54.6°C | 39.3% | 0hPa | 2.9V | 00:00:00 | 00:48:45 | 00:00:00 | |
| 9A1FER-3 | 2026-08-30 11:52:51 | 45.80953 | 16.34529 | 89° | 95km/h | 12005m | 5.8m/s | -54.5°C | 39.6% | 0hPa | 2.9V | 00:00:00 | 00:48:42 | 00:00:00 | |
| PETON7-10 | 2026-08-30 11:52:47 | 45.80953 | 16.34398 | 91° | 97km/h | 11987m | 4.4m/s | 0°C | 0% | 0hPa | 2.9V | 00:00:00 | 00:48:38 | 00:00:00 | |
| 9A1FER-10 | 2026-08-30 11:52:45 | 45.80954 | 16.34331 | 91° | 97km/h | 11978m | 4.0m/s | -54.4°C | 39.9% | 0hPa | 2.9V | 00:00:00 | 00:48:36 | 00:00:00 | |
| 9A1FER-3 | 2026-08-30 11:52:36 | 45.80954 | 16.34014 | 91° | 99km/h | 11937m | 5.0m/s | -54.0°C | 38.0% | 0hPa | 2.9V | 00:00:00 | 00:48:27 | 00:00:00 | |
| PETON7-10 | 2026-08-30 11:52:32 | 45.80956 | 16.33875 | 91° | 99km/h | 11918m | 5.4m/s | 0°C | 0% | 0hPa | 2.7V | 00:00:00 | 00:00:00 | 00:00:00 | |
| 9A1FER-10 | 2026-08-30 11:52:30 | 45.80957 | 16.33804 | 92° | 99km/h | 11908m | 4.6m/s | -53.8°C | 37.8% | 0hPa | 2.7V | 00:00:00 | 00:48:21 | 00:00:00 | |
| OE3JTB-15 | 2026-08-30 11:52:25 | 45.80960 | 16.33624 | 92° | 100km/h | 11886m | 4.7m/s | -53.7°C | 36.5% | 0hPa | 2.7V | 00:00:00 | 00:00:00 | 08:30:00 | |
| 9A1FER-3 | 2026-08-30 11:52:21 | 45.80960 | 16.33482 | 91° | 100km/h | 11868m | 3.9m/s | -53.6°C | 35.7% | 0hPa | 2.7V | 00:00:00 | 00:48:12 | 00:00:00 | |
| 9A1FER-10 | 2026-08-30 11:52:15 | 45.80961 | 16.33269 | 92° | 102km/h | 11841m | 5.0m/s | -53.4°C | 34.8% | 0hPa | 2.7V | 00:00:00 | 00:48:06 | 00:00:00 | |
| 9A1FER-3 | 2026-08-30 11:52:06 | 45.80967 | 16.32940 | 90° | 104km/h | 11797m | 3.8m/s | -53.0°C | 34.8% | 0hPa | 2.7V | 00:00:00 | 00:47:57 | 00:00:00 | |
| 9A1FER-10 | 2026-08-30 11:52:00 | 45.80965 | 16.32713 | 91° | 104km/h | 11769m | 4.4m/s | -52.9°C | 36.1% | 0hPa | 2.7V | 00:00:00 | 00:47:51 | 00:00:00 | |
| OE3JTB-15 | 2026-08-30 11:51:56 | 45.80970 | 16.32564 | 93° | 104km/h | 11750m | 4.5m/s | -52.8°C | 36.5% | 0hPa | 2.7V | 00:00:00 | 00:00:00 | 00:00:00 | |
| 9A1FER-3 | 2026-08-30 11:51:51 | 45.80975 | 16.32375 | 92° | 104km/h | 11726m | 4.3m/s | -52.8°C | 36.7% | 0hPa | 2.7V | 00:00:00 | 00:47:42 | 08:30:00 | |
| 9A1FER-10 | 2026-08-30 11:51:45 | 45.80979 | 16.32146 | 93° | 104km/h | 11698m | 3.9m/s | -52.6°C | 37.9% | 0hPa | 2.9V | 00:00:00 | 00:47:36 | 08:30:00 | |
| 9A1FER-3 | 2026-08-30 11:51:36 | 45.80992 | 16.31807 | 94° | 102km/h | 11658m | 5.2m/s | -52.5°C | 40.0% | 0hPa | 2.7V | 00:00:00 | 00:47:27 | 00:00:00 | |
| 9A1FER-10 | 2026-08-30 11:51:30 | 45.80994 | 16.31585 | 89° | 102km/h | 11631m | 4.7m/s | -52.4°C | 39.1% | 0hPa | 2.7V | 00:00:00 | 00:47:21 | 00:00:00 | |
| OE3JTB-15 | 2026-08-30 11:51:27 | 45.80993 | 16.31475 | 91° | 102km/h | 11618m | 4.7m/s | -52.3°C | 38.6% | 0hPa | 2.7V | 00:00:00 | 00:47:18 | 00:00:00 | |
| 9A1FER-3 | 2026-08-30 11:51:21 | 45.81001 | 16.31252 | 95° | 102km/h | 11591m | 4.3m/s | -52.1°C | 37.6% | 0hPa | 2.7V | 00:00:00 | 00:47:12 | 00:00:00 | |
| 9A1FER-10 | 2026-08-30 11:51:15 | 45.81007 | 16.31025 | 90° | 102km/h | 11563m | 4.0m/s | -51.9°C | 37.2% | 0hPa | 2.7V | 00:00:00 | 00:47:06 | 00:00:00 | |
| 9A1FER-3 | 2026-08-30 11:51:06 | 45.81010 | 16.30696 | 93° | 100km/h | 11522m | 3.8m/s | -51.6°C | 36.3% | 0hPa | 2.7V | 00:00:00 | 00:46:57 | 00:00:00 | |
| 9A1FER-10 | 2026-08-30 11:51:00 | 45.81016 | 16.30471 | 91° | 99km/h | 11495m | 4.7m/s | -51.3°C | 36.5% | 0hPa | 2.7V | 00:00:00 | 00:46:51 | 00:00:00 | |
| OE3JTB-15 | 2026-08-30 11:50:58 | 45.81015 | 16.30397 | 90° | 99km/h | 11486m | 5.3m/s | -51.3°C | 36.4% | 0hPa | 2.9V | 00:00:00 | 00:00:00 | 00:00:00 | |
| 9A1FER-3 | 2026-08-30 11:50:51 | 45.81018 | 16.30148 | 94° | 99km/h | 11457m | 2.7m/s | -51.0°C | 37.1% | 0hPa | 2.7V | 00:00:00 | 00:46:42 | 00:00:00 | |
| 9A1FER-10 | 2026-08-30 11:50:45 | 45.81024 | 16.29932 | 92° | 99km/h | 11430m | 4.1m/s | -50.8°C | 37.9% | 0hPa | 2.7V | 00:00:00 | 00:46:36 | 00:00:00 | |
| 9A1FER-3 | 2026-08-30 11:50:36 | 45.81028 | 16.29612 | 90° | 97km/h | 11388m | 3.9m/s | -50.7°C | 41.5% | 0hPa | 2.7V | 00:00:00 | 00:46:27 | 00:00:00 | |
| 9A1FER-10 | 2026-08-30 11:50:30 | 45.81027 | 16.29398 | 90° | 97km/h | 11360m | 4.1m/s | -50.4°C | 42.5% | 0hPa | 2.7V | 00:00:00 | 00:46:21 | 00:00:00 | |
| OE3JTB-15 | 2026-08-30 11:50:29 | 45.81027 | 16.29362 | 90° | 97km/h | 11356m | 4.3m/s | 0°C | 0% | 0hPa | 2.7V | 00:00:00 | 00:00:00 | 00:00:00 | |
| 9A1FER-3 | 2026-08-30 11:50:21 | 45.81030 | 16.29082 | 91° | 97km/h | 11322m | 4.8m/s | -50.1°C | 41.5% | 0hPa | 2.7V | 00:00:00 | 00:46:12 | 00:00:00 | |
| 9A1FER-10 | 2026-08-30 11:50:15 | 45.81042 | 16.28875 | 97° | 97km/h | 11286m | 5.1m/s | -50.1°C | 42.5% | 0hPa | 2.9V | 00:00:00 | 00:46:06 | 00:00:00 | |
| 9A1FER-3 | 2026-08-30 11:50:06 | 45.81052 | 16.28559 | 93° | 95km/h | 11235m | 3.4m/s | -49.7°C | 44.5% | 0hPa | 2.7V | 00:00:00 | 00:45:57 | 00:00:00 | |
| 9A1FER-10 | 2026-08-30 11:50:00 | 45.81064 | 16.28354 | 93° | 97km/h | 11202m | 2.2m/s | -49.5°C | 48.6% | 0hPa | 2.7V | 00:00:00 | 00:45:51 | 00:00:00 | |
| 9A1FER-3 | 2026-08-30 11:49:51 | 45.81073 | 16.28044 | 93° | 99km/h | 11153m | 3.4m/s | -49.3°C | 56.0% | 0hPa | 2.7V | 00:00:00 | 00:45:42 | 00:00:00 | |
| 9A1FER-10 | 2026-08-30 11:49:45 | 45.81080 | 16.27831 | 92° | 99km/h | 11117m | 5.4m/s | -49.1°C | 52.4% | 0hPa | 2.7V | 00:00:00 | 00:45:36 | 00:00:00 | |
| 9A1FER-3 | 2026-08-30 11:49:36 | 45.81094 | 16.27504 | 95° | 95km/h | 11059m | 8.3m/s | -48.9°C | 51.6% | 0hPa | 2.7V | 00:00:00 | 00:45:27 | 08:30:00 | |
| OE3JTB-15 | 2026-08-30 11:49:31 | 45.81100 | 16.27330 | 94° | 91km/h | 11027m | 4.7m/s | 0°C | 0% | 0hPa | 2.7V | 00:00:00 | 00:00:00 | 00:00:00 | |
| 9A1FER-10 | 2026-08-30 11:49:30 | 45.81102 | 16.27296 | 94° | 93km/h | 11024m | 1.8m/s | -48.6°C | 46.8% | 0hPa | 2.7V | 00:00:00 | 00:45:21 | 08:30:00 | |
| 9A1FER-3 | 2026-08-30 11:49:21 | 45.81118 | 16.26991 | 94° | 91km/h | 10968m | 7.7m/s | -48.2°C | 41.9% | 0hPa | 2.9V | 00:00:00 | 00:45:12 | 00:00:00 | |
| 9A1FER-10 | 2026-08-30 11:49:15 | 45.81129 | 16.26794 | 96° | 93km/h | 10934m | 8.4m/s | -47.9°C | 39.7% | 0hPa | 2.9V | 00:00:00 | 00:45:06 | 00:00:00 | |
| 9A1FER-3 | 2026-08-30 11:49:06 | 45.81156 | 16.26498 | 97° | 89km/h | 10880m | 7.5m/s | -47.5°C | 34.7% | 0hPa | 2.9V | 00:00:00 | 00:44:57 | 00:00:00 | |
| OE3JTB-15 | 2026-08-30 11:49:02 | 45.81165 | 16.26364 | 95° | 89km/h | 10859m | 6.0m/s | 0°C | 0% | 0hPa | 2.9V | 00:00:00 | 00:00:00 | 00:00:00 | |
| 9A1FER-10 | 2026-08-30 11:49:00 | 45.81169 | 16.26296 | 96° | 89km/h | 10846m | 3.8m/s | -47.3°C | 32.5% | 0hPa | 2.9V | 00:00:00 | 00:44:51 | 00:00:00 | |
| 9A1FER-3 | 2026-08-30 11:48:51 | 45.81190 | 16.26012 | 97° | 89km/h | 10794m | 5.2m/s | -47.0°C | 32.0% | 0hPa | 2.9V | 00:00:00 | 00:44:42 | 00:00:00 | |
| 9A1FER-10 | 2026-08-30 11:48:45 | 45.81208 | 16.25817 | 99° | 88km/h | 10762m | 7.4m/s | -46.8°C | 31.5% | 0hPa | 2.9V | 00:00:00 | 00:44:36 | 00:00:00 | |
| 9A1FER-3 | 2026-08-30 11:48:36 | 45.81235 | 16.25531 | 98° | 84km/h | 10711m | 3.1m/s | -46.5°C | 32.3% | 0hPa | 2.9V | 00:00:00 | 00:44:27 | 00:00:00 | |
| 9A1FER-10 | 2026-08-30 11:48:30 | 45.81258 | 16.25352 | 103° | 80km/h | 10674m | 10.4m/s | -46.2°C | 32.2% | 0hPa | 2.9V | 00:00:00 | 00:44:21 | 00:00:00 | |
| 9A1FER-3 | 2026-08-30 11:48:21 | 45.81289 | 16.25086 | 100° | 80km/h | 10620m | 4.8m/s | -45.8°C | 32.6% | 0hPa | 2.9V | 00:00:00 | 00:44:12 | 00:00:00 | |
| 9A1FER-10 | 2026-08-30 11:48:15 | 45.81303 | 16.24920 | 95° | 82km/h | 10584m | 5.6m/s | -45.6°C | 34.3% | 0hPa | 2.9V | 00:00:00 | 00:44:06 | 00:00:00 | |
| 9A1FER-3 | 2026-08-30 11:48:06 | 45.81330 | 16.24654 | 99° | 84km/h | 10526m | 6.5m/s | -45.1°C | 34.3% | 0hPa | 2.9V | 00:00:00 | 00:43:57 | 00:00:00 | |
| 9A1FER-10 | 2026-08-30 11:48:00 | 45.81345 | 16.24475 | 99° | 84km/h | 10497m | 9.5m/s | -44.7°C | 34.6% | 0hPa | 2.9V | 00:00:00 | 00:43:51 | 00:00:00 | |
| 9A1FER-3 | 2026-08-30 11:47:51 | 45.81370 | 16.24199 | 96° | 86km/h | 10445m | 6.7m/s | -44.3°C | 34.8% | 0hPa | 2.9V | 00:00:00 | 00:43:42 | 00:00:00 | |
| 9A1FER-3 | 2026-08-30 11:47:36 | 45.81412 | 16.23734 | 97° | 88km/h | 10352m | 6.2m/s | -43.4°C | 34.4% | 0hPa | 2.9V | 00:00:00 | 00:43:27 | 00:00:00 | |
| 9A1FER-10 | 2026-08-30 11:47:30 | 45.81429 | 16.23546 | 93° | 86km/h | 10315m | 11.7m/s | -43.1°C | 34.1% | 0hPa | 2.9V | 00:00:00 | 00:43:21 | 00:00:00 | |
| OE3JTB-15 | 2026-08-30 11:47:23 | 45.81436 | 16.23326 | 92° | 84km/h | 10275m | 4.3m/s | 0°C | 0% | 0hPa | 2.9V | 00:00:00 | 00:43:14 | 00:00:00 | |
| 9A1FER-3 | 2026-08-30 11:47:21 | 45.81436 | 16.23264 | 92° | 88km/h | 10260m | 8.7m/s | -42.6°C | 30.3% | 0hPa | 2.9V | 00:00:00 | 00:43:12 | 08:30:00 | |
| 9A1FER-10 | 2026-08-30 11:47:15 | 45.81439 | 16.23079 | 95° | 88km/h | 10225m | 7.8m/s | -42.5°C | 23.5% | 0hPa | 2.7V | 00:00:00 | 00:43:06 | 08:30:00 | |
| 9A1FER-3 | 2026-08-30 11:47:06 | 45.81440 | 16.22793 | 92° | 82km/h | 10170m | 8.0m/s | -42.3°C | 21.0% | 0hPa | 2.9V | 00:00:00 | 00:42:57 | 00:00:00 | |
| 9A1FER-10 | 2026-08-30 11:47:00 | 45.81444 | 16.22608 | 91° | 82km/h | 10138m | 7.3m/s | -42.0°C | 20.2% | 0hPa | 2.9V | 00:00:00 | 00:42:51 | 00:00:00 | |
| OE3JTB-15 | 2026-08-30 11:46:54 | 45.81448 | 16.22437 | 95° | 84km/h | 10105m | 5.7m/s | 0°C | 0% | 0hPa | 2.9V | 00:00:00 | 00:00:00 | 00:00:00 | |
| 9A1FER-3 | 2026-08-30 11:46:51 | 45.81451 | 16.22346 | 93° | 80km/h | 10093m | 5.2m/s | -41.7°C | 18.1% | 0hPa | 2.9V | 00:00:00 | 00:42:42 | 00:00:00 | |
| 9A1FER-10 | 2026-08-30 11:46:45 | 45.81454 | 16.22166 | 92° | 77km/h | 10056m | 3.2m/s | -41.5°C | 18.4% | 0hPa | 2.9V | 00:00:00 | 00:42:36 | 00:00:00 | |
| 9A1FER-3 | 2026-08-30 11:46:36 | 45.81460 | 16.21918 | 95° | 77km/h | 10010m | 4.2m/s | -41.1°C | 19.3% | 0hPa | 2.9V | 00:00:00 | 00:42:27 | 00:00:00 | |
| 9A1FER-10 | 2026-08-30 11:46:30 | 45.81467 | 16.21754 | 89° | 75km/h | 9972m | 5.7m/s | -41.0°C | 19.1% | 0hPa | 2.9V | 00:00:00 | 00:42:21 | 00:00:00 | |
| 9A1FER-3 | 2026-08-30 11:46:21 | 45.81491 | 16.21508 | 105° | 71km/h | 9910m | 5.9m/s | -40.6°C | 18.4% | 0hPa | 2.9V | 00:00:00 | 00:42:12 | 00:00:00 | |
| 9A1FER-10 | 2026-08-30 11:46:15 | 45.81510 | 16.21358 | 96° | 73km/h | 9878m | 4.9m/s | -40.3°C | 18.4% | 0hPa | 2.9V | 00:00:00 | 00:42:06 | 00:00:00 | |
| 9A1FER-3 | 2026-08-30 11:46:06 | 45.81526 | 16.21125 | 95° | 69km/h | 9828m | 5.6m/s | -39.8°C | 17.7% | 0hPa | 2.9V | 00:00:00 | 00:41:57 | 00:00:00 | |
| 9A1FER-10 | 2026-08-30 11:46:00 | 45.81532 | 16.20966 | 98° | 68km/h | 9789m | 3.7m/s | -39.6°C | 17.4% | 0hPa | 2.9V | 00:00:00 | 00:41:51 | 00:00:00 | |
| 9A1FER-3 | 2026-08-30 11:45:51 | 45.81551 | 16.20753 | 96° | 66km/h | 9741m | 6.3m/s | -39.2°C | 17.1% | 0hPa | 2.9V | 00:00:00 | 00:41:42 | 00:00:00 | |
| 9A1FER-10 | 2026-08-30 11:45:45 | 45.81560 | 16.20607 | 95° | 66km/h | 9705m | 9.1m/s | -38.9°C | 16.7% | 0hPa | 2.9V | 00:00:00 | 00:41:36 | 00:00:00 | |
| 9A1FER-3 | 2026-08-30 11:45:37 | 45.81578 | 16.20397 | 100° | 66km/h | 9648m | 8.8m/s | -38.4°C | 16.4% | 0hPa | 2.9V | 00:00:00 | 00:41:27 | 00:00:00 | |
| 9A1FER-10 | 2026-08-30 11:45:30 | 45.81592 | 16.20257 | 99° | 68km/h | 9617m | 9.0m/s | -38.2°C | 15.2% | 0hPa | 2.9V | 00:00:00 | 00:41:21 | 00:00:00 | |
| 9A1FER-3 | 2026-08-30 11:45:21 | 45.81614 | 16.20047 | 103° | 69km/h | 9557m | 8.5m/s | -37.6°C | 14.4% | 0hPa | 2.9V | 00:00:00 | 00:41:12 | 00:00:00 | |
| 9A1FER-10 | 2026-08-30 11:45:15 | 45.81637 | 16.19901 | 104° | 69km/h | 9525m | 7.3m/s | -37.3°C | 14.2% | 0hPa | 2.9V | 00:00:00 | 00:41:06 | 00:00:00 | |
| 9A1FER-3 | 2026-08-30 11:45:06 | 45.81658 | 16.19677 | 97° | 68km/h | 9471m | 8.5m/s | -36.9°C | 14.0% | 0hPa | 2.9V | 00:00:00 | 00:40:57 | 08:30:00 | |
| 9A1FER-10 | 2026-08-30 11:45:00 | 45.81668 | 16.19533 | 91° | 68km/h | 9438m | 7.7m/s | -36.7°C | 13.8% | 0hPa | 2.9V | 00:00:00 | 00:40:51 | 08:30:00 | |
| 9A1FER-3 | 2026-08-30 11:44:51 | 45.81684 | 16.19318 | 97° | 68km/h | 9376m | 7.7m/s | -36.2°C | 13.7% | 0hPa | 2.9V | 00:00:00 | 00:40:42 | 00:00:00 | |
| 9A1FER-10 | 2026-08-30 11:44:45 | 45.81692 | 16.19170 | 98° | 68km/h | 9340m | 3.6m/s | -35.9°C | 13.4% | 0hPa | 2.9V | 00:00:00 | 00:40:36 | 00:00:00 | |
| 9A1FER-3 | 2026-08-30 11:44:36 | 45.81712 | 16.18953 | 97° | 66km/h | 9282m | 7.5m/s | -35.5°C | 12.8% | 0hPa | 2.9V | 00:00:00 | 00:40:27 | 00:00:00 | |
| 9A1FER-10 | 2026-08-30 11:44:30 | 45.81730 | 16.18812 | 105° | 68km/h | 9243m | 7.1m/s | -35.1°C | 12.5% | 0hPa | 2.9V | 00:00:00 | 00:40:21 | 00:00:00 | |
| 9A1FER-3 | 2026-08-30 11:44:21 | 45.81758 | 16.18597 | 96° | 66km/h | 9189m | 4.8m/s | -34.6°C | 12.1% | 0hPa | 2.9V | 00:00:00 | 00:40:12 | 00:00:00 | |
| 9A1FER-10 | 2026-08-30 11:44:15 | 45.81771 | 16.18455 | 104° | 62km/h | 9151m | 6.2m/s | -34.4°C | 12.0% | 0hPa | 2.7V | 00:00:00 | 00:40:06 | 00:00:00 | |
| 9A1FER-3 | 2026-08-30 11:44:06 | 45.81795 | 16.18250 | 104° | 60km/h | 9095m | 3.4m/s | -33.9°C | 11.6% | 0hPa | 2.9V | 00:00:00 | 00:39:57 | 00:00:00 | |
| 9A1FER-10 | 2026-08-30 11:44:00 | 45.81812 | 16.18120 | 98° | 58km/h | 9056m | 4.1m/s | -33.6°C | 11.1% | 0hPa | 2.9V | 00:00:00 | 00:39:51 | 00:00:00 | |
| 9A1FER-3 | 2026-08-30 11:43:51 | 45.81839 | 16.17929 | 102° | 58km/h | 9005m | 8.1m/s | -33.1°C | 10.9% | 0hPa | 2.9V | 00:00:00 | 00:39:42 | 00:00:00 | |
| 9A1FER-10 | 2026-08-30 11:43:45 | 45.81857 | 16.17807 | 104° | 60km/h | 8965m | 8.0m/s | -32.8°C | 10.7% | 0hPa | 2.9V | 00:00:00 | 00:39:36 | 00:00:00 | |
| 9A1FER-3 | 2026-08-30 11:43:36 | 45.81888 | 16.17621 | 102° | 57km/h | 8907m | 5.6m/s | -32.4°C | 10.3% | 0hPa | 2.9V | 00:00:00 | 00:39:27 | 00:00:00 | |
| 9A1FER-10 | 2026-08-30 11:43:30 | 45.81903 | 16.17492 | 102° | 53km/h | 8874m | 2.9m/s | -32.1°C | 10.6% | 0hPa | 2.9V | 00:00:00 | 00:39:21 | 00:00:00 | |
| 9A1FER-3 | 2026-08-30 11:43:21 | 45.81929 | 16.17324 | 105° | 57km/h | 8831m | 3.1m/s | -31.8°C | 11.1% | 0hPa | 2.9V | 00:00:00 | 00:39:12 | 00:00:00 | |
| 9A1FER-10 | 2026-08-30 11:43:15 | 45.81955 | 16.17212 | 109° | 57km/h | 8796m | 4.0m/s | -31.5°C | 11.1% | 0hPa | 2.9V | 00:00:00 | 00:39:06 | 00:00:00 | |
| 9A1FER-3 | 2026-08-30 11:43:06 | 45.81984 | 16.17030 | 99° | 57km/h | 8744m | 2.5m/s | -31.0°C | 10.6% | 0hPa | 2.9V | 00:00:00 | 00:38:57 | 00:00:00 | |
| 9A1FER-10 | 2026-08-30 11:43:00 | 45.82001 | 16.16910 | 107° | 57km/h | 8704m | 6.8m/s | -30.7°C | 10.5% | 0hPa | 2.9V | 00:00:00 | 00:38:51 | 00:00:00 | |
| 9A1FER-3 | 2026-08-30 11:42:51 | 45.82030 | 16.16729 | 104° | 60km/h | 8650m | 4.4m/s | -30.3°C | 10.1% | 0hPa | 2.9V | 00:00:00 | 00:38:42 | 08:30:00 | |
| 9A1FER-10 | 2026-08-30 11:42:45 | 45.82049 | 16.16606 | 105° | 60km/h | 8613m | 4.9m/s | -29.9°C | 9.9% | 0hPa | 2.9V | 00:00:00 | 00:38:36 | 08:30:00 | |
| 9A1FER-3 | 2026-08-30 11:42:36 | 45.82079 | 16.16412 | 98° | 60km/h | 8558m | 5.2m/s | -29.5°C | 9.5% | 0hPa | 2.9V | 00:00:00 | 00:38:27 | 00:00:00 | |
| 9A1FER-10 | 2026-08-30 11:42:30 | 45.82097 | 16.16285 | 101° | 57km/h | 8532m | 10.5m/s | -29.2°C | 9.4% | 0hPa | 2.9V | 00:00:00 | 00:38:21 | 00:00:00 | |
| 9A1FER-3 | 2026-08-30 11:42:21 | 45.82114 | 16.16095 | 96° | 57km/h | 8485m | 7.8m/s | -28.7°C | 9.0% | 0hPa | 2.9V | 00:00:00 | 00:38:12 | 00:00:00 | |
| 9A1FER-10 | 2026-08-30 11:42:15 | 45.82129 | 16.15979 | 104° | 58km/h | 8448m | 4.6m/s | -28.4°C | 8.9% | 0hPa | 2.9V | 00:00:00 | 00:38:06 | 00:00:00 | |
| 9A1FER-3 | 2026-08-30 11:42:06 | 45.82156 | 16.15790 | 103° | 55km/h | 8402m | 8.4m/s | -28.0°C | 8.7% | 0hPa | 2.9V | 00:00:00 | 00:37:57 | 00:00:00 | |
| 9A1FER-10 | 2026-08-30 11:42:00 | 45.82177 | 16.15673 | 106° | 55km/h | 8366m | 4.2m/s | -27.7°C | 9.0% | 0hPa | 2.9V | 00:00:00 | 00:37:51 | 00:00:00 | |
| 9A1FER-3 | 2026-08-30 11:41:51 | 45.82207 | 16.15502 | 97° | 57km/h | 8317m | 4.8m/s | -27.3°C | 9.4% | 0hPa | 2.9V | 00:00:00 | 00:37:42 | 00:00:00 | |
| 9A1FER-10 | 2026-08-30 11:41:45 | 45.82226 | 16.15381 | 107° | 55km/h | 8275m | 8.3m/s | -27.1°C | 10.0% | 0hPa | 2.9V | 00:00:00 | 00:37:36 | 00:00:00 | |
| 9A1FER-10 | 2026-08-30 11:41:30 | 45.82272 | 16.15089 | 101° | 53km/h | 8183m | 2.2m/s | -26.3°C | 9.9% | 0hPa | 2.9V | 00:00:00 | 00:37:21 | 00:00:00 | |
| 9A1FER-3 | 2026-08-30 11:41:20 | 45.82304 | 16.14902 | 105° | 53km/h | 8122m | 4.6m/s | -25.9°C | 9.0% | 0hPa | 2.9V | 00:00:00 | 00:37:11 | 00:00:00 | |
| 9A1FER-10 | 2026-08-30 11:41:15 | 45.82316 | 16.14810 | 100° | 53km/h | 8094m | 7.6m/s | -25.6°C | 9.2% | 0hPa | 2.9V | 00:00:00 | 00:37:06 | 00:00:00 | |
| 9A1FER-3 | 2026-08-30 11:41:05 | 45.82347 | 16.14618 | 103° | 47km/h | 8030m | 4.2m/s | -25.2°C | 8.6% | 0hPa | 2.9V | 00:00:00 | 00:36:56 | 00:00:00 | |
| 9A1FER-10 | 2026-08-30 11:41:00 | 45.82357 | 16.14529 | 99° | 47km/h | 7999m | 4.3m/s | -24.9°C | 8.4% | 0hPa | 2.9V | 00:00:00 | 00:36:51 | 00:00:00 | |
| 9A1FER-3 | 2026-08-30 11:40:50 | 45.82377 | 16.14359 | 98° | 46km/h | 7941m | 5.1m/s | -24.5°C | 8.4% | 0hPa | 2.9V | 00:00:00 | 00:36:41 | 00:00:00 | |
| 9A1FER-10 | 2026-08-30 11:40:45 | 45.82385 | 16.14277 | 101° | 44km/h | 7918m | 5.2m/s | -24.3°C | 8.4% | 0hPa | 2.9V | 00:00:00 | 00:36:36 | 00:00:00 | |
| 9A1FER-3 | 2026-08-30 11:40:35 | 45.82403 | 16.14120 | 104° | 46km/h | 7851m | 6.9m/s | -23.7°C | 8.6% | 0hPa | 2.9V | 00:00:00 | 00:36:26 | 08:30:00 | |
| 9A1FER-10 | 2026-08-30 11:40:30 | 45.82416 | 16.14042 | 103° | 46km/h | 7820m | 4.6m/s | -23.5°C | 8.5% | 0hPa | 2.7V | 00:00:00 | 00:36:21 | 08:30:00 | |
| 9A1FER-3 | 2026-08-30 11:40:20 | 45.82437 | 16.13880 | 101° | 49km/h | 7763m | 4.6m/s | -22.9°C | 8.2% | 0hPa | 2.9V | 00:00:00 | 00:36:11 | 00:00:00 | |
| 9A1FER-10 | 2026-08-30 11:40:15 | 45.82448 | 16.13794 | 101° | 47km/h | 7739m | 8.7m/s | -22.7°C | 8.1% | 0hPa | 2.9V | 00:00:00 | 00:36:06 | 00:00:00 | |
| 9A1FER-3 | 2026-08-30 11:40:05 | 45.82472 | 16.13618 | 100° | 46km/h | 7678m | 7.1m/s | -22.4°C | 8.5% | 0hPa | 2.9V | 00:00:00 | 00:35:56 | 00:00:00 | |
| 9A1FER-10 | 2026-08-30 11:40:00 | 45.82484 | 16.13541 | 109° | 46km/h | 7647m | 4.1m/s | -22.1°C | 8.4% | 0hPa | 2.9V | 00:00:00 | 00:35:51 | 00:00:00 | |
| 9A1FER-3 | 2026-08-30 11:39:50 | 45.82516 | 16.13379 | 99° | 46km/h | 7590m | 9.7m/s | -21.7°C | 8.4% | 0hPa | 2.9V | 00:00:00 | 00:35:41 | 00:00:00 | |
| 9A1FER-10 | 2026-08-30 11:39:45 | 45.82526 | 16.13297 | 106° | 46km/h | 7554m | 9.0m/s | -21.6°C | 8.6% | 0hPa | 2.9V | 00:00:00 | 00:35:36 | 00:00:00 | |
| 9A1FER-3 | 2026-08-30 11:39:35 | 45.82553 | 16.13138 | 97° | 49km/h | 7493m | 7.6m/s | -21.2°C | 9.0% | 0hPa | 2.9V | 00:00:00 | 00:35:26 | 00:00:00 | |
| 9A1FER-10 | 2026-08-30 11:39:30 | 45.82557 | 16.13051 | 98° | 47km/h | 7464m | 4.8m/s | -20.9°C | 9.0% | 0hPa | 2.9V | 00:00:00 | 00:35:21 | 00:00:00 | |
| 9A1FER-3 | 2026-08-30 11:39:20 | 45.82585 | 16.12877 | 101° | 46km/h | 7408m | 5.0m/s | -20.5°C | 9.1% | 0hPa | 2.9V | 00:00:00 | 00:35:11 | 00:00:00 | |
| 9A1FER-10 | 2026-08-30 11:39:15 | 45.82597 | 16.12800 | 104° | 49km/h | 7373m | 9.2m/s | -20.4°C | 9.5% | 0hPa | 2.9V | 00:00:00 | 00:35:06 | 00:00:00 | |
| 9A1FER-3 | 2026-08-30 11:39:05 | 45.82627 | 16.12634 | 102° | 46km/h | 7308m | 6.1m/s | -19.9°C | 9.6% | 0hPa | 2.9V | 00:00:00 | 00:34:56 | 00:00:00 | |
| 9A1FER-10 | 2026-08-30 11:39:00 | 45.82634 | 16.12544 | 93° | 46km/h | 7285m | 5.6m/s | -19.7°C | 9.6% | 0hPa | 2.9V | 00:00:00 | 00:34:51 | 00:00:00 | |
| 9A1FER-3 | 2026-08-30 11:38:50 | 45.82643 | 16.12390 | 97° | 49km/h | 7228m | 7.1m/s | -19.3°C | 8.4% | 0hPa | 3.0V | 00:00:00 | 00:34:41 | 00:00:00 | |
| 9A1FER-10 | 2026-08-30 11:38:45 | 45.82653 | 16.12298 | 98° | 47km/h | 7196m | 5.5m/s | -19.0°C | 7.8% | 0hPa | 3.0V | 00:00:00 | 00:34:36 | 00:00:00 | |
| 9A1FER-3 | 2026-08-30 11:38:35 | 45.82657 | 16.12124 | 97° | 47km/h | 7143m | 1.9m/s | -18.5°C | 6.7% | 0hPa | 3.0V | 00:00:00 | 00:34:26 | 00:00:00 | |
| 9A1FER-10 | 2026-08-30 11:38:30 | 45.82665 | 16.12039 | 100° | 46km/h | 7117m | 4.0m/s | -18.3°C | 5.0% | 0hPa | 3.0V | 00:00:00 | 00:34:21 | 00:00:00 | |
| 9A1FER-3 | 2026-08-30 11:38:20 | 45.82673 | 16.11869 | 94° | 46km/h | 7061m | 6.3m/s | -17.9°C | 4.3% | 0hPa | 3.0V | 00:00:00 | 00:34:11 | 08:30:00 | |
| 9A1FER-10 | 2026-08-30 11:38:15 | 45.82680 | 16.11795 | 98° | 46km/h | 7021m | 4.7m/s | -17.7°C | 4.5% | 0hPa | 2.9V | 00:00:00 | 00:34:06 | 08:30:00 | |
| 9A1FER-3 | 2026-08-30 11:38:05 | 45.82694 | 16.11622 | 99° | 46km/h | 6968m | 3.1m/s | -17.3°C | 5.1% | 0hPa | 2.9V | 00:00:00 | 00:33:56 | 00:00:00 | |
| 9A1FER-10 | 2026-08-30 11:38:00 | 45.82703 | 16.11544 | 104° | 47km/h | 6940m | 5.1m/s | -17.2°C | 5.0% | 0hPa | 2.9V | 00:00:00 | 00:33:51 | 00:00:00 | |
| 9A1FER-3 | 2026-08-30 11:37:50 | 45.82719 | 16.11379 | 101° | 47km/h | 6880m | 6.7m/s | -16.7°C | 5.0% | 0hPa | 2.9V | 00:00:00 | 00:33:41 | 00:00:00 | |
| 9A1FER-10 | 2026-08-30 11:37:45 | 45.82730 | 16.11292 | 97° | 46km/h | 6851m | 5.0m/s | -16.5°C | 5.1% | 0hPa | 2.9V | 00:00:00 | 00:33:36 | 00:00:00 | |
| 9A1FER-3 | 2026-08-30 11:37:35 | 45.82747 | 16.11125 | 101° | 44km/h | 6788m | 4.7m/s | -16.2°C | 5.3% | 0hPa | 2.9V | 00:00:00 | 00:33:26 | 00:00:00 | |
| 9A1FER-10 | 2026-08-30 11:37:30 | 45.82758 | 16.11042 | 100° | 44km/h | 6760m | 4.7m/s | -16.0°C | 5.5% | 0hPa | 2.9V | 00:00:00 | 00:33:21 | 00:00:00 | |
| 9A1FER-3 | 2026-08-30 11:37:20 | 45.82778 | 16.10886 | 104° | 47km/h | 6718m | 4.6m/s | -15.5°C | 5.5% | 0hPa | 3.0V | 00:00:00 | 00:33:11 | 00:00:00 | |
| 9A1FER-10 | 2026-08-30 11:37:15 | 45.82787 | 16.10803 | 100° | 49km/h | 6692m | 5.2m/s | -15.4°C | 5.7% | 0hPa | 3.0V | 00:00:00 | 00:33:06 | 00:00:00 | |
| 9A1FER-3 | 2026-08-30 11:37:05 | 45.82811 | 16.10629 | 101° | 47km/h | 6623m | 6.7m/s | -15.0°C | 6.0% | 0hPa | 3.0V | 00:00:00 | 00:32:56 | 00:00:00 | |
| 9A1FER-10 | 2026-08-30 11:37:00 | 45.82818 | 16.10539 | 96° | 47km/h | 6593m | 6.1m/s | -14.7°C | 5.9% | 0hPa | 3.0V | 00:00:00 | 00:32:51 | 00:00:00 | |
| 9A1FER-10 | 2026-08-30 11:36:45 | 45.82848 | 16.10286 | 96° | 46km/h | 6515m | 4.6m/s | -14.0°C | 5.3% | 0hPa | 3.0V | 00:00:00 | 00:32:36 | 00:00:00 | |
| 9A1FER-3 | 2026-08-30 11:36:35 | 45.82858 | 16.10122 | 106° | 44km/h | 6449m | 7.0m/s | -13.6°C | 5.1% | 0hPa | 3.0V | 00:00:00 | 00:32:26 | 00:00:00 | |
| 9A1FER-10 | 2026-08-30 11:36:30 | 45.82873 | 16.10044 | 102° | 44km/h | 6414m | 5.4m/s | -13.5°C | 5.3% | 0hPa | 3.0V | 00:00:00 | 00:32:21 | 00:00:00 | |
| 9A1FER-3 | 2026-08-30 11:36:20 | 45.82887 | 16.09885 | 105° | 40km/h | 6361m | 3.2m/s | -13.1°C | 5.3% | 0hPa | 3.0V | 00:00:00 | 00:32:11 | 00:00:00 | |
| 9A1FER-10 | 2026-08-30 11:36:15 | 45.82904 | 16.09814 | 108° | 40km/h | 6332m | 5.2m/s | -12.9°C | 5.0% | 0hPa | 3.0V | 00:00:00 | 00:32:06 | 00:00:00 | |
| 9A1FER-3 | 2026-08-30 11:36:07 | 45.82921 | 16.09671 | 98° | 40km/h | 6290m | 5.6m/s | -12.5°C | 4.6% | 0hPa | 3.0V | 00:00:00 | 00:31:56 | 08:30:00 | |
| 9A1FER-10 | 2026-08-30 11:36:02 | 45.82928 | 16.09603 | 100° | 38km/h | 6267m | 5.3m/s | -12.4°C | 4.6% | 0hPa | 3.0V | 00:00:00 | 00:31:51 | 08:30:00 | |
| 9A1FER-3 | 2026-08-30 11:35:50 | 45.82941 | 16.09458 | 101° | 37km/h | 6203m | 4.7m/s | -12.1°C | 5.3% | 0hPa | 3.0V | 00:00:00 | 00:31:41 | 00:00:00 | |
| 9A1FER-10 | 2026-08-30 11:35:45 | 45.82949 | 16.09395 | 98° | 37km/h | 6182m | 10.0m/s | -12.0°C | 6.1% | 0hPa | 3.0V | 00:00:00 | 00:31:36 | 00:00:00 | |
| 9A1FER-3 | 2026-08-30 11:35:35 | 45.82963 | 16.09260 | 102° | 38km/h | 6122m | 1.1m/s | -12.1°C | 17.4% | 0hPa | 3.0V | 00:00:00 | 00:31:26 | 00:00:00 | |
| 9A1FER-10 | 2026-08-30 11:35:30 | 45.82971 | 16.09203 | 100° | 42km/h | 6096m | 7.0m/s | -12.2°C | 30.3% | 0hPa | 3.0V | 00:00:00 | 00:31:21 | 00:00:00 | |
| 9A1FER-3 | 2026-08-30 11:35:20 | 45.82986 | 16.09053 | 94° | 42km/h | 6050m | 8.0m/s | -11.8°C | 44.7% | 0hPa | 3.0V | 00:00:00 | 00:31:11 | 00:00:00 | |
| 9A1FER-10 | 2026-08-30 11:35:00 | 45.82985 | 16.08739 | 93° | 42km/h | 5915m | 5.6m/s | -10.7°C | 47.4% | 0hPa | 3.0V | 00:00:00 | 00:30:51 | 00:00:00 | |
| 9A1FER-3 | 2026-08-30 11:34:50 | 45.82985 | 16.08584 | 90° | 42km/h | 5860m | 6.3m/s | -10.1°C | 46.6% | 0hPa | 3.0V | 00:00:00 | 00:30:41 | 00:00:00 | |
| 9A1FER-10 | 2026-08-30 11:34:45 | 45.82983 | 16.08509 | 93° | 42km/h | 5834m | 2.1m/s | -9.9°C | 46.5% | 0hPa | 3.0V | 00:00:00 | 00:30:36 | 00:00:00 | |
| 9A1FER-10 | 2026-08-30 11:34:30 | 45.82986 | 16.08282 | 91° | 46km/h | 5737m | 3.8m/s | -9.5°C | 61.8% | 0hPa | 3.0V | 00:00:00 | 00:30:21 | 00:00:00 | |
| 9A1FER-3 | 2026-08-30 11:34:20 | 45.82977 | 16.08120 | 82° | 47km/h | 5691m | 3.5m/s | -9.1°C | 52.8% | 0hPa | 3.0V | 00:00:00 | 00:30:11 | 00:00:00 | |
| 9A1FER-10 | 2026-08-30 11:34:15 | 45.82976 | 16.08034 | 96° | 47km/h | 5666m | 7.0m/s | -8.9°C | 52.0% | 0hPa | 3.0V | 00:00:00 | 00:30:06 | 00:00:00 | |
| 9A1FER-3 | 2026-08-30 11:34:05 | 45.82971 | 16.07866 | 89° | 44km/h | 5611m | 5.1m/s | -8.4°C | 51.0% | 0hPa | 3.0V | 00:00:00 | 00:29:56 | 00:00:00 | |
| 9A1FER-10 | 2026-08-30 11:34:00 | 45.82970 | 16.07780 | 94° | 44km/h | 5586m | 6.9m/s | -8.1°C | 50.4% | 0hPa | 3.0V | 00:00:00 | 00:29:51 | 00:00:00 | |
| 9A1FER-3 | 2026-08-30 11:33:50 | 45.82968 | 16.07628 | 86° | 46km/h | 5516m | 6.5m/s | -7.6°C | 48.8% | 0hPa | 3.0V | 00:00:00 | 00:29:41 | 08:30:00 | |
| 9A1FER-10 | 2026-08-30 11:33:45 | 45.82967 | 16.07542 | 82° | 46km/h | 5490m | 2.6m/s | -7.3°C | 46.1% | 0hPa | 3.0V | 00:00:00 | 00:29:36 | 08:30:00 | |
| 9A1FER-3 | 2026-08-30 11:33:35 | 45.82951 | 16.07378 | 84° | 40km/h | 5434m | 4.5m/s | -7.5°C | 47.8% | 0hPa | 3.0V | 00:00:00 | 00:29:26 | 00:00:00 | |
| 9A1FER-10 | 2026-08-30 11:33:30 | 45.82942 | 16.07299 | 82° | 38km/h | 5416m | 5.0m/s | -7.4°C | 58.6% | 0hPa | 3.0V | 00:00:00 | 00:29:21 | 00:00:00 | |
| 9A1FER-3 | 2026-08-30 11:33:20 | 45.82941 | 16.07158 | 87° | 37km/h | 5363m | 3.0m/s | -7.1°C | 64.9% | 0hPa | 3.0V | 00:00:00 | 00:29:11 | 00:00:00 | |
| 9A1FER-10 | 2026-08-30 11:33:15 | 45.82935 | 16.07090 | 80° | 37km/h | 5328m | 7.7m/s | -7.0°C | 62.9% | 0hPa | 3.0V | 00:00:00 | 00:29:06 | 00:00:00 | |
| 9A1FER-3 | 2026-08-30 11:33:05 | 45.82924 | 16.06959 | 87° | 33km/h | 5260m | 5.2m/s | -6.8°C | 78.6% | 0hPa | 3.0V | 00:00:00 | 00:28:56 | 00:00:00 | |
| 9A1FER-10 | 2026-08-30 11:33:00 | 45.82921 | 16.06899 | 86° | 33km/h | 5237m | 5.7m/s | -6.6°C | 79.2% | 0hPa | 3.0V | 00:00:00 | 00:28:51 | 00:00:00 | |
| 9A1FER-3 | 2026-08-30 11:32:50 | 45.82915 | 16.06783 | 86° | 37km/h | 5179m | 6.5m/s | -6.2°C | 76.6% | 0hPa | 3.0V | 00:00:00 | 00:28:41 | 00:00:00 | |
| 9A1FER-10 | 2026-08-30 11:32:45 | 45.82910 | 16.06723 | 87° | 35km/h | 5147m | 4.8m/s | -6.0°C | 75.3% | 0hPa | 3.0V | 00:00:00 | 00:28:36 | 00:00:00 | |
| 9A1FER-3 | 2026-08-30 11:32:35 | 45.82908 | 16.06588 | 88° | 31km/h | 5090m | 5.6m/s | -5.6°C | 78.6% | 0hPa | 3.0V | 00:00:00 | 00:28:26 | 00:00:00 | |
| 9A1FER-10 | 2026-08-30 11:32:30 | 45.82905 | 16.06536 | 81° | 29km/h | 5054m | 6.8m/s | -5.4°C | 77.4% | 0hPa | 3.0V | 00:00:00 | 00:28:21 | 00:00:00 | |
| 9A1FER-3 | 2026-08-30 11:32:20 | 45.82907 | 16.06425 | 95° | 29km/h | 4995m | 6.7m/s | -5.0°C | 76.1% | 0hPa | 3.0V | 00:00:00 | 00:28:11 | 00:00:00 | |
| 9A1FER-10 | 2026-08-30 11:32:15 | 45.82911 | 16.06373 | 88° | 31km/h | 4969m | 4.6m/s | -4.8°C | 76.1% | 0hPa | 3.0V | 00:00:00 | 00:28:06 | 00:00:00 | |
| 9A1FER-3 | 2026-08-30 11:32:05 | 45.82912 | 16.06268 | 89° | 29km/h | 4905m | 4.9m/s | -4.3°C | 73.9% | 0hPa | 3.0V | 00:00:00 | 00:27:56 | 00:00:00 | |
| 9A1FER-10 | 2026-08-30 11:32:00 | 45.82915 | 16.06209 | 88° | 31km/h | 4877m | 6.5m/s | -4.2°C | 73.9% | 0hPa | 3.0V | 00:00:00 | 00:27:51 | 00:00:00 | |
| 9A1FER-3 | 2026-08-30 11:31:50 | 45.82908 | 16.06106 | 91° | 33km/h | 4822m | 4.0m/s | -3.7°C | 76.1% | 0hPa | 3.0V | 00:00:00 | 00:27:41 | 00:00:00 | |
| 9A1FER-10 | 2026-08-30 11:31:45 | 45.82908 | 16.06044 | 92° | 31km/h | 4792m | 6.9m/s | -3.5°C | 75.4% | 0hPa | 3.0V | 00:00:00 | 00:27:36 | 00:00:00 | |
| 9A1FER-3 | 2026-08-30 11:31:35 | 45.82902 | 16.05932 | 88° | 31km/h | 4734m | 6.8m/s | -3.1°C | 73.5% | 0hPa | 3.0V | 00:00:00 | 00:27:26 | 08:30:00 | |
| 9A1FER-10 | 2026-08-30 11:31:30 | 45.82897 | 16.05878 | 81° | 31km/h | 4703m | 6.2m/s | -2.8°C | 72.2% | 0hPa | 3.0V | 00:00:00 | 00:27:21 | 08:30:00 | |
| 9A1FER-3 | 2026-08-30 11:31:20 | 45.82894 | 16.05762 | 85° | 29km/h | 4643m | 7.3m/s | -2.4°C | 72.4% | 0hPa | 3.0V | 00:00:00 | 00:27:11 | 00:00:00 | |
| 9A1FER-10 | 2026-08-30 11:31:15 | 45.82888 | 16.05707 | 82° | 31km/h | 4613m | 5.9m/s | -2.1°C | 72.2% | 0hPa | 3.0V | 00:00:00 | 00:27:06 | 00:00:00 | |
| 9A1FER-3 | 2026-08-30 11:31:05 | 45.82880 | 16.05599 | 88° | 33km/h | 4563m | 3.5m/s | -1.7°C | 69.1% | 0hPa | 3.0V | 00:00:00 | 00:26:56 | 00:00:00 | |
| 9A1FER-10 | 2026-08-30 11:31:00 | 45.82878 | 16.05538 | 91° | 33km/h | 4539m | 10.1m/s | -1.4°C | 68.8% | 0hPa | 3.0V | 00:00:00 | 00:26:51 | 00:00:00 | |
| 9A1FER-3 | 2026-08-30 11:30:50 | 45.82870 | 16.05416 | 81° | 27km/h | 4484m | 4.7m/s | -0.9°C | 67.4% | 0hPa | 3.0V | 00:00:00 | 00:26:41 | 00:00:00 | |
| 9A1FER-10 | 2026-08-30 11:30:45 | 45.82860 | 16.05364 | 74° | 27km/h | 4456m | 5.2m/s | -0.7°C | 65.5% | 0hPa | 3.0V | 00:00:00 | 00:26:36 | 00:00:00 | |
| 9A1FER-3 | 2026-08-30 11:30:35 | 45.82849 | 16.05270 | 83° | 29km/h | 4405m | 5.6m/s | -0.3°C | 63.1% | 0hPa | 3.0V | 00:00:00 | 00:26:26 | 00:00:00 | |
| 9A1FER-10 | 2026-08-30 11:30:30 | 45.82843 | 16.05220 | 72° | 27km/h | 4371m | 4.8m/s | -0.1°C | 60.6% | 0hPa | 3.0V | 00:00:00 | 00:26:21 | 00:00:00 | |
| 9A1FER-3 | 2026-08-30 11:30:20 | 45.82830 | 16.05116 | 84° | 26km/h | 4325m | 9.3m/s | 0.1°C | 57.9% | 0hPa | 3.0V | 00:00:00 | 00:26:11 | 00:00:00 | |
| 9A1FER-10 | 2026-08-30 11:30:16 | 45.82831 | 16.05071 | 99° | 26km/h | 4296m | 2.9m/s | 0.4°C | 58.8% | 0hPa | 3.0V | 00:00:00 | 00:26:06 | 00:00:00 | |
| 9A1FER-3 | 2026-08-30 11:30:05 | 45.82840 | 16.04980 | 100° | 24km/h | 4233m | 6.1m/s | 0.9°C | 51.8% | 0hPa | 3.0V | 00:00:00 | 00:25:56 | 00:00:00 | |
| 9A1FER-10 | 2026-08-30 11:30:00 | 45.82842 | 16.04934 | 91° | 26km/h | 4208m | 5.0m/s | 1.2°C | 49.3% | 0hPa | 3.0V | 00:00:00 | 00:25:51 | 00:00:00 | |
| 9A1FER-3 | 2026-08-30 11:29:50 | 45.82850 | 16.04848 | 102° | 27km/h | 4152m | 8.0m/s | 1.7°C | 45.0% | 0hPa | 3.0V | 00:00:00 | 00:25:41 | 00:00:00 | |
| 9A1FER-10 | 2026-08-30 11:29:45 | 45.82851 | 16.04798 | 93° | 26km/h | 4118m | 6.5m/s | 2.0°C | 45.1% | 0hPa | 3.0V | 00:00:00 | 00:25:36 | 00:00:00 | |
| 9A1FER-3 | 2026-08-30 11:29:35 | 45.82853 | 16.04703 | 99° | 26km/h | 4064m | 7.2m/s | 2.6°C | 32.7% | 0hPa | 3.0V | 00:00:00 | 00:25:26 | 00:00:00 | |
| 9A1FER-10 | 2026-08-30 11:29:30 | 45.82859 | 16.04658 | 103° | 27km/h | 4035m | 8.0m/s | 2.9°C | 17.2% | 0hPa | 3.0V | 00:00:00 | 00:25:21 | 00:00:00 | |
| 9A1FER-3 | 2026-08-30 11:29:20 | 45.82871 | 16.04567 | 113° | 31km/h | 3980m | 9.5m/s | 2.8°C | 12.0% | 0hPa | 3.0V | 00:00:00 | 00:25:11 | 08:30:00 | |
| 9A1FER-10 | 2026-08-30 11:29:15 | 45.82886 | 16.04513 | 112° | 29km/h | 3941m | 10.2m/s | 2.8°C | 14.4% | 0hPa | 3.0V | 00:00:00 | 00:25:06 | 08:30:00 | |
| 9A1FER-3 | 2026-08-30 11:29:05 | 45.82894 | 16.04404 | 95° | 27km/h | 3880m | 5.4m/s | 3.0°C | 19.2% | 0hPa | 3.0V | 00:00:00 | 00:24:56 | 00:00:00 | |
| 9A1FER-10 | 2026-08-30 11:29:00 | 45.82893 | 16.04353 | 87° | 27km/h | 3853m | 5.5m/s | 3.1°C | 21.1% | 0hPa | 3.0V | 00:00:00 | 00:24:51 | 00:00:00 | |
| 9A1FER-3 | 2026-08-30 11:28:50 | 45.82902 | 16.04260 | 100° | 24km/h | 3798m | 4.0m/s | 3.4°C | 22.3% | 0hPa | 3.0V | 00:00:00 | 00:24:41 | 00:00:00 | |
| 9A1FER-10 | 2026-08-30 11:28:45 | 45.82907 | 16.04212 | 104° | 20km/h | 3774m | 5.0m/s | 3.6°C | 22.7% | 0hPa | 3.0V | 00:00:00 | 00:24:36 | 00:00:00 | |
| 9A1FER-3 | 2026-08-30 11:28:35 | 45.82911 | 16.04136 | 113° | 16km/h | 3711m | 5.9m/s | 3.9°C | 12.7% | 0hPa | 3.0V | 00:00:00 | 00:24:26 | 00:00:00 | |
| 9A1FER-10 | 2026-08-30 11:28:30 | 45.82923 | 16.04108 | 118° | 13km/h | 3687m | 3.9m/s | 4.0°C | 13.4% | 0hPa | 3.0V | 00:00:00 | 00:24:21 | 00:00:00 | |
| 9A1FER-3 | 2026-08-30 11:28:20 | 45.82930 | 16.04056 | 122° | 9km/h | 3630m | 5.0m/s | 4.4°C | 10.6% | 0hPa | 3.0V | 00:00:00 | 00:24:11 | 00:00:00 | |
| 9A1FER-10 | 2026-08-30 11:28:15 | 45.82934 | 16.04042 | 95° | 13km/h | 3596m | 5.5m/s | 4.6°C | 9.0% | 0hPa | 3.0V | 00:00:00 | 00:24:06 | 00:00:00 | |
| 9A1FER-3 | 2026-08-30 11:28:05 | 45.82932 | 16.04012 | 76° | 16km/h | 3537m | 3.2m/s | 4.8°C | 6.3% | 0hPa | 3.0V | 00:00:00 | 00:23:56 | 00:00:00 | |
| 9A1FER-10 | 2026-08-30 11:28:00 | 45.82927 | 16.03977 | 68° | 15km/h | 3512m | 8.4m/s | 4.8°C | 14.1% | 0hPa | 3.0V | 00:00:00 | 00:23:51 | 00:00:00 | |
| 9A1FER-3 | 2026-08-30 11:27:50 | 45.82911 | 16.03934 | 63° | 16km/h | 3453m | 7.0m/s | 5.1°C | 19.9% | 0hPa | 3.0V | 00:00:00 | 00:23:41 | 00:00:00 | |
| 9A1FER-10 | 2026-08-30 11:27:45 | 45.82912 | 16.03903 | 108° | 16km/h | 3427m | 5.0m/s | 5.3°C | 20.3% | 0hPa | 3.0V | 00:00:00 | 00:23:36 | 00:00:00 | |
| 9A1FER-3 | 2026-08-30 11:27:35 | 45.82909 | 16.03841 | 98° | 13km/h | 3375m | 7.0m/s | 5.7°C | 21.8% | 0hPa | 3.0V | 00:00:00 | 00:23:26 | 00:00:00 | |
| 9A1FER-10 | 2026-08-30 11:27:30 | 45.82913 | 16.03819 | 113° | 13km/h | 3351m | 3.4m/s | 5.9°C | 22.4% | 0hPa | 3.0V | 00:00:00 | 00:23:21 | 00:00:00 | |
| 9A1FER-3 | 2026-08-30 11:27:20 | 45.82914 | 16.03773 | 94° | 16km/h | 3286m | 3.1m/s | 6.3°C | 23.2% | 0hPa | 3.0V | 00:00:00 | 00:23:11 | 00:00:00 | |
| 9A1FER-10 | 2026-08-30 11:27:15 | 45.82917 | 16.03751 | 102° | 18km/h | 3259m | 3.4m/s | 6.4°C | 23.0% | 0hPa | 3.0V | 00:00:00 | 00:23:06 | 00:00:00 | |
| 9A1FER-3 | 2026-08-30 11:27:05 | 45.82912 | 16.03686 | 70° | 13km/h | 3191m | 6.8m/s | 6.7°C | 19.1% | 0hPa | 3.0V | 00:00:00 | 00:22:56 | 08:30:00 | |
| 9A1FER-10 | 2026-08-30 11:27:00 | 45.82908 | 16.03660 | 100° | 9km/h | 3160m | 7.2m/s | 6.8°C | 15.7% | 0hPa | 3.0V | 00:00:00 | 00:22:51 | 08:30:00 | |
| 9A1FER-3 | 2026-08-30 11:26:50 | 45.82908 | 16.03619 | 73° | 7km/h | 3104m | 1.8m/s | 6.8°C | 18.3% | 0hPa | 3.0V | 00:00:00 | 00:22:41 | 00:00:00 | |
| 9A1FER-10 | 2026-08-30 11:26:45 | 45.82904 | 16.03617 | 9° | 7km/h | 3072m | 5.1m/s | 6.8°C | 18.1% | 0hPa | 3.0V | 00:00:00 | 00:22:36 | 00:00:00 | |
| 9A1FER-3 | 2026-08-30 11:26:35 | 45.82891 | 16.03595 | 20° | 11km/h | 3018m | 2.6m/s | 7.2°C | 16.0% | 0hPa | 3.0V | 00:00:00 | 00:22:26 | 00:00:00 | |
| 9A1FER-10 | 2026-08-30 11:26:30 | 45.82884 | 16.03590 | 41° | 11km/h | 2987m | 9.6m/s | 7.4°C | 15.6% | 0hPa | 3.0V | 00:00:00 | 00:22:21 | 00:00:00 | |
| 9A1FER-3 | 2026-08-30 11:26:20 | 45.82859 | 16.03565 | 37° | 7km/h | 2920m | 7.9m/s | 7.9°C | 20.5% | 0hPa | 3.0V | 00:00:00 | 00:22:11 | 00:00:00 | |
| 9A1FER-10 | 2026-08-30 11:26:15 | 45.82849 | 16.03566 | 343° | 7km/h | 2891m | 6.7m/s | 8.1°C | 21.6% | 0hPa | 3.0V | 00:00:00 | 00:22:06 | 00:00:00 | |
| 9A1FER-3 | 2026-08-30 11:26:05 | 45.82834 | 16.03577 | 334° | 11km/h | 2836m | 6.1m/s | 8.5°C | 24.0% | 0hPa | 3.0V | 00:00:00 | 00:21:56 | 00:00:00 | |
| 9A1FER-10 | 2026-08-30 11:26:00 | 45.82823 | 16.03573 | 42° | 15km/h | 2811m | 5.6m/s | 8.8°C | 22.3% | 0hPa | 3.0V | 00:00:00 | 00:21:51 | 00:00:00 | |
| 9A1FER-3 | 2026-08-30 11:25:50 | 45.82797 | 16.03578 | 14° | 16km/h | 2760m | 4.3m/s | 9.2°C | 24.0% | 0hPa | 3.0V | 00:00:00 | 00:21:41 | 00:00:00 | |
| 9A1FER-10 | 2026-08-30 11:25:45 | 45.82772 | 16.03573 | 3° | 15km/h | 2736m | 7.5m/s | 9.4°C | 23.7% | 0hPa | 3.0V | 00:00:00 | 00:21:36 | 00:00:00 | |
| 9A1FER-3 | 2026-08-30 11:25:35 | 45.82737 | 16.03561 | 13° | 16km/h | 2679m | 2.4m/s | 9.8°C | 31.2% | 0hPa | 3.0V | 00:00:00 | 00:21:26 | 00:00:00 | |
| 9A1FER-10 | 2026-08-30 11:25:30 | 45.82715 | 16.03558 | 352° | 16km/h | 2655m | 4.1m/s | 9.9°C | 36.3% | 0hPa | 3.0V | 00:00:00 | 00:21:21 | 00:00:00 | |
| 9A1FER-3 | 2026-08-30 11:25:20 | 45.82673 | 16.03565 | 2° | 16km/h | 2594m | 6.0m/s | 10.3°C | 28.1% | 0hPa | 3.0V | 00:00:00 | 00:21:11 | 00:00:00 | |
| 9A1FER-10 | 2026-08-30 11:25:15 | 45.82656 | 16.03569 | 352° | 20km/h | 2567m | 2.5m/s | 10.4°C | 26.1% | 0hPa | 3.0V | 00:00:00 | 00:21:06 | 00:00:00 | |
| 9A1FER-3 | 2026-08-30 11:25:05 | 45.82610 | 16.03562 | 10° | 16km/h | 2518m | 2.0m/s | 10.7°C | 26.7% | 0hPa | 3.0V | 00:00:00 | 00:20:56 | 00:00:00 | |
| 9A1FER-10 | 2026-08-30 11:25:00 | 45.82584 | 16.03552 | 19° | 13km/h | 2492m | 2.3m/s | 10.8°C | 25.7% | 0hPa | 3.0V | 00:00:00 | 00:20:51 | 00:00:00 | |
| 9A1FER-3 | 2026-08-30 11:24:50 | 45.82553 | 16.03546 | 48° | 11km/h | 2442m | 6.0m/s | 10.8°C | 26.4% | 0hPa | 3.0V | 00:00:00 | 00:20:41 | 08:30:00 | |
| 9A1FER-10 | 2026-08-30 11:24:45 | 45.82541 | 16.03536 | 19° | 9km/h | 2420m | 4.3m/s | 10.9°C | 26.2% | 0hPa | 3.0V | 00:00:00 | 00:20:36 | 08:30:00 | |
| 9A1FER-3 | 2026-08-30 11:24:35 | 45.82523 | 16.03519 | 77° | 9km/h | 2364m | 7.5m/s | 11.2°C | 27.3% | 0hPa | 3.0V | 00:00:00 | 00:20:26 | 00:00:00 | |
| 9A1FER-10 | 2026-08-30 11:24:30 | 45.82513 | 16.03503 | 51° | 11km/h | 2339m | 2.5m/s | 11.3°C | 29.1% | 0hPa | 3.0V | 00:00:00 | 00:20:21 | 00:00:00 | |
| 9A1FER-3 | 2026-08-30 11:24:20 | 45.82506 | 16.03477 | 72° | 11km/h | 2288m | 6.7m/s | 11.5°C | 34.5% | 0hPa | 3.0V | 00:00:00 | 00:20:11 | 00:00:00 | |
| 9A1FER-10 | 2026-08-30 11:24:15 | 45.82497 | 16.03452 | 80° | 9km/h | 2267m | 0.7m/s | 11.7°C | 35.5% | 0hPa | 3.0V | 00:00:00 | 00:20:06 | 00:00:00 | |
| 9A1FER-3 | 2026-08-30 11:24:05 | 45.82489 | 16.03424 | 82° | 16km/h | 2216m | 2.2m/s | 11.9°C | 39.8% | 0hPa | 3.0V | 00:00:00 | 00:19:56 | 00:00:00 | |
| 9A1FER-10 | 2026-08-30 11:24:00 | 45.82488 | 16.03402 | 95° | 20km/h | 2195m | 4.4m/s | 12.0°C | 43.3% | 0hPa | 3.0V | 00:00:00 | 00:19:51 | 00:00:00 | |
| 9A1FER-3 | 2026-08-30 11:23:50 | 45.82479 | 16.03332 | 85° | 20km/h | 2152m | 5.4m/s | 12.4°C | 40.5% | 0hPa | 3.0V | 00:00:00 | 00:19:41 | 00:00:00 | |
| 9A1FER-10 | 2026-08-30 11:23:45 | 45.82476 | 16.03295 | 73° | 20km/h | 2127m | 5.1m/s | 12.6°C | 40.6% | 0hPa | 3.0V | 00:00:00 | 00:19:36 | 00:00:00 | |
| 9A1FER-3 | 2026-08-30 11:23:35 | 45.82462 | 16.03224 | 89° | 18km/h | 2083m | 3.4m/s | 13.0°C | 38.6% | 0hPa | 3.0V | 00:00:00 | 00:19:26 | 00:00:00 | |
| 9A1FER-3 | 2026-08-30 11:23:20 | 45.82442 | 16.03127 | 94° | 11km/h | 2001m | 5.0m/s | 13.6°C | 39.1% | 0hPa | 3.0V | 00:00:00 | 00:19:11 | 00:00:00 | |
| 9A1FER-10 | 2026-08-30 11:23:15 | 45.82444 | 16.03113 | 132° | 11km/h | 1974m | 6.5m/s | 13.7°C | 40.4% | 0hPa | 3.0V | 00:00:00 | 00:19:06 | 00:00:00 | |
| 9A1FER-3 | 2026-08-30 11:23:05 | 45.82438 | 16.03073 | 75° | 11km/h | 1918m | 2.9m/s | 14.0°C | 43.8% | 0hPa | 3.0V | 00:00:00 | 00:18:56 | 00:00:00 | |
| 9A1FER-10 | 2026-08-30 11:23:00 | 45.82434 | 16.03057 | 44° | 11km/h | 1889m | 4.5m/s | 14.2°C | 43.7% | 0hPa | 3.0V | 00:00:00 | 00:18:51 | 00:00:00 | |
| 9A1FER-3 | 2026-08-30 11:22:50 | 45.82419 | 16.03024 | 77° | 9km/h | 1839m | 4.3m/s | 14.6°C | 45.8% | 0hPa | 3.0V | 00:00:00 | 00:18:41 | 00:00:00 | |
| 9A1FER-10 | 2026-08-30 11:22:45 | 45.82419 | 16.03008 | 101° | 9km/h | 1810m | 6.4m/s | 14.8°C | 49.1% | 0hPa | 3.0V | 00:00:00 | 00:18:36 | 00:00:00 | |
| 9A1FER-3 | 2026-08-30 11:22:35 | 45.82424 | 16.02982 | 97° | 9km/h | 1752m | 5.5m/s | 15.0°C | 48.2% | 0hPa | 3.0V | 00:00:00 | 00:18:26 | 08:30:00 | |
| 9A1FER-10 | 2026-08-30 11:22:30 | 45.82421 | 16.02964 | 60° | 9km/h | 1731m | 3.6m/s | 15.2°C | 46.7% | 0hPa | 3.0V | 00:00:00 | 00:18:21 | 08:30:00 | |
| 9A1FER-3 | 2026-08-30 11:22:20 | 45.82410 | 16.02940 | 80° | 9km/h | 1676m | 6.7m/s | 15.6°C | 45.4% | 0hPa | 3.0V | 00:00:00 | 00:18:11 | 00:00:00 | |
| 9A1FER-10 | 2026-08-30 11:22:15 | 45.82403 | 16.02933 | 86° | 9km/h | 1647m | 2.3m/s | 15.6°C | 46.7% | 0hPa | 3.0V | 00:00:00 | 00:18:06 | 00:00:00 | |
| 9A1FER-3 | 2026-08-30 11:22:05 | 45.82379 | 16.02929 | 21° | 7km/h | 1589m | 5.9m/s | 15.7°C | 51.5% | 0hPa | 3.0V | 00:00:00 | 00:17:56 | 00:00:00 | |
| 9A1FER-10 | 2026-08-30 11:22:00 | 45.82373 | 16.02925 | 319° | 11km/h | 1560m | 5.0m/s | 15.6°C | 60.3% | 0hPa | 3.0V | 00:00:00 | 00:17:51 | 00:00:00 | |
| 9A1FER-3 | 2026-08-30 11:21:50 | 45.82351 | 16.02937 | 341° | 9km/h | 1510m | 4.2m/s | 16.0°C | 59.8% | 0hPa | 3.0V | 00:00:00 | 00:17:41 | 00:00:00 | |
| 9A1FER-10 | 2026-08-30 11:21:45 | 45.82337 | 16.02945 | 334° | 9km/h | 1488m | 3.5m/s | 16.2°C | 61.5% | 0hPa | 3.0V | 00:00:00 | 00:17:36 | 00:00:00 | |
| 9A1FER-3 | 2026-08-30 11:21:35 | 45.82323 | 16.02957 | 11° | 13km/h | 1434m | 4.5m/s | 15.9°C | 76.7% | 0hPa | 3.0V | 00:00:00 | 00:17:26 | 00:00:00 | |
| 9A1FER-10 | 2026-08-30 11:21:30 | 45.82309 | 16.02956 | 359° | 11km/h | 1405m | 2.4m/s | 16.1°C | 77.1% | 0hPa | 3.0V | 00:00:00 | 00:17:21 | 00:00:00 | |
| 9A1FER-3 | 2026-08-30 11:21:20 | 45.82290 | 16.02975 | 299° | 7km/h | 1355m | 6.2m/s | 16.5°C | 74.5% | 0hPa | 3.0V | 00:00:00 | 00:17:11 | 00:00:00 | |
| 9A1FER-10 | 2026-08-30 11:21:15 | 45.82283 | 16.02986 | 278° | 7km/h | 1329m | 5.1m/s | 16.6°C | 74.4% | 0hPa | 3.0V | 00:00:00 | 00:17:06 | 00:00:00 | |
| 9A1FER-3 | 2026-08-30 11:21:05 | 45.82270 | 16.02984 | 319° | 9km/h | 1283m | 6.3m/s | 17.0°C | 74.3% | 0hPa | 3.0V | 00:00:00 | 00:16:56 | 00:00:00 | |
| 9A1FER-10 | 2026-08-30 11:21:00 | 45.82266 | 16.03004 | 284° | 7km/h | 1258m | 4.5m/s | 17.2°C | 73.1% | 0hPa | 3.0V | 00:00:00 | 00:16:51 | 00:00:00 | |
| 9A1FER-3 | 2026-08-30 11:20:50 | 45.82266 | 16.03027 | 236° | 5km/h | 1211m | 3.3m/s | 17.5°C | 73.9% | 0hPa | 3.0V | 00:00:00 | 00:16:41 | 00:00:00 | |
| 9A1FER-10 | 2026-08-30 11:20:45 | 45.82272 | 16.03038 | 228° | 5km/h | 1188m | 3.4m/s | 17.7°C | 74.5% | 0hPa | 3.0V | 00:00:00 | 00:16:36 | 00:00:00 | |
| 9A1FER-3 | 2026-08-30 11:20:35 | 45.82272 | 16.03043 | 236° | 7km/h | 1140m | 6.3m/s | 18.1°C | 72.7% | 0hPa | 3.0V | 00:00:00 | 00:16:26 | 00:00:00 | |
| 9A1FER-3 | 2026-08-30 11:20:20 | 45.82270 | 16.03061 | 43° | 9km/h | 1053m | 6.7m/s | 19.0°C | 69.8% | 0hPa | 3.0V | 00:00:00 | 00:16:11 | 08:30:00 | |
| 9A1FER-10 | 2026-08-30 11:20:15 | 45.82264 | 16.03060 | 344° | 9km/h | 1020m | 5.5m/s | 19.3°C | 68.6% | 0hPa | 3.0V | 00:00:00 | 00:16:06 | 08:30:00 | |
| 9A1FER-3 | 2026-08-30 11:20:05 | 45.82242 | 16.03088 | 335° | 7km/h | 960m | 2.6m/s | 19.9°C | 65.9% | 0hPa | 3.0V | 00:00:00 | 00:15:56 | 00:00:00 | |
| 9A1FER-10 | 2026-08-30 11:20:00 | 45.82238 | 16.03094 | 342° | 11km/h | 933m | 5.1m/s | 20.1°C | 65.2% | 0hPa | 3.0V | 00:00:00 | 00:15:51 | 00:00:00 | |
| 9A1FER-3 | 2026-08-30 11:19:50 | 45.82232 | 16.03127 | 285° | 13km/h | 879m | 6.2m/s | 20.7°C | 62.7% | 0hPa | 3.0V | 00:00:00 | 00:15:41 | 00:00:00 | |
| 9A1FER-10 | 2026-08-30 11:19:45 | 45.82227 | 16.03149 | 311° | 11km/h | 853m | 4.9m/s | 20.9°C | 62.5% | 0hPa | 3.0V | 00:00:00 | 00:15:36 | 00:00:00 | |
| 9A1FER-3 | 2026-08-30 11:19:35 | 45.82229 | 16.03189 | 246° | 13km/h | 807m | 5.3m/s | 21.3°C | 61.4% | 0hPa | 3.0V | 00:00:00 | 00:15:26 | 00:00:00 | |
| 9A1FER-10 | 2026-08-30 11:19:30 | 45.82232 | 16.03210 | 273° | 11km/h | 779m | 5.6m/s | 21.5°C | 60.9% | 0hPa | 3.0V | 00:00:00 | 00:15:21 | 00:00:00 | |
| 9A1FER-3 | 2026-08-30 11:19:20 | 45.82214 | 16.03243 | 341° | 9km/h | 717m | 7.8m/s | 0°C | 0% | 0hPa | 0V | 00:00:00 | 00:15:11 | 00:00:00 | |
| 9A1FER-10 | 2026-08-30 11:19:15 | 45.82207 | 16.03251 | 2° | 13km/h | 685m | 5.4m/s | 0°C | 0% | 0hPa | 0V | 00:00:00 | 00:15:06 | 00:00:00 | |
| 9A1FER-3 | 2026-08-30 11:19:05 | 45.82186 | 16.03275 | 326° | 13km/h | 611m | 7.5m/s | 0°C | 0% | 0hPa | 0V | 00:00:00 | 00:14:56 | 00:00:00 | |
| 9A1FER-10 | 2026-08-30 11:19:00 | 45.82170 | 16.03289 | 334° | 13km/h | 573m | 7.4m/s | 0°C | 0% | 0hPa | 0V | 00:00:00 | 00:14:51 | 00:00:00 | |
| 9A1FER-3 | 2026-08-30 11:18:50 | 45.82143 | 16.03304 | 332° | 13km/h | 509m | 8.5m/s | 0°C | 0% | 0hPa | 0V | 00:00:00 | 00:14:41 | 00:00:00 | |
| 9A1FER-10 | 2026-08-30 11:18:45 | 45.82131 | 16.03319 | 340° | 11km/h | 479m | 3.7m/s | 0°C | 0% | 0hPa | 0V | 00:00:00 | 00:14:36 | 00:00:00 | |
| 9A1FER-3 | 2026-08-30 11:18:35 | 45.82105 | 16.03334 | 347° | 7km/h | 423m | 5.7m/s | 0°C | 0% | 0hPa | 0V | 00:00:00 | 00:14:26 | 00:00:00 | |
| 9A1FER-10 | 2026-08-30 11:18:30 | 45.82096 | 16.03337 | 351° | 5km/h | 390m | 6.1m/s | 0°C | 0% | 0hPa | 0V | 00:00:00 | 00:14:21 | 00:00:00 | |
| 9A1FER-3 | 2026-08-30 11:18:20 | 45.82080 | 16.03343 | 336° | 5km/h | 328m | 5.5m/s | 0°C | 0% | 0hPa | 0V | 00:00:00 | 00:14:11 | 00:00:00 | |
| 9A1FER-10 | 2026-08-30 11:18:14 | 45.82078 | 16.03347 | 248° | 7km/h | 293m | 4.9m/s | 0°C | 0% | 0hPa | 0V | 00:00:00 | 00:14:05 | 00:00:00 | |
| 9A1FER-3 | 2026-08-30 11:18:05 | 45.82068 | 16.03357 | 291° | 9km/h | 247m | 5.9m/s | 0°C | 0% | 0hPa | 0V | 00:00:00 | 00:13:56 | 00:00:00 | |
| 9A1FER-10 | 2026-08-30 11:17:59 | 45.82063 | 16.03371 | 313° | 15km/h | 225m | 3.0m/s | 0°C | 0% | 0hPa | 0V | 00:00:00 | 00:13:50 | 00:00:00 |